<?xml version="1.0" encoding="UTF-8" standalone="no" ?>
<gpx xmlns="http://www.topografix.com/GPX/1/1" xmlns:xsi="http://www.w3.org/2001/XMLSchema-instance" xsi:schemaLocation="http://www.topografix.com/GPX/1/1 http://www.topografix.com/GPX/1/1/gpx.xsd" version="1.1" creator="VisuGPX - https://www.visugpx.com">
  <metadata>
    <name>Petite Routes du Soleil (projet)- Traversée des préalpes gravel Gravel - Projet</name>
    <desc><![CDATA[Projet de Traversée des Préalpes Gravel
Document de travail pour définir l'itinéraire]]></desc>
  </metadata>
  <trk>
    <name><![CDATA[PRDS Gravel Alpes maritimes]]></name>
    <extensions>
      <line xmlns="http://www.topografix.com/GPX/gpx_style/0/2">
        <color>0000ff</color>
        <opacity>1</opacity>
        <width>10</width>
      </line>
    </extensions>
    <trkseg>
      <trkpt lat="43.8703" lon="6.5773">
        <ele>1158</ele>
        <time>2024-09-30T13:17:51Z</time>
      </trkpt>
      <trkpt lat="43.87028" lon="6.5774">
        <ele>1159</ele>
        <time>2024-09-30T13:17:52Z</time>
      </trkpt>
      <trkpt lat="43.87031" lon="6.57743">
        <ele>1160</ele>
        <time>2024-09-30T13:17:53Z</time>
      </trkpt>
      <trkpt lat="43.87026" lon="6.57757">
        <ele>1161</ele>
        <time>2024-09-30T13:17:55Z</time>
      </trkpt>
      <trkpt lat="43.87016" lon="6.57784">
        <ele>1164</ele>
        <time>2024-09-30T13:17:59Z</time>
      </trkpt>
      <trkpt lat="43.87" lon="6.57815">
        <ele>1167</ele>
        <time>2024-09-30T13:18:04Z</time>
      </trkpt>
      <trkpt lat="43.86996" lon="6.5782">
        <ele>1168</ele>
        <time>2024-09-30T13:18:05Z</time>
      </trkpt>
      <trkpt lat="43.86998" lon="6.57822">
        <ele>1169</ele>
      </trkpt>
      <trkpt lat="43.87001" lon="6.57818">
        <ele>1168</ele>
        <time>2024-09-30T13:18:06Z</time>
      </trkpt>
      <trkpt lat="43.87003" lon="6.5782">
        <ele>1170</ele>
      </trkpt>
      <trkpt lat="43.86999" lon="6.57825">
        <ele>1170</ele>
        <time>2024-09-30T13:18:07Z</time>
      </trkpt>
      <trkpt lat="43.86998" lon="6.57829">
        <ele>1171</ele>
        <time>2024-09-30T13:18:08Z</time>
      </trkpt>
      <trkpt lat="43.86967" lon="6.57897">
        <ele>1169</ele>
        <time>2024-09-30T13:18:18Z</time>
      </trkpt>
      <trkpt lat="43.8696" lon="6.57946">
        <ele>1167</ele>
        <time>2024-09-30T13:18:25Z</time>
      </trkpt>
      <trkpt lat="43.86952" lon="6.57967">
        <ele>1167</ele>
        <time>2024-09-30T13:18:28Z</time>
      </trkpt>
      <trkpt lat="43.86954" lon="6.57968">
        <ele>1168</ele>
      </trkpt>
      <trkpt lat="43.86956" lon="6.57981">
        <ele>1168</ele>
        <time>2024-09-30T13:18:30Z</time>
      </trkpt>
      <trkpt lat="43.86947" lon="6.58037">
        <ele>1167</ele>
        <time>2024-09-30T13:18:37Z</time>
      </trkpt>
      <trkpt lat="43.86954" lon="6.58051">
        <ele>1170</ele>
        <time>2024-09-30T13:18:39Z</time>
      </trkpt>
      <trkpt lat="43.8696" lon="6.58066">
        <ele>1172</ele>
        <time>2024-09-30T13:18:41Z</time>
      </trkpt>
      <trkpt lat="43.8696" lon="6.58075">
        <ele>1172</ele>
        <time>2024-09-30T13:18:43Z</time>
      </trkpt>
      <trkpt lat="43.8694" lon="6.58116">
        <ele>1173</ele>
        <time>2024-09-30T13:18:49Z</time>
      </trkpt>
      <trkpt lat="43.86932" lon="6.58121">
        <ele>1172</ele>
        <time>2024-09-30T13:18:51Z</time>
      </trkpt>
      <trkpt lat="43.8693" lon="6.5813">
        <ele>1173</ele>
        <time>2024-09-30T13:18:52Z</time>
      </trkpt>
      <trkpt lat="43.86915" lon="6.58152">
        <ele>1174</ele>
        <time>2024-09-30T13:18:56Z</time>
      </trkpt>
      <trkpt lat="43.86879" lon="6.58191">
        <ele>1174</ele>
        <time>2024-09-30T13:19:04Z</time>
      </trkpt>
      <trkpt lat="43.86861" lon="6.58232">
        <ele>1176</ele>
        <time>2024-09-30T13:19:10Z</time>
      </trkpt>
      <trkpt lat="43.86855" lon="6.58252">
        <ele>1177</ele>
        <time>2024-09-30T13:19:13Z</time>
      </trkpt>
      <trkpt lat="43.86852" lon="6.58271">
        <ele>1178</ele>
        <time>2024-09-30T13:19:15Z</time>
      </trkpt>
      <trkpt lat="43.86855" lon="6.58317">
        <ele>1182</ele>
        <time>2024-09-30T13:19:21Z</time>
      </trkpt>
      <trkpt lat="43.86875" lon="6.58454">
        <ele>1188</ele>
        <time>2024-09-30T13:19:39Z</time>
      </trkpt>
      <trkpt lat="43.8689" lon="6.58608">
        <ele>1195</ele>
        <time>2024-09-30T13:19:59Z</time>
      </trkpt>
      <trkpt lat="43.86895" lon="6.58617">
        <ele>1196</ele>
        <time>2024-09-30T13:20:00Z</time>
      </trkpt>
      <trkpt lat="43.86915" lon="6.58638">
        <ele>1200</ele>
        <time>2024-09-30T13:20:05Z</time>
      </trkpt>
      <trkpt lat="43.86917" lon="6.58651">
        <ele>1200</ele>
        <time>2024-09-30T13:20:07Z</time>
      </trkpt>
      <trkpt lat="43.86908" lon="6.587">
        <ele>1201</ele>
        <time>2024-09-30T13:20:13Z</time>
      </trkpt>
      <trkpt lat="43.8688" lon="6.5877">
        <ele>1205</ele>
        <time>2024-09-30T13:20:23Z</time>
      </trkpt>
      <trkpt lat="43.86856" lon="6.58796">
        <ele>1205</ele>
        <time>2024-09-30T13:20:29Z</time>
      </trkpt>
      <trkpt lat="43.86845" lon="6.58819">
        <ele>1208</ele>
        <time>2024-09-30T13:20:32Z</time>
      </trkpt>
      <trkpt lat="43.8684" lon="6.58841">
        <ele>1209</ele>
        <time>2024-09-30T13:20:35Z</time>
      </trkpt>
      <trkpt lat="43.86845" lon="6.58913">
        <ele>1213</ele>
        <time>2024-09-30T13:20:45Z</time>
      </trkpt>
      <trkpt lat="43.86815" lon="6.5909">
        <ele>1224</ele>
        <time>2024-09-30T13:21:08Z</time>
      </trkpt>
      <trkpt lat="43.86816" lon="6.59138">
        <ele>1225</ele>
        <time>2024-09-30T13:21:14Z</time>
      </trkpt>
      <trkpt lat="43.8682" lon="6.59172">
        <ele>1225</ele>
        <time>2024-09-30T13:21:18Z</time>
      </trkpt>
      <trkpt lat="43.86821" lon="6.59184">
        <ele>1225</ele>
        <time>2024-09-30T13:21:20Z</time>
      </trkpt>
      <trkpt lat="43.86869" lon="6.59236">
        <ele>1231</ele>
        <time>2024-09-30T13:21:31Z</time>
      </trkpt>
      <trkpt lat="43.86875" lon="6.5925">
        <ele>1231</ele>
        <time>2024-09-30T13:21:33Z</time>
      </trkpt>
      <trkpt lat="43.86876" lon="6.59263">
        <ele>1232</ele>
        <time>2024-09-30T13:21:35Z</time>
      </trkpt>
      <trkpt lat="43.86842" lon="6.59322">
        <ele>1233</ele>
        <time>2024-09-30T13:21:44Z</time>
      </trkpt>
      <trkpt lat="43.86837" lon="6.59339">
        <ele>1234</ele>
        <time>2024-09-30T13:21:47Z</time>
      </trkpt>
      <trkpt lat="43.86819" lon="6.59399">
        <ele>1235</ele>
        <time>2024-09-30T13:21:55Z</time>
      </trkpt>
      <trkpt lat="43.86818" lon="6.59427">
        <ele>1236</ele>
        <time>2024-09-30T13:21:59Z</time>
      </trkpt>
      <trkpt lat="43.86876" lon="6.59584">
        <ele>1244</ele>
        <time>2024-09-30T13:22:21Z</time>
      </trkpt>
      <trkpt lat="43.86874" lon="6.59604">
        <ele>1245</ele>
        <time>2024-09-30T13:22:24Z</time>
      </trkpt>
      <trkpt lat="43.8686" lon="6.5962">
        <ele>1245</ele>
        <time>2024-09-30T13:22:27Z</time>
      </trkpt>
      <trkpt lat="43.86849" lon="6.59641">
        <ele>1245</ele>
        <time>2024-09-30T13:22:30Z</time>
      </trkpt>
      <trkpt lat="43.86841" lon="6.59702">
        <ele>1248</ele>
        <time>2024-09-30T13:22:38Z</time>
      </trkpt>
      <trkpt lat="43.86831" lon="6.59749">
        <ele>1251</ele>
        <time>2024-09-30T13:22:45Z</time>
      </trkpt>
      <trkpt lat="43.86804" lon="6.59847">
        <ele>1256</ele>
        <time>2024-09-30T13:22:58Z</time>
      </trkpt>
      <trkpt lat="43.86793" lon="6.59901">
        <ele>1257</ele>
        <time>2024-09-30T13:23:05Z</time>
      </trkpt>
      <trkpt lat="43.86788" lon="6.59931">
        <ele>1258</ele>
        <time>2024-09-30T13:23:09Z</time>
      </trkpt>
      <trkpt lat="43.86786" lon="6.59961">
        <ele>1258</ele>
        <time>2024-09-30T13:23:13Z</time>
      </trkpt>
      <trkpt lat="43.86792" lon="6.59978">
        <ele>1258</ele>
        <time>2024-09-30T13:23:15Z</time>
      </trkpt>
      <trkpt lat="43.86829" lon="6.60024">
        <ele>1261</ele>
        <time>2024-09-30T13:23:24Z</time>
      </trkpt>
      <trkpt lat="43.86834" lon="6.60043">
        <ele>1261</ele>
        <time>2024-09-30T13:23:27Z</time>
      </trkpt>
      <trkpt lat="43.86826" lon="6.60068">
        <ele>1261</ele>
        <time>2024-09-30T13:23:30Z</time>
      </trkpt>
      <trkpt lat="43.86814" lon="6.60088">
        <ele>1261</ele>
        <time>2024-09-30T13:23:34Z</time>
      </trkpt>
      <trkpt lat="43.86814" lon="6.60104">
        <ele>1261</ele>
        <time>2024-09-30T13:23:36Z</time>
      </trkpt>
      <trkpt lat="43.86821" lon="6.60121">
        <ele>1261</ele>
        <time>2024-09-30T13:23:38Z</time>
      </trkpt>
      <trkpt lat="43.86847" lon="6.60162">
        <ele>1263</ele>
        <time>2024-09-30T13:23:45Z</time>
      </trkpt>
      <trkpt lat="43.86851" lon="6.60178">
        <ele>1264</ele>
        <time>2024-09-30T13:23:48Z</time>
      </trkpt>
      <trkpt lat="43.86859" lon="6.60246">
        <ele>1267</ele>
        <time>2024-09-30T13:23:56Z</time>
      </trkpt>
      <trkpt lat="43.86877" lon="6.60336">
        <ele>1270</ele>
        <time>2024-09-30T13:24:08Z</time>
      </trkpt>
      <trkpt lat="43.86876" lon="6.60363">
        <ele>1269</ele>
        <time>2024-09-30T13:24:12Z</time>
      </trkpt>
      <trkpt lat="43.86872" lon="6.60386">
        <ele>1269</ele>
        <time>2024-09-30T13:24:15Z</time>
      </trkpt>
      <trkpt lat="43.86812" lon="6.6056">
        <ele>1275</ele>
        <time>2024-09-30T13:24:40Z</time>
      </trkpt>
      <trkpt lat="43.86805" lon="6.60579">
        <ele>1275</ele>
        <time>2024-09-30T13:24:42Z</time>
      </trkpt>
      <trkpt lat="43.868" lon="6.606">
        <ele>1275</ele>
        <time>2024-09-30T13:24:45Z</time>
      </trkpt>
      <trkpt lat="43.86796" lon="6.60627">
        <ele>1276</ele>
        <time>2024-09-30T13:24:49Z</time>
      </trkpt>
      <trkpt lat="43.8679" lon="6.60845">
        <ele>1288</ele>
        <time>2024-09-30T13:25:17Z</time>
      </trkpt>
      <trkpt lat="43.86783" lon="6.60951">
        <ele>1294</ele>
        <time>2024-09-30T13:25:30Z</time>
      </trkpt>
      <trkpt lat="43.86761" lon="6.61071">
        <ele>1300</ele>
        <time>2024-09-30T13:25:46Z</time>
      </trkpt>
      <trkpt lat="43.8676" lon="6.61088">
        <ele>1301</ele>
        <time>2024-09-30T13:25:48Z</time>
      </trkpt>
      <trkpt lat="43.86759" lon="6.61145">
        <ele>1302</ele>
        <time>2024-09-30T13:25:56Z</time>
      </trkpt>
      <trkpt lat="43.86758" lon="6.61175">
        <ele>1305</ele>
        <time>2024-09-30T13:26:00Z</time>
      </trkpt>
      <trkpt lat="43.8674" lon="6.61308">
        <ele>1307</ele>
        <time>2024-09-30T13:26:17Z</time>
      </trkpt>
      <trkpt lat="43.8674" lon="6.61341">
        <ele>1310</ele>
        <time>2024-09-30T13:26:21Z</time>
      </trkpt>
      <trkpt lat="43.86742" lon="6.61427">
        <ele>1315</ele>
        <time>2024-09-30T13:26:32Z</time>
      </trkpt>
      <trkpt lat="43.86736" lon="6.61481">
        <ele>1317</ele>
        <time>2024-09-30T13:26:39Z</time>
      </trkpt>
      <trkpt lat="43.86733" lon="6.61552">
        <ele>1319</ele>
        <time>2024-09-30T13:26:48Z</time>
      </trkpt>
      <trkpt lat="43.86734" lon="6.61603">
        <ele>1319</ele>
        <time>2024-09-30T13:26:55Z</time>
      </trkpt>
      <trkpt lat="43.86745" lon="6.61704">
        <ele>1320</ele>
        <time>2024-09-30T13:27:08Z</time>
      </trkpt>
      <trkpt lat="43.86753" lon="6.61745">
        <ele>1321</ele>
        <time>2024-09-30T13:27:13Z</time>
      </trkpt>
      <trkpt lat="43.86773" lon="6.61799">
        <ele>1323</ele>
        <time>2024-09-30T13:27:21Z</time>
      </trkpt>
      <trkpt lat="43.86787" lon="6.61887">
        <ele>1325</ele>
        <time>2024-09-30T13:27:33Z</time>
      </trkpt>
      <trkpt lat="43.8679" lon="6.61925">
        <ele>1326</ele>
        <time>2024-09-30T13:27:38Z</time>
      </trkpt>
      <trkpt lat="43.8679" lon="6.61952">
        <ele>1326</ele>
        <time>2024-09-30T13:27:41Z</time>
      </trkpt>
      <trkpt lat="43.86787" lon="6.61969">
        <ele>1326</ele>
        <time>2024-09-30T13:27:43Z</time>
      </trkpt>
      <trkpt lat="43.86744" lon="6.62091">
        <ele>1330</ele>
        <time>2024-09-30T13:28:01Z</time>
      </trkpt>
      <trkpt lat="43.8672" lon="6.62176">
        <ele>1332</ele>
        <time>2024-09-30T13:28:13Z</time>
      </trkpt>
      <trkpt lat="43.86692" lon="6.62287">
        <ele>1334</ele>
        <time>2024-09-30T13:28:28Z</time>
      </trkpt>
      <trkpt lat="43.8669" lon="6.62296">
        <ele>1334</ele>
        <time>2024-09-30T13:28:30Z</time>
      </trkpt>
      <trkpt lat="43.86693" lon="6.62298">
        <ele>1334</ele>
        <time>2024-09-30T13:28:29Z</time>
      </trkpt>
      <trkpt lat="43.8669" lon="6.62296">
        <ele>1334</ele>
        <time>2024-09-30T13:28:30Z</time>
      </trkpt>
      <trkpt lat="43.86605" lon="6.62612">
        <ele>1342</ele>
        <time>2024-09-30T13:29:13Z</time>
      </trkpt>
      <trkpt lat="43.86595" lon="6.62652">
        <ele>1343</ele>
        <time>2024-09-30T13:29:19Z</time>
      </trkpt>
      <trkpt lat="43.86585" lon="6.6271">
        <ele>1345</ele>
        <time>2024-09-30T13:29:26Z</time>
      </trkpt>
      <trkpt lat="43.86567" lon="6.62834">
        <ele>1349</ele>
        <time>2024-09-30T13:29:43Z</time>
      </trkpt>
      <trkpt lat="43.86516" lon="6.63127">
        <ele>1365</ele>
        <time>2024-09-30T13:30:21Z</time>
      </trkpt>
      <trkpt lat="43.86514" lon="6.63146">
        <ele>1365</ele>
        <time>2024-09-30T13:30:24Z</time>
      </trkpt>
      <trkpt lat="43.86513" lon="6.63179">
        <ele>1366</ele>
        <time>2024-09-30T13:30:28Z</time>
      </trkpt>
      <trkpt lat="43.86516" lon="6.63251">
        <ele>1359</ele>
        <time>2024-09-30T13:30:37Z</time>
      </trkpt>
      <trkpt lat="43.8652" lon="6.63284">
        <ele>1357</ele>
        <time>2024-09-30T13:30:41Z</time>
      </trkpt>
      <trkpt lat="43.86558" lon="6.63381">
        <ele>1356</ele>
        <time>2024-09-30T13:30:56Z</time>
      </trkpt>
      <trkpt lat="43.86575" lon="6.63467">
        <ele>1355</ele>
        <time>2024-09-30T13:31:07Z</time>
      </trkpt>
      <trkpt lat="43.86577" lon="6.63509">
        <ele>1353</ele>
        <time>2024-09-30T13:31:12Z</time>
      </trkpt>
      <trkpt lat="43.86576" lon="6.63586">
        <ele>1349</ele>
        <time>2024-09-30T13:31:22Z</time>
      </trkpt>
      <trkpt lat="43.86579" lon="6.63626">
        <ele>1348</ele>
        <time>2024-09-30T13:31:28Z</time>
      </trkpt>
      <trkpt lat="43.86577" lon="6.63674">
        <ele>1346</ele>
        <time>2024-09-30T13:31:34Z</time>
      </trkpt>
      <trkpt lat="43.86573" lon="6.63691">
        <ele>1344</ele>
        <time>2024-09-30T13:31:36Z</time>
      </trkpt>
      <trkpt lat="43.86543" lon="6.6375">
        <ele>1338</ele>
        <time>2024-09-30T13:31:45Z</time>
      </trkpt>
      <trkpt lat="43.86535" lon="6.63776">
        <ele>1337</ele>
        <time>2024-09-30T13:31:49Z</time>
      </trkpt>
      <trkpt lat="43.8652" lon="6.63812">
        <ele>1333</ele>
        <time>2024-09-30T13:31:54Z</time>
      </trkpt>
      <trkpt lat="43.8651" lon="6.63853">
        <ele>1329</ele>
        <time>2024-09-30T13:32:00Z</time>
      </trkpt>
      <trkpt lat="43.86505" lon="6.6389">
        <ele>1327</ele>
        <time>2024-09-30T13:32:05Z</time>
      </trkpt>
      <trkpt lat="43.86509" lon="6.63992">
        <ele>1322</ele>
        <time>2024-09-30T13:32:18Z</time>
      </trkpt>
      <trkpt lat="43.86504" lon="6.64034">
        <ele>1319</ele>
        <time>2024-09-30T13:32:23Z</time>
      </trkpt>
      <trkpt lat="43.86504" lon="6.64063">
        <ele>1319</ele>
        <time>2024-09-30T13:32:27Z</time>
      </trkpt>
      <trkpt lat="43.86497" lon="6.64089">
        <ele>1317</ele>
        <time>2024-09-30T13:32:30Z</time>
      </trkpt>
      <trkpt lat="43.86482" lon="6.64115">
        <ele>1315</ele>
        <time>2024-09-30T13:32:35Z</time>
      </trkpt>
      <trkpt lat="43.86475" lon="6.64133">
        <ele>1313</ele>
        <time>2024-09-30T13:32:37Z</time>
      </trkpt>
      <trkpt lat="43.8647" lon="6.64151">
        <ele>1312</ele>
        <time>2024-09-30T13:32:40Z</time>
      </trkpt>
      <trkpt lat="43.86466" lon="6.64176">
        <ele>1309</ele>
        <time>2024-09-30T13:32:43Z</time>
      </trkpt>
      <trkpt lat="43.86466" lon="6.64197">
        <ele>1308</ele>
        <time>2024-09-30T13:32:46Z</time>
      </trkpt>
      <trkpt lat="43.86479" lon="6.64251">
        <ele>1307</ele>
        <time>2024-09-30T13:32:53Z</time>
      </trkpt>
      <trkpt lat="43.86479" lon="6.64269">
        <ele>1308</ele>
        <time>2024-09-30T13:32:55Z</time>
      </trkpt>
      <trkpt lat="43.86469" lon="6.64318">
        <ele>1302</ele>
        <time>2024-09-30T13:33:02Z</time>
      </trkpt>
      <trkpt lat="43.86449" lon="6.64348">
        <ele>1299</ele>
        <time>2024-09-30T13:33:07Z</time>
      </trkpt>
      <trkpt lat="43.86436" lon="6.64371">
        <ele>1296</ele>
        <time>2024-09-30T13:33:11Z</time>
      </trkpt>
      <trkpt lat="43.86428" lon="6.64389">
        <ele>1294</ele>
        <time>2024-09-30T13:33:14Z</time>
      </trkpt>
      <trkpt lat="43.86424" lon="6.64403">
        <ele>1293</ele>
        <time>2024-09-30T13:33:16Z</time>
      </trkpt>
      <trkpt lat="43.86423" lon="6.64415">
        <ele>1291</ele>
        <time>2024-09-30T13:33:17Z</time>
      </trkpt>
      <trkpt lat="43.86424" lon="6.64452">
        <ele>1289</ele>
        <time>2024-09-30T13:33:22Z</time>
      </trkpt>
      <trkpt lat="43.86432" lon="6.64545">
        <ele>1286</ele>
        <time>2024-09-30T13:33:34Z</time>
      </trkpt>
      <trkpt lat="43.86434" lon="6.64565">
        <ele>1284</ele>
        <time>2024-09-30T13:33:36Z</time>
      </trkpt>
      <trkpt lat="43.86439" lon="6.64583">
        <ele>1284</ele>
        <time>2024-09-30T13:33:39Z</time>
      </trkpt>
      <trkpt lat="43.86437" lon="6.6459">
        <ele>1282</ele>
        <time>2024-09-30T13:33:40Z</time>
      </trkpt>
      <trkpt lat="43.86435" lon="6.64593">
        <ele>1281</ele>
      </trkpt>
      <trkpt lat="43.8643" lon="6.64593">
        <ele>1280</ele>
        <time>2024-09-30T13:33:41Z</time>
      </trkpt>
      <trkpt lat="43.86427" lon="6.6459">
        <ele>1279</ele>
        <time>2024-09-30T13:33:42Z</time>
      </trkpt>
      <trkpt lat="43.86425" lon="6.64584">
        <ele>1279</ele>
        <time>2024-09-30T13:33:43Z</time>
      </trkpt>
      <trkpt lat="43.86421" lon="6.64543">
        <ele>1280</ele>
        <time>2024-09-30T13:33:48Z</time>
      </trkpt>
      <trkpt lat="43.86409" lon="6.6448">
        <ele>1276</ele>
        <time>2024-09-30T13:33:56Z</time>
      </trkpt>
      <trkpt lat="43.86401" lon="6.64445">
        <ele>1274</ele>
        <time>2024-09-30T13:34:01Z</time>
      </trkpt>
      <trkpt lat="43.86398" lon="6.64421">
        <ele>1274</ele>
        <time>2024-09-30T13:34:04Z</time>
      </trkpt>
      <trkpt lat="43.86398" lon="6.64388">
        <ele>1272</ele>
        <time>2024-09-30T13:34:09Z</time>
      </trkpt>
      <trkpt lat="43.864" lon="6.64346">
        <ele>1269</ele>
        <time>2024-09-30T13:34:14Z</time>
      </trkpt>
      <trkpt lat="43.86404" lon="6.64331">
        <ele>1268</ele>
        <time>2024-09-30T13:34:16Z</time>
      </trkpt>
      <trkpt lat="43.86415" lon="6.64313">
        <ele>1269</ele>
        <time>2024-09-30T13:34:19Z</time>
      </trkpt>
      <trkpt lat="43.86417" lon="6.64305">
        <ele>1268</ele>
        <time>2024-09-30T13:34:20Z</time>
      </trkpt>
      <trkpt lat="43.86415" lon="6.64263">
        <ele>1264</ele>
        <time>2024-09-30T13:34:26Z</time>
      </trkpt>
      <trkpt lat="43.864" lon="6.64204">
        <ele>1261</ele>
        <time>2024-09-30T13:34:34Z</time>
      </trkpt>
      <trkpt lat="43.86388" lon="6.64184">
        <ele>1259</ele>
        <time>2024-09-30T13:34:37Z</time>
      </trkpt>
      <trkpt lat="43.86381" lon="6.64164">
        <ele>1259</ele>
        <time>2024-09-30T13:34:40Z</time>
      </trkpt>
      <trkpt lat="43.86378" lon="6.64138">
        <ele>1259</ele>
        <time>2024-09-30T13:34:43Z</time>
      </trkpt>
      <trkpt lat="43.86381" lon="6.64097">
        <ele>1259</ele>
        <time>2024-09-30T13:34:48Z</time>
      </trkpt>
      <trkpt lat="43.86379" lon="6.6409">
        <ele>1258</ele>
        <time>2024-09-30T13:34:49Z</time>
      </trkpt>
      <trkpt lat="43.86374" lon="6.64088">
        <ele>1256</ele>
        <time>2024-09-30T13:34:50Z</time>
      </trkpt>
      <trkpt lat="43.86369" lon="6.64094">
        <ele>1255</ele>
        <time>2024-09-30T13:34:51Z</time>
      </trkpt>
      <trkpt lat="43.86366" lon="6.64106">
        <ele>1254</ele>
        <time>2024-09-30T13:34:53Z</time>
      </trkpt>
      <trkpt lat="43.86366" lon="6.64121">
        <ele>1255</ele>
        <time>2024-09-30T13:34:55Z</time>
      </trkpt>
      <trkpt lat="43.86366" lon="6.64171">
        <ele>1252</ele>
        <time>2024-09-30T13:35:01Z</time>
      </trkpt>
      <trkpt lat="43.8637" lon="6.6419">
        <ele>1251</ele>
        <time>2024-09-30T13:35:04Z</time>
      </trkpt>
      <trkpt lat="43.86379" lon="6.64207">
        <ele>1251</ele>
        <time>2024-09-30T13:35:07Z</time>
      </trkpt>
      <trkpt lat="43.86383" lon="6.6422">
        <ele>1251</ele>
        <time>2024-09-30T13:35:08Z</time>
      </trkpt>
      <trkpt lat="43.8639" lon="6.6427">
        <ele>1249</ele>
        <time>2024-09-30T13:35:15Z</time>
      </trkpt>
      <trkpt lat="43.86388" lon="6.64279">
        <ele>1248</ele>
        <time>2024-09-30T13:35:16Z</time>
      </trkpt>
      <trkpt lat="43.86386" lon="6.64285">
        <ele>1248</ele>
        <time>2024-09-30T13:35:17Z</time>
      </trkpt>
      <trkpt lat="43.86377" lon="6.64292">
        <ele>1246</ele>
        <time>2024-09-30T13:35:19Z</time>
      </trkpt>
      <trkpt lat="43.8636" lon="6.64302">
        <ele>1244</ele>
        <time>2024-09-30T13:35:22Z</time>
      </trkpt>
      <trkpt lat="43.86354" lon="6.64311">
        <ele>1243</ele>
        <time>2024-09-30T13:35:24Z</time>
      </trkpt>
      <trkpt lat="43.86349" lon="6.64321">
        <ele>1242</ele>
        <time>2024-09-30T13:35:25Z</time>
      </trkpt>
      <trkpt lat="43.86337" lon="6.64394">
        <ele>1238</ele>
        <time>2024-09-30T13:35:35Z</time>
      </trkpt>
      <trkpt lat="43.86334" lon="6.64422">
        <ele>1237</ele>
        <time>2024-09-30T13:35:39Z</time>
      </trkpt>
      <trkpt lat="43.86328" lon="6.64513">
        <ele>1232</ele>
        <time>2024-09-30T13:35:50Z</time>
      </trkpt>
      <trkpt lat="43.86328" lon="6.64549">
        <ele>1229</ele>
        <time>2024-09-30T13:35:55Z</time>
      </trkpt>
      <trkpt lat="43.86329" lon="6.64583">
        <ele>1227</ele>
        <time>2024-09-30T13:35:59Z</time>
      </trkpt>
      <trkpt lat="43.86333" lon="6.64614">
        <ele>1225</ele>
        <time>2024-09-30T13:36:03Z</time>
      </trkpt>
      <trkpt lat="43.8634" lon="6.64641">
        <ele>1224</ele>
        <time>2024-09-30T13:36:07Z</time>
      </trkpt>
      <trkpt lat="43.86359" lon="6.64689">
        <ele>1223</ele>
        <time>2024-09-30T13:36:14Z</time>
      </trkpt>
      <trkpt lat="43.86371" lon="6.64709">
        <ele>1225</ele>
        <time>2024-09-30T13:36:17Z</time>
      </trkpt>
      <trkpt lat="43.86372" lon="6.64715">
        <ele>1224</ele>
        <time>2024-09-30T13:36:18Z</time>
      </trkpt>
      <trkpt lat="43.86371" lon="6.64721">
        <ele>1222</ele>
        <time>2024-09-30T13:36:19Z</time>
      </trkpt>
      <trkpt lat="43.86367" lon="6.64723">
        <ele>1219</ele>
        <time>2024-09-30T13:36:20Z</time>
      </trkpt>
      <trkpt lat="43.8636" lon="6.64718">
        <ele>1218</ele>
        <time>2024-09-30T13:36:21Z</time>
      </trkpt>
      <trkpt lat="43.86337" lon="6.64672">
        <ele>1218</ele>
        <time>2024-09-30T13:36:28Z</time>
      </trkpt>
      <trkpt lat="43.86308" lon="6.64633">
        <ele>1213</ele>
        <time>2024-09-30T13:36:35Z</time>
      </trkpt>
      <trkpt lat="43.86284" lon="6.64569">
        <ele>1207</ele>
        <time>2024-09-30T13:36:45Z</time>
      </trkpt>
      <trkpt lat="43.86272" lon="6.64534">
        <ele>1205</ele>
        <time>2024-09-30T13:36:50Z</time>
      </trkpt>
      <trkpt lat="43.86268" lon="6.64516">
        <ele>1203</ele>
        <time>2024-09-30T13:36:52Z</time>
      </trkpt>
      <trkpt lat="43.86267" lon="6.64493">
        <ele>1201</ele>
        <time>2024-09-30T13:36:55Z</time>
      </trkpt>
      <trkpt lat="43.86254" lon="6.64427">
        <ele>1197</ele>
        <time>2024-09-30T13:37:04Z</time>
      </trkpt>
      <trkpt lat="43.86254" lon="6.64398">
        <ele>1196</ele>
        <time>2024-09-30T13:37:08Z</time>
      </trkpt>
      <trkpt lat="43.86252" lon="6.64368">
        <ele>1195</ele>
        <time>2024-09-30T13:37:11Z</time>
      </trkpt>
      <trkpt lat="43.86242" lon="6.64315">
        <ele>1193</ele>
        <time>2024-09-30T13:37:18Z</time>
      </trkpt>
      <trkpt lat="43.86239" lon="6.64284">
        <ele>1191</ele>
        <time>2024-09-30T13:37:22Z</time>
      </trkpt>
      <trkpt lat="43.86235" lon="6.64267">
        <ele>1187</ele>
        <time>2024-09-30T13:37:25Z</time>
      </trkpt>
      <trkpt lat="43.86232" lon="6.64263">
        <ele>1185</ele>
      </trkpt>
      <trkpt lat="43.86227" lon="6.64262">
        <ele>1183</ele>
        <time>2024-09-30T13:37:26Z</time>
      </trkpt>
      <trkpt lat="43.86224" lon="6.64266">
        <ele>1182</ele>
        <time>2024-09-30T13:37:27Z</time>
      </trkpt>
      <trkpt lat="43.86222" lon="6.64273">
        <ele>1182</ele>
        <time>2024-09-30T13:37:28Z</time>
      </trkpt>
      <trkpt lat="43.86227" lon="6.6432">
        <ele>1184</ele>
        <time>2024-09-30T13:37:34Z</time>
      </trkpt>
      <trkpt lat="43.86226" lon="6.64385">
        <ele>1181</ele>
        <time>2024-09-30T13:37:43Z</time>
      </trkpt>
      <trkpt lat="43.86224" lon="6.64408">
        <ele>1180</ele>
        <time>2024-09-30T13:37:46Z</time>
      </trkpt>
      <trkpt lat="43.86184" lon="6.64615">
        <ele>1164</ele>
        <time>2024-09-30T13:38:13Z</time>
      </trkpt>
      <trkpt lat="43.86163" lon="6.64707">
        <ele>1160</ele>
        <time>2024-09-30T13:38:25Z</time>
      </trkpt>
      <trkpt lat="43.86155" lon="6.6473">
        <ele>1156</ele>
        <time>2024-09-30T13:38:29Z</time>
      </trkpt>
      <trkpt lat="43.86147" lon="6.64741">
        <ele>1154</ele>
        <time>2024-09-30T13:38:31Z</time>
      </trkpt>
      <trkpt lat="43.86137" lon="6.64751">
        <ele>1153</ele>
        <time>2024-09-30T13:38:33Z</time>
      </trkpt>
      <trkpt lat="43.86082" lon="6.64783">
        <ele>1145</ele>
        <time>2024-09-30T13:38:43Z</time>
      </trkpt>
      <trkpt lat="43.86064" lon="6.64799">
        <ele>1144</ele>
        <time>2024-09-30T13:38:47Z</time>
      </trkpt>
      <trkpt lat="43.86041" lon="6.64816">
        <ele>1142</ele>
        <time>2024-09-30T13:38:52Z</time>
      </trkpt>
      <trkpt lat="43.85913" lon="6.64883">
        <ele>1139</ele>
        <time>2024-09-30T13:39:16Z</time>
      </trkpt>
      <trkpt lat="43.859" lon="6.64897">
        <ele>1138</ele>
        <time>2024-09-30T13:39:19Z</time>
      </trkpt>
      <trkpt lat="43.85883" lon="6.64916">
        <ele>1138</ele>
        <time>2024-09-30T13:39:23Z</time>
      </trkpt>
      <trkpt lat="43.85855" lon="6.64944">
        <ele>1137</ele>
        <time>2024-09-30T13:39:29Z</time>
      </trkpt>
      <trkpt lat="43.85838" lon="6.64955">
        <ele>1136</ele>
        <time>2024-09-30T13:39:33Z</time>
      </trkpt>
      <trkpt lat="43.8583" lon="6.6495">
        <ele>1137</ele>
        <time>2024-09-30T13:39:34Z</time>
      </trkpt>
      <trkpt lat="43.85786" lon="6.64949">
        <ele>1137</ele>
        <time>2024-09-30T13:39:42Z</time>
      </trkpt>
      <trkpt lat="43.85781" lon="6.64948">
        <ele>1137</ele>
        <time>2024-09-30T13:39:43Z</time>
      </trkpt>
      <trkpt lat="43.85774" lon="6.64953">
        <ele>1137</ele>
        <time>2024-09-30T13:39:44Z</time>
      </trkpt>
      <trkpt lat="43.85774" lon="6.64956">
        <ele>1136</ele>
        <time>2024-09-30T13:39:45Z</time>
      </trkpt>
      <trkpt lat="43.85766" lon="6.64958">
        <ele>1136</ele>
        <time>2024-09-30T13:39:46Z</time>
      </trkpt>
      <trkpt lat="43.8576" lon="6.64961">
        <ele>1136</ele>
        <time>2024-09-30T13:39:47Z</time>
      </trkpt>
      <trkpt lat="43.85754" lon="6.64969">
        <ele>1135</ele>
        <time>2024-09-30T13:39:49Z</time>
      </trkpt>
      <trkpt lat="43.85745" lon="6.64975">
        <ele>1134</ele>
        <time>2024-09-30T13:39:50Z</time>
      </trkpt>
      <trkpt lat="43.85744" lon="6.64986">
        <ele>1133</ele>
        <time>2024-09-30T13:39:52Z</time>
      </trkpt>
      <trkpt lat="43.85748" lon="6.65001">
        <ele>1132</ele>
        <time>2024-09-30T13:39:54Z</time>
      </trkpt>
      <trkpt lat="43.85738" lon="6.65007">
        <ele>1132</ele>
        <time>2024-09-30T13:39:56Z</time>
      </trkpt>
      <trkpt lat="43.85732" lon="6.65009">
        <ele>1131</ele>
        <time>2024-09-30T13:39:57Z</time>
      </trkpt>
      <trkpt lat="43.85728" lon="6.65009">
        <ele>1131</ele>
        <time>2024-09-30T13:39:58Z</time>
      </trkpt>
      <trkpt lat="43.85715" lon="6.65012">
        <ele>1131</ele>
        <time>2024-09-30T13:40:00Z</time>
      </trkpt>
      <trkpt lat="43.85704" lon="6.65009">
        <ele>1131</ele>
        <time>2024-09-30T13:40:02Z</time>
      </trkpt>
      <trkpt lat="43.85704" lon="6.65016">
        <ele>1130</ele>
        <time>2024-09-30T13:40:03Z</time>
      </trkpt>
      <trkpt lat="43.8569" lon="6.65017">
        <ele>1129</ele>
        <time>2024-09-30T13:40:05Z</time>
      </trkpt>
      <trkpt lat="43.85681" lon="6.6502">
        <ele>1129</ele>
        <time>2024-09-30T13:40:07Z</time>
      </trkpt>
      <trkpt lat="43.8566" lon="6.65007">
        <ele>1129</ele>
        <time>2024-09-30T13:40:11Z</time>
      </trkpt>
      <trkpt lat="43.85646" lon="6.65002">
        <ele>1128</ele>
        <time>2024-09-30T13:40:14Z</time>
      </trkpt>
      <trkpt lat="43.8564" lon="6.6498">
        <ele>1129</ele>
        <time>2024-09-30T13:40:17Z</time>
      </trkpt>
      <trkpt lat="43.85625" lon="6.64985">
        <ele>1127</ele>
        <time>2024-09-30T13:40:19Z</time>
      </trkpt>
      <trkpt lat="43.85604" lon="6.64998">
        <ele>1125</ele>
        <time>2024-09-30T13:40:24Z</time>
      </trkpt>
      <trkpt lat="43.85557" lon="6.65029">
        <ele>1123</ele>
        <time>2024-09-30T13:40:33Z</time>
      </trkpt>
      <trkpt lat="43.85553" lon="6.65031">
        <ele>1123</ele>
        <time>2024-09-30T13:40:34Z</time>
      </trkpt>
      <trkpt lat="43.85535" lon="6.65044">
        <ele>1123</ele>
        <time>2024-09-30T13:40:37Z</time>
      </trkpt>
      <trkpt lat="43.85522" lon="6.65053">
        <ele>1122</ele>
        <time>2024-09-30T13:40:40Z</time>
      </trkpt>
      <trkpt lat="43.85501" lon="6.65064">
        <ele>1122</ele>
        <time>2024-09-30T13:40:44Z</time>
      </trkpt>
      <trkpt lat="43.8548" lon="6.65071">
        <ele>1121</ele>
        <time>2024-09-30T13:40:48Z</time>
      </trkpt>
      <trkpt lat="43.85477" lon="6.65064">
        <ele>1120</ele>
        <time>2024-09-30T13:40:49Z</time>
      </trkpt>
      <trkpt lat="43.85454" lon="6.65054">
        <ele>1119</ele>
        <time>2024-09-30T13:40:53Z</time>
      </trkpt>
      <trkpt lat="43.85419" lon="6.65029">
        <ele>1118</ele>
        <time>2024-09-30T13:41:00Z</time>
      </trkpt>
      <trkpt lat="43.85388" lon="6.65004">
        <ele>1117</ele>
        <time>2024-09-30T13:41:06Z</time>
      </trkpt>
      <trkpt lat="43.85373" lon="6.64982">
        <ele>1117</ele>
        <time>2024-09-30T13:41:10Z</time>
      </trkpt>
      <trkpt lat="43.85369" lon="6.64954">
        <ele>1116</ele>
        <time>2024-09-30T13:41:14Z</time>
      </trkpt>
      <trkpt lat="43.8537" lon="6.64935">
        <ele>1116</ele>
        <time>2024-09-30T13:41:16Z</time>
      </trkpt>
      <trkpt lat="43.85372" lon="6.64917">
        <ele>1116</ele>
        <time>2024-09-30T13:41:19Z</time>
      </trkpt>
      <trkpt lat="43.85377" lon="6.64896">
        <ele>1115</ele>
        <time>2024-09-30T13:41:22Z</time>
      </trkpt>
      <trkpt lat="43.85389" lon="6.64855">
        <ele>1114</ele>
        <time>2024-09-30T13:41:27Z</time>
      </trkpt>
      <trkpt lat="43.85394" lon="6.64824">
        <ele>1113</ele>
        <time>2024-09-30T13:41:31Z</time>
      </trkpt>
      <trkpt lat="43.85394" lon="6.64814">
        <ele>1113</ele>
        <time>2024-09-30T13:41:33Z</time>
      </trkpt>
      <trkpt lat="43.85387" lon="6.648">
        <ele>1113</ele>
        <time>2024-09-30T13:41:35Z</time>
      </trkpt>
      <trkpt lat="43.8535" lon="6.64762">
        <ele>1112</ele>
        <time>2024-09-30T13:41:43Z</time>
      </trkpt>
      <trkpt lat="43.85326" lon="6.64727">
        <ele>1111</ele>
        <time>2024-09-30T13:41:49Z</time>
      </trkpt>
      <trkpt lat="43.85271" lon="6.64667">
        <ele>1112</ele>
        <time>2024-09-30T13:42:02Z</time>
      </trkpt>
      <trkpt lat="43.85261" lon="6.64669">
        <ele>1113</ele>
        <time>2024-09-30T13:42:03Z</time>
      </trkpt>
      <trkpt lat="43.85239" lon="6.64675">
        <ele>1114</ele>
        <time>2024-09-30T13:42:07Z</time>
      </trkpt>
      <trkpt lat="43.85197" lon="6.6468">
        <ele>1115</ele>
        <time>2024-09-30T13:42:15Z</time>
      </trkpt>
      <trkpt lat="43.85181" lon="6.64675">
        <ele>1115</ele>
        <time>2024-09-30T13:42:18Z</time>
      </trkpt>
      <trkpt lat="43.85125" lon="6.64649">
        <ele>1114</ele>
        <time>2024-09-30T13:42:28Z</time>
      </trkpt>
      <trkpt lat="43.85105" lon="6.64644">
        <ele>1113</ele>
        <time>2024-09-30T13:42:32Z</time>
      </trkpt>
      <trkpt lat="43.85096" lon="6.64646">
        <ele>1112</ele>
        <time>2024-09-30T13:42:34Z</time>
      </trkpt>
      <trkpt lat="43.85081" lon="6.64657">
        <ele>1112</ele>
        <time>2024-09-30T13:42:37Z</time>
      </trkpt>
      <trkpt lat="43.85062" lon="6.64679">
        <ele>1111</ele>
        <time>2024-09-30T13:42:41Z</time>
      </trkpt>
      <trkpt lat="43.85047" lon="6.6469">
        <ele>1111</ele>
        <time>2024-09-30T13:42:44Z</time>
      </trkpt>
      <trkpt lat="43.85009" lon="6.64712">
        <ele>1111</ele>
        <time>2024-09-30T13:42:51Z</time>
      </trkpt>
      <trkpt lat="43.84996" lon="6.64725">
        <ele>1111</ele>
        <time>2024-09-30T13:42:54Z</time>
      </trkpt>
      <trkpt lat="43.84964" lon="6.64769">
        <ele>1108</ele>
        <time>2024-09-30T13:43:02Z</time>
      </trkpt>
      <trkpt lat="43.84942" lon="6.64791">
        <ele>1106</ele>
        <time>2024-09-30T13:43:07Z</time>
      </trkpt>
      <trkpt lat="43.84911" lon="6.64816">
        <ele>1104</ele>
        <time>2024-09-30T13:43:13Z</time>
      </trkpt>
      <trkpt lat="43.849" lon="6.64823">
        <ele>1103</ele>
        <time>2024-09-30T13:43:16Z</time>
      </trkpt>
      <trkpt lat="43.84881" lon="6.64827">
        <ele>1102</ele>
        <time>2024-09-30T13:43:19Z</time>
      </trkpt>
      <trkpt lat="43.84875" lon="6.64837">
        <ele>1102</ele>
        <time>2024-09-30T13:43:21Z</time>
      </trkpt>
      <trkpt lat="43.84853" lon="6.64938">
        <ele>1103</ele>
        <time>2024-09-30T13:43:34Z</time>
      </trkpt>
      <trkpt lat="43.84847" lon="6.64954">
        <ele>1103</ele>
        <time>2024-09-30T13:43:36Z</time>
      </trkpt>
      <trkpt lat="43.84835" lon="6.64972">
        <ele>1103</ele>
        <time>2024-09-30T13:43:40Z</time>
      </trkpt>
      <trkpt lat="43.84821" lon="6.64983">
        <ele>1103</ele>
        <time>2024-09-30T13:43:42Z</time>
      </trkpt>
      <trkpt lat="43.84781" lon="6.64993">
        <ele>1102</ele>
        <time>2024-09-30T13:43:50Z</time>
      </trkpt>
      <trkpt lat="43.84755" lon="6.64994">
        <ele>1102</ele>
        <time>2024-09-30T13:43:54Z</time>
      </trkpt>
      <trkpt lat="43.84741" lon="6.6499">
        <ele>1101</ele>
        <time>2024-09-30T13:43:57Z</time>
      </trkpt>
      <trkpt lat="43.84666" lon="6.64986">
        <ele>1100</ele>
        <time>2024-09-30T13:44:10Z</time>
      </trkpt>
      <trkpt lat="43.84645" lon="6.64985">
        <ele>1099</ele>
        <time>2024-09-30T13:44:14Z</time>
      </trkpt>
      <trkpt lat="43.84639" lon="6.64987">
        <ele>1099</ele>
        <time>2024-09-30T13:44:15Z</time>
      </trkpt>
      <trkpt lat="43.84614" lon="6.65009">
        <ele>1099</ele>
        <time>2024-09-30T13:44:20Z</time>
      </trkpt>
      <trkpt lat="43.84603" lon="6.65014">
        <ele>1098</ele>
        <time>2024-09-30T13:44:22Z</time>
      </trkpt>
      <trkpt lat="43.8459" lon="6.65019">
        <ele>1098</ele>
        <time>2024-09-30T13:44:25Z</time>
      </trkpt>
      <trkpt lat="43.84538" lon="6.65031">
        <ele>1097</ele>
        <time>2024-09-30T13:44:34Z</time>
      </trkpt>
      <trkpt lat="43.84522" lon="6.65028">
        <ele>1096</ele>
        <time>2024-09-30T13:44:37Z</time>
      </trkpt>
      <trkpt lat="43.84489" lon="6.6501">
        <ele>1096</ele>
        <time>2024-09-30T13:44:43Z</time>
      </trkpt>
      <trkpt lat="43.84454" lon="6.65002">
        <ele>1095</ele>
        <time>2024-09-30T13:44:50Z</time>
      </trkpt>
      <trkpt lat="43.84417" lon="6.64995">
        <ele>1094</ele>
        <time>2024-09-30T13:44:56Z</time>
      </trkpt>
      <trkpt lat="43.84411" lon="6.64997">
        <ele>1094</ele>
        <time>2024-09-30T13:44:57Z</time>
      </trkpt>
      <trkpt lat="43.84388" lon="6.65014">
        <ele>1094</ele>
        <time>2024-09-30T13:45:02Z</time>
      </trkpt>
      <trkpt lat="43.84378" lon="6.65017">
        <ele>1095</ele>
        <time>2024-09-30T13:45:04Z</time>
      </trkpt>
      <trkpt lat="43.84369" lon="6.65017">
        <ele>1095</ele>
        <time>2024-09-30T13:45:05Z</time>
      </trkpt>
      <trkpt lat="43.84354" lon="6.65009">
        <ele>1095</ele>
        <time>2024-09-30T13:45:08Z</time>
      </trkpt>
      <trkpt lat="43.84346" lon="6.65007">
        <ele>1095</ele>
        <time>2024-09-30T13:45:10Z</time>
      </trkpt>
      <trkpt lat="43.84338" lon="6.65009">
        <ele>1095</ele>
        <time>2024-09-30T13:45:11Z</time>
      </trkpt>
      <trkpt lat="43.8432" lon="6.6502">
        <ele>1096</ele>
        <time>2024-09-30T13:45:15Z</time>
      </trkpt>
      <trkpt lat="43.84308" lon="6.65034">
        <ele>1096</ele>
        <time>2024-09-30T13:45:18Z</time>
      </trkpt>
      <trkpt lat="43.84299" lon="6.65039">
        <ele>1096</ele>
        <time>2024-09-30T13:45:19Z</time>
      </trkpt>
      <trkpt lat="43.84297" lon="6.65115">
        <ele>1096</ele>
        <time>2024-09-30T13:45:29Z</time>
      </trkpt>
      <trkpt lat="43.84285" lon="6.65172">
        <ele>1096</ele>
        <time>2024-09-30T13:45:37Z</time>
      </trkpt>
      <trkpt lat="43.84275" lon="6.65201">
        <ele>1098</ele>
        <time>2024-09-30T13:45:41Z</time>
      </trkpt>
      <trkpt lat="43.84279" lon="6.65219">
        <ele>1097</ele>
        <time>2024-09-30T13:45:43Z</time>
      </trkpt>
      <trkpt lat="43.84276" lon="6.65238">
        <ele>1097</ele>
        <time>2024-09-30T13:45:46Z</time>
      </trkpt>
      <trkpt lat="43.84278" lon="6.65247">
        <ele>1098</ele>
        <time>2024-09-30T13:45:47Z</time>
      </trkpt>
      <trkpt lat="43.84305" lon="6.65368">
        <ele>1097</ele>
        <time>2024-09-30T13:46:03Z</time>
      </trkpt>
      <trkpt lat="43.84308" lon="6.65402">
        <ele>1097</ele>
        <time>2024-09-30T13:46:08Z</time>
      </trkpt>
      <trkpt lat="43.84308" lon="6.65434">
        <ele>1098</ele>
        <time>2024-09-30T13:46:12Z</time>
      </trkpt>
      <trkpt lat="43.84311" lon="6.65456">
        <ele>1097</ele>
        <time>2024-09-30T13:46:14Z</time>
      </trkpt>
      <trkpt lat="43.84314" lon="6.65465">
        <ele>1097</ele>
        <time>2024-09-30T13:46:16Z</time>
      </trkpt>
      <trkpt lat="43.84343" lon="6.65467">
        <ele>1093</ele>
        <time>2024-09-30T13:46:21Z</time>
      </trkpt>
      <trkpt lat="43.84353" lon="6.65474">
        <ele>1092</ele>
        <time>2024-09-30T13:46:23Z</time>
      </trkpt>
      <trkpt lat="43.84367" lon="6.65559">
        <ele>1091</ele>
        <time>2024-09-30T13:46:34Z</time>
      </trkpt>
      <trkpt lat="43.84365" lon="6.65578">
        <ele>1091</ele>
        <time>2024-09-30T13:46:37Z</time>
      </trkpt>
      <trkpt lat="43.84366" lon="6.65627">
        <ele>1091</ele>
        <time>2024-09-30T13:46:43Z</time>
      </trkpt>
      <trkpt lat="43.84369" lon="6.65668">
        <ele>1092</ele>
        <time>2024-09-30T13:46:48Z</time>
      </trkpt>
      <trkpt lat="43.84376" lon="6.65721">
        <ele>1092</ele>
        <time>2024-09-30T13:46:55Z</time>
      </trkpt>
      <trkpt lat="43.84378" lon="6.65754">
        <ele>1092</ele>
        <time>2024-09-30T13:46:59Z</time>
      </trkpt>
      <trkpt lat="43.84379" lon="6.65803">
        <ele>1092</ele>
        <time>2024-09-30T13:47:06Z</time>
      </trkpt>
      <trkpt lat="43.84374" lon="6.65851">
        <ele>1093</ele>
        <time>2024-09-30T13:47:12Z</time>
      </trkpt>
      <trkpt lat="43.84378" lon="6.65905">
        <ele>1093</ele>
        <time>2024-09-30T13:47:19Z</time>
      </trkpt>
      <trkpt lat="43.84376" lon="6.65953">
        <ele>1094</ele>
        <time>2024-09-30T13:47:25Z</time>
      </trkpt>
      <trkpt lat="43.84376" lon="6.66003">
        <ele>1093</ele>
        <time>2024-09-30T13:47:31Z</time>
      </trkpt>
      <trkpt lat="43.84387" lon="6.66035">
        <ele>1092</ele>
        <time>2024-09-30T13:47:36Z</time>
      </trkpt>
      <trkpt lat="43.84391" lon="6.6606">
        <ele>1091</ele>
        <time>2024-09-30T13:47:39Z</time>
      </trkpt>
      <trkpt lat="43.84402" lon="6.6609">
        <ele>1089</ele>
        <time>2024-09-30T13:47:44Z</time>
      </trkpt>
      <trkpt lat="43.84415" lon="6.66154">
        <ele>1089</ele>
        <time>2024-09-30T13:47:52Z</time>
      </trkpt>
      <trkpt lat="43.8442" lon="6.66158">
        <ele>1089</ele>
        <time>2024-09-30T13:47:53Z</time>
      </trkpt>
      <trkpt lat="43.84419" lon="6.6618">
        <ele>1089</ele>
        <time>2024-09-30T13:47:56Z</time>
      </trkpt>
      <trkpt lat="43.8442" lon="6.66297">
        <ele>1087</ele>
        <time>2024-09-30T13:48:11Z</time>
      </trkpt>
      <trkpt lat="43.84412" lon="6.66367">
        <ele>1088</ele>
        <time>2024-09-30T13:48:20Z</time>
      </trkpt>
      <trkpt lat="43.84391" lon="6.66503">
        <ele>1087</ele>
        <time>2024-09-30T13:48:38Z</time>
      </trkpt>
      <trkpt lat="43.84386" lon="6.6654">
        <ele>1087</ele>
        <time>2024-09-30T13:48:43Z</time>
      </trkpt>
      <trkpt lat="43.84369" lon="6.66638">
        <ele>1088</ele>
        <time>2024-09-30T13:48:56Z</time>
      </trkpt>
      <trkpt lat="43.8436" lon="6.66668">
        <ele>1090</ele>
        <time>2024-09-30T13:49:00Z</time>
      </trkpt>
      <trkpt lat="43.84329" lon="6.66762">
        <ele>1095</ele>
        <time>2024-09-30T13:49:13Z</time>
      </trkpt>
      <trkpt lat="43.84312" lon="6.66826">
        <ele>1099</ele>
        <time>2024-09-30T13:49:22Z</time>
      </trkpt>
      <trkpt lat="43.84305" lon="6.66868">
        <ele>1100</ele>
        <time>2024-09-30T13:49:27Z</time>
      </trkpt>
      <trkpt lat="43.84297" lon="6.66889">
        <ele>1099</ele>
        <time>2024-09-30T13:49:30Z</time>
      </trkpt>
      <trkpt lat="43.84284" lon="6.66906">
        <ele>1100</ele>
        <time>2024-09-30T13:49:34Z</time>
      </trkpt>
      <trkpt lat="43.84258" lon="6.66952">
        <ele>1101</ele>
        <time>2024-09-30T13:49:41Z</time>
      </trkpt>
      <trkpt lat="43.84247" lon="6.66985">
        <ele>1100</ele>
        <time>2024-09-30T13:49:46Z</time>
      </trkpt>
      <trkpt lat="43.84239" lon="6.67017">
        <ele>1098</ele>
        <time>2024-09-30T13:49:50Z</time>
      </trkpt>
      <trkpt lat="43.84232" lon="6.67031">
        <ele>1098</ele>
        <time>2024-09-30T13:49:52Z</time>
      </trkpt>
      <trkpt lat="43.84237" lon="6.67077">
        <ele>1094</ele>
        <time>2024-09-30T13:49:58Z</time>
      </trkpt>
      <trkpt lat="43.84236" lon="6.67085">
        <ele>1094</ele>
        <time>2024-09-30T13:49:59Z</time>
      </trkpt>
      <trkpt lat="43.84227" lon="6.67099">
        <ele>1094</ele>
        <time>2024-09-30T13:50:02Z</time>
      </trkpt>
      <trkpt lat="43.8422" lon="6.67115">
        <ele>1094</ele>
        <time>2024-09-30T13:50:04Z</time>
      </trkpt>
      <trkpt lat="43.84229" lon="6.67143">
        <ele>1093</ele>
        <time>2024-09-30T13:50:08Z</time>
      </trkpt>
      <trkpt lat="43.84234" lon="6.67169">
        <ele>1091</ele>
        <time>2024-09-30T13:50:12Z</time>
      </trkpt>
      <trkpt lat="43.84248" lon="6.67185">
        <ele>1089</ele>
        <time>2024-09-30T13:50:15Z</time>
      </trkpt>
      <trkpt lat="43.84302" lon="6.67217">
        <ele>1083</ele>
        <time>2024-09-30T13:50:25Z</time>
      </trkpt>
      <trkpt lat="43.84315" lon="6.67232">
        <ele>1081</ele>
        <time>2024-09-30T13:50:28Z</time>
      </trkpt>
      <trkpt lat="43.8433" lon="6.67242">
        <ele>1079</ele>
        <time>2024-09-30T13:50:31Z</time>
      </trkpt>
      <trkpt lat="43.84337" lon="6.67258">
        <ele>1078</ele>
        <time>2024-09-30T13:50:34Z</time>
      </trkpt>
      <trkpt lat="43.8435" lon="6.67263">
        <ele>1077</ele>
        <time>2024-09-30T13:50:36Z</time>
      </trkpt>
      <trkpt lat="43.8437" lon="6.67278">
        <ele>1075</ele>
        <time>2024-09-30T13:50:40Z</time>
      </trkpt>
      <trkpt lat="43.84378" lon="6.67299">
        <ele>1075</ele>
        <time>2024-09-30T13:50:43Z</time>
      </trkpt>
      <trkpt lat="43.84376" lon="6.67357">
        <ele>1075</ele>
        <time>2024-09-30T13:50:51Z</time>
      </trkpt>
      <trkpt lat="43.84366" lon="6.67364">
        <ele>1075</ele>
        <time>2024-09-30T13:50:52Z</time>
      </trkpt>
      <trkpt lat="43.84353" lon="6.67379">
        <ele>1075</ele>
        <time>2024-09-30T13:50:56Z</time>
      </trkpt>
      <trkpt lat="43.84344" lon="6.67395">
        <ele>1076</ele>
        <time>2024-09-30T13:50:58Z</time>
      </trkpt>
      <trkpt lat="43.84331" lon="6.67409">
        <ele>1076</ele>
        <time>2024-09-30T13:51:01Z</time>
      </trkpt>
      <trkpt lat="43.84325" lon="6.67421">
        <ele>1076</ele>
        <time>2024-09-30T13:51:03Z</time>
      </trkpt>
      <trkpt lat="43.84321" lon="6.67444">
        <ele>1076</ele>
        <time>2024-09-30T13:51:06Z</time>
      </trkpt>
      <trkpt lat="43.8432" lon="6.6746">
        <ele>1076</ele>
        <time>2024-09-30T13:51:08Z</time>
      </trkpt>
      <trkpt lat="43.84311" lon="6.67485">
        <ele>1077</ele>
        <time>2024-09-30T13:51:12Z</time>
      </trkpt>
      <trkpt lat="43.84306" lon="6.67528">
        <ele>1077</ele>
        <time>2024-09-30T13:51:17Z</time>
      </trkpt>
      <trkpt lat="43.84303" lon="6.67541">
        <ele>1077</ele>
        <time>2024-09-30T13:51:19Z</time>
      </trkpt>
      <trkpt lat="43.84284" lon="6.67591">
        <ele>1076</ele>
        <time>2024-09-30T13:51:26Z</time>
      </trkpt>
      <trkpt lat="43.84256" lon="6.67664">
        <ele>1075</ele>
        <time>2024-09-30T13:51:37Z</time>
      </trkpt>
      <trkpt lat="43.84252" lon="6.67685">
        <ele>1075</ele>
        <time>2024-09-30T13:51:40Z</time>
      </trkpt>
      <trkpt lat="43.8424" lon="6.67719">
        <ele>1075</ele>
        <time>2024-09-30T13:51:44Z</time>
      </trkpt>
      <trkpt lat="43.84218" lon="6.67748">
        <ele>1076</ele>
        <time>2024-09-30T13:51:50Z</time>
      </trkpt>
      <trkpt lat="43.84202" lon="6.67781">
        <ele>1076</ele>
        <time>2024-09-30T13:51:55Z</time>
      </trkpt>
      <trkpt lat="43.84192" lon="6.67822">
        <ele>1076</ele>
        <time>2024-09-30T13:52:01Z</time>
      </trkpt>
      <trkpt lat="43.84176" lon="6.67873">
        <ele>1075</ele>
        <time>2024-09-30T13:52:08Z</time>
      </trkpt>
      <trkpt lat="43.8417" lon="6.67876">
        <ele>1076</ele>
        <time>2024-09-30T13:52:09Z</time>
      </trkpt>
      <trkpt lat="43.84161" lon="6.67875">
        <ele>1076</ele>
        <time>2024-09-30T13:52:10Z</time>
      </trkpt>
      <trkpt lat="43.84154" lon="6.6788">
        <ele>1076</ele>
        <time>2024-09-30T13:52:12Z</time>
      </trkpt>
      <trkpt lat="43.84146" lon="6.67907">
        <ele>1076</ele>
        <time>2024-09-30T13:52:16Z</time>
      </trkpt>
      <trkpt lat="43.84133" lon="6.68003">
        <ele>1074</ele>
        <time>2024-09-30T13:52:28Z</time>
      </trkpt>
      <trkpt lat="43.84127" lon="6.68022">
        <ele>1074</ele>
        <time>2024-09-30T13:52:31Z</time>
      </trkpt>
      <trkpt lat="43.84115" lon="6.6804">
        <ele>1073</ele>
        <time>2024-09-30T13:52:34Z</time>
      </trkpt>
      <trkpt lat="43.84104" lon="6.68051">
        <ele>1073</ele>
        <time>2024-09-30T13:52:36Z</time>
      </trkpt>
      <trkpt lat="43.84092" lon="6.6806">
        <ele>1073</ele>
        <time>2024-09-30T13:52:39Z</time>
      </trkpt>
      <trkpt lat="43.84059" lon="6.68071">
        <ele>1074</ele>
        <time>2024-09-30T13:52:45Z</time>
      </trkpt>
      <trkpt lat="43.8404" lon="6.681">
        <ele>1075</ele>
        <time>2024-09-30T13:52:50Z</time>
      </trkpt>
      <trkpt lat="43.84032" lon="6.68127">
        <ele>1075</ele>
        <time>2024-09-30T13:52:54Z</time>
      </trkpt>
      <trkpt lat="43.84014" lon="6.68149">
        <ele>1076</ele>
        <time>2024-09-30T13:52:58Z</time>
      </trkpt>
      <trkpt lat="43.84006" lon="6.68172">
        <ele>1076</ele>
        <time>2024-09-30T13:53:01Z</time>
      </trkpt>
      <trkpt lat="43.83995" lon="6.68222">
        <ele>1073</ele>
        <time>2024-09-30T13:53:08Z</time>
      </trkpt>
      <trkpt lat="43.83971" lon="6.68294">
        <ele>1071</ele>
        <time>2024-09-30T13:53:18Z</time>
      </trkpt>
      <trkpt lat="43.83961" lon="6.68318">
        <ele>1070</ele>
        <time>2024-09-30T13:53:22Z</time>
      </trkpt>
      <trkpt lat="43.83965" lon="6.68324">
        <ele>1070</ele>
        <time>2024-09-30T13:53:23Z</time>
      </trkpt>
      <trkpt lat="43.8397" lon="6.68352">
        <ele>1070</ele>
        <time>2024-09-30T13:53:26Z</time>
      </trkpt>
      <trkpt lat="43.83969" lon="6.68359">
        <ele>1070</ele>
        <time>2024-09-30T13:53:27Z</time>
      </trkpt>
      <trkpt lat="43.83973" lon="6.68364">
        <ele>1070</ele>
        <time>2024-09-30T13:53:28Z</time>
      </trkpt>
      <trkpt lat="43.83987" lon="6.68372">
        <ele>1070</ele>
        <time>2024-09-30T13:53:31Z</time>
      </trkpt>
      <trkpt lat="43.84011" lon="6.68372">
        <ele>1070</ele>
        <time>2024-09-30T13:53:35Z</time>
      </trkpt>
      <trkpt lat="43.84052" lon="6.68376">
        <ele>1071</ele>
        <time>2024-09-30T13:53:42Z</time>
      </trkpt>
      <trkpt lat="43.84085" lon="6.68386">
        <ele>1074</ele>
        <time>2024-09-30T13:53:48Z</time>
      </trkpt>
      <trkpt lat="43.84093" lon="6.68395">
        <ele>1075</ele>
        <time>2024-09-30T13:53:50Z</time>
      </trkpt>
      <trkpt lat="43.84085" lon="6.68413">
        <ele>1075</ele>
        <time>2024-09-30T13:53:53Z</time>
      </trkpt>
      <trkpt lat="43.84049" lon="6.6849">
        <ele>1073</ele>
        <time>2024-09-30T13:54:05Z</time>
      </trkpt>
      <trkpt lat="43.84043" lon="6.68509">
        <ele>1073</ele>
        <time>2024-09-30T13:54:07Z</time>
      </trkpt>
      <trkpt lat="43.84014" lon="6.6865">
        <ele>1072</ele>
        <time>2024-09-30T13:54:26Z</time>
      </trkpt>
      <trkpt lat="43.84002" lon="6.68738">
        <ele>1072</ele>
        <time>2024-09-30T13:54:38Z</time>
      </trkpt>
      <trkpt lat="43.83989" lon="6.68788">
        <ele>1072</ele>
        <time>2024-09-30T13:54:45Z</time>
      </trkpt>
      <trkpt lat="43.83964" lon="6.68901">
        <ele>1071</ele>
        <time>2024-09-30T13:55:00Z</time>
      </trkpt>
      <trkpt lat="43.83952" lon="6.68938">
        <ele>1070</ele>
        <time>2024-09-30T13:55:05Z</time>
      </trkpt>
      <trkpt lat="43.83932" lon="6.68981">
        <ele>1069</ele>
        <time>2024-09-30T13:55:12Z</time>
      </trkpt>
      <trkpt lat="43.83923" lon="6.69009">
        <ele>1069</ele>
        <time>2024-09-30T13:55:15Z</time>
      </trkpt>
      <trkpt lat="43.83918" lon="6.69034">
        <ele>1068</ele>
        <time>2024-09-30T13:55:19Z</time>
      </trkpt>
      <trkpt lat="43.83907" lon="6.69111">
        <ele>1067</ele>
        <time>2024-09-30T13:55:29Z</time>
      </trkpt>
      <trkpt lat="43.83903" lon="6.69129">
        <ele>1067</ele>
        <time>2024-09-30T13:55:31Z</time>
      </trkpt>
      <trkpt lat="43.83888" lon="6.69168">
        <ele>1067</ele>
        <time>2024-09-30T13:55:37Z</time>
      </trkpt>
      <trkpt lat="43.83881" lon="6.69194">
        <ele>1068</ele>
        <time>2024-09-30T13:55:40Z</time>
      </trkpt>
      <trkpt lat="43.83879" lon="6.69211">
        <ele>1068</ele>
        <time>2024-09-30T13:55:43Z</time>
      </trkpt>
      <trkpt lat="43.83879" lon="6.69261">
        <ele>1069</ele>
        <time>2024-09-30T13:55:49Z</time>
      </trkpt>
      <trkpt lat="43.83876" lon="6.69308">
        <ele>1068</ele>
        <time>2024-09-30T13:55:55Z</time>
      </trkpt>
      <trkpt lat="43.83876" lon="6.69356">
        <ele>1069</ele>
        <time>2024-09-30T13:56:01Z</time>
      </trkpt>
      <trkpt lat="43.83875" lon="6.69369">
        <ele>1070</ele>
        <time>2024-09-30T13:56:03Z</time>
      </trkpt>
      <trkpt lat="43.8387" lon="6.6939">
        <ele>1069</ele>
        <time>2024-09-30T13:56:06Z</time>
      </trkpt>
      <trkpt lat="43.83856" lon="6.69424">
        <ele>1067</ele>
        <time>2024-09-30T13:56:11Z</time>
      </trkpt>
      <trkpt lat="43.8385" lon="6.69445">
        <ele>1067</ele>
        <time>2024-09-30T13:56:14Z</time>
      </trkpt>
      <trkpt lat="43.83833" lon="6.69527">
        <ele>1065</ele>
        <time>2024-09-30T13:56:26Z</time>
      </trkpt>
      <trkpt lat="43.83832" lon="6.69531">
        <ele>1066</ele>
        <time>2024-09-30T13:56:25Z</time>
      </trkpt>
      <trkpt lat="43.83833" lon="6.69527">
        <ele>1065</ele>
        <time>2024-09-30T13:56:26Z</time>
      </trkpt>
      <trkpt lat="43.83827" lon="6.69529">
        <ele>1065</ele>
        <time>2024-09-30T13:56:27Z</time>
      </trkpt>
      <trkpt lat="43.83813" lon="6.69543">
        <ele>1063</ele>
        <time>2024-09-30T13:56:30Z</time>
      </trkpt>
      <trkpt lat="43.83784" lon="6.69538">
        <ele>1058</ele>
        <time>2024-09-30T13:56:35Z</time>
      </trkpt>
      <trkpt lat="43.83768" lon="6.69543">
        <ele>1056</ele>
        <time>2024-09-30T13:56:38Z</time>
      </trkpt>
      <trkpt lat="43.8376" lon="6.69549">
        <ele>1055</ele>
        <time>2024-09-30T13:56:40Z</time>
      </trkpt>
      <trkpt lat="43.83762" lon="6.69563">
        <ele>1056</ele>
        <time>2024-09-30T13:56:42Z</time>
      </trkpt>
      <trkpt lat="43.83762" lon="6.69597">
        <ele>1056</ele>
        <time>2024-09-30T13:56:46Z</time>
      </trkpt>
      <trkpt lat="43.83761" lon="6.69636">
        <ele>1054</ele>
        <time>2024-09-30T13:56:51Z</time>
      </trkpt>
      <trkpt lat="43.83763" lon="6.69669">
        <ele>1053</ele>
        <time>2024-09-30T13:56:55Z</time>
      </trkpt>
      <trkpt lat="43.83773" lon="6.69721">
        <ele>1053</ele>
        <time>2024-09-30T13:57:02Z</time>
      </trkpt>
      <trkpt lat="43.83779" lon="6.69763">
        <ele>1054</ele>
        <time>2024-09-30T13:57:08Z</time>
      </trkpt>
      <trkpt lat="43.83779" lon="6.69811">
        <ele>1055</ele>
        <time>2024-09-30T13:57:14Z</time>
      </trkpt>
      <trkpt lat="43.83776" lon="6.69831">
        <ele>1054</ele>
        <time>2024-09-30T13:57:16Z</time>
      </trkpt>
      <trkpt lat="43.83747" lon="6.69921">
        <ele>1052</ele>
        <time>2024-09-30T13:57:29Z</time>
      </trkpt>
      <trkpt lat="43.83734" lon="6.6998">
        <ele>1052</ele>
        <time>2024-09-30T13:57:37Z</time>
      </trkpt>
      <trkpt lat="43.83735" lon="6.69991">
        <ele>1052</ele>
        <time>2024-09-30T13:57:38Z</time>
      </trkpt>
      <trkpt lat="43.8373" lon="6.7009">
        <ele>1052</ele>
        <time>2024-09-30T13:57:51Z</time>
      </trkpt>
      <trkpt lat="43.8373" lon="6.70153">
        <ele>1052</ele>
        <time>2024-09-30T13:57:59Z</time>
      </trkpt>
      <trkpt lat="43.83731" lon="6.70186">
        <ele>1052</ele>
        <time>2024-09-30T13:58:03Z</time>
      </trkpt>
      <trkpt lat="43.8373" lon="6.7023">
        <ele>1052</ele>
        <time>2024-09-30T13:58:09Z</time>
      </trkpt>
      <trkpt lat="43.8374" lon="6.70285">
        <ele>1052</ele>
        <time>2024-09-30T13:58:16Z</time>
      </trkpt>
      <trkpt lat="43.83755" lon="6.70342">
        <ele>1052</ele>
        <time>2024-09-30T13:58:24Z</time>
      </trkpt>
      <trkpt lat="43.8379" lon="6.70428">
        <ele>1053</ele>
        <time>2024-09-30T13:58:37Z</time>
      </trkpt>
      <trkpt lat="43.83804" lon="6.70487">
        <ele>1052</ele>
        <time>2024-09-30T13:58:45Z</time>
      </trkpt>
      <trkpt lat="43.83814" lon="6.70547">
        <ele>1052</ele>
        <time>2024-09-30T13:58:53Z</time>
      </trkpt>
      <trkpt lat="43.83831" lon="6.7059">
        <ele>1052</ele>
        <time>2024-09-30T13:58:59Z</time>
      </trkpt>
      <trkpt lat="43.83848" lon="6.70644">
        <ele>1053</ele>
        <time>2024-09-30T13:59:07Z</time>
      </trkpt>
      <trkpt lat="43.83861" lon="6.70718">
        <ele>1052</ele>
        <time>2024-09-30T13:59:16Z</time>
      </trkpt>
      <trkpt lat="43.83872" lon="6.70765">
        <ele>1051</ele>
        <time>2024-09-30T13:59:23Z</time>
      </trkpt>
      <trkpt lat="43.83893" lon="6.70846">
        <ele>1052</ele>
        <time>2024-09-30T13:59:34Z</time>
      </trkpt>
      <trkpt lat="43.8391" lon="6.70903">
        <ele>1051</ele>
        <time>2024-09-30T13:59:42Z</time>
      </trkpt>
      <trkpt lat="43.83916" lon="6.7094">
        <ele>1051</ele>
        <time>2024-09-30T13:59:46Z</time>
      </trkpt>
      <trkpt lat="43.83919" lon="6.70962">
        <ele>1051</ele>
        <time>2024-09-30T13:59:49Z</time>
      </trkpt>
      <trkpt lat="43.83922" lon="6.70978">
        <ele>1051</ele>
        <time>2024-09-30T13:59:51Z</time>
      </trkpt>
      <trkpt lat="43.83933" lon="6.70998">
        <ele>1051</ele>
        <time>2024-09-30T13:59:55Z</time>
      </trkpt>
      <trkpt lat="43.83936" lon="6.71011">
        <ele>1051</ele>
        <time>2024-09-30T13:59:56Z</time>
      </trkpt>
      <trkpt lat="43.83934" lon="6.7103">
        <ele>1050</ele>
        <time>2024-09-30T13:59:59Z</time>
      </trkpt>
      <trkpt lat="43.83924" lon="6.71066">
        <ele>1049</ele>
        <time>2024-09-30T14:00:04Z</time>
      </trkpt>
      <trkpt lat="43.83927" lon="6.71071">
        <ele>1049</ele>
        <time>2024-09-30T14:00:05Z</time>
      </trkpt>
      <trkpt lat="43.83926" lon="6.71085">
        <ele>1048</ele>
        <time>2024-09-30T14:00:07Z</time>
      </trkpt>
      <trkpt lat="43.83919" lon="6.71109">
        <ele>1047</ele>
        <time>2024-09-30T14:00:10Z</time>
      </trkpt>
      <trkpt lat="43.83919" lon="6.71122">
        <ele>1046</ele>
        <time>2024-09-30T14:00:11Z</time>
      </trkpt>
      <trkpt lat="43.83923" lon="6.71133">
        <ele>1046</ele>
        <time>2024-09-30T14:00:13Z</time>
      </trkpt>
      <trkpt lat="43.83945" lon="6.71154">
        <ele>1045</ele>
        <time>2024-09-30T14:00:18Z</time>
      </trkpt>
      <trkpt lat="43.83953" lon="6.71162">
        <ele>1044</ele>
        <time>2024-09-30T14:00:20Z</time>
      </trkpt>
      <trkpt lat="43.83968" lon="6.71155">
        <ele>1045</ele>
        <time>2024-09-30T14:00:22Z</time>
      </trkpt>
      <trkpt lat="43.8398" lon="6.71152">
        <ele>1045</ele>
        <time>2024-09-30T14:00:25Z</time>
      </trkpt>
      <trkpt lat="43.84003" lon="6.71158">
        <ele>1046</ele>
        <time>2024-09-30T14:00:29Z</time>
      </trkpt>
      <trkpt lat="43.84031" lon="6.71186">
        <ele>1044</ele>
        <time>2024-09-30T14:00:35Z</time>
      </trkpt>
      <trkpt lat="43.84056" lon="6.71215">
        <ele>1043</ele>
        <time>2024-09-30T14:00:41Z</time>
      </trkpt>
      <trkpt lat="43.84101" lon="6.71271">
        <ele>1042</ele>
        <time>2024-09-30T14:00:51Z</time>
      </trkpt>
      <trkpt lat="43.84127" lon="6.71328">
        <ele>1041</ele>
        <time>2024-09-30T14:01:00Z</time>
      </trkpt>
      <trkpt lat="43.84146" lon="6.71382">
        <ele>1040</ele>
        <time>2024-09-30T14:01:08Z</time>
      </trkpt>
      <trkpt lat="43.84159" lon="6.71426">
        <ele>1041</ele>
        <time>2024-09-30T14:01:14Z</time>
      </trkpt>
      <trkpt lat="43.84165" lon="6.71458">
        <ele>1041</ele>
        <time>2024-09-30T14:01:18Z</time>
      </trkpt>
      <trkpt lat="43.84168" lon="6.71525">
        <ele>1039</ele>
        <time>2024-09-30T14:01:27Z</time>
      </trkpt>
      <trkpt lat="43.84176" lon="6.71592">
        <ele>1038</ele>
        <time>2024-09-30T14:01:35Z</time>
      </trkpt>
      <trkpt lat="43.84194" lon="6.71667">
        <ele>1037</ele>
        <time>2024-09-30T14:01:46Z</time>
      </trkpt>
      <trkpt lat="43.84212" lon="6.71712">
        <ele>1036</ele>
        <time>2024-09-30T14:01:52Z</time>
      </trkpt>
      <trkpt lat="43.84224" lon="6.71752">
        <ele>1036</ele>
        <time>2024-09-30T14:01:58Z</time>
      </trkpt>
      <trkpt lat="43.84233" lon="6.71814">
        <ele>1034</ele>
        <time>2024-09-30T14:02:06Z</time>
      </trkpt>
      <trkpt lat="43.84238" lon="6.71828">
        <ele>1034</ele>
        <time>2024-09-30T14:02:08Z</time>
      </trkpt>
      <trkpt lat="43.84267" lon="6.71852">
        <ele>1034</ele>
        <time>2024-09-30T14:02:14Z</time>
      </trkpt>
      <trkpt lat="43.84279" lon="6.71878">
        <ele>1034</ele>
        <time>2024-09-30T14:02:18Z</time>
      </trkpt>
      <trkpt lat="43.84279" lon="6.71895">
        <ele>1033</ele>
        <time>2024-09-30T14:02:20Z</time>
      </trkpt>
      <trkpt lat="43.84271" lon="6.71927">
        <ele>1032</ele>
        <time>2024-09-30T14:02:24Z</time>
      </trkpt>
      <trkpt lat="43.84256" lon="6.7194">
        <ele>1032</ele>
        <time>2024-09-30T14:02:28Z</time>
      </trkpt>
      <trkpt lat="43.84254" lon="6.71955">
        <ele>1031</ele>
        <time>2024-09-30T14:02:30Z</time>
      </trkpt>
      <trkpt lat="43.84256" lon="6.71974">
        <ele>1031</ele>
        <time>2024-09-30T14:02:32Z</time>
      </trkpt>
      <trkpt lat="43.8426" lon="6.71983">
        <ele>1031</ele>
        <time>2024-09-30T14:02:33Z</time>
      </trkpt>
      <trkpt lat="43.8427" lon="6.71995">
        <ele>1031</ele>
        <time>2024-09-30T14:02:36Z</time>
      </trkpt>
      <trkpt lat="43.8428" lon="6.72046">
        <ele>1031</ele>
        <time>2024-09-30T14:02:42Z</time>
      </trkpt>
      <trkpt lat="43.84284" lon="6.72063">
        <ele>1031</ele>
        <time>2024-09-30T14:02:45Z</time>
      </trkpt>
      <trkpt lat="43.84283" lon="6.72071">
        <ele>1031</ele>
        <time>2024-09-30T14:02:46Z</time>
      </trkpt>
      <trkpt lat="43.84285" lon="6.72085">
        <ele>1031</ele>
        <time>2024-09-30T14:02:48Z</time>
      </trkpt>
      <trkpt lat="43.84292" lon="6.72128">
        <ele>1031</ele>
        <time>2024-09-30T14:02:53Z</time>
      </trkpt>
      <trkpt lat="43.84297" lon="6.72148">
        <ele>1030</ele>
        <time>2024-09-30T14:02:56Z</time>
      </trkpt>
      <trkpt lat="43.84318" lon="6.722">
        <ele>1030</ele>
        <time>2024-09-30T14:03:04Z</time>
      </trkpt>
      <trkpt lat="43.84347" lon="6.72325">
        <ele>1029</ele>
        <time>2024-09-30T14:03:21Z</time>
      </trkpt>
      <trkpt lat="43.84366" lon="6.72391">
        <ele>1028</ele>
        <time>2024-09-30T14:03:30Z</time>
      </trkpt>
      <trkpt lat="43.84379" lon="6.72426">
        <ele>1029</ele>
        <time>2024-09-30T14:03:35Z</time>
      </trkpt>
      <trkpt lat="43.84395" lon="6.72467">
        <ele>1030</ele>
        <time>2024-09-30T14:03:41Z</time>
      </trkpt>
      <trkpt lat="43.84485" lon="6.7263">
        <ele>1027</ele>
        <time>2024-09-30T14:04:07Z</time>
      </trkpt>
      <trkpt lat="43.84493" lon="6.72643">
        <ele>1027</ele>
        <time>2024-09-30T14:04:09Z</time>
      </trkpt>
      <trkpt lat="43.8453" lon="6.72688">
        <ele>1027</ele>
        <time>2024-09-30T14:04:18Z</time>
      </trkpt>
      <trkpt lat="43.84546" lon="6.72728">
        <ele>1027</ele>
        <time>2024-09-30T14:04:24Z</time>
      </trkpt>
      <trkpt lat="43.84567" lon="6.7277">
        <ele>1026</ele>
        <time>2024-09-30T14:04:30Z</time>
      </trkpt>
      <trkpt lat="43.84579" lon="6.72822">
        <ele>1025</ele>
        <time>2024-09-30T14:05:08Z</time>
      </trkpt>
      <trkpt lat="43.8462" lon="6.72784">
        <ele>1030</ele>
        <time>2024-09-30T14:04:59Z</time>
      </trkpt>
      <trkpt lat="43.84641" lon="6.72782">
        <ele>1031</ele>
        <time>2024-09-30T14:04:55Z</time>
      </trkpt>
      <trkpt lat="43.84655" lon="6.72786">
        <ele>1032</ele>
        <time>2024-09-30T14:04:52Z</time>
      </trkpt>
      <trkpt lat="43.84641" lon="6.72782">
        <ele>1031</ele>
        <time>2024-09-30T14:04:55Z</time>
      </trkpt>
      <trkpt lat="43.8462" lon="6.72784">
        <ele>1030</ele>
        <time>2024-09-30T14:04:59Z</time>
      </trkpt>
      <trkpt lat="43.84579" lon="6.72822">
        <ele>1025</ele>
        <time>2024-09-30T14:05:08Z</time>
      </trkpt>
      <trkpt lat="43.84491" lon="6.72916">
        <ele>1021</ele>
        <time>2024-09-30T14:05:27Z</time>
      </trkpt>
      <trkpt lat="43.84484" lon="6.72926">
        <ele>1021</ele>
        <time>2024-09-30T14:05:29Z</time>
      </trkpt>
      <trkpt lat="43.84454" lon="6.72986">
        <ele>1021</ele>
        <time>2024-09-30T14:05:38Z</time>
      </trkpt>
      <trkpt lat="43.84446" lon="6.73002">
        <ele>1021</ele>
        <time>2024-09-30T14:05:41Z</time>
      </trkpt>
      <trkpt lat="43.84443" lon="6.73008">
        <ele>1022</ele>
        <time>2024-09-30T14:05:42Z</time>
      </trkpt>
      <trkpt lat="43.8444" lon="6.73032">
        <ele>1025</ele>
        <time>2024-09-30T14:05:45Z</time>
      </trkpt>
      <trkpt lat="43.84441" lon="6.73044">
        <ele>1026</ele>
        <time>2024-09-30T14:05:47Z</time>
      </trkpt>
      <trkpt lat="43.84447" lon="6.73069">
        <ele>1026</ele>
        <time>2024-09-30T14:05:50Z</time>
      </trkpt>
      <trkpt lat="43.84467" lon="6.73128">
        <ele>1027</ele>
        <time>2024-09-30T14:05:58Z</time>
      </trkpt>
      <trkpt lat="43.84471" lon="6.73149">
        <ele>1027</ele>
        <time>2024-09-30T14:06:01Z</time>
      </trkpt>
      <trkpt lat="43.84476" lon="6.73255">
        <ele>1032</ele>
        <time>2024-09-30T14:06:15Z</time>
      </trkpt>
      <trkpt lat="43.84478" lon="6.73284">
        <ele>1034</ele>
        <time>2024-09-30T14:06:18Z</time>
      </trkpt>
      <trkpt lat="43.84423" lon="6.73129">
        <ele>1036</ele>
        <time>2024-09-30T14:06:41Z</time>
      </trkpt>
      <trkpt lat="43.84402" lon="6.73085">
        <ele>1037</ele>
        <time>2024-09-30T14:06:47Z</time>
      </trkpt>
      <trkpt lat="43.84389" lon="6.73065">
        <ele>1038</ele>
        <time>2024-09-30T14:06:51Z</time>
      </trkpt>
      <trkpt lat="43.84382" lon="6.73064">
        <ele>1039</ele>
        <time>2024-09-30T14:06:52Z</time>
      </trkpt>
      <trkpt lat="43.84378" lon="6.73068">
        <ele>1039</ele>
        <time>2024-09-30T14:06:53Z</time>
      </trkpt>
      <trkpt lat="43.84374" lon="6.73075">
        <ele>1040</ele>
        <time>2024-09-30T14:06:54Z</time>
      </trkpt>
      <trkpt lat="43.8437" lon="6.73087">
        <ele>1041</ele>
        <time>2024-09-30T14:06:56Z</time>
      </trkpt>
      <trkpt lat="43.84372" lon="6.73103">
        <ele>1041</ele>
        <time>2024-09-30T14:06:58Z</time>
      </trkpt>
      <trkpt lat="43.84362" lon="6.73199">
        <ele>1048</ele>
        <time>2024-09-30T14:07:10Z</time>
      </trkpt>
      <trkpt lat="43.84361" lon="6.73212">
        <ele>1049</ele>
        <time>2024-09-30T14:07:12Z</time>
      </trkpt>
      <trkpt lat="43.84355" lon="6.73286">
        <ele>1053</ele>
        <time>2024-09-30T14:07:22Z</time>
      </trkpt>
      <trkpt lat="43.84322" lon="6.73544">
        <ele>1064</ele>
        <time>2024-09-30T14:07:55Z</time>
      </trkpt>
      <trkpt lat="43.8425" lon="6.73663">
        <ele>1068</ele>
        <time>2024-09-30T14:08:15Z</time>
      </trkpt>
      <trkpt lat="43.84236" lon="6.73703">
        <ele>1073</ele>
        <time>2024-09-30T14:08:21Z</time>
      </trkpt>
      <trkpt lat="43.84234" lon="6.7374">
        <ele>1076</ele>
        <time>2024-09-30T14:08:26Z</time>
      </trkpt>
      <trkpt lat="43.84226" lon="6.7379">
        <ele>1078</ele>
        <time>2024-09-30T14:08:32Z</time>
      </trkpt>
      <trkpt lat="43.84217" lon="6.73824">
        <ele>1079</ele>
        <time>2024-09-30T14:08:37Z</time>
      </trkpt>
      <trkpt lat="43.84191" lon="6.739">
        <ele>1072</ele>
        <time>2024-09-30T14:08:48Z</time>
      </trkpt>
      <trkpt lat="43.84184" lon="6.73931">
        <ele>1069</ele>
        <time>2024-09-30T14:08:52Z</time>
      </trkpt>
      <trkpt lat="43.84187" lon="6.73969">
        <ele>1070</ele>
        <time>2024-09-30T14:08:57Z</time>
      </trkpt>
      <trkpt lat="43.84182" lon="6.73979">
        <ele>1067</ele>
        <time>2024-09-30T14:09:01Z</time>
      </trkpt>
      <trkpt lat="43.84182" lon="6.7399">
        <ele>1066</ele>
        <time>2024-09-30T14:09:00Z</time>
      </trkpt>
      <trkpt lat="43.84182" lon="6.73979">
        <ele>1067</ele>
        <time>2024-09-30T14:09:01Z</time>
      </trkpt>
      <trkpt lat="43.84181" lon="6.73961">
        <ele>1067</ele>
        <time>2024-09-30T14:09:03Z</time>
      </trkpt>
      <trkpt lat="43.84177" lon="6.73949">
        <ele>1066</ele>
        <time>2024-09-30T14:09:05Z</time>
      </trkpt>
      <trkpt lat="43.84172" lon="6.73938">
        <ele>1065</ele>
        <time>2024-09-30T14:09:07Z</time>
      </trkpt>
      <trkpt lat="43.84165" lon="6.73928">
        <ele>1063</ele>
        <time>2024-09-30T14:09:09Z</time>
      </trkpt>
      <trkpt lat="43.84152" lon="6.73918">
        <ele>1064</ele>
        <time>2024-09-30T14:09:11Z</time>
      </trkpt>
      <trkpt lat="43.84102" lon="6.7391">
        <ele>1058</ele>
        <time>2024-09-30T14:09:20Z</time>
      </trkpt>
      <trkpt lat="43.8409" lon="6.73903">
        <ele>1059</ele>
        <time>2024-09-30T14:09:22Z</time>
      </trkpt>
      <trkpt lat="43.84047" lon="6.73861">
        <ele>1065</ele>
        <time>2024-09-30T14:09:32Z</time>
      </trkpt>
      <trkpt lat="43.84022" lon="6.73837">
        <ele>1064</ele>
        <time>2024-09-30T14:09:37Z</time>
      </trkpt>
      <trkpt lat="43.84" lon="6.73826">
        <ele>1064</ele>
        <time>2024-09-30T14:09:41Z</time>
      </trkpt>
      <trkpt lat="43.83988" lon="6.73825">
        <ele>1063</ele>
        <time>2024-09-30T14:09:44Z</time>
      </trkpt>
      <trkpt lat="43.83934" lon="6.73836">
        <ele>1060</ele>
        <time>2024-09-30T14:09:53Z</time>
      </trkpt>
      <trkpt lat="43.83911" lon="6.73844">
        <ele>1060</ele>
        <time>2024-09-30T14:09:57Z</time>
      </trkpt>
      <trkpt lat="43.83818" lon="6.73889">
        <ele>1063</ele>
        <time>2024-09-30T14:10:15Z</time>
      </trkpt>
      <trkpt lat="43.83812" lon="6.73895">
        <ele>1063</ele>
        <time>2024-09-30T14:10:16Z</time>
      </trkpt>
      <trkpt lat="43.83805" lon="6.73903">
        <ele>1064</ele>
        <time>2024-09-30T14:10:18Z</time>
      </trkpt>
      <trkpt lat="43.83801" lon="6.73917">
        <ele>1064</ele>
        <time>2024-09-30T14:10:20Z</time>
      </trkpt>
      <trkpt lat="43.83797" lon="6.73977">
        <ele>1069</ele>
        <time>2024-09-30T14:10:28Z</time>
      </trkpt>
      <trkpt lat="43.83806" lon="6.74055">
        <ele>1066</ele>
        <time>2024-09-30T14:10:38Z</time>
      </trkpt>
      <trkpt lat="43.83805" lon="6.74131">
        <ele>1070</ele>
        <time>2024-09-30T14:10:47Z</time>
      </trkpt>
      <trkpt lat="43.83803" lon="6.74155">
        <ele>1069</ele>
        <time>2024-09-30T14:10:51Z</time>
      </trkpt>
      <trkpt lat="43.83791" lon="6.74217">
        <ele>1064</ele>
        <time>2024-09-30T14:10:59Z</time>
      </trkpt>
      <trkpt lat="43.83784" lon="6.74229">
        <ele>1064</ele>
        <time>2024-09-30T14:11:01Z</time>
      </trkpt>
      <trkpt lat="43.83772" lon="6.74237">
        <ele>1064</ele>
        <time>2024-09-30T14:11:03Z</time>
      </trkpt>
      <trkpt lat="43.83737" lon="6.74255">
        <ele>1070</ele>
        <time>2024-09-30T14:11:10Z</time>
      </trkpt>
      <trkpt lat="43.83704" lon="6.74294">
        <ele>1068</ele>
        <time>2024-09-30T14:11:18Z</time>
      </trkpt>
      <trkpt lat="43.8369" lon="6.74306">
        <ele>1068</ele>
        <time>2024-09-30T14:11:20Z</time>
      </trkpt>
      <trkpt lat="43.83676" lon="6.74311">
        <ele>1069</ele>
        <time>2024-09-30T14:11:23Z</time>
      </trkpt>
      <trkpt lat="43.83667" lon="6.7431">
        <ele>1071</ele>
        <time>2024-09-30T14:11:25Z</time>
      </trkpt>
      <trkpt lat="43.83658" lon="6.74309">
        <ele>1072</ele>
        <time>2024-09-30T14:11:26Z</time>
      </trkpt>
      <trkpt lat="43.83644" lon="6.74304">
        <ele>1072</ele>
        <time>2024-09-30T14:11:29Z</time>
      </trkpt>
      <trkpt lat="43.83619" lon="6.74289">
        <ele>1074</ele>
        <time>2024-09-30T14:11:34Z</time>
      </trkpt>
      <trkpt lat="43.8358" lon="6.74251">
        <ele>1078</ele>
        <time>2024-09-30T14:11:42Z</time>
      </trkpt>
      <trkpt lat="43.83572" lon="6.74236">
        <ele>1079</ele>
        <time>2024-09-30T14:11:45Z</time>
      </trkpt>
      <trkpt lat="43.83559" lon="6.74189">
        <ele>1085</ele>
        <time>2024-09-30T14:11:51Z</time>
      </trkpt>
      <trkpt lat="43.83551" lon="6.74164">
        <ele>1086</ele>
        <time>2024-09-30T14:11:55Z</time>
      </trkpt>
      <trkpt lat="43.83542" lon="6.7415">
        <ele>1084</ele>
        <time>2024-09-30T14:11:57Z</time>
      </trkpt>
      <trkpt lat="43.83518" lon="6.7413">
        <ele>1081</ele>
        <time>2024-09-30T14:12:02Z</time>
      </trkpt>
      <trkpt lat="43.83501" lon="6.74124">
        <ele>1080</ele>
        <time>2024-09-30T14:12:05Z</time>
      </trkpt>
      <trkpt lat="43.83435" lon="6.74106">
        <ele>1080</ele>
        <time>2024-09-30T14:12:17Z</time>
      </trkpt>
      <trkpt lat="43.83385" lon="6.74094">
        <ele>1077</ele>
        <time>2024-09-30T14:12:26Z</time>
      </trkpt>
      <trkpt lat="43.83368" lon="6.74095">
        <ele>1076</ele>
        <time>2024-09-30T14:12:29Z</time>
      </trkpt>
      <trkpt lat="43.83355" lon="6.74099">
        <ele>1075</ele>
        <time>2024-09-30T14:12:31Z</time>
      </trkpt>
      <trkpt lat="43.83325" lon="6.74114">
        <ele>1072</ele>
        <time>2024-09-30T14:12:37Z</time>
      </trkpt>
      <trkpt lat="43.83306" lon="6.74117">
        <ele>1070</ele>
        <time>2024-09-30T14:12:40Z</time>
      </trkpt>
      <trkpt lat="43.83295" lon="6.74109">
        <ele>1070</ele>
        <time>2024-09-30T14:12:43Z</time>
      </trkpt>
      <trkpt lat="43.83235" lon="6.74047">
        <ele>1065</ele>
        <time>2024-09-30T14:12:56Z</time>
      </trkpt>
      <trkpt lat="43.83171" lon="6.73989">
        <ele>1063</ele>
        <time>2024-09-30T14:13:10Z</time>
      </trkpt>
      <trkpt lat="43.83152" lon="6.73978">
        <ele>1061</ele>
        <time>2024-09-30T14:13:13Z</time>
      </trkpt>
      <trkpt lat="43.83137" lon="6.73977">
        <ele>1061</ele>
        <time>2024-09-30T14:13:16Z</time>
      </trkpt>
      <trkpt lat="43.83092" lon="6.73992">
        <ele>1060</ele>
        <time>2024-09-30T14:13:24Z</time>
      </trkpt>
      <trkpt lat="43.83034" lon="6.74009">
        <ele>1058</ele>
        <time>2024-09-30T14:13:35Z</time>
      </trkpt>
      <trkpt lat="43.83005" lon="6.7401">
        <ele>1060</ele>
        <time>2024-09-30T14:13:40Z</time>
      </trkpt>
      <trkpt lat="43.82957" lon="6.74023">
        <ele>1061</ele>
        <time>2024-09-30T14:13:49Z</time>
      </trkpt>
      <trkpt lat="43.82934" lon="6.74036">
        <ele>1061</ele>
        <time>2024-09-30T14:13:53Z</time>
      </trkpt>
      <trkpt lat="43.82909" lon="6.74058">
        <ele>1059</ele>
        <time>2024-09-30T14:13:58Z</time>
      </trkpt>
      <trkpt lat="43.82873" lon="6.74086">
        <ele>1059</ele>
        <time>2024-09-30T14:14:06Z</time>
      </trkpt>
      <trkpt lat="43.82851" lon="6.74097">
        <ele>1060</ele>
        <time>2024-09-30T14:14:10Z</time>
      </trkpt>
      <trkpt lat="43.82806" lon="6.74101">
        <ele>1063</ele>
        <time>2024-09-30T14:14:18Z</time>
      </trkpt>
      <trkpt lat="43.82757" lon="6.74115">
        <ele>1063</ele>
        <time>2024-09-30T14:14:27Z</time>
      </trkpt>
      <trkpt lat="43.82742" lon="6.74115">
        <ele>1064</ele>
        <time>2024-09-30T14:14:29Z</time>
      </trkpt>
      <trkpt lat="43.82708" lon="6.74111">
        <ele>1066</ele>
        <time>2024-09-30T14:14:35Z</time>
      </trkpt>
      <trkpt lat="43.82684" lon="6.74114">
        <ele>1066</ele>
        <time>2024-09-30T14:14:40Z</time>
      </trkpt>
      <trkpt lat="43.82664" lon="6.7412">
        <ele>1064</ele>
        <time>2024-09-30T14:14:43Z</time>
      </trkpt>
      <trkpt lat="43.82539" lon="6.74165">
        <ele>1070</ele>
        <time>2024-09-30T14:15:06Z</time>
      </trkpt>
      <trkpt lat="43.82532" lon="6.74167">
        <ele>1071</ele>
        <time>2024-09-30T14:15:08Z</time>
      </trkpt>
      <trkpt lat="43.82512" lon="6.74167">
        <ele>1072</ele>
        <time>2024-09-30T14:15:11Z</time>
      </trkpt>
      <trkpt lat="43.82503" lon="6.74163">
        <ele>1073</ele>
        <time>2024-09-30T14:15:13Z</time>
      </trkpt>
      <trkpt lat="43.8249" lon="6.74153">
        <ele>1074</ele>
        <time>2024-09-30T14:15:16Z</time>
      </trkpt>
      <trkpt lat="43.82483" lon="6.74168">
        <ele>1073</ele>
        <time>2024-09-30T14:15:18Z</time>
      </trkpt>
      <trkpt lat="43.82474" lon="6.74172">
        <ele>1072</ele>
        <time>2024-09-30T14:15:20Z</time>
      </trkpt>
      <trkpt lat="43.82408" lon="6.74156">
        <ele>1072</ele>
        <time>2024-09-30T14:15:31Z</time>
      </trkpt>
      <trkpt lat="43.82391" lon="6.74148">
        <ele>1072</ele>
        <time>2024-09-30T14:15:35Z</time>
      </trkpt>
      <trkpt lat="43.8232" lon="6.74088">
        <ele>1072</ele>
        <time>2024-09-30T14:15:49Z</time>
      </trkpt>
      <trkpt lat="43.82276" lon="6.7406">
        <ele>1072</ele>
        <time>2024-09-30T14:15:58Z</time>
      </trkpt>
      <trkpt lat="43.82113" lon="6.7397">
        <ele>1074</ele>
        <time>2024-09-30T14:16:29Z</time>
      </trkpt>
      <trkpt lat="43.82068" lon="6.73944">
        <ele>1074</ele>
        <time>2024-09-30T14:16:38Z</time>
      </trkpt>
      <trkpt lat="43.8205" lon="6.7394">
        <ele>1074</ele>
        <time>2024-09-30T14:16:41Z</time>
      </trkpt>
      <trkpt lat="43.8203" lon="6.73938">
        <ele>1074</ele>
        <time>2024-09-30T14:16:45Z</time>
      </trkpt>
      <trkpt lat="43.82012" lon="6.73933">
        <ele>1074</ele>
        <time>2024-09-30T14:16:48Z</time>
      </trkpt>
      <trkpt lat="43.81994" lon="6.73922">
        <ele>1075</ele>
        <time>2024-09-30T14:16:52Z</time>
      </trkpt>
      <trkpt lat="43.81975" lon="6.73908">
        <ele>1075</ele>
        <time>2024-09-30T14:16:55Z</time>
      </trkpt>
      <trkpt lat="43.81968" lon="6.73905">
        <ele>1075</ele>
        <time>2024-09-30T14:16:57Z</time>
      </trkpt>
      <trkpt lat="43.81894" lon="6.73914">
        <ele>1077</ele>
        <time>2024-09-30T14:17:10Z</time>
      </trkpt>
      <trkpt lat="43.81785" lon="6.7394">
        <ele>1082</ele>
        <time>2024-09-30T14:17:30Z</time>
      </trkpt>
      <trkpt lat="43.81758" lon="6.73934">
        <ele>1084</ele>
        <time>2024-09-30T14:17:34Z</time>
      </trkpt>
      <trkpt lat="43.8175" lon="6.73936">
        <ele>1085</ele>
        <time>2024-09-30T14:17:36Z</time>
      </trkpt>
      <trkpt lat="43.81687" lon="6.73935">
        <ele>1087</ele>
        <time>2024-09-30T14:17:47Z</time>
      </trkpt>
      <trkpt lat="43.81664" lon="6.73922">
        <ele>1090</ele>
        <time>2024-09-30T14:17:51Z</time>
      </trkpt>
      <trkpt lat="43.81646" lon="6.73909">
        <ele>1093</ele>
        <time>2024-09-30T14:17:55Z</time>
      </trkpt>
      <trkpt lat="43.81631" lon="6.73905">
        <ele>1095</ele>
        <time>2024-09-30T14:17:58Z</time>
      </trkpt>
      <trkpt lat="43.81602" lon="6.73903">
        <ele>1101</ele>
        <time>2024-09-30T14:18:03Z</time>
      </trkpt>
      <trkpt lat="43.81588" lon="6.73895">
        <ele>1105</ele>
        <time>2024-09-30T14:18:06Z</time>
      </trkpt>
      <trkpt lat="43.81574" lon="6.73907">
        <ele>1107</ele>
        <time>2024-09-30T14:18:09Z</time>
      </trkpt>
      <trkpt lat="43.81583" lon="6.7393">
        <ele>1105</ele>
        <time>2024-09-30T14:18:12Z</time>
      </trkpt>
      <trkpt lat="43.81586" lon="6.73967">
        <ele>1103</ele>
        <time>2024-09-30T14:18:17Z</time>
      </trkpt>
      <trkpt lat="43.81585" lon="6.74042">
        <ele>1103</ele>
        <time>2024-09-30T14:18:26Z</time>
      </trkpt>
      <trkpt lat="43.81593" lon="6.74103">
        <ele>1103</ele>
        <time>2024-09-30T14:18:34Z</time>
      </trkpt>
      <trkpt lat="43.81607" lon="6.74151">
        <ele>1105</ele>
        <time>2024-09-30T14:18:41Z</time>
      </trkpt>
      <trkpt lat="43.81618" lon="6.7422">
        <ele>1107</ele>
        <time>2024-09-30T14:18:50Z</time>
      </trkpt>
      <trkpt lat="43.8162" lon="6.74308">
        <ele>1107</ele>
        <time>2024-09-30T14:19:01Z</time>
      </trkpt>
      <trkpt lat="43.81615" lon="6.7434">
        <ele>1105</ele>
        <time>2024-09-30T14:19:06Z</time>
      </trkpt>
      <trkpt lat="43.81606" lon="6.74358">
        <ele>1106</ele>
        <time>2024-09-30T14:19:08Z</time>
      </trkpt>
      <trkpt lat="43.81583" lon="6.74367">
        <ele>1109</ele>
        <time>2024-09-30T14:19:13Z</time>
      </trkpt>
      <trkpt lat="43.81578" lon="6.74375">
        <ele>1109</ele>
        <time>2024-09-30T14:19:14Z</time>
      </trkpt>
      <trkpt lat="43.81579" lon="6.74387">
        <ele>1110</ele>
        <time>2024-09-30T14:19:16Z</time>
      </trkpt>
      <trkpt lat="43.81589" lon="6.74406">
        <ele>1109</ele>
        <time>2024-09-30T14:19:19Z</time>
      </trkpt>
      <trkpt lat="43.81592" lon="6.74438">
        <ele>1110</ele>
        <time>2024-09-30T14:19:23Z</time>
      </trkpt>
      <trkpt lat="43.8159" lon="6.7448">
        <ele>1111</ele>
        <time>2024-09-30T14:19:28Z</time>
      </trkpt>
      <trkpt lat="43.81593" lon="6.74595">
        <ele>1115</ele>
        <time>2024-09-30T14:19:43Z</time>
      </trkpt>
      <trkpt lat="43.81572" lon="6.74638">
        <ele>1120</ele>
        <time>2024-09-30T14:19:50Z</time>
      </trkpt>
      <trkpt lat="43.81571" lon="6.74666">
        <ele>1120</ele>
        <time>2024-09-30T14:19:53Z</time>
      </trkpt>
      <trkpt lat="43.81601" lon="6.74685">
        <ele>1117</ele>
        <time>2024-09-30T14:19:59Z</time>
      </trkpt>
      <trkpt lat="43.81617" lon="6.74803">
        <ele>1124</ele>
        <time>2024-09-30T14:20:14Z</time>
      </trkpt>
      <trkpt lat="43.81647" lon="6.74905">
        <ele>1126</ele>
        <time>2024-09-30T14:20:29Z</time>
      </trkpt>
      <trkpt lat="43.81646" lon="6.74995">
        <ele>1131</ele>
        <time>2024-09-30T14:20:40Z</time>
      </trkpt>
      <trkpt lat="43.81635" lon="6.7504">
        <ele>1136</ele>
        <time>2024-09-30T14:20:46Z</time>
      </trkpt>
      <trkpt lat="43.8164" lon="6.75095">
        <ele>1136</ele>
        <time>2024-09-30T14:20:53Z</time>
      </trkpt>
      <trkpt lat="43.81637" lon="6.75134">
        <ele>1139</ele>
        <time>2024-09-30T14:20:58Z</time>
      </trkpt>
      <trkpt lat="43.81612" lon="6.75171">
        <ele>1145</ele>
        <time>2024-09-30T14:21:05Z</time>
      </trkpt>
      <trkpt lat="43.81601" lon="6.75195">
        <ele>1148</ele>
        <time>2024-09-30T14:21:09Z</time>
      </trkpt>
      <trkpt lat="43.81602" lon="6.75204">
        <ele>1149</ele>
        <time>2024-09-30T14:21:10Z</time>
      </trkpt>
      <trkpt lat="43.81603" lon="6.75216">
        <ele>1149</ele>
        <time>2024-09-30T14:21:11Z</time>
      </trkpt>
      <trkpt lat="43.81624" lon="6.75245">
        <ele>1150</ele>
        <time>2024-09-30T14:21:17Z</time>
      </trkpt>
      <trkpt lat="43.8165" lon="6.75271">
        <ele>1150</ele>
        <time>2024-09-30T14:21:22Z</time>
      </trkpt>
      <trkpt lat="43.81658" lon="6.75373">
        <ele>1154</ele>
        <time>2024-09-30T14:21:35Z</time>
      </trkpt>
      <trkpt lat="43.81645" lon="6.75399">
        <ele>1156</ele>
        <time>2024-09-30T14:21:39Z</time>
      </trkpt>
      <trkpt lat="43.81621" lon="6.75406">
        <ele>1159</ele>
        <time>2024-09-30T14:21:44Z</time>
      </trkpt>
      <trkpt lat="43.8158" lon="6.75407">
        <ele>1166</ele>
        <time>2024-09-30T14:21:51Z</time>
      </trkpt>
      <trkpt lat="43.81563" lon="6.7542">
        <ele>1170</ele>
        <time>2024-09-30T14:21:55Z</time>
      </trkpt>
      <trkpt lat="43.81559" lon="6.75446">
        <ele>1169</ele>
        <time>2024-09-30T14:21:58Z</time>
      </trkpt>
      <trkpt lat="43.8157" lon="6.75529">
        <ele>1174</ele>
        <time>2024-09-30T14:22:09Z</time>
      </trkpt>
      <trkpt lat="43.81583" lon="6.7558">
        <ele>1177</ele>
        <time>2024-09-30T14:22:16Z</time>
      </trkpt>
      <trkpt lat="43.81588" lon="6.75614">
        <ele>1179</ele>
        <time>2024-09-30T14:22:20Z</time>
      </trkpt>
      <trkpt lat="43.81588" lon="6.75646">
        <ele>1184</ele>
        <time>2024-09-30T14:22:24Z</time>
      </trkpt>
      <trkpt lat="43.81594" lon="6.75699">
        <ele>1187</ele>
        <time>2024-09-30T14:22:31Z</time>
      </trkpt>
      <trkpt lat="43.81597" lon="6.75783">
        <ele>1192</ele>
        <time>2024-09-30T14:22:42Z</time>
      </trkpt>
      <trkpt lat="43.81607" lon="6.75848">
        <ele>1203</ele>
        <time>2024-09-30T14:22:51Z</time>
      </trkpt>
      <trkpt lat="43.81624" lon="6.75862">
        <ele>1200</ele>
        <time>2024-09-30T14:22:54Z</time>
      </trkpt>
      <trkpt lat="43.81639" lon="6.75884">
        <ele>1198</ele>
        <time>2024-09-30T14:22:58Z</time>
      </trkpt>
      <trkpt lat="43.81642" lon="6.7591">
        <ele>1200</ele>
        <time>2024-09-30T14:23:01Z</time>
      </trkpt>
      <trkpt lat="43.81642" lon="6.75939">
        <ele>1201</ele>
        <time>2024-09-30T14:23:05Z</time>
      </trkpt>
      <trkpt lat="43.81637" lon="6.75957">
        <ele>1203</ele>
        <time>2024-09-30T14:23:08Z</time>
      </trkpt>
      <trkpt lat="43.81614" lon="6.75984">
        <ele>1213</ele>
        <time>2024-09-30T14:23:13Z</time>
      </trkpt>
      <trkpt lat="43.81604" lon="6.76016">
        <ele>1218</ele>
        <time>2024-09-30T14:23:17Z</time>
      </trkpt>
      <trkpt lat="43.81603" lon="6.7605">
        <ele>1222</ele>
        <time>2024-09-30T14:23:22Z</time>
      </trkpt>
      <trkpt lat="43.81606" lon="6.76085">
        <ele>1224</ele>
        <time>2024-09-30T14:23:26Z</time>
      </trkpt>
      <trkpt lat="43.81615" lon="6.76143">
        <ele>1225</ele>
        <time>2024-09-30T14:23:34Z</time>
      </trkpt>
      <trkpt lat="43.81619" lon="6.76183">
        <ele>1230</ele>
        <time>2024-09-30T14:23:39Z</time>
      </trkpt>
      <trkpt lat="43.81635" lon="6.76228">
        <ele>1228</ele>
        <time>2024-09-30T14:23:46Z</time>
      </trkpt>
      <trkpt lat="43.81641" lon="6.76276">
        <ele>1228</ele>
        <time>2024-09-30T14:23:52Z</time>
      </trkpt>
      <trkpt lat="43.8163" lon="6.76323">
        <ele>1235</ele>
        <time>2024-09-30T14:23:58Z</time>
      </trkpt>
      <trkpt lat="43.81624" lon="6.76345">
        <ele>1240</ele>
        <time>2024-09-30T14:24:01Z</time>
      </trkpt>
      <trkpt lat="43.81625" lon="6.7639">
        <ele>1245</ele>
        <time>2024-09-30T14:24:07Z</time>
      </trkpt>
      <trkpt lat="43.81647" lon="6.7652">
        <ele>1249</ele>
        <time>2024-09-30T14:24:24Z</time>
      </trkpt>
      <trkpt lat="43.8164" lon="6.76588">
        <ele>1258</ele>
        <time>2024-09-30T14:24:33Z</time>
      </trkpt>
      <trkpt lat="43.81642" lon="6.76615">
        <ele>1259</ele>
        <time>2024-09-30T14:24:36Z</time>
      </trkpt>
      <trkpt lat="43.81669" lon="6.76674">
        <ele>1258</ele>
        <time>2024-09-30T14:24:45Z</time>
      </trkpt>
      <trkpt lat="43.8167" lon="6.76722">
        <ele>1261</ele>
        <time>2024-09-30T14:24:51Z</time>
      </trkpt>
      <trkpt lat="43.8167" lon="6.7675">
        <ele>1261</ele>
        <time>2024-09-30T14:24:55Z</time>
      </trkpt>
      <trkpt lat="43.81665" lon="6.7677">
        <ele>1261</ele>
        <time>2024-09-30T14:24:58Z</time>
      </trkpt>
      <trkpt lat="43.81661" lon="6.76785">
        <ele>1262</ele>
        <time>2024-09-30T14:25:00Z</time>
      </trkpt>
      <trkpt lat="43.81637" lon="6.76798">
        <ele>1269</ele>
        <time>2024-09-30T14:25:04Z</time>
      </trkpt>
      <trkpt lat="43.81627" lon="6.76812">
        <ele>1272</ele>
        <time>2024-09-30T14:25:07Z</time>
      </trkpt>
      <trkpt lat="43.81626" lon="6.76833">
        <ele>1271</ele>
        <time>2024-09-30T14:25:10Z</time>
      </trkpt>
      <trkpt lat="43.81645" lon="6.76924">
        <ele>1273</ele>
        <time>2024-09-30T14:25:22Z</time>
      </trkpt>
      <trkpt lat="43.81672" lon="6.76975">
        <ele>1275</ele>
        <time>2024-09-30T14:25:30Z</time>
      </trkpt>
      <trkpt lat="43.81714" lon="6.77072">
        <ele>1288</ele>
        <time>2024-09-30T14:25:44Z</time>
      </trkpt>
      <trkpt lat="43.8174" lon="6.77145">
        <ele>1283</ele>
        <time>2024-09-30T14:25:55Z</time>
      </trkpt>
      <trkpt lat="43.81731" lon="6.7719">
        <ele>1293</ele>
        <time>2024-09-30T14:26:01Z</time>
      </trkpt>
      <trkpt lat="43.8173" lon="6.77233">
        <ele>1295</ele>
        <time>2024-09-30T14:26:06Z</time>
      </trkpt>
      <trkpt lat="43.81733" lon="6.77261">
        <ele>1292</ele>
        <time>2024-09-30T14:26:10Z</time>
      </trkpt>
      <trkpt lat="43.81732" lon="6.77293">
        <ele>1292</ele>
        <time>2024-09-30T14:26:14Z</time>
      </trkpt>
      <trkpt lat="43.81727" lon="6.77319">
        <ele>1294</ele>
        <time>2024-09-30T14:26:18Z</time>
      </trkpt>
      <trkpt lat="43.81721" lon="6.77335">
        <ele>1297</ele>
        <time>2024-09-30T14:26:20Z</time>
      </trkpt>
      <trkpt lat="43.81709" lon="6.77356">
        <ele>1305</ele>
        <time>2024-09-30T14:26:23Z</time>
      </trkpt>
      <trkpt lat="43.81702" lon="6.77436">
        <ele>1303</ele>
        <time>2024-09-30T14:26:34Z</time>
      </trkpt>
      <trkpt lat="43.81703" lon="6.77488">
        <ele>1307</ele>
        <time>2024-09-30T14:26:40Z</time>
      </trkpt>
      <trkpt lat="43.81727" lon="6.7758">
        <ele>1307</ele>
        <time>2024-09-30T14:26:53Z</time>
      </trkpt>
      <trkpt lat="43.81734" lon="6.77621">
        <ele>1307</ele>
        <time>2024-09-30T14:26:58Z</time>
      </trkpt>
      <trkpt lat="43.8173" lon="6.77645">
        <ele>1311</ele>
        <time>2024-09-30T14:27:02Z</time>
      </trkpt>
      <trkpt lat="43.8172" lon="6.77667">
        <ele>1317</ele>
        <time>2024-09-30T14:27:05Z</time>
      </trkpt>
      <trkpt lat="43.8172" lon="6.77709">
        <ele>1315</ele>
        <time>2024-09-30T14:27:10Z</time>
      </trkpt>
      <trkpt lat="43.81731" lon="6.77777">
        <ele>1316</ele>
        <time>2024-09-30T14:27:19Z</time>
      </trkpt>
      <trkpt lat="43.81759" lon="6.77914">
        <ele>1327</ele>
        <time>2024-09-30T14:27:38Z</time>
      </trkpt>
      <trkpt lat="43.81763" lon="6.77945">
        <ele>1329</ele>
        <time>2024-09-30T14:27:42Z</time>
      </trkpt>
      <trkpt lat="43.8177" lon="6.77962">
        <ele>1326</ele>
        <time>2024-09-30T14:27:44Z</time>
      </trkpt>
      <trkpt lat="43.81777" lon="6.77975">
        <ele>1326</ele>
        <time>2024-09-30T14:27:46Z</time>
      </trkpt>
      <trkpt lat="43.81791" lon="6.78012">
        <ele>1321</ele>
        <time>2024-09-30T14:27:52Z</time>
      </trkpt>
      <trkpt lat="43.81802" lon="6.78061">
        <ele>1319</ele>
        <time>2024-09-30T14:27:58Z</time>
      </trkpt>
      <trkpt lat="43.81802" lon="6.78171">
        <ele>1316</ele>
        <time>2024-09-30T14:28:12Z</time>
      </trkpt>
      <trkpt lat="43.81809" lon="6.78266">
        <ele>1307</ele>
        <time>2024-09-30T14:28:24Z</time>
      </trkpt>
      <trkpt lat="43.81803" lon="6.78384">
        <ele>1307</ele>
        <time>2024-09-30T14:28:40Z</time>
      </trkpt>
      <trkpt lat="43.81809" lon="6.78428">
        <ele>1301</ele>
        <time>2024-09-30T14:28:45Z</time>
      </trkpt>
      <trkpt lat="43.8181" lon="6.78492">
        <ele>1297</ele>
        <time>2024-09-30T14:28:54Z</time>
      </trkpt>
      <trkpt lat="43.81803" lon="6.78533">
        <ele>1300</ele>
        <time>2024-09-30T14:28:59Z</time>
      </trkpt>
      <trkpt lat="43.81781" lon="6.78577">
        <ele>1305</ele>
        <time>2024-09-30T14:29:06Z</time>
      </trkpt>
      <trkpt lat="43.8178" lon="6.78623">
        <ele>1307</ele>
        <time>2024-09-30T14:29:12Z</time>
      </trkpt>
      <trkpt lat="43.81792" lon="6.78697">
        <ele>1307</ele>
        <time>2024-09-30T14:29:22Z</time>
      </trkpt>
      <trkpt lat="43.81792" lon="6.7872">
        <ele>1309</ele>
        <time>2024-09-30T14:29:25Z</time>
      </trkpt>
      <trkpt lat="43.81788" lon="6.7874">
        <ele>1310</ele>
        <time>2024-09-30T14:29:27Z</time>
      </trkpt>
      <trkpt lat="43.81786" lon="6.78788">
        <ele>1310</ele>
        <time>2024-09-30T14:29:33Z</time>
      </trkpt>
      <trkpt lat="43.8179" lon="6.78811">
        <ele>1308</ele>
        <time>2024-09-30T14:29:36Z</time>
      </trkpt>
      <trkpt lat="43.81803" lon="6.78847">
        <ele>1306</ele>
        <time>2024-09-30T14:29:42Z</time>
      </trkpt>
      <trkpt lat="43.81804" lon="6.78875">
        <ele>1307</ele>
        <time>2024-09-30T14:29:45Z</time>
      </trkpt>
      <trkpt lat="43.81834" lon="6.78942">
        <ele>1299</ele>
        <time>2024-09-30T14:29:55Z</time>
      </trkpt>
      <trkpt lat="43.8185" lon="6.78965">
        <ele>1294</ele>
        <time>2024-09-30T14:29:59Z</time>
      </trkpt>
      <trkpt lat="43.81876" lon="6.79051">
        <ele>1282</ele>
        <time>2024-09-30T14:30:11Z</time>
      </trkpt>
      <trkpt lat="43.8189" lon="6.79123">
        <ele>1281</ele>
        <time>2024-09-30T14:30:21Z</time>
      </trkpt>
      <trkpt lat="43.81901" lon="6.79192">
        <ele>1275</ele>
        <time>2024-09-30T14:30:30Z</time>
      </trkpt>
      <trkpt lat="43.8191" lon="6.79274">
        <ele>1271</ele>
        <time>2024-09-30T14:30:41Z</time>
      </trkpt>
      <trkpt lat="43.81922" lon="6.79324">
        <ele>1269</ele>
        <time>2024-09-30T14:30:47Z</time>
      </trkpt>
      <trkpt lat="43.81929" lon="6.79399">
        <ele>1269</ele>
        <time>2024-09-30T14:30:57Z</time>
      </trkpt>
      <trkpt lat="43.81933" lon="6.79431">
        <ele>1269</ele>
        <time>2024-09-30T14:31:01Z</time>
      </trkpt>
      <trkpt lat="43.81941" lon="6.7946">
        <ele>1269</ele>
        <time>2024-09-30T14:31:05Z</time>
      </trkpt>
      <trkpt lat="43.81953" lon="6.79532">
        <ele>1269</ele>
        <time>2024-09-30T14:31:15Z</time>
      </trkpt>
      <trkpt lat="43.81953" lon="6.79545">
        <ele>1268</ele>
        <time>2024-09-30T14:31:16Z</time>
      </trkpt>
      <trkpt lat="43.81948" lon="6.79547">
        <ele>1271</ele>
        <time>2024-09-30T14:31:17Z</time>
      </trkpt>
      <trkpt lat="43.81946" lon="6.79551">
        <ele>1271</ele>
        <time>2024-09-30T14:31:18Z</time>
      </trkpt>
      <trkpt lat="43.81948" lon="6.79572">
        <ele>1271</ele>
        <time>2024-09-30T14:31:21Z</time>
      </trkpt>
      <trkpt lat="43.8195" lon="6.79627">
        <ele>1273</ele>
        <time>2024-09-30T14:31:28Z</time>
      </trkpt>
      <trkpt lat="43.81949" lon="6.7968">
        <ele>1274</ele>
        <time>2024-09-30T14:31:35Z</time>
      </trkpt>
      <trkpt lat="43.81947" lon="6.79731">
        <ele>1277</ele>
        <time>2024-09-30T14:31:41Z</time>
      </trkpt>
      <trkpt lat="43.81938" lon="6.79805">
        <ele>1285</ele>
        <time>2024-09-30T14:31:51Z</time>
      </trkpt>
      <trkpt lat="43.81936" lon="6.79846">
        <ele>1287</ele>
        <time>2024-09-30T14:31:56Z</time>
      </trkpt>
      <trkpt lat="43.81936" lon="6.79895">
        <ele>1290</ele>
        <time>2024-09-30T14:32:02Z</time>
      </trkpt>
      <trkpt lat="43.8194" lon="6.79968">
        <ele>1291</ele>
        <time>2024-09-30T14:32:12Z</time>
      </trkpt>
      <trkpt lat="43.81941" lon="6.80025">
        <ele>1293</ele>
        <time>2024-09-30T14:32:19Z</time>
      </trkpt>
      <trkpt lat="43.81945" lon="6.8009">
        <ele>1295</ele>
        <time>2024-09-30T14:32:27Z</time>
      </trkpt>
      <trkpt lat="43.81941" lon="6.80144">
        <ele>1300</ele>
        <time>2024-09-30T14:32:34Z</time>
      </trkpt>
      <trkpt lat="43.81941" lon="6.80158">
        <ele>1298</ele>
        <time>2024-09-30T14:32:36Z</time>
      </trkpt>
      <trkpt lat="43.81944" lon="6.80178">
        <ele>1299</ele>
        <time>2024-09-30T14:32:39Z</time>
      </trkpt>
      <trkpt lat="43.81941" lon="6.80259">
        <ele>1304</ele>
        <time>2024-09-30T14:32:49Z</time>
      </trkpt>
      <trkpt lat="43.81936" lon="6.80356">
        <ele>1309</ele>
        <time>2024-09-30T14:33:02Z</time>
      </trkpt>
      <trkpt lat="43.81938" lon="6.80386">
        <ele>1307</ele>
        <time>2024-09-30T14:33:06Z</time>
      </trkpt>
      <trkpt lat="43.81936" lon="6.8041">
        <ele>1310</ele>
        <time>2024-09-30T14:33:09Z</time>
      </trkpt>
      <trkpt lat="43.81932" lon="6.80439">
        <ele>1311</ele>
        <time>2024-09-30T14:33:12Z</time>
      </trkpt>
      <trkpt lat="43.81929" lon="6.80501">
        <ele>1312</ele>
        <time>2024-09-30T14:33:20Z</time>
      </trkpt>
      <trkpt lat="43.81926" lon="6.80533">
        <ele>1316</ele>
        <time>2024-09-30T14:33:25Z</time>
      </trkpt>
      <trkpt lat="43.81917" lon="6.80577">
        <ele>1321</ele>
        <time>2024-09-30T14:33:30Z</time>
      </trkpt>
      <trkpt lat="43.81917" lon="6.80595">
        <ele>1323</ele>
        <time>2024-09-30T14:33:33Z</time>
      </trkpt>
      <trkpt lat="43.81924" lon="6.80645">
        <ele>1325</ele>
        <time>2024-09-30T14:33:39Z</time>
      </trkpt>
      <trkpt lat="43.81934" lon="6.80691">
        <ele>1326</ele>
        <time>2024-09-30T14:33:45Z</time>
      </trkpt>
      <trkpt lat="43.81938" lon="6.80719">
        <ele>1327</ele>
        <time>2024-09-30T14:33:49Z</time>
      </trkpt>
      <trkpt lat="43.81938" lon="6.80747">
        <ele>1328</ele>
        <time>2024-09-30T14:33:53Z</time>
      </trkpt>
      <trkpt lat="43.81938" lon="6.80775">
        <ele>1323</ele>
        <time>2024-09-30T14:33:56Z</time>
      </trkpt>
      <trkpt lat="43.81936" lon="6.80779">
        <ele>1326</ele>
        <time>2024-09-30T14:33:57Z</time>
      </trkpt>
      <trkpt lat="43.81934" lon="6.80781">
        <ele>1326</ele>
      </trkpt>
      <trkpt lat="43.81931" lon="6.8078">
        <ele>1329</ele>
        <time>2024-09-30T14:33:58Z</time>
      </trkpt>
      <trkpt lat="43.81929" lon="6.80777">
        <ele>1330</ele>
      </trkpt>
      <trkpt lat="43.81931" lon="6.80746">
        <ele>1331</ele>
        <time>2024-09-30T14:34:02Z</time>
      </trkpt>
      <trkpt lat="43.8193" lon="6.80734">
        <ele>1331</ele>
        <time>2024-09-30T14:34:04Z</time>
      </trkpt>
      <trkpt lat="43.81923" lon="6.80708">
        <ele>1335</ele>
        <time>2024-09-30T14:34:08Z</time>
      </trkpt>
      <trkpt lat="43.81897" lon="6.80643">
        <ele>1341</ele>
        <time>2024-09-30T14:34:17Z</time>
      </trkpt>
      <trkpt lat="43.81881" lon="6.80591">
        <ele>1344</ele>
        <time>2024-09-30T14:34:24Z</time>
      </trkpt>
      <trkpt lat="43.81881" lon="6.80576">
        <ele>1343</ele>
        <time>2024-09-30T14:34:26Z</time>
      </trkpt>
      <trkpt lat="43.81886" lon="6.80532">
        <ele>1342</ele>
        <time>2024-09-30T14:34:32Z</time>
      </trkpt>
      <trkpt lat="43.81885" lon="6.80462">
        <ele>1343</ele>
        <time>2024-09-30T14:34:41Z</time>
      </trkpt>
      <trkpt lat="43.81888" lon="6.80442">
        <ele>1343</ele>
        <time>2024-09-30T14:34:44Z</time>
      </trkpt>
      <trkpt lat="43.81888" lon="6.80425">
        <ele>1343</ele>
        <time>2024-09-30T14:34:46Z</time>
      </trkpt>
      <trkpt lat="43.81864" lon="6.80344">
        <ele>1355</ele>
        <time>2024-09-30T14:34:57Z</time>
      </trkpt>
      <trkpt lat="43.81844" lon="6.80249">
        <ele>1362</ele>
        <time>2024-09-30T14:35:10Z</time>
      </trkpt>
      <trkpt lat="43.81841" lon="6.80208">
        <ele>1364</ele>
        <time>2024-09-30T14:35:15Z</time>
      </trkpt>
      <trkpt lat="43.81845" lon="6.80188">
        <ele>1361</ele>
        <time>2024-09-30T14:35:18Z</time>
      </trkpt>
      <trkpt lat="43.81845" lon="6.80171">
        <ele>1363</ele>
        <time>2024-09-30T14:35:20Z</time>
      </trkpt>
      <trkpt lat="43.81841" lon="6.80165">
        <ele>1366</ele>
        <time>2024-09-30T14:35:21Z</time>
      </trkpt>
      <trkpt lat="43.81838" lon="6.80168">
        <ele>1366</ele>
        <time>2024-09-30T14:35:22Z</time>
      </trkpt>
      <trkpt lat="43.81837" lon="6.80171">
        <ele>1366</ele>
      </trkpt>
      <trkpt lat="43.81834" lon="6.80213">
        <ele>1369</ele>
        <time>2024-09-30T14:35:27Z</time>
      </trkpt>
      <trkpt lat="43.81828" lon="6.80262">
        <ele>1373</ele>
        <time>2024-09-30T14:35:34Z</time>
      </trkpt>
      <trkpt lat="43.81827" lon="6.80283">
        <ele>1374</ele>
        <time>2024-09-30T14:35:37Z</time>
      </trkpt>
      <trkpt lat="43.81828" lon="6.80397">
        <ele>1378</ele>
        <time>2024-09-30T14:35:51Z</time>
      </trkpt>
      <trkpt lat="43.81827" lon="6.80411">
        <ele>1378</ele>
        <time>2024-09-30T14:35:53Z</time>
      </trkpt>
      <trkpt lat="43.81827" lon="6.8042">
        <ele>1378</ele>
        <time>2024-09-30T14:35:54Z</time>
      </trkpt>
      <trkpt lat="43.81813" lon="6.80495">
        <ele>1381</ele>
        <time>2024-09-30T14:36:04Z</time>
      </trkpt>
      <trkpt lat="43.81797" lon="6.8056">
        <ele>1384</ele>
        <time>2024-09-30T14:36:13Z</time>
      </trkpt>
      <trkpt lat="43.81793" lon="6.80596">
        <ele>1386</ele>
        <time>2024-09-30T14:36:18Z</time>
      </trkpt>
      <trkpt lat="43.8179" lon="6.80608">
        <ele>1387</ele>
        <time>2024-09-30T14:36:19Z</time>
      </trkpt>
      <trkpt lat="43.81787" lon="6.80609">
        <ele>1389</ele>
        <time>2024-09-30T14:36:20Z</time>
      </trkpt>
      <trkpt lat="43.81784" lon="6.80607">
        <ele>1390</ele>
      </trkpt>
      <trkpt lat="43.81783" lon="6.80604">
        <ele>1390</ele>
        <time>2024-09-30T14:36:21Z</time>
      </trkpt>
      <trkpt lat="43.81786" lon="6.80572">
        <ele>1390</ele>
        <time>2024-09-30T14:36:25Z</time>
      </trkpt>
      <trkpt lat="43.81786" lon="6.80514">
        <ele>1392</ele>
        <time>2024-09-30T14:36:32Z</time>
      </trkpt>
      <trkpt lat="43.8179" lon="6.80481">
        <ele>1392</ele>
        <time>2024-09-30T14:36:37Z</time>
      </trkpt>
      <trkpt lat="43.81788" lon="6.80419">
        <ele>1396</ele>
        <time>2024-09-30T14:36:45Z</time>
      </trkpt>
      <trkpt lat="43.81786" lon="6.80391">
        <ele>1398</ele>
        <time>2024-09-30T14:36:48Z</time>
      </trkpt>
      <trkpt lat="43.81769" lon="6.80319">
        <ele>1405</ele>
        <time>2024-09-30T14:36:58Z</time>
      </trkpt>
      <trkpt lat="43.81769" lon="6.80285">
        <ele>1408</ele>
        <time>2024-09-30T14:37:02Z</time>
      </trkpt>
      <trkpt lat="43.81766" lon="6.80276">
        <ele>1407</ele>
        <time>2024-09-30T14:37:04Z</time>
      </trkpt>
      <trkpt lat="43.81762" lon="6.80275">
        <ele>1410</ele>
      </trkpt>
      <trkpt lat="43.81762" lon="6.80276">
        <ele>1410</ele>
      </trkpt>
      <trkpt lat="43.81759" lon="6.80277">
        <ele>1413</ele>
        <time>2024-09-30T14:37:05Z</time>
      </trkpt>
      <trkpt lat="43.81757" lon="6.80286">
        <ele>1413</ele>
        <time>2024-09-30T14:37:06Z</time>
      </trkpt>
      <trkpt lat="43.8176" lon="6.80395">
        <ele>1411</ele>
        <time>2024-09-30T14:37:20Z</time>
      </trkpt>
      <trkpt lat="43.81757" lon="6.80416">
        <ele>1411</ele>
        <time>2024-09-30T14:37:23Z</time>
      </trkpt>
      <trkpt lat="43.81747" lon="6.80448">
        <ele>1413</ele>
        <time>2024-09-30T14:37:27Z</time>
      </trkpt>
      <trkpt lat="43.81735" lon="6.80481">
        <ele>1414</ele>
        <time>2024-09-30T14:37:32Z</time>
      </trkpt>
      <trkpt lat="43.81729" lon="6.80499">
        <ele>1415</ele>
        <time>2024-09-30T14:37:35Z</time>
      </trkpt>
      <trkpt lat="43.81712" lon="6.80631">
        <ele>1425</ele>
        <time>2024-09-30T14:37:52Z</time>
      </trkpt>
      <trkpt lat="43.81725" lon="6.80681">
        <ele>1426</ele>
        <time>2024-09-30T14:37:59Z</time>
      </trkpt>
      <trkpt lat="43.81723" lon="6.80689">
        <ele>1429</ele>
        <time>2024-09-30T14:38:00Z</time>
      </trkpt>
      <trkpt lat="43.8172" lon="6.8069">
        <ele>1430</ele>
      </trkpt>
      <trkpt lat="43.81717" lon="6.80688">
        <ele>1431</ele>
        <time>2024-09-30T14:38:01Z</time>
      </trkpt>
      <trkpt lat="43.81713" lon="6.80677">
        <ele>1431</ele>
        <time>2024-09-30T14:38:03Z</time>
      </trkpt>
      <trkpt lat="43.81704" lon="6.80648">
        <ele>1429</ele>
        <time>2024-09-30T14:38:07Z</time>
      </trkpt>
      <trkpt lat="43.817" lon="6.80625">
        <ele>1428</ele>
        <time>2024-09-30T14:38:10Z</time>
      </trkpt>
      <trkpt lat="43.81698" lon="6.80596">
        <ele>1428</ele>
        <time>2024-09-30T14:38:13Z</time>
      </trkpt>
      <trkpt lat="43.81695" lon="6.80584">
        <ele>1428</ele>
        <time>2024-09-30T14:38:15Z</time>
      </trkpt>
      <trkpt lat="43.8169" lon="6.80573">
        <ele>1428</ele>
        <time>2024-09-30T14:38:17Z</time>
      </trkpt>
      <trkpt lat="43.81673" lon="6.80557">
        <ele>1431</ele>
        <time>2024-09-30T14:38:20Z</time>
      </trkpt>
      <trkpt lat="43.81662" lon="6.8055">
        <ele>1432</ele>
        <time>2024-09-30T14:38:23Z</time>
      </trkpt>
      <trkpt lat="43.81641" lon="6.8054">
        <ele>1434</ele>
        <time>2024-09-30T14:38:26Z</time>
      </trkpt>
      <trkpt lat="43.81628" lon="6.80527">
        <ele>1434</ele>
        <time>2024-09-30T14:38:29Z</time>
      </trkpt>
      <trkpt lat="43.8161" lon="6.80498">
        <ele>1435</ele>
        <time>2024-09-30T14:38:34Z</time>
      </trkpt>
      <trkpt lat="43.81593" lon="6.80478">
        <ele>1435</ele>
        <time>2024-09-30T14:38:38Z</time>
      </trkpt>
      <trkpt lat="43.81545" lon="6.80427">
        <ele>1435</ele>
        <time>2024-09-30T14:38:49Z</time>
      </trkpt>
      <trkpt lat="43.8146" lon="6.80338">
        <ele>1434</ele>
        <time>2024-09-30T14:39:08Z</time>
      </trkpt>
      <trkpt lat="43.81435" lon="6.80323">
        <ele>1432</ele>
        <time>2024-09-30T14:39:13Z</time>
      </trkpt>
      <trkpt lat="43.81434" lon="6.80322">
        <ele>1431</ele>
      </trkpt>
      <trkpt lat="43.81414" lon="6.80314">
        <ele>1430</ele>
        <time>2024-09-30T14:39:17Z</time>
      </trkpt>
      <trkpt lat="43.81394" lon="6.80317">
        <ele>1429</ele>
        <time>2024-09-30T14:39:20Z</time>
      </trkpt>
      <trkpt lat="43.81365" lon="6.80332">
        <ele>1430</ele>
        <time>2024-09-30T14:39:26Z</time>
      </trkpt>
      <trkpt lat="43.81348" lon="6.80331">
        <ele>1429</ele>
        <time>2024-09-30T14:39:29Z</time>
      </trkpt>
      <trkpt lat="43.81304" lon="6.80317">
        <ele>1427</ele>
        <time>2024-09-30T14:39:37Z</time>
      </trkpt>
      <trkpt lat="43.8129" lon="6.80307">
        <ele>1427</ele>
        <time>2024-09-30T14:39:40Z</time>
      </trkpt>
      <trkpt lat="43.81263" lon="6.80269">
        <ele>1427</ele>
        <time>2024-09-30T14:39:46Z</time>
      </trkpt>
      <trkpt lat="43.81258" lon="6.80268">
        <ele>1427</ele>
        <time>2024-09-30T14:39:47Z</time>
      </trkpt>
      <trkpt lat="43.81232" lon="6.80254">
        <ele>1426</ele>
        <time>2024-09-30T14:39:52Z</time>
      </trkpt>
      <trkpt lat="43.81218" lon="6.80261">
        <ele>1422</ele>
        <time>2024-09-30T14:39:55Z</time>
      </trkpt>
      <trkpt lat="43.81222" lon="6.80268">
        <ele>1422</ele>
        <time>2024-09-30T14:39:56Z</time>
      </trkpt>
      <trkpt lat="43.81223" lon="6.80278">
        <ele>1420</ele>
        <time>2024-09-30T14:39:57Z</time>
      </trkpt>
      <trkpt lat="43.8122" lon="6.80293">
        <ele>1419</ele>
        <time>2024-09-30T14:39:59Z</time>
      </trkpt>
      <trkpt lat="43.81198" lon="6.80349">
        <ele>1413</ele>
        <time>2024-09-30T14:40:08Z</time>
      </trkpt>
      <trkpt lat="43.81189" lon="6.80385">
        <ele>1411</ele>
        <time>2024-09-30T14:40:13Z</time>
      </trkpt>
      <trkpt lat="43.81182" lon="6.8045">
        <ele>1409</ele>
        <time>2024-09-30T14:40:21Z</time>
      </trkpt>
      <trkpt lat="43.81176" lon="6.80526">
        <ele>1406</ele>
        <time>2024-09-30T14:40:31Z</time>
      </trkpt>
      <trkpt lat="43.81179" lon="6.80643">
        <ele>1398</ele>
        <time>2024-09-30T14:40:46Z</time>
      </trkpt>
      <trkpt lat="43.81177" lon="6.80686">
        <ele>1397</ele>
        <time>2024-09-30T14:40:51Z</time>
      </trkpt>
      <trkpt lat="43.81163" lon="6.80824">
        <ele>1388</ele>
        <time>2024-09-30T14:41:09Z</time>
      </trkpt>
      <trkpt lat="43.81156" lon="6.8088">
        <ele>1388</ele>
        <time>2024-09-30T14:41:17Z</time>
      </trkpt>
      <trkpt lat="43.81138" lon="6.80992">
        <ele>1382</ele>
        <time>2024-09-30T14:41:31Z</time>
      </trkpt>
      <trkpt lat="43.81121" lon="6.81071">
        <ele>1375</ele>
        <time>2024-09-30T14:41:42Z</time>
      </trkpt>
      <trkpt lat="43.81114" lon="6.81115">
        <ele>1372</ele>
        <time>2024-09-30T14:41:48Z</time>
      </trkpt>
      <trkpt lat="43.81109" lon="6.81127">
        <ele>1371</ele>
        <time>2024-09-30T14:41:49Z</time>
      </trkpt>
      <trkpt lat="43.81102" lon="6.81139">
        <ele>1369</ele>
        <time>2024-09-30T14:41:51Z</time>
      </trkpt>
      <trkpt lat="43.81096" lon="6.81158">
        <ele>1367</ele>
        <time>2024-09-30T14:41:54Z</time>
      </trkpt>
      <trkpt lat="43.81084" lon="6.81227">
        <ele>1365</ele>
        <time>2024-09-30T14:42:03Z</time>
      </trkpt>
      <trkpt lat="43.81084" lon="6.81248">
        <ele>1363</ele>
        <time>2024-09-30T14:42:06Z</time>
      </trkpt>
      <trkpt lat="43.81088" lon="6.81276">
        <ele>1363</ele>
        <time>2024-09-30T14:42:10Z</time>
      </trkpt>
      <trkpt lat="43.81088" lon="6.81292">
        <ele>1361</ele>
        <time>2024-09-30T14:42:12Z</time>
      </trkpt>
      <trkpt lat="43.81084" lon="6.81332">
        <ele>1358</ele>
        <time>2024-09-30T14:42:17Z</time>
      </trkpt>
      <trkpt lat="43.81084" lon="6.81355">
        <ele>1359</ele>
        <time>2024-09-30T14:42:20Z</time>
      </trkpt>
      <trkpt lat="43.8109" lon="6.81403">
        <ele>1356</ele>
        <time>2024-09-30T14:42:26Z</time>
      </trkpt>
      <trkpt lat="43.81091" lon="6.81432">
        <ele>1355</ele>
        <time>2024-09-30T14:42:30Z</time>
      </trkpt>
      <trkpt lat="43.81086" lon="6.81495">
        <ele>1350</ele>
        <time>2024-09-30T14:42:38Z</time>
      </trkpt>
      <trkpt lat="43.81086" lon="6.81518">
        <ele>1348</ele>
        <time>2024-09-30T14:42:41Z</time>
      </trkpt>
      <trkpt lat="43.81097" lon="6.81584">
        <ele>1344</ele>
        <time>2024-09-30T14:42:49Z</time>
      </trkpt>
      <trkpt lat="43.81105" lon="6.81653">
        <ele>1342</ele>
        <time>2024-09-30T14:42:58Z</time>
      </trkpt>
      <trkpt lat="43.81119" lon="6.81727">
        <ele>1336</ele>
        <time>2024-09-30T14:43:08Z</time>
      </trkpt>
      <trkpt lat="43.81114" lon="6.81727">
        <ele>1333</ele>
        <time>2024-09-30T14:43:09Z</time>
      </trkpt>
      <trkpt lat="43.81113" lon="6.81726">
        <ele>1333</ele>
      </trkpt>
      <trkpt lat="43.81096" lon="6.81676">
        <ele>1333</ele>
        <time>2024-09-30T14:43:16Z</time>
      </trkpt>
      <trkpt lat="43.81083" lon="6.81649">
        <ele>1329</ele>
        <time>2024-09-30T14:43:21Z</time>
      </trkpt>
      <trkpt lat="43.81074" lon="6.81623">
        <ele>1327</ele>
        <time>2024-09-30T14:43:24Z</time>
      </trkpt>
      <trkpt lat="43.81056" lon="6.81589">
        <ele>1325</ele>
        <time>2024-09-30T14:43:30Z</time>
      </trkpt>
      <trkpt lat="43.8104" lon="6.81567">
        <ele>1323</ele>
        <time>2024-09-30T14:43:34Z</time>
      </trkpt>
      <trkpt lat="43.81009" lon="6.81543">
        <ele>1315</ele>
        <time>2024-09-30T14:43:40Z</time>
      </trkpt>
      <trkpt lat="43.80988" lon="6.81522">
        <ele>1313</ele>
        <time>2024-09-30T14:43:45Z</time>
      </trkpt>
      <trkpt lat="43.80977" lon="6.81507">
        <ele>1310</ele>
        <time>2024-09-30T14:43:47Z</time>
      </trkpt>
      <trkpt lat="43.80958" lon="6.81465">
        <ele>1306</ele>
        <time>2024-09-30T14:43:54Z</time>
      </trkpt>
      <trkpt lat="43.80954" lon="6.81447">
        <ele>1303</ele>
        <time>2024-09-30T14:43:56Z</time>
      </trkpt>
      <trkpt lat="43.80945" lon="6.8136">
        <ele>1301</ele>
        <time>2024-09-30T14:44:08Z</time>
      </trkpt>
      <trkpt lat="43.80947" lon="6.81344">
        <ele>1301</ele>
        <time>2024-09-30T14:44:10Z</time>
      </trkpt>
      <trkpt lat="43.80952" lon="6.8133">
        <ele>1302</ele>
        <time>2024-09-30T14:44:12Z</time>
      </trkpt>
      <trkpt lat="43.80954" lon="6.81318">
        <ele>1301</ele>
        <time>2024-09-30T14:44:13Z</time>
      </trkpt>
      <trkpt lat="43.80954" lon="6.81271">
        <ele>1299</ele>
        <time>2024-09-30T14:44:19Z</time>
      </trkpt>
      <trkpt lat="43.80945" lon="6.8124">
        <ele>1296</ele>
        <time>2024-09-30T14:44:24Z</time>
      </trkpt>
      <trkpt lat="43.80932" lon="6.81215">
        <ele>1293</ele>
        <time>2024-09-30T14:44:27Z</time>
      </trkpt>
      <trkpt lat="43.80924" lon="6.81207">
        <ele>1290</ele>
        <time>2024-09-30T14:44:29Z</time>
      </trkpt>
      <trkpt lat="43.80918" lon="6.81211">
        <ele>1289</ele>
        <time>2024-09-30T14:44:30Z</time>
      </trkpt>
      <trkpt lat="43.80912" lon="6.81243">
        <ele>1285</ele>
        <time>2024-09-30T14:44:35Z</time>
      </trkpt>
      <trkpt lat="43.80904" lon="6.8127">
        <ele>1280</ele>
        <time>2024-09-30T14:44:38Z</time>
      </trkpt>
      <trkpt lat="43.80897" lon="6.81284">
        <ele>1279</ele>
        <time>2024-09-30T14:44:41Z</time>
      </trkpt>
      <trkpt lat="43.80881" lon="6.8131">
        <ele>1274</ele>
        <time>2024-09-30T14:44:45Z</time>
      </trkpt>
      <trkpt lat="43.80875" lon="6.81315">
        <ele>1273</ele>
        <time>2024-09-30T14:44:46Z</time>
      </trkpt>
      <trkpt lat="43.80872" lon="6.81314">
        <ele>1272</ele>
        <time>2024-09-30T14:44:47Z</time>
      </trkpt>
      <trkpt lat="43.80869" lon="6.81311">
        <ele>1271</ele>
      </trkpt>
      <trkpt lat="43.80842" lon="6.81244">
        <ele>1263</ele>
        <time>2024-09-30T14:44:57Z</time>
      </trkpt>
      <trkpt lat="43.8083" lon="6.81224">
        <ele>1261</ele>
        <time>2024-09-30T14:45:01Z</time>
      </trkpt>
      <trkpt lat="43.8082" lon="6.8121">
        <ele>1259</ele>
        <time>2024-09-30T14:45:03Z</time>
      </trkpt>
      <trkpt lat="43.80798" lon="6.81192">
        <ele>1253</ele>
        <time>2024-09-30T14:45:08Z</time>
      </trkpt>
      <trkpt lat="43.80793" lon="6.81185">
        <ele>1252</ele>
        <time>2024-09-30T14:45:09Z</time>
      </trkpt>
      <trkpt lat="43.8079" lon="6.81178">
        <ele>1251</ele>
        <time>2024-09-30T14:45:10Z</time>
      </trkpt>
      <trkpt lat="43.80789" lon="6.81165">
        <ele>1251</ele>
        <time>2024-09-30T14:45:12Z</time>
      </trkpt>
      <trkpt lat="43.80788" lon="6.81135">
        <ele>1249</ele>
        <time>2024-09-30T14:45:16Z</time>
      </trkpt>
      <trkpt lat="43.8079" lon="6.81088">
        <ele>1246</ele>
        <time>2024-09-30T14:45:22Z</time>
      </trkpt>
      <trkpt lat="43.80786" lon="6.81061">
        <ele>1244</ele>
        <time>2024-09-30T14:45:25Z</time>
      </trkpt>
      <trkpt lat="43.80772" lon="6.8102">
        <ele>1240</ele>
        <time>2024-09-30T14:45:31Z</time>
      </trkpt>
      <trkpt lat="43.80763" lon="6.81002">
        <ele>1238</ele>
        <time>2024-09-30T14:45:34Z</time>
      </trkpt>
      <trkpt lat="43.8074" lon="6.80962">
        <ele>1233</ele>
        <time>2024-09-30T14:45:40Z</time>
      </trkpt>
      <trkpt lat="43.80735" lon="6.80952">
        <ele>1232</ele>
        <time>2024-09-30T14:45:42Z</time>
      </trkpt>
      <trkpt lat="43.8073" lon="6.80949">
        <ele>1231</ele>
        <time>2024-09-30T14:45:43Z</time>
      </trkpt>
      <trkpt lat="43.80727" lon="6.80949">
        <ele>1230</ele>
      </trkpt>
      <trkpt lat="43.80723" lon="6.80954">
        <ele>1228</ele>
        <time>2024-09-30T14:45:44Z</time>
      </trkpt>
      <trkpt lat="43.807" lon="6.81001">
        <ele>1224</ele>
        <time>2024-09-30T14:45:52Z</time>
      </trkpt>
      <trkpt lat="43.80692" lon="6.81013">
        <ele>1222</ele>
        <time>2024-09-30T14:45:54Z</time>
      </trkpt>
      <trkpt lat="43.80685" lon="6.81016">
        <ele>1221</ele>
        <time>2024-09-30T14:45:55Z</time>
      </trkpt>
      <trkpt lat="43.80685" lon="6.81024">
        <ele>1221</ele>
        <time>2024-09-30T14:45:56Z</time>
      </trkpt>
      <trkpt lat="43.80688" lon="6.81107">
        <ele>1222</ele>
        <time>2024-09-30T14:46:07Z</time>
      </trkpt>
      <trkpt lat="43.80684" lon="6.8113">
        <ele>1220</ele>
        <time>2024-09-30T14:46:10Z</time>
      </trkpt>
      <trkpt lat="43.80659" lon="6.81069">
        <ele>1215</ele>
        <time>2024-09-30T14:46:19Z</time>
      </trkpt>
      <trkpt lat="43.80647" lon="6.81027">
        <ele>1213</ele>
        <time>2024-09-30T14:46:25Z</time>
      </trkpt>
      <trkpt lat="43.80643" lon="6.81022">
        <ele>1212</ele>
        <time>2024-09-30T14:46:26Z</time>
      </trkpt>
      <trkpt lat="43.80644" lon="6.81125">
        <ele>1210</ele>
        <time>2024-09-30T14:46:39Z</time>
      </trkpt>
      <trkpt lat="43.80643" lon="6.8117">
        <ele>1207</ele>
        <time>2024-09-30T14:46:45Z</time>
      </trkpt>
      <trkpt lat="43.80644" lon="6.81198">
        <ele>1206</ele>
        <time>2024-09-30T14:46:48Z</time>
      </trkpt>
      <trkpt lat="43.80642" lon="6.81235">
        <ele>1206</ele>
        <time>2024-09-30T14:46:53Z</time>
      </trkpt>
      <trkpt lat="43.80636" lon="6.81257">
        <ele>1205</ele>
        <time>2024-09-30T14:46:56Z</time>
      </trkpt>
      <trkpt lat="43.80629" lon="6.81266">
        <ele>1206</ele>
        <time>2024-09-30T14:46:58Z</time>
      </trkpt>
      <trkpt lat="43.80614" lon="6.81279">
        <ele>1204</ele>
        <time>2024-09-30T14:47:01Z</time>
      </trkpt>
      <trkpt lat="43.80601" lon="6.81287">
        <ele>1202</ele>
        <time>2024-09-30T14:47:03Z</time>
      </trkpt>
      <trkpt lat="43.80582" lon="6.81308">
        <ele>1199</ele>
        <time>2024-09-30T14:47:08Z</time>
      </trkpt>
      <trkpt lat="43.80537" lon="6.81358">
        <ele>1193</ele>
        <time>2024-09-30T14:47:18Z</time>
      </trkpt>
      <trkpt lat="43.80524" lon="6.81365">
        <ele>1191</ele>
        <time>2024-09-30T14:47:20Z</time>
      </trkpt>
      <trkpt lat="43.80504" lon="6.81368">
        <ele>1189</ele>
        <time>2024-09-30T14:47:24Z</time>
      </trkpt>
      <trkpt lat="43.80481" lon="6.81374">
        <ele>1187</ele>
        <time>2024-09-30T14:47:28Z</time>
      </trkpt>
      <trkpt lat="43.80442" lon="6.8138">
        <ele>1182</ele>
        <time>2024-09-30T14:47:35Z</time>
      </trkpt>
      <trkpt lat="43.80432" lon="6.81388">
        <ele>1180</ele>
        <time>2024-09-30T14:47:37Z</time>
      </trkpt>
      <trkpt lat="43.80429" lon="6.81399">
        <ele>1180</ele>
        <time>2024-09-30T14:47:39Z</time>
      </trkpt>
      <trkpt lat="43.80431" lon="6.8141">
        <ele>1179</ele>
        <time>2024-09-30T14:47:40Z</time>
      </trkpt>
      <trkpt lat="43.80436" lon="6.81422">
        <ele>1179</ele>
        <time>2024-09-30T14:47:42Z</time>
      </trkpt>
      <trkpt lat="43.80455" lon="6.81458">
        <ele>1179</ele>
        <time>2024-09-30T14:47:48Z</time>
      </trkpt>
      <trkpt lat="43.80471" lon="6.81499">
        <ele>1178</ele>
        <time>2024-09-30T14:47:54Z</time>
      </trkpt>
      <trkpt lat="43.80478" lon="6.81534">
        <ele>1174</ele>
        <time>2024-09-30T14:47:58Z</time>
      </trkpt>
      <trkpt lat="43.80477" lon="6.81561">
        <ele>1172</ele>
        <time>2024-09-30T14:48:02Z</time>
      </trkpt>
      <trkpt lat="43.80477" lon="6.81571">
        <ele>1173</ele>
        <time>2024-09-30T14:48:03Z</time>
      </trkpt>
      <trkpt lat="43.80474" lon="6.81582">
        <ele>1171</ele>
        <time>2024-09-30T14:48:05Z</time>
      </trkpt>
      <trkpt lat="43.80468" lon="6.81591">
        <ele>1171</ele>
        <time>2024-09-30T14:48:06Z</time>
      </trkpt>
      <trkpt lat="43.80461" lon="6.81595">
        <ele>1170</ele>
        <time>2024-09-30T14:48:07Z</time>
      </trkpt>
      <trkpt lat="43.80449" lon="6.81594">
        <ele>1168</ele>
        <time>2024-09-30T14:48:10Z</time>
      </trkpt>
      <trkpt lat="43.80438" lon="6.81588">
        <ele>1168</ele>
        <time>2024-09-30T14:48:12Z</time>
      </trkpt>
      <trkpt lat="43.80405" lon="6.81557">
        <ele>1163</ele>
        <time>2024-09-30T14:48:19Z</time>
      </trkpt>
      <trkpt lat="43.80395" lon="6.81553">
        <ele>1161</ele>
        <time>2024-09-30T14:48:21Z</time>
      </trkpt>
      <trkpt lat="43.80388" lon="6.81553">
        <ele>1161</ele>
        <time>2024-09-30T14:48:22Z</time>
      </trkpt>
      <trkpt lat="43.80371" lon="6.81561">
        <ele>1159</ele>
        <time>2024-09-30T14:48:25Z</time>
      </trkpt>
      <trkpt lat="43.80333" lon="6.81591">
        <ele>1155</ele>
        <time>2024-09-30T14:48:33Z</time>
      </trkpt>
      <trkpt lat="43.80321" lon="6.81597">
        <ele>1154</ele>
        <time>2024-09-30T14:48:35Z</time>
      </trkpt>
      <trkpt lat="43.8025" lon="6.81608">
        <ele>1147</ele>
        <time>2024-09-30T14:48:48Z</time>
      </trkpt>
      <trkpt lat="43.8004" lon="6.81638">
        <ele>1136</ele>
        <time>2024-09-30T14:49:25Z</time>
      </trkpt>
      <trkpt lat="43.80026" lon="6.81649">
        <ele>1136</ele>
        <time>2024-09-30T14:49:28Z</time>
      </trkpt>
      <trkpt lat="43.80014" lon="6.81663">
        <ele>1136</ele>
        <time>2024-09-30T14:49:31Z</time>
      </trkpt>
      <trkpt lat="43.80019" lon="6.81687">
        <ele>1136</ele>
        <time>2024-09-30T14:49:34Z</time>
      </trkpt>
      <trkpt lat="43.80062" lon="6.81912">
        <ele>1138</ele>
        <time>2024-09-30T14:50:04Z</time>
      </trkpt>
      <trkpt lat="43.80141" lon="6.82334">
        <ele>1145</ele>
        <time>2024-09-30T14:51:00Z</time>
      </trkpt>
      <trkpt lat="43.80148" lon="6.82375">
        <ele>1145</ele>
        <time>2024-09-30T14:51:06Z</time>
      </trkpt>
      <trkpt lat="43.80152" lon="6.82414">
        <ele>1146</ele>
        <time>2024-09-30T14:51:11Z</time>
      </trkpt>
      <trkpt lat="43.80152" lon="6.82432">
        <ele>1146</ele>
        <time>2024-09-30T14:51:13Z</time>
      </trkpt>
      <trkpt lat="43.80146" lon="6.8247">
        <ele>1146</ele>
        <time>2024-09-30T14:51:18Z</time>
      </trkpt>
      <trkpt lat="43.80139" lon="6.82496">
        <ele>1145</ele>
        <time>2024-09-30T14:51:22Z</time>
      </trkpt>
      <trkpt lat="43.80103" lon="6.82634">
        <ele>1143</ele>
        <time>2024-09-30T14:51:40Z</time>
      </trkpt>
      <trkpt lat="43.80097" lon="6.82653">
        <ele>1142</ele>
        <time>2024-09-30T14:51:43Z</time>
      </trkpt>
      <trkpt lat="43.80078" lon="6.82698">
        <ele>1142</ele>
        <time>2024-09-30T14:51:50Z</time>
      </trkpt>
      <trkpt lat="43.80071" lon="6.82721">
        <ele>1142</ele>
        <time>2024-09-30T14:51:53Z</time>
      </trkpt>
      <trkpt lat="43.80038" lon="6.82894">
        <ele>1150</ele>
        <time>2024-09-30T14:52:16Z</time>
      </trkpt>
      <trkpt lat="43.80029" lon="6.82919">
        <ele>1151</ele>
        <time>2024-09-30T14:52:19Z</time>
      </trkpt>
      <trkpt lat="43.80022" lon="6.82934">
        <ele>1151</ele>
        <time>2024-09-30T14:52:22Z</time>
      </trkpt>
      <trkpt lat="43.80009" lon="6.82953">
        <ele>1152</ele>
        <time>2024-09-30T14:52:25Z</time>
      </trkpt>
      <trkpt lat="43.79943" lon="6.83035">
        <ele>1151</ele>
        <time>2024-09-30T14:52:41Z</time>
      </trkpt>
      <trkpt lat="43.79923" lon="6.83067">
        <ele>1153</ele>
        <time>2024-09-30T14:52:46Z</time>
      </trkpt>
      <trkpt lat="43.79907" lon="6.83104">
        <ele>1155</ele>
        <time>2024-09-30T14:52:52Z</time>
      </trkpt>
      <trkpt lat="43.79901" lon="6.83129">
        <ele>1155</ele>
        <time>2024-09-30T14:52:55Z</time>
      </trkpt>
      <trkpt lat="43.79896" lon="6.83155">
        <ele>1156</ele>
        <time>2024-09-30T14:52:59Z</time>
      </trkpt>
      <trkpt lat="43.79896" lon="6.83178">
        <ele>1155</ele>
        <time>2024-09-30T14:53:16Z</time>
      </trkpt>
      <trkpt lat="43.79893" lon="6.83179">
        <ele>1156</ele>
        <time>2024-09-30T14:53:15Z</time>
      </trkpt>
      <trkpt lat="43.79898" lon="6.8323">
        <ele>1155</ele>
        <time>2024-09-30T14:53:09Z</time>
      </trkpt>
      <trkpt lat="43.79893" lon="6.83179">
        <ele>1156</ele>
        <time>2024-09-30T14:53:15Z</time>
      </trkpt>
      <trkpt lat="43.79896" lon="6.83178">
        <ele>1155</ele>
        <time>2024-09-30T14:53:16Z</time>
      </trkpt>
      <trkpt lat="43.79899" lon="6.83203">
        <ele>1155</ele>
        <time>2024-09-30T14:53:19Z</time>
      </trkpt>
      <trkpt lat="43.79908" lon="6.83254">
        <ele>1156</ele>
        <time>2024-09-30T14:53:26Z</time>
      </trkpt>
      <trkpt lat="43.79923" lon="6.83322">
        <ele>1160</ele>
        <time>2024-09-30T14:53:35Z</time>
      </trkpt>
      <trkpt lat="43.79938" lon="6.83376">
        <ele>1160</ele>
        <time>2024-09-30T14:53:43Z</time>
      </trkpt>
      <trkpt lat="43.79984" lon="6.83493">
        <ele>1158</ele>
        <time>2024-09-30T14:54:00Z</time>
      </trkpt>
      <trkpt lat="43.80027" lon="6.83636">
        <ele>1162</ele>
        <time>2024-09-30T14:54:20Z</time>
      </trkpt>
      <trkpt lat="43.80049" lon="6.83701">
        <ele>1162</ele>
        <time>2024-09-30T14:54:29Z</time>
      </trkpt>
      <trkpt lat="43.80052" lon="6.83718">
        <ele>1162</ele>
        <time>2024-09-30T14:54:31Z</time>
      </trkpt>
      <trkpt lat="43.80045" lon="6.83765">
        <ele>1163</ele>
        <time>2024-09-30T14:54:37Z</time>
      </trkpt>
      <trkpt lat="43.80045" lon="6.83778">
        <ele>1163</ele>
        <time>2024-09-30T14:54:39Z</time>
      </trkpt>
      <trkpt lat="43.80051" lon="6.83779">
        <ele>1163</ele>
        <time>2024-09-30T14:54:40Z</time>
      </trkpt>
      <trkpt lat="43.80056" lon="6.83783">
        <ele>1163</ele>
        <time>2024-09-30T14:54:41Z</time>
      </trkpt>
      <trkpt lat="43.80057" lon="6.83787">
        <ele>1163</ele>
        <time>2024-09-30T14:54:42Z</time>
      </trkpt>
      <trkpt lat="43.80056" lon="6.83798">
        <ele>1163</ele>
        <time>2024-09-30T14:54:43Z</time>
      </trkpt>
      <trkpt lat="43.80052" lon="6.83804">
        <ele>1163</ele>
        <time>2024-09-30T14:54:44Z</time>
      </trkpt>
      <trkpt lat="43.8006" lon="6.83814">
        <ele>1162</ele>
        <time>2024-09-30T14:54:46Z</time>
      </trkpt>
      <trkpt lat="43.80092" lon="6.83841">
        <ele>1165</ele>
        <time>2024-09-30T14:54:53Z</time>
      </trkpt>
      <trkpt lat="43.80101" lon="6.83855">
        <ele>1166</ele>
        <time>2024-09-30T14:54:55Z</time>
      </trkpt>
      <trkpt lat="43.80121" lon="6.83893">
        <ele>1166</ele>
        <time>2024-09-30T14:55:01Z</time>
      </trkpt>
      <trkpt lat="43.80138" lon="6.83932">
        <ele>1167</ele>
        <time>2024-09-30T14:55:07Z</time>
      </trkpt>
      <trkpt lat="43.80162" lon="6.83997">
        <ele>1169</ele>
        <time>2024-09-30T14:55:16Z</time>
      </trkpt>
      <trkpt lat="43.8018" lon="6.84054">
        <ele>1170</ele>
        <time>2024-09-30T14:55:24Z</time>
      </trkpt>
      <trkpt lat="43.80187" lon="6.84085">
        <ele>1171</ele>
        <time>2024-09-30T14:55:28Z</time>
      </trkpt>
      <trkpt lat="43.80196" lon="6.84122">
        <ele>1172</ele>
        <time>2024-09-30T14:55:33Z</time>
      </trkpt>
      <trkpt lat="43.80207" lon="6.84175">
        <ele>1173</ele>
        <time>2024-09-30T14:55:41Z</time>
      </trkpt>
      <trkpt lat="43.80215" lon="6.84254">
        <ele>1173</ele>
        <time>2024-09-30T14:55:51Z</time>
      </trkpt>
      <trkpt lat="43.80243" lon="6.84561">
        <ele>1168</ele>
        <time>2024-09-30T14:56:30Z</time>
      </trkpt>
      <trkpt lat="43.8025" lon="6.84592">
        <ele>1168</ele>
        <time>2024-09-30T14:56:35Z</time>
      </trkpt>
      <trkpt lat="43.8028" lon="6.84696">
        <ele>1167</ele>
        <time>2024-09-30T14:56:49Z</time>
      </trkpt>
      <trkpt lat="43.80482" lon="6.85295">
        <ele>1177</ele>
        <time>2024-09-30T14:58:14Z</time>
      </trkpt>
      <trkpt lat="43.80511" lon="6.85362">
        <ele>1177</ele>
        <time>2024-09-30T14:58:24Z</time>
      </trkpt>
      <trkpt lat="43.80599" lon="6.85554">
        <ele>1178</ele>
        <time>2024-09-30T14:58:53Z</time>
      </trkpt>
      <trkpt lat="43.80689" lon="6.85744">
        <ele>1180</ele>
        <time>2024-09-30T14:59:22Z</time>
      </trkpt>
      <trkpt lat="43.80794" lon="6.85932">
        <ele>1186</ele>
        <time>2024-09-30T14:59:53Z</time>
      </trkpt>
      <trkpt lat="43.808" lon="6.85946">
        <ele>1186</ele>
        <time>2024-09-30T14:59:55Z</time>
      </trkpt>
      <trkpt lat="43.80809" lon="6.85974">
        <ele>1187</ele>
        <time>2024-09-30T14:59:59Z</time>
      </trkpt>
      <trkpt lat="43.80822" lon="6.86026">
        <ele>1186</ele>
        <time>2024-09-30T15:00:06Z</time>
      </trkpt>
      <trkpt lat="43.80832" lon="6.86058">
        <ele>1185</ele>
        <time>2024-09-30T15:00:10Z</time>
      </trkpt>
      <trkpt lat="43.80861" lon="6.86142">
        <ele>1181</ele>
        <time>2024-09-30T15:00:22Z</time>
      </trkpt>
      <trkpt lat="43.80868" lon="6.86168">
        <ele>1180</ele>
        <time>2024-09-30T15:00:26Z</time>
      </trkpt>
      <trkpt lat="43.80884" lon="6.8625">
        <ele>1176</ele>
        <time>2024-09-30T15:00:37Z</time>
      </trkpt>
      <trkpt lat="43.80899" lon="6.86313">
        <ele>1173</ele>
        <time>2024-09-30T15:00:45Z</time>
      </trkpt>
      <trkpt lat="43.80905" lon="6.8636">
        <ele>1171</ele>
        <time>2024-09-30T15:00:52Z</time>
      </trkpt>
      <trkpt lat="43.80905" lon="6.86392">
        <ele>1170</ele>
        <time>2024-09-30T15:00:56Z</time>
      </trkpt>
      <trkpt lat="43.809" lon="6.86452">
        <ele>1170</ele>
        <time>2024-09-30T15:01:03Z</time>
      </trkpt>
      <trkpt lat="43.80904" lon="6.86522">
        <ele>1168</ele>
        <time>2024-09-30T15:01:12Z</time>
      </trkpt>
      <trkpt lat="43.80902" lon="6.86541">
        <ele>1167</ele>
        <time>2024-09-30T15:01:15Z</time>
      </trkpt>
      <trkpt lat="43.80897" lon="6.86559">
        <ele>1167</ele>
        <time>2024-09-30T15:01:17Z</time>
      </trkpt>
      <trkpt lat="43.80847" lon="6.86663">
        <ele>1164</ele>
        <time>2024-09-30T15:01:33Z</time>
      </trkpt>
      <trkpt lat="43.8084" lon="6.86684">
        <ele>1164</ele>
        <time>2024-09-30T15:01:36Z</time>
      </trkpt>
      <trkpt lat="43.80833" lon="6.86709">
        <ele>1163</ele>
        <time>2024-09-30T15:01:40Z</time>
      </trkpt>
      <trkpt lat="43.8083" lon="6.86738">
        <ele>1161</ele>
        <time>2024-09-30T15:01:44Z</time>
      </trkpt>
      <trkpt lat="43.8083" lon="6.86753">
        <ele>1160</ele>
        <time>2024-09-30T15:01:46Z</time>
      </trkpt>
      <trkpt lat="43.80831" lon="6.86769">
        <ele>1161</ele>
        <time>2024-09-30T15:01:48Z</time>
      </trkpt>
      <trkpt lat="43.80839" lon="6.86832">
        <ele>1160</ele>
        <time>2024-09-30T15:01:56Z</time>
      </trkpt>
      <trkpt lat="43.8084" lon="6.86855">
        <ele>1161</ele>
        <time>2024-09-30T15:01:59Z</time>
      </trkpt>
      <trkpt lat="43.80829" lon="6.86949">
        <ele>1156</ele>
        <time>2024-09-30T15:02:11Z</time>
      </trkpt>
      <trkpt lat="43.80814" lon="6.87014">
        <ele>1154</ele>
        <time>2024-09-30T15:02:20Z</time>
      </trkpt>
      <trkpt lat="43.80812" lon="6.87029">
        <ele>1154</ele>
        <time>2024-09-30T15:02:22Z</time>
      </trkpt>
      <trkpt lat="43.808" lon="6.87133">
        <ele>1153</ele>
        <time>2024-09-30T15:02:35Z</time>
      </trkpt>
      <trkpt lat="43.80799" lon="6.8716">
        <ele>1153</ele>
        <time>2024-09-30T15:02:39Z</time>
      </trkpt>
      <trkpt lat="43.808" lon="6.87177">
        <ele>1152</ele>
        <time>2024-09-30T15:02:41Z</time>
      </trkpt>
      <trkpt lat="43.80811" lon="6.87238">
        <ele>1150</ele>
        <time>2024-09-30T15:02:49Z</time>
      </trkpt>
      <trkpt lat="43.80815" lon="6.8727">
        <ele>1148</ele>
        <time>2024-09-30T15:02:53Z</time>
      </trkpt>
      <trkpt lat="43.80822" lon="6.87418">
        <ele>1146</ele>
        <time>2024-09-30T15:03:12Z</time>
      </trkpt>
      <trkpt lat="43.80826" lon="6.87449">
        <ele>1146</ele>
        <time>2024-09-30T15:03:16Z</time>
      </trkpt>
      <trkpt lat="43.80844" lon="6.87533">
        <ele>1144</ele>
        <time>2024-09-30T15:03:27Z</time>
      </trkpt>
      <trkpt lat="43.80846" lon="6.87543">
        <ele>1144</ele>
        <time>2024-09-30T15:03:29Z</time>
      </trkpt>
      <trkpt lat="43.80876" lon="6.87627">
        <ele>1142</ele>
        <time>2024-09-30T15:03:41Z</time>
      </trkpt>
      <trkpt lat="43.80884" lon="6.87664">
        <ele>1142</ele>
        <time>2024-09-30T15:03:46Z</time>
      </trkpt>
      <trkpt lat="43.8089" lon="6.87701">
        <ele>1141</ele>
        <time>2024-09-30T15:03:51Z</time>
      </trkpt>
      <trkpt lat="43.80897" lon="6.87872">
        <ele>1140</ele>
        <time>2024-09-30T15:04:13Z</time>
      </trkpt>
      <trkpt lat="43.80904" lon="6.88076">
        <ele>1139</ele>
        <time>2024-09-30T15:04:39Z</time>
      </trkpt>
      <trkpt lat="43.80905" lon="6.88139">
        <ele>1139</ele>
        <time>2024-09-30T15:04:47Z</time>
      </trkpt>
      <trkpt lat="43.80902" lon="6.88176">
        <ele>1140</ele>
        <time>2024-09-30T15:04:52Z</time>
      </trkpt>
      <trkpt lat="43.80891" lon="6.88261">
        <ele>1142</ele>
        <time>2024-09-30T15:05:03Z</time>
      </trkpt>
      <trkpt lat="43.80883" lon="6.88285">
        <ele>1143</ele>
        <time>2024-09-30T15:05:06Z</time>
      </trkpt>
      <trkpt lat="43.80878" lon="6.88291">
        <ele>1143</ele>
        <time>2024-09-30T15:05:07Z</time>
      </trkpt>
      <trkpt lat="43.80876" lon="6.883">
        <ele>1143</ele>
        <time>2024-09-30T15:05:09Z</time>
      </trkpt>
      <trkpt lat="43.80878" lon="6.88309">
        <ele>1144</ele>
        <time>2024-09-30T15:05:10Z</time>
      </trkpt>
      <trkpt lat="43.8088" lon="6.88312">
        <ele>1143</ele>
      </trkpt>
      <trkpt lat="43.8088" lon="6.88339">
        <ele>1143</ele>
        <time>2024-09-30T15:05:14Z</time>
      </trkpt>
      <trkpt lat="43.80863" lon="6.88465">
        <ele>1149</ele>
        <time>2024-09-30T15:05:30Z</time>
      </trkpt>
      <trkpt lat="43.80856" lon="6.88493">
        <ele>1148</ele>
        <time>2024-09-30T15:05:34Z</time>
      </trkpt>
      <trkpt lat="43.80825" lon="6.88594">
        <ele>1145</ele>
        <time>2024-09-30T15:05:48Z</time>
      </trkpt>
      <trkpt lat="43.80818" lon="6.88622">
        <ele>1144</ele>
        <time>2024-09-30T15:05:52Z</time>
      </trkpt>
      <trkpt lat="43.80786" lon="6.88777">
        <ele>1140</ele>
        <time>2024-09-30T15:06:13Z</time>
      </trkpt>
      <trkpt lat="43.80747" lon="6.89042">
        <ele>1129</ele>
        <time>2024-09-30T15:06:47Z</time>
      </trkpt>
      <trkpt lat="43.80725" lon="6.89177">
        <ele>1127</ele>
        <time>2024-09-30T15:07:05Z</time>
      </trkpt>
      <trkpt lat="43.8073" lon="6.89183">
        <ele>1127</ele>
        <time>2024-09-30T15:07:06Z</time>
      </trkpt>
      <trkpt lat="43.80756" lon="6.892">
        <ele>1127</ele>
        <time>2024-09-30T15:07:11Z</time>
      </trkpt>
      <trkpt lat="43.80771" lon="6.89196">
        <ele>1127</ele>
        <time>2024-09-30T15:07:14Z</time>
      </trkpt>
      <trkpt lat="43.80784" lon="6.89194">
        <ele>1127</ele>
        <time>2024-09-30T15:07:17Z</time>
      </trkpt>
      <trkpt lat="43.80794" lon="6.89202">
        <ele>1127</ele>
        <time>2024-09-30T15:07:19Z</time>
      </trkpt>
      <trkpt lat="43.80835" lon="6.89241">
        <ele>1127</ele>
        <time>2024-09-30T15:07:27Z</time>
      </trkpt>
      <trkpt lat="43.80909" lon="6.89242">
        <ele>1127</ele>
        <time>2024-09-30T15:07:41Z</time>
      </trkpt>
      <trkpt lat="43.80916" lon="6.89246">
        <ele>1127</ele>
        <time>2024-09-30T15:07:42Z</time>
      </trkpt>
      <trkpt lat="43.80928" lon="6.89242">
        <ele>1128</ele>
        <time>2024-09-30T15:07:44Z</time>
      </trkpt>
      <trkpt lat="43.80965" lon="6.89246">
        <ele>1131</ele>
        <time>2024-09-30T15:07:51Z</time>
      </trkpt>
      <trkpt lat="43.8097" lon="6.8925">
        <ele>1131</ele>
        <time>2024-09-30T15:07:52Z</time>
      </trkpt>
      <trkpt lat="43.80972" lon="6.89257">
        <ele>1131</ele>
        <time>2024-09-30T15:07:53Z</time>
      </trkpt>
      <trkpt lat="43.8098" lon="6.89369">
        <ele>1134</ele>
        <time>2024-09-30T15:08:07Z</time>
      </trkpt>
      <trkpt lat="43.80984" lon="6.89376">
        <ele>1134</ele>
        <time>2024-09-30T15:08:08Z</time>
      </trkpt>
      <trkpt lat="43.80999" lon="6.89377">
        <ele>1135</ele>
        <time>2024-09-30T15:08:11Z</time>
      </trkpt>
      <trkpt lat="43.81014" lon="6.89384">
        <ele>1134</ele>
        <time>2024-09-30T15:08:14Z</time>
      </trkpt>
      <trkpt lat="43.8103" lon="6.89384">
        <ele>1133</ele>
        <time>2024-09-30T15:08:17Z</time>
      </trkpt>
      <trkpt lat="43.81063" lon="6.89374">
        <ele>1131</ele>
        <time>2024-09-30T15:08:23Z</time>
      </trkpt>
      <trkpt lat="43.81082" lon="6.89366">
        <ele>1132</ele>
        <time>2024-09-30T15:08:26Z</time>
      </trkpt>
      <trkpt lat="43.8109" lon="6.89359">
        <ele>1133</ele>
        <time>2024-09-30T15:08:28Z</time>
      </trkpt>
      <trkpt lat="43.81095" lon="6.89347">
        <ele>1133</ele>
        <time>2024-09-30T15:08:30Z</time>
      </trkpt>
      <trkpt lat="43.81121" lon="6.8927">
        <ele>1137</ele>
        <time>2024-09-30T15:08:41Z</time>
      </trkpt>
      <trkpt lat="43.81125" lon="6.89252">
        <ele>1137</ele>
        <time>2024-09-30T15:08:43Z</time>
      </trkpt>
      <trkpt lat="43.81126" lon="6.89162">
        <ele>1136</ele>
        <time>2024-09-30T15:08:55Z</time>
      </trkpt>
      <trkpt lat="43.81128" lon="6.89145">
        <ele>1135</ele>
        <time>2024-09-30T15:08:57Z</time>
      </trkpt>
      <trkpt lat="43.81132" lon="6.89136">
        <ele>1135</ele>
        <time>2024-09-30T15:08:58Z</time>
      </trkpt>
      <trkpt lat="43.81138" lon="6.89131">
        <ele>1134</ele>
        <time>2024-09-30T15:08:59Z</time>
      </trkpt>
      <trkpt lat="43.81145" lon="6.89131">
        <ele>1134</ele>
        <time>2024-09-30T15:09:01Z</time>
      </trkpt>
      <trkpt lat="43.81158" lon="6.89147">
        <ele>1134</ele>
        <time>2024-09-30T15:09:04Z</time>
      </trkpt>
      <trkpt lat="43.81191" lon="6.89192">
        <ele>1134</ele>
        <time>2024-09-30T15:09:12Z</time>
      </trkpt>
      <trkpt lat="43.81198" lon="6.89206">
        <ele>1135</ele>
        <time>2024-09-30T15:09:14Z</time>
      </trkpt>
      <trkpt lat="43.81217" lon="6.89251">
        <ele>1136</ele>
        <time>2024-09-30T15:09:21Z</time>
      </trkpt>
      <trkpt lat="43.81224" lon="6.89274">
        <ele>1136</ele>
        <time>2024-09-30T15:09:24Z</time>
      </trkpt>
      <trkpt lat="43.81246" lon="6.89376">
        <ele>1138</ele>
        <time>2024-09-30T15:09:38Z</time>
      </trkpt>
      <trkpt lat="43.81275" lon="6.8943">
        <ele>1140</ele>
        <time>2024-09-30T15:09:46Z</time>
      </trkpt>
      <trkpt lat="43.81308" lon="6.89461">
        <ele>1141</ele>
        <time>2024-09-30T15:09:53Z</time>
      </trkpt>
      <trkpt lat="43.81337" lon="6.89531">
        <ele>1144</ele>
        <time>2024-09-30T15:10:04Z</time>
      </trkpt>
      <trkpt lat="43.8138" lon="6.897">
        <ele>1147</ele>
        <time>2024-09-30T15:10:27Z</time>
      </trkpt>
      <trkpt lat="43.81379" lon="6.89735">
        <ele>1149</ele>
        <time>2024-09-30T15:10:31Z</time>
      </trkpt>
      <trkpt lat="43.81389" lon="6.89812">
        <ele>1151</ele>
        <time>2024-09-30T15:10:41Z</time>
      </trkpt>
      <trkpt lat="43.81405" lon="6.89894">
        <ele>1152</ele>
        <time>2024-09-30T15:10:52Z</time>
      </trkpt>
      <trkpt lat="43.81419" lon="6.8992">
        <ele>1152</ele>
        <time>2024-09-30T15:10:56Z</time>
      </trkpt>
      <trkpt lat="43.81428" lon="6.89957">
        <ele>1153</ele>
        <time>2024-09-30T15:11:01Z</time>
      </trkpt>
      <trkpt lat="43.81444" lon="6.89982">
        <ele>1154</ele>
        <time>2024-09-30T15:11:06Z</time>
      </trkpt>
      <trkpt lat="43.81466" lon="6.90061">
        <ele>1158</ele>
        <time>2024-09-30T15:11:17Z</time>
      </trkpt>
      <trkpt lat="43.81479" lon="6.90083">
        <ele>1159</ele>
        <time>2024-09-30T15:11:20Z</time>
      </trkpt>
      <trkpt lat="43.81494" lon="6.90085">
        <ele>1159</ele>
        <time>2024-09-30T15:11:23Z</time>
      </trkpt>
      <trkpt lat="43.81513" lon="6.90111">
        <ele>1160</ele>
        <time>2024-09-30T15:11:28Z</time>
      </trkpt>
      <trkpt lat="43.81532" lon="6.90114">
        <ele>1161</ele>
        <time>2024-09-30T15:11:31Z</time>
      </trkpt>
      <trkpt lat="43.81543" lon="6.90125">
        <ele>1162</ele>
        <time>2024-09-30T15:11:33Z</time>
      </trkpt>
      <trkpt lat="43.81584" lon="6.90145">
        <ele>1168</ele>
        <time>2024-09-30T15:11:41Z</time>
      </trkpt>
      <trkpt lat="43.81591" lon="6.90158">
        <ele>1169</ele>
        <time>2024-09-30T15:11:43Z</time>
      </trkpt>
      <trkpt lat="43.81608" lon="6.90272">
        <ele>1177</ele>
        <time>2024-09-30T15:11:58Z</time>
      </trkpt>
      <trkpt lat="43.81614" lon="6.90291">
        <ele>1179</ele>
        <time>2024-09-30T15:12:01Z</time>
      </trkpt>
      <trkpt lat="43.8162" lon="6.90324">
        <ele>1182</ele>
        <time>2024-09-30T15:12:05Z</time>
      </trkpt>
      <trkpt lat="43.81628" lon="6.90336">
        <ele>1183</ele>
        <time>2024-09-30T15:12:07Z</time>
      </trkpt>
      <trkpt lat="43.81637" lon="6.90342">
        <ele>1185</ele>
        <time>2024-09-30T15:12:09Z</time>
      </trkpt>
      <trkpt lat="43.81646" lon="6.90342">
        <ele>1186</ele>
        <time>2024-09-30T15:12:11Z</time>
      </trkpt>
      <trkpt lat="43.81655" lon="6.90353">
        <ele>1187</ele>
        <time>2024-09-30T15:12:13Z</time>
      </trkpt>
      <trkpt lat="43.81686" lon="6.90402">
        <ele>1195</ele>
        <time>2024-09-30T15:12:21Z</time>
      </trkpt>
      <trkpt lat="43.81709" lon="6.90448">
        <ele>1201</ele>
        <time>2024-09-30T15:12:28Z</time>
      </trkpt>
      <trkpt lat="43.81735" lon="6.90488">
        <ele>1207</ele>
        <time>2024-09-30T15:12:35Z</time>
      </trkpt>
      <trkpt lat="43.8174" lon="6.90503">
        <ele>1208</ele>
        <time>2024-09-30T15:12:37Z</time>
      </trkpt>
      <trkpt lat="43.81743" lon="6.90541">
        <ele>1212</ele>
        <time>2024-09-30T15:12:42Z</time>
      </trkpt>
      <trkpt lat="43.81751" lon="6.906">
        <ele>1218</ele>
        <time>2024-09-30T15:12:50Z</time>
      </trkpt>
      <trkpt lat="43.81783" lon="6.90693">
        <ele>1228</ele>
        <time>2024-09-30T15:13:03Z</time>
      </trkpt>
      <trkpt lat="43.81819" lon="6.90775">
        <ele>1240</ele>
        <time>2024-09-30T15:13:16Z</time>
      </trkpt>
      <trkpt lat="43.81847" lon="6.90829">
        <ele>1248</ele>
        <time>2024-09-30T15:13:24Z</time>
      </trkpt>
      <trkpt lat="43.8187" lon="6.90866">
        <ele>1253</ele>
        <time>2024-09-30T15:13:30Z</time>
      </trkpt>
      <trkpt lat="43.81913" lon="6.90874">
        <ele>1258</ele>
        <time>2024-09-30T15:13:38Z</time>
      </trkpt>
      <trkpt lat="43.81952" lon="6.90878">
        <ele>1262</ele>
        <time>2024-09-30T15:13:45Z</time>
      </trkpt>
      <trkpt lat="43.81994" lon="6.9087">
        <ele>1265</ele>
        <time>2024-09-30T15:13:53Z</time>
      </trkpt>
      <trkpt lat="43.82035" lon="6.90855">
        <ele>1268</ele>
        <time>2024-09-30T15:14:00Z</time>
      </trkpt>
      <trkpt lat="43.82065" lon="6.90863">
        <ele>1271</ele>
        <time>2024-09-30T15:14:06Z</time>
      </trkpt>
      <trkpt lat="43.82094" lon="6.90896">
        <ele>1273</ele>
        <time>2024-09-30T15:14:12Z</time>
      </trkpt>
      <trkpt lat="43.82115" lon="6.90911">
        <ele>1275</ele>
        <time>2024-09-30T15:14:17Z</time>
      </trkpt>
      <trkpt lat="43.82132" lon="6.90908">
        <ele>1276</ele>
        <time>2024-09-30T15:14:20Z</time>
      </trkpt>
      <trkpt lat="43.82145" lon="6.90917">
        <ele>1277</ele>
        <time>2024-09-30T15:14:22Z</time>
      </trkpt>
      <trkpt lat="43.82163" lon="6.90937">
        <ele>1280</ele>
        <time>2024-09-30T15:14:26Z</time>
      </trkpt>
      <trkpt lat="43.82176" lon="6.90943">
        <ele>1281</ele>
        <time>2024-09-30T15:14:29Z</time>
      </trkpt>
      <trkpt lat="43.82183" lon="6.90935">
        <ele>1282</ele>
        <time>2024-09-30T15:14:30Z</time>
      </trkpt>
      <trkpt lat="43.82188" lon="6.90915">
        <ele>1284</ele>
        <time>2024-09-30T15:14:33Z</time>
      </trkpt>
      <trkpt lat="43.82192" lon="6.90892">
        <ele>1285</ele>
        <time>2024-09-30T15:14:36Z</time>
      </trkpt>
      <trkpt lat="43.82206" lon="6.90864">
        <ele>1289</ele>
        <time>2024-09-30T15:14:40Z</time>
      </trkpt>
      <trkpt lat="43.82229" lon="6.9081">
        <ele>1294</ele>
        <time>2024-09-30T15:14:49Z</time>
      </trkpt>
      <trkpt lat="43.82274" lon="6.90695">
        <ele>1305</ele>
        <time>2024-09-30T15:15:05Z</time>
      </trkpt>
      <trkpt lat="43.82288" lon="6.90692">
        <ele>1307</ele>
        <time>2024-09-30T15:15:08Z</time>
      </trkpt>
      <trkpt lat="43.82367" lon="6.90688">
        <ele>1317</ele>
        <time>2024-09-30T15:15:22Z</time>
      </trkpt>
      <trkpt lat="43.82426" lon="6.90713">
        <ele>1327</ele>
        <time>2024-09-30T15:15:33Z</time>
      </trkpt>
      <trkpt lat="43.82472" lon="6.90739">
        <ele>1336</ele>
        <time>2024-09-30T15:15:42Z</time>
      </trkpt>
      <trkpt lat="43.82508" lon="6.90752">
        <ele>1343</ele>
        <time>2024-09-30T15:15:48Z</time>
      </trkpt>
      <trkpt lat="43.82534" lon="6.90769">
        <ele>1348</ele>
        <time>2024-09-30T15:15:53Z</time>
      </trkpt>
      <trkpt lat="43.82544" lon="6.90782">
        <ele>1350</ele>
        <time>2024-09-30T15:15:56Z</time>
      </trkpt>
      <trkpt lat="43.82542" lon="6.9082">
        <ele>1352</ele>
        <time>2024-09-30T15:16:01Z</time>
      </trkpt>
      <trkpt lat="43.82544" lon="6.90839">
        <ele>1353</ele>
        <time>2024-09-30T15:16:03Z</time>
      </trkpt>
      <trkpt lat="43.82553" lon="6.90856">
        <ele>1354</ele>
        <time>2024-09-30T15:16:06Z</time>
      </trkpt>
      <trkpt lat="43.82587" lon="6.90852">
        <ele>1356</ele>
        <time>2024-09-30T15:16:12Z</time>
      </trkpt>
      <trkpt lat="43.82595" lon="6.90853">
        <ele>1357</ele>
        <time>2024-09-30T15:16:13Z</time>
      </trkpt>
      <trkpt lat="43.826" lon="6.90857">
        <ele>1358</ele>
        <time>2024-09-30T15:16:14Z</time>
      </trkpt>
      <trkpt lat="43.82616" lon="6.90889">
        <ele>1361</ele>
        <time>2024-09-30T15:16:19Z</time>
      </trkpt>
      <trkpt lat="43.8262" lon="6.90908">
        <ele>1362</ele>
        <time>2024-09-30T15:16:22Z</time>
      </trkpt>
      <trkpt lat="43.82622" lon="6.90935">
        <ele>1361</ele>
        <time>2024-09-30T15:16:25Z</time>
      </trkpt>
      <trkpt lat="43.82643" lon="6.90983">
        <ele>1361</ele>
        <time>2024-09-30T15:16:33Z</time>
      </trkpt>
      <trkpt lat="43.82652" lon="6.90995">
        <ele>1361</ele>
        <time>2024-09-30T15:16:35Z</time>
      </trkpt>
      <trkpt lat="43.82656" lon="6.91003">
        <ele>1361</ele>
        <time>2024-09-30T15:16:36Z</time>
      </trkpt>
      <trkpt lat="43.82657" lon="6.91011">
        <ele>1361</ele>
        <time>2024-09-30T15:16:37Z</time>
      </trkpt>
      <trkpt lat="43.8265" lon="6.91042">
        <ele>1359</ele>
        <time>2024-09-30T15:16:41Z</time>
      </trkpt>
      <trkpt lat="43.82657" lon="6.91078">
        <ele>1360</ele>
        <time>2024-09-30T15:16:46Z</time>
      </trkpt>
      <trkpt lat="43.82659" lon="6.91119">
        <ele>1360</ele>
        <time>2024-09-30T15:16:51Z</time>
      </trkpt>
      <trkpt lat="43.82664" lon="6.91151">
        <ele>1361</ele>
        <time>2024-09-30T15:16:56Z</time>
      </trkpt>
      <trkpt lat="43.82664" lon="6.91171">
        <ele>1361</ele>
        <time>2024-09-30T15:16:58Z</time>
      </trkpt>
      <trkpt lat="43.82656" lon="6.91236">
        <ele>1360</ele>
        <time>2024-09-30T15:17:07Z</time>
      </trkpt>
      <trkpt lat="43.82654" lon="6.91295">
        <ele>1359</ele>
        <time>2024-09-30T15:17:14Z</time>
      </trkpt>
      <trkpt lat="43.82654" lon="6.91306">
        <ele>1359</ele>
        <time>2024-09-30T15:17:16Z</time>
      </trkpt>
      <trkpt lat="43.82659" lon="6.91326">
        <ele>1360</ele>
        <time>2024-09-30T15:17:18Z</time>
      </trkpt>
      <trkpt lat="43.82662" lon="6.91352">
        <ele>1360</ele>
        <time>2024-09-30T15:17:22Z</time>
      </trkpt>
      <trkpt lat="43.82667" lon="6.91367">
        <ele>1361</ele>
        <time>2024-09-30T15:17:24Z</time>
      </trkpt>
      <trkpt lat="43.82672" lon="6.91408">
        <ele>1361</ele>
        <time>2024-09-30T15:17:29Z</time>
      </trkpt>
      <trkpt lat="43.82672" lon="6.91441">
        <ele>1360</ele>
        <time>2024-09-30T15:17:33Z</time>
      </trkpt>
      <trkpt lat="43.82696" lon="6.91484">
        <ele>1362</ele>
        <time>2024-09-30T15:17:40Z</time>
      </trkpt>
      <trkpt lat="43.827" lon="6.91508">
        <ele>1362</ele>
        <time>2024-09-30T15:17:44Z</time>
      </trkpt>
      <trkpt lat="43.827" lon="6.9153">
        <ele>1362</ele>
        <time>2024-09-30T15:17:46Z</time>
      </trkpt>
      <trkpt lat="43.82713" lon="6.9158">
        <ele>1363</ele>
        <time>2024-09-30T15:17:53Z</time>
      </trkpt>
      <trkpt lat="43.82728" lon="6.91598">
        <ele>1364</ele>
        <time>2024-09-30T15:17:57Z</time>
      </trkpt>
      <trkpt lat="43.82753" lon="6.91665">
        <ele>1366</ele>
        <time>2024-09-30T15:18:06Z</time>
      </trkpt>
      <trkpt lat="43.82771" lon="6.91724">
        <ele>1367</ele>
        <time>2024-09-30T15:18:15Z</time>
      </trkpt>
      <trkpt lat="43.82781" lon="6.91742">
        <ele>1368</ele>
        <time>2024-09-30T15:18:18Z</time>
      </trkpt>
      <trkpt lat="43.82787" lon="6.91762">
        <ele>1368</ele>
        <time>2024-09-30T15:18:20Z</time>
      </trkpt>
      <trkpt lat="43.82794" lon="6.91802">
        <ele>1366</ele>
        <time>2024-09-30T15:18:26Z</time>
      </trkpt>
      <trkpt lat="43.82792" lon="6.91817">
        <ele>1366</ele>
        <time>2024-09-30T15:18:28Z</time>
      </trkpt>
      <trkpt lat="43.82795" lon="6.91837">
        <ele>1365</ele>
        <time>2024-09-30T15:18:30Z</time>
      </trkpt>
      <trkpt lat="43.82804" lon="6.91871">
        <ele>1364</ele>
        <time>2024-09-30T15:18:35Z</time>
      </trkpt>
      <trkpt lat="43.82807" lon="6.91896">
        <ele>1364</ele>
        <time>2024-09-30T15:18:38Z</time>
      </trkpt>
      <trkpt lat="43.82805" lon="6.91907">
        <ele>1364</ele>
        <time>2024-09-30T15:18:40Z</time>
      </trkpt>
      <trkpt lat="43.82792" lon="6.91931">
        <ele>1361</ele>
        <time>2024-09-30T15:18:43Z</time>
      </trkpt>
      <trkpt lat="43.82783" lon="6.91957">
        <ele>1360</ele>
        <time>2024-09-30T15:18:47Z</time>
      </trkpt>
      <trkpt lat="43.82776" lon="6.92034">
        <ele>1359</ele>
        <time>2024-09-30T15:18:57Z</time>
      </trkpt>
      <trkpt lat="43.82776" lon="6.92059">
        <ele>1359</ele>
        <time>2024-09-30T15:19:00Z</time>
      </trkpt>
      <trkpt lat="43.82783" lon="6.92077">
        <ele>1359</ele>
        <time>2024-09-30T15:19:03Z</time>
      </trkpt>
      <trkpt lat="43.82797" lon="6.92095">
        <ele>1360</ele>
        <time>2024-09-30T15:19:06Z</time>
      </trkpt>
      <trkpt lat="43.82805" lon="6.92117">
        <ele>1360</ele>
        <time>2024-09-30T15:19:10Z</time>
      </trkpt>
      <trkpt lat="43.82806" lon="6.92209">
        <ele>1359</ele>
        <time>2024-09-30T15:19:21Z</time>
      </trkpt>
      <trkpt lat="43.82816" lon="6.92259">
        <ele>1359</ele>
        <time>2024-09-30T15:19:28Z</time>
      </trkpt>
      <trkpt lat="43.82825" lon="6.92327">
        <ele>1360</ele>
        <time>2024-09-30T15:19:37Z</time>
      </trkpt>
      <trkpt lat="43.82825" lon="6.92371">
        <ele>1360</ele>
        <time>2024-09-30T15:19:43Z</time>
      </trkpt>
      <trkpt lat="43.82807" lon="6.92431">
        <ele>1358</ele>
        <time>2024-09-30T15:19:51Z</time>
      </trkpt>
      <trkpt lat="43.82797" lon="6.92508">
        <ele>1358</ele>
        <time>2024-09-30T15:20:01Z</time>
      </trkpt>
      <trkpt lat="43.82789" lon="6.92624">
        <ele>1357</ele>
        <time>2024-09-30T15:20:16Z</time>
      </trkpt>
      <trkpt lat="43.82801" lon="6.92739">
        <ele>1358</ele>
        <time>2024-09-30T15:20:31Z</time>
      </trkpt>
      <trkpt lat="43.82798" lon="6.92771">
        <ele>1358</ele>
        <time>2024-09-30T15:20:35Z</time>
      </trkpt>
      <trkpt lat="43.82783" lon="6.92819">
        <ele>1358</ele>
        <time>2024-09-30T15:20:42Z</time>
      </trkpt>
      <trkpt lat="43.82785" lon="6.9286">
        <ele>1359</ele>
        <time>2024-09-30T15:20:47Z</time>
      </trkpt>
      <trkpt lat="43.82783" lon="6.92874">
        <ele>1359</ele>
        <time>2024-09-30T15:20:49Z</time>
      </trkpt>
      <trkpt lat="43.82711" lon="6.92936">
        <ele>1358</ele>
        <time>2024-09-30T15:21:04Z</time>
      </trkpt>
      <trkpt lat="43.82707" lon="6.92942">
        <ele>1358</ele>
        <time>2024-09-30T15:21:05Z</time>
      </trkpt>
      <trkpt lat="43.82705" lon="6.92948">
        <ele>1358</ele>
        <time>2024-09-30T15:21:06Z</time>
      </trkpt>
      <trkpt lat="43.82709" lon="6.92967">
        <ele>1358</ele>
        <time>2024-09-30T15:21:08Z</time>
      </trkpt>
      <trkpt lat="43.82709" lon="6.92977">
        <ele>1358</ele>
        <time>2024-09-30T15:21:10Z</time>
      </trkpt>
      <trkpt lat="43.82702" lon="6.92991">
        <ele>1358</ele>
        <time>2024-09-30T15:21:12Z</time>
      </trkpt>
      <trkpt lat="43.82678" lon="6.93021">
        <ele>1358</ele>
        <time>2024-09-30T15:21:17Z</time>
      </trkpt>
      <trkpt lat="43.82673" lon="6.9303">
        <ele>1358</ele>
        <time>2024-09-30T15:21:19Z</time>
      </trkpt>
      <trkpt lat="43.8267" lon="6.93089">
        <ele>1359</ele>
        <time>2024-09-30T15:21:27Z</time>
      </trkpt>
      <trkpt lat="43.82668" lon="6.93096">
        <ele>1359</ele>
      </trkpt>
      <trkpt lat="43.82657" lon="6.93101">
        <ele>1359</ele>
        <time>2024-09-30T15:21:30Z</time>
      </trkpt>
      <trkpt lat="43.82654" lon="6.9311">
        <ele>1359</ele>
        <time>2024-09-30T15:21:31Z</time>
      </trkpt>
      <trkpt lat="43.82655" lon="6.93119">
        <ele>1359</ele>
        <time>2024-09-30T15:21:32Z</time>
      </trkpt>
      <trkpt lat="43.82676" lon="6.93142">
        <ele>1358</ele>
        <time>2024-09-30T15:21:37Z</time>
      </trkpt>
      <trkpt lat="43.82685" lon="6.93154">
        <ele>1358</ele>
        <time>2024-09-30T15:21:39Z</time>
      </trkpt>
      <trkpt lat="43.82691" lon="6.93175">
        <ele>1358</ele>
        <time>2024-09-30T15:21:42Z</time>
      </trkpt>
      <trkpt lat="43.82692" lon="6.93186">
        <ele>1358</ele>
        <time>2024-09-30T15:21:43Z</time>
      </trkpt>
      <trkpt lat="43.8269" lon="6.93197">
        <ele>1358</ele>
        <time>2024-09-30T15:21:45Z</time>
      </trkpt>
      <trkpt lat="43.82683" lon="6.93207">
        <ele>1359</ele>
        <time>2024-09-30T15:21:47Z</time>
      </trkpt>
      <trkpt lat="43.82659" lon="6.93219">
        <ele>1359</ele>
        <time>2024-09-30T15:21:51Z</time>
      </trkpt>
      <trkpt lat="43.82652" lon="6.93227">
        <ele>1360</ele>
        <time>2024-09-30T15:21:53Z</time>
      </trkpt>
      <trkpt lat="43.82634" lon="6.93258">
        <ele>1362</ele>
        <time>2024-09-30T15:21:58Z</time>
      </trkpt>
      <trkpt lat="43.8262" lon="6.9328">
        <ele>1363</ele>
        <time>2024-09-30T15:22:02Z</time>
      </trkpt>
      <trkpt lat="43.82606" lon="6.93312">
        <ele>1365</ele>
        <time>2024-09-30T15:22:06Z</time>
      </trkpt>
      <trkpt lat="43.82603" lon="6.93339">
        <ele>1366</ele>
        <time>2024-09-30T15:22:10Z</time>
      </trkpt>
      <trkpt lat="43.826" lon="6.93348">
        <ele>1367</ele>
        <time>2024-09-30T15:22:11Z</time>
      </trkpt>
      <trkpt lat="43.82595" lon="6.93355">
        <ele>1367</ele>
        <time>2024-09-30T15:22:12Z</time>
      </trkpt>
      <trkpt lat="43.82588" lon="6.93367">
        <ele>1369</ele>
        <time>2024-09-30T15:22:14Z</time>
      </trkpt>
      <trkpt lat="43.82581" lon="6.93384">
        <ele>1369</ele>
        <time>2024-09-30T15:22:17Z</time>
      </trkpt>
      <trkpt lat="43.82575" lon="6.9344">
        <ele>1374</ele>
        <time>2024-09-30T15:22:24Z</time>
      </trkpt>
      <trkpt lat="43.82575" lon="6.93458">
        <ele>1377</ele>
        <time>2024-09-30T15:22:26Z</time>
      </trkpt>
      <trkpt lat="43.82577" lon="6.93465">
        <ele>1377</ele>
        <time>2024-09-30T15:22:27Z</time>
      </trkpt>
      <trkpt lat="43.82589" lon="6.93497">
        <ele>1381</ele>
        <time>2024-09-30T15:22:32Z</time>
      </trkpt>
      <trkpt lat="43.82596" lon="6.93523">
        <ele>1384</ele>
        <time>2024-09-30T15:22:36Z</time>
      </trkpt>
      <trkpt lat="43.82614" lon="6.93642">
        <ele>1398</ele>
        <time>2024-09-30T15:22:51Z</time>
      </trkpt>
      <trkpt lat="43.82616" lon="6.93665">
        <ele>1400</ele>
        <time>2024-09-30T15:22:54Z</time>
      </trkpt>
      <trkpt lat="43.82616" lon="6.93769">
        <ele>1411</ele>
        <time>2024-09-30T15:23:08Z</time>
      </trkpt>
      <trkpt lat="43.82615" lon="6.93823">
        <ele>1417</ele>
        <time>2024-09-30T15:23:15Z</time>
      </trkpt>
      <trkpt lat="43.82618" lon="6.93856">
        <ele>1420</ele>
        <time>2024-09-30T15:23:19Z</time>
      </trkpt>
      <trkpt lat="43.82618" lon="6.93893">
        <ele>1422</ele>
        <time>2024-09-30T15:23:24Z</time>
      </trkpt>
      <trkpt lat="43.82616" lon="6.93917">
        <ele>1424</ele>
        <time>2024-09-30T15:23:27Z</time>
      </trkpt>
      <trkpt lat="43.82619" lon="6.93934">
        <ele>1424</ele>
        <time>2024-09-30T15:23:29Z</time>
      </trkpt>
      <trkpt lat="43.82618" lon="6.93954">
        <ele>1425</ele>
        <time>2024-09-30T15:23:31Z</time>
      </trkpt>
      <trkpt lat="43.82623" lon="6.9397">
        <ele>1425</ele>
        <time>2024-09-30T15:23:34Z</time>
      </trkpt>
      <trkpt lat="43.82632" lon="6.93987">
        <ele>1425</ele>
        <time>2024-09-30T15:23:36Z</time>
      </trkpt>
      <trkpt lat="43.82635" lon="6.94004">
        <ele>1424</ele>
        <time>2024-09-30T15:23:39Z</time>
      </trkpt>
      <trkpt lat="43.82634" lon="6.94012">
        <ele>1425</ele>
        <time>2024-09-30T15:23:40Z</time>
      </trkpt>
      <trkpt lat="43.82631" lon="6.9402">
        <ele>1426</ele>
        <time>2024-09-30T15:23:41Z</time>
      </trkpt>
      <trkpt lat="43.82617" lon="6.94041">
        <ele>1427</ele>
        <time>2024-09-30T15:23:45Z</time>
      </trkpt>
      <trkpt lat="43.82615" lon="6.94051">
        <ele>1427</ele>
        <time>2024-09-30T15:23:46Z</time>
      </trkpt>
      <trkpt lat="43.82616" lon="6.94063">
        <ele>1427</ele>
        <time>2024-09-30T15:23:47Z</time>
      </trkpt>
      <trkpt lat="43.82619" lon="6.94076">
        <ele>1427</ele>
        <time>2024-09-30T15:23:49Z</time>
      </trkpt>
      <trkpt lat="43.82626" lon="6.94087">
        <ele>1427</ele>
        <time>2024-09-30T15:23:51Z</time>
      </trkpt>
      <trkpt lat="43.82639" lon="6.94098">
        <ele>1427</ele>
        <time>2024-09-30T15:23:54Z</time>
      </trkpt>
      <trkpt lat="43.82673" lon="6.94115">
        <ele>1427</ele>
        <time>2024-09-30T15:24:00Z</time>
      </trkpt>
      <trkpt lat="43.82728" lon="6.94109">
        <ele>1420</ele>
        <time>2024-09-30T15:24:10Z</time>
      </trkpt>
      <trkpt lat="43.82742" lon="6.9411">
        <ele>1419</ele>
        <time>2024-09-30T15:24:12Z</time>
      </trkpt>
      <trkpt lat="43.82773" lon="6.94117">
        <ele>1417</ele>
        <time>2024-09-30T15:24:18Z</time>
      </trkpt>
      <trkpt lat="43.82789" lon="6.94115">
        <ele>1415</ele>
        <time>2024-09-30T15:24:21Z</time>
      </trkpt>
      <trkpt lat="43.82803" lon="6.94116">
        <ele>1413</ele>
        <time>2024-09-30T15:24:23Z</time>
      </trkpt>
      <trkpt lat="43.82824" lon="6.94129">
        <ele>1412</ele>
        <time>2024-09-30T15:24:28Z</time>
      </trkpt>
      <trkpt lat="43.82848" lon="6.94138">
        <ele>1412</ele>
        <time>2024-09-30T15:24:32Z</time>
      </trkpt>
      <trkpt lat="43.82876" lon="6.94153">
        <ele>1412</ele>
        <time>2024-09-30T15:24:37Z</time>
      </trkpt>
      <trkpt lat="43.829" lon="6.94164">
        <ele>1411</ele>
        <time>2024-09-30T15:24:42Z</time>
      </trkpt>
      <trkpt lat="43.82908" lon="6.9417">
        <ele>1411</ele>
        <time>2024-09-30T15:24:43Z</time>
      </trkpt>
      <trkpt lat="43.82912" lon="6.94192">
        <ele>1413</ele>
        <time>2024-09-30T15:24:46Z</time>
      </trkpt>
      <trkpt lat="43.82908" lon="6.94256">
        <ele>1417</ele>
        <time>2024-09-30T15:24:55Z</time>
      </trkpt>
      <trkpt lat="43.8291" lon="6.94267">
        <ele>1417</ele>
        <time>2024-09-30T15:24:56Z</time>
      </trkpt>
      <trkpt lat="43.82921" lon="6.94299">
        <ele>1418</ele>
        <time>2024-09-30T15:25:01Z</time>
      </trkpt>
      <trkpt lat="43.82929" lon="6.94305">
        <ele>1418</ele>
        <time>2024-09-30T15:25:02Z</time>
      </trkpt>
      <trkpt lat="43.82938" lon="6.94309">
        <ele>1418</ele>
        <time>2024-09-30T15:25:04Z</time>
      </trkpt>
      <trkpt lat="43.8295" lon="6.94319">
        <ele>1419</ele>
        <time>2024-09-30T15:25:06Z</time>
      </trkpt>
      <trkpt lat="43.82965" lon="6.94337">
        <ele>1420</ele>
        <time>2024-09-30T15:25:10Z</time>
      </trkpt>
      <trkpt lat="43.82977" lon="6.94377">
        <ele>1423</ele>
        <time>2024-09-30T15:25:15Z</time>
      </trkpt>
      <trkpt lat="43.82982" lon="6.94397">
        <ele>1424</ele>
        <time>2024-09-30T15:25:18Z</time>
      </trkpt>
      <trkpt lat="43.82997" lon="6.9443">
        <ele>1427</ele>
        <time>2024-09-30T15:25:23Z</time>
      </trkpt>
      <trkpt lat="43.83002" lon="6.9446">
        <ele>1428</ele>
        <time>2024-09-30T15:25:27Z</time>
      </trkpt>
      <trkpt lat="43.83001" lon="6.94497">
        <ele>1430</ele>
        <time>2024-09-30T15:25:32Z</time>
      </trkpt>
      <trkpt lat="43.83003" lon="6.94506">
        <ele>1430</ele>
        <time>2024-09-30T15:25:33Z</time>
      </trkpt>
      <trkpt lat="43.83007" lon="6.9451">
        <ele>1430</ele>
        <time>2024-09-30T15:25:34Z</time>
      </trkpt>
      <trkpt lat="43.83004" lon="6.94522">
        <ele>1430</ele>
        <time>2024-09-30T15:25:36Z</time>
      </trkpt>
      <trkpt lat="43.82996" lon="6.94541">
        <ele>1429</ele>
        <time>2024-09-30T15:25:38Z</time>
      </trkpt>
      <trkpt lat="43.83006" lon="6.94566">
        <ele>1428</ele>
        <time>2024-09-30T15:25:42Z</time>
      </trkpt>
      <trkpt lat="43.83033" lon="6.94619">
        <ele>1419</ele>
        <time>2024-09-30T15:25:50Z</time>
      </trkpt>
      <trkpt lat="43.8305" lon="6.94636">
        <ele>1420</ele>
        <time>2024-09-30T15:25:54Z</time>
      </trkpt>
      <trkpt lat="43.83053" lon="6.94675">
        <ele>1416</ele>
        <time>2024-09-30T15:25:59Z</time>
      </trkpt>
      <trkpt lat="43.83059" lon="6.94716">
        <ele>1414</ele>
        <time>2024-09-30T15:26:05Z</time>
      </trkpt>
      <trkpt lat="43.83083" lon="6.94754">
        <ele>1412</ele>
        <time>2024-09-30T15:26:11Z</time>
      </trkpt>
      <trkpt lat="43.83106" lon="6.94805">
        <ele>1410</ele>
        <time>2024-09-30T15:26:19Z</time>
      </trkpt>
      <trkpt lat="43.8314" lon="6.94859">
        <ele>1409</ele>
        <time>2024-09-30T15:26:28Z</time>
      </trkpt>
      <trkpt lat="43.83179" lon="6.94932">
        <ele>1407</ele>
        <time>2024-09-30T15:26:40Z</time>
      </trkpt>
      <trkpt lat="43.83202" lon="6.94997">
        <ele>1409</ele>
        <time>2024-09-30T15:26:49Z</time>
      </trkpt>
      <trkpt lat="43.8322" lon="6.9507">
        <ele>1410</ele>
        <time>2024-09-30T15:26:59Z</time>
      </trkpt>
      <trkpt lat="43.83247" lon="6.9519">
        <ele>1417</ele>
        <time>2024-09-30T15:27:15Z</time>
      </trkpt>
      <trkpt lat="43.83253" lon="6.95238">
        <ele>1418</ele>
        <time>2024-09-30T15:27:21Z</time>
      </trkpt>
      <trkpt lat="43.83268" lon="6.9531">
        <ele>1423</ele>
        <time>2024-09-30T15:27:31Z</time>
      </trkpt>
      <trkpt lat="43.83278" lon="6.95384">
        <ele>1424</ele>
        <time>2024-09-30T15:27:40Z</time>
      </trkpt>
      <trkpt lat="43.83338" lon="6.95505">
        <ele>1437</ele>
        <time>2024-09-30T15:27:59Z</time>
      </trkpt>
      <trkpt lat="43.83349" lon="6.95566">
        <ele>1443</ele>
        <time>2024-09-30T15:28:07Z</time>
      </trkpt>
      <trkpt lat="43.83349" lon="6.9562">
        <ele>1446</ele>
        <time>2024-09-30T15:28:14Z</time>
      </trkpt>
      <trkpt lat="43.8336" lon="6.95619">
        <ele>1448</ele>
        <time>2024-09-30T15:28:16Z</time>
      </trkpt>
      <trkpt lat="43.83373" lon="6.95623">
        <ele>1450</ele>
        <time>2024-09-30T15:28:19Z</time>
      </trkpt>
      <trkpt lat="43.83409" lon="6.95641">
        <ele>1455</ele>
        <time>2024-09-30T15:28:25Z</time>
      </trkpt>
      <trkpt lat="43.83438" lon="6.95677">
        <ele>1456</ele>
        <time>2024-09-30T15:28:32Z</time>
      </trkpt>
      <trkpt lat="43.83463" lon="6.95711">
        <ele>1455</ele>
        <time>2024-09-30T15:28:39Z</time>
      </trkpt>
      <trkpt lat="43.83488" lon="6.95762">
        <ele>1455</ele>
        <time>2024-09-30T15:28:47Z</time>
      </trkpt>
      <trkpt lat="43.83521" lon="6.95868">
        <ele>1455</ele>
        <time>2024-09-30T15:29:01Z</time>
      </trkpt>
      <trkpt lat="43.83536" lon="6.95948">
        <ele>1454</ele>
        <time>2024-09-30T15:29:12Z</time>
      </trkpt>
      <trkpt lat="43.83543" lon="6.96024">
        <ele>1455</ele>
        <time>2024-09-30T15:29:22Z</time>
      </trkpt>
      <trkpt lat="43.83542" lon="6.96046">
        <ele>1455</ele>
        <time>2024-09-30T15:29:25Z</time>
      </trkpt>
      <trkpt lat="43.83558" lon="6.96146">
        <ele>1454</ele>
        <time>2024-09-30T15:29:38Z</time>
      </trkpt>
      <trkpt lat="43.8356" lon="6.96174">
        <ele>1454</ele>
        <time>2024-09-30T15:29:41Z</time>
      </trkpt>
      <trkpt lat="43.83556" lon="6.96246">
        <ele>1454</ele>
        <time>2024-09-30T15:29:51Z</time>
      </trkpt>
      <trkpt lat="43.83557" lon="6.9627">
        <ele>1455</ele>
        <time>2024-09-30T15:29:54Z</time>
      </trkpt>
      <trkpt lat="43.83564" lon="6.96322">
        <ele>1453</ele>
        <time>2024-09-30T15:30:01Z</time>
      </trkpt>
      <trkpt lat="43.8357" lon="6.96373">
        <ele>1453</ele>
        <time>2024-09-30T15:30:07Z</time>
      </trkpt>
      <trkpt lat="43.83565" lon="6.964">
        <ele>1455</ele>
        <time>2024-09-30T15:30:11Z</time>
      </trkpt>
      <trkpt lat="43.83558" lon="6.96426">
        <ele>1454</ele>
        <time>2024-09-30T15:30:14Z</time>
      </trkpt>
      <trkpt lat="43.83561" lon="6.96421">
        <ele>1455</ele>
        <time>2024-01-31T14:52:08Z</time>
      </trkpt>
      <trkpt lat="43.83539" lon="6.96471">
        <ele>1452</ele>
        <time>2024-01-31T14:52:24Z</time>
      </trkpt>
      <trkpt lat="43.83511" lon="6.96516">
        <ele>1452</ele>
        <time>2024-01-31T14:52:40Z</time>
      </trkpt>
      <trkpt lat="43.83464" lon="6.966">
        <ele>1454</ele>
        <time>2024-01-31T14:53:07Z</time>
      </trkpt>
      <trkpt lat="43.83415" lon="6.9673">
        <ele>1453</ele>
        <time>2024-01-31T14:53:36Z</time>
      </trkpt>
      <trkpt lat="43.83394" lon="6.96756">
        <ele>1454</ele>
        <time>2024-01-31T14:53:44Z</time>
      </trkpt>
      <trkpt lat="43.8332" lon="6.96818">
        <ele>1451</ele>
        <time>2024-01-31T14:54:06Z</time>
      </trkpt>
      <trkpt lat="43.83296" lon="6.96866">
        <ele>1454</ele>
        <time>2024-01-31T14:54:16Z</time>
      </trkpt>
      <trkpt lat="43.83246" lon="6.97006">
        <ele>1450</ele>
        <time>2024-01-31T14:54:42Z</time>
      </trkpt>
      <trkpt lat="43.83224" lon="6.97077">
        <ele>1445</ele>
        <time>2024-01-31T14:54:55Z</time>
      </trkpt>
      <trkpt lat="43.83206" lon="6.97149">
        <ele>1441</ele>
        <time>2024-01-31T14:55:08Z</time>
      </trkpt>
      <trkpt lat="43.83193" lon="6.97195">
        <ele>1436</ele>
        <time>2024-01-31T14:55:13Z</time>
      </trkpt>
      <trkpt lat="43.83175" lon="6.97273">
        <ele>1432</ele>
        <time>2024-01-31T14:55:22Z</time>
      </trkpt>
      <trkpt lat="43.83164" lon="6.97297">
        <ele>1432</ele>
        <time>2024-01-31T14:55:26Z</time>
      </trkpt>
      <trkpt lat="43.83154" lon="6.9731">
        <ele>1430</ele>
        <time>2024-01-31T14:55:29Z</time>
      </trkpt>
      <trkpt lat="43.83113" lon="6.97342">
        <ele>1428</ele>
        <time>2024-01-31T14:55:42Z</time>
      </trkpt>
      <trkpt lat="43.83114" lon="6.97347">
        <ele>1429</ele>
        <time>2024-01-31T14:55:44Z</time>
      </trkpt>
      <trkpt lat="43.83106" lon="6.97371">
        <ele>1432</ele>
        <time>2024-01-31T14:55:52Z</time>
      </trkpt>
      <trkpt lat="43.83084" lon="6.97408">
        <ele>1432</ele>
        <time>2024-01-31T14:56:08Z</time>
      </trkpt>
      <trkpt lat="43.83055" lon="6.9744">
        <ele>1429</ele>
        <time>2024-01-31T14:56:24Z</time>
      </trkpt>
      <trkpt lat="43.83022" lon="6.97459">
        <ele>1427</ele>
        <time>2024-01-31T14:56:41Z</time>
      </trkpt>
      <trkpt lat="43.82999" lon="6.97463">
        <ele>1428</ele>
        <time>2024-01-31T14:56:53Z</time>
      </trkpt>
      <trkpt lat="43.82973" lon="6.97458">
        <ele>1430</ele>
        <time>2024-01-31T14:57:07Z</time>
      </trkpt>
      <trkpt lat="43.82954" lon="6.97446">
        <ele>1430</ele>
        <time>2024-01-31T14:57:19Z</time>
      </trkpt>
      <trkpt lat="43.82913" lon="6.97404">
        <ele>1430</ele>
        <time>2024-01-31T14:57:45Z</time>
      </trkpt>
      <trkpt lat="43.82903" lon="6.974">
        <ele>1431</ele>
        <time>2024-01-31T14:57:51Z</time>
      </trkpt>
      <trkpt lat="43.82896" lon="6.97404">
        <ele>1432</ele>
        <time>2024-01-31T14:57:55Z</time>
      </trkpt>
      <trkpt lat="43.82884" lon="6.97419">
        <ele>1434</ele>
        <time>2024-01-31T14:58:03Z</time>
      </trkpt>
      <trkpt lat="43.82874" lon="6.97445">
        <ele>1438</ele>
        <time>2024-01-31T14:58:13Z</time>
      </trkpt>
      <trkpt lat="43.82873" lon="6.97461">
        <ele>1440</ele>
        <time>2024-01-31T14:58:19Z</time>
      </trkpt>
      <trkpt lat="43.82875" lon="6.97466">
        <ele>1441</ele>
        <time>2024-01-31T14:58:21Z</time>
      </trkpt>
      <trkpt lat="43.82877" lon="6.97471">
        <ele>1441</ele>
        <time>2024-01-31T14:58:23Z</time>
      </trkpt>
      <trkpt lat="43.82907" lon="6.97477">
        <ele>1441</ele>
        <time>2024-01-31T14:58:38Z</time>
      </trkpt>
      <trkpt lat="43.82926" lon="6.97497">
        <ele>1443</ele>
        <time>2024-01-31T14:58:50Z</time>
      </trkpt>
      <trkpt lat="43.82953" lon="6.97527">
        <ele>1444</ele>
        <time>2024-01-31T14:59:08Z</time>
      </trkpt>
      <trkpt lat="43.8297" lon="6.97562">
        <ele>1447</ele>
        <time>2024-01-31T14:59:24Z</time>
      </trkpt>
      <trkpt lat="43.82973" lon="6.97574">
        <ele>1448</ele>
        <time>2024-01-31T14:59:29Z</time>
      </trkpt>
      <trkpt lat="43.8297" lon="6.97582">
        <ele>1450</ele>
        <time>2024-01-31T14:59:33Z</time>
      </trkpt>
      <trkpt lat="43.82962" lon="6.97588">
        <ele>1451</ele>
        <time>2024-01-31T14:59:38Z</time>
      </trkpt>
      <trkpt lat="43.82949" lon="6.97585">
        <ele>1452</ele>
        <time>2024-01-31T14:59:44Z</time>
      </trkpt>
      <trkpt lat="43.82915" lon="6.97543">
        <ele>1450</ele>
        <time>2024-01-31T15:00:09Z</time>
      </trkpt>
      <trkpt lat="43.82899" lon="6.97539">
        <ele>1451</ele>
        <time>2024-01-31T15:00:17Z</time>
      </trkpt>
      <trkpt lat="43.82892" lon="6.97543">
        <ele>1451</ele>
        <time>2024-01-31T15:00:22Z</time>
      </trkpt>
      <trkpt lat="43.82883" lon="6.97556">
        <ele>1453</ele>
        <time>2024-01-31T15:00:29Z</time>
      </trkpt>
      <trkpt lat="43.82882" lon="6.97582">
        <ele>1456</ele>
        <time>2024-01-31T15:00:40Z</time>
      </trkpt>
      <trkpt lat="43.82912" lon="6.97623">
        <ele>1457</ele>
        <time>2024-01-31T15:01:04Z</time>
      </trkpt>
      <trkpt lat="43.82914" lon="6.97638">
        <ele>1459</ele>
        <time>2024-01-31T15:01:11Z</time>
      </trkpt>
      <trkpt lat="43.82912" lon="6.97653">
        <ele>1460</ele>
        <time>2024-01-31T15:01:17Z</time>
      </trkpt>
      <trkpt lat="43.82894" lon="6.97681">
        <ele>1462</ele>
        <time>2024-01-31T15:01:32Z</time>
      </trkpt>
      <trkpt lat="43.82862" lon="6.97733">
        <ele>1468</ele>
        <time>2024-01-31T15:02:02Z</time>
      </trkpt>
      <trkpt lat="43.82859" lon="6.97741">
        <ele>1468</ele>
        <time>2024-01-31T15:02:06Z</time>
      </trkpt>
      <trkpt lat="43.82862" lon="6.97758">
        <ele>1469</ele>
        <time>2024-01-31T15:02:14Z</time>
      </trkpt>
      <trkpt lat="43.82864" lon="6.97801">
        <ele>1470</ele>
        <time>2024-01-31T15:02:32Z</time>
      </trkpt>
      <trkpt lat="43.82857" lon="6.97846">
        <ele>1472</ele>
        <time>2024-01-31T15:02:53Z</time>
      </trkpt>
      <trkpt lat="43.82846" lon="6.97866">
        <ele>1473</ele>
        <time>2024-01-31T15:03:03Z</time>
      </trkpt>
      <trkpt lat="43.82826" lon="6.97884">
        <ele>1475</ele>
        <time>2024-01-31T15:03:17Z</time>
      </trkpt>
      <trkpt lat="43.82797" lon="6.97901">
        <ele>1479</ele>
        <time>2024-01-31T15:03:34Z</time>
      </trkpt>
      <trkpt lat="43.82795" lon="6.97911">
        <ele>1478</ele>
        <time>2024-01-31T15:03:38Z</time>
      </trkpt>
      <trkpt lat="43.82784" lon="6.97945">
        <ele>1481</ele>
        <time>2024-01-31T15:03:52Z</time>
      </trkpt>
      <trkpt lat="43.82766" lon="6.97982">
        <ele>1485</ele>
        <time>2024-01-31T15:04:10Z</time>
      </trkpt>
      <trkpt lat="43.82751" lon="6.98023">
        <ele>1488</ele>
        <time>2024-01-31T15:04:29Z</time>
      </trkpt>
      <trkpt lat="43.82739" lon="6.9808">
        <ele>1488</ele>
        <time>2024-01-31T15:04:55Z</time>
      </trkpt>
      <trkpt lat="43.82712" lon="6.98113">
        <ele>1489</ele>
        <time>2024-01-31T15:05:17Z</time>
      </trkpt>
      <trkpt lat="43.827" lon="6.98124">
        <ele>1489</ele>
        <time>2024-01-31T15:05:26Z</time>
      </trkpt>
      <trkpt lat="43.82688" lon="6.98131">
        <ele>1490</ele>
        <time>2024-01-31T15:05:34Z</time>
      </trkpt>
      <trkpt lat="43.82646" lon="6.98145">
        <ele>1492</ele>
        <time>2024-01-31T15:06:03Z</time>
      </trkpt>
      <trkpt lat="43.82619" lon="6.98145">
        <ele>1493</ele>
        <time>2024-01-31T15:06:22Z</time>
      </trkpt>
      <trkpt lat="43.82585" lon="6.98155">
        <ele>1498</ele>
        <time>2024-01-31T15:06:47Z</time>
      </trkpt>
      <trkpt lat="43.82554" lon="6.98169">
        <ele>1505</ele>
        <time>2024-01-31T15:07:12Z</time>
      </trkpt>
      <trkpt lat="43.82496" lon="6.98184">
        <ele>1514</ele>
        <time>2024-01-31T15:07:57Z</time>
      </trkpt>
      <trkpt lat="43.8245" lon="6.98218">
        <ele>1520</ele>
        <time>2024-01-31T15:08:37Z</time>
      </trkpt>
      <trkpt lat="43.82448" lon="6.98228">
        <ele>1521</ele>
        <time>2024-01-31T15:08:43Z</time>
      </trkpt>
      <trkpt lat="43.82452" lon="6.98244">
        <ele>1523</ele>
        <time>2024-01-31T15:08:52Z</time>
      </trkpt>
      <trkpt lat="43.8245" lon="6.98256">
        <ele>1523</ele>
        <time>2024-01-31T15:08:58Z</time>
      </trkpt>
      <trkpt lat="43.8243" lon="6.98291">
        <ele>1525</ele>
        <time>2024-01-31T15:09:20Z</time>
      </trkpt>
      <trkpt lat="43.82431" lon="6.98304">
        <ele>1526</ele>
        <time>2024-01-31T15:09:26Z</time>
      </trkpt>
      <trkpt lat="43.82431" lon="6.98313">
        <ele>1527</ele>
        <time>2024-01-31T15:09:31Z</time>
      </trkpt>
      <trkpt lat="43.82409" lon="6.98336">
        <ele>1529</ele>
        <time>2024-01-31T15:09:49Z</time>
      </trkpt>
      <trkpt lat="43.824" lon="6.98384">
        <ele>1531</ele>
        <time>2024-01-31T15:10:10Z</time>
      </trkpt>
      <trkpt lat="43.82391" lon="6.98471">
        <ele>1532</ele>
        <time>2024-01-31T15:10:45Z</time>
      </trkpt>
      <trkpt lat="43.8238" lon="6.9853">
        <ele>1535</ele>
        <time>2024-01-31T15:11:07Z</time>
      </trkpt>
      <trkpt lat="43.82376" lon="6.98605">
        <ele>1537</ele>
        <time>2024-01-31T15:11:30Z</time>
      </trkpt>
      <trkpt lat="43.82371" lon="6.9864">
        <ele>1539</ele>
        <time>2024-01-31T15:11:41Z</time>
      </trkpt>
      <trkpt lat="43.82375" lon="6.98669">
        <ele>1539</ele>
        <time>2024-01-31T15:11:49Z</time>
      </trkpt>
      <trkpt lat="43.82374" lon="6.98691">
        <ele>1538</ele>
        <time>2024-01-31T15:11:56Z</time>
      </trkpt>
      <trkpt lat="43.82386" lon="6.98755">
        <ele>1538</ele>
        <time>2024-01-31T15:12:14Z</time>
      </trkpt>
      <trkpt lat="43.82398" lon="6.98801">
        <ele>1538</ele>
        <time>2024-01-31T15:12:28Z</time>
      </trkpt>
      <trkpt lat="43.82391" lon="6.98853">
        <ele>1540</ele>
        <time>2024-01-31T15:12:43Z</time>
      </trkpt>
      <trkpt lat="43.82394" lon="6.98909">
        <ele>1543</ele>
        <time>2024-01-31T15:12:58Z</time>
      </trkpt>
      <trkpt lat="43.8239" lon="6.98931">
        <ele>1544</ele>
        <time>2024-01-31T15:13:04Z</time>
      </trkpt>
      <trkpt lat="43.82374" lon="6.98953">
        <ele>1545</ele>
        <time>2024-01-31T15:13:11Z</time>
      </trkpt>
      <trkpt lat="43.82358" lon="6.98986">
        <ele>1545</ele>
        <time>2024-01-31T15:13:20Z</time>
      </trkpt>
      <trkpt lat="43.82346" lon="6.99051">
        <ele>1549</ele>
        <time>2024-01-31T15:13:37Z</time>
      </trkpt>
      <trkpt lat="43.82345" lon="6.99089">
        <ele>1550</ele>
        <time>2024-01-31T15:13:46Z</time>
      </trkpt>
      <trkpt lat="43.82342" lon="6.99096">
        <ele>1551</ele>
        <time>2024-01-31T15:13:48Z</time>
      </trkpt>
      <trkpt lat="43.82335" lon="6.99099">
        <ele>1552</ele>
        <time>2024-01-31T15:13:51Z</time>
      </trkpt>
      <trkpt lat="43.8233" lon="6.99104">
        <ele>1553</ele>
        <time>2024-01-31T15:13:53Z</time>
      </trkpt>
      <trkpt lat="43.8232" lon="6.99137">
        <ele>1552</ele>
        <time>2024-01-31T15:14:03Z</time>
      </trkpt>
      <trkpt lat="43.82298" lon="6.99162">
        <ele>1548</ele>
        <time>2024-01-31T15:14:14Z</time>
      </trkpt>
      <trkpt lat="43.82286" lon="6.99178">
        <ele>1545</ele>
        <time>2024-01-31T15:14:20Z</time>
      </trkpt>
      <trkpt lat="43.82286" lon="6.99181">
        <ele>1545</ele>
        <time>2024-01-31T15:14:21Z</time>
      </trkpt>
      <trkpt lat="43.82287" lon="6.99187">
        <ele>1544</ele>
        <time>2024-01-31T15:14:23Z</time>
      </trkpt>
      <trkpt lat="43.82292" lon="6.99192">
        <ele>1544</ele>
        <time>2024-01-31T15:14:25Z</time>
      </trkpt>
      <trkpt lat="43.82318" lon="6.99212">
        <ele>1542</ele>
        <time>2024-01-31T15:14:37Z</time>
      </trkpt>
      <trkpt lat="43.82346" lon="6.99265">
        <ele>1546</ele>
        <time>2024-01-31T15:14:57Z</time>
      </trkpt>
      <trkpt lat="43.82368" lon="6.9933">
        <ele>1551</ele>
        <time>2024-01-31T15:15:21Z</time>
      </trkpt>
      <trkpt lat="43.82371" lon="6.99402">
        <ele>1553</ele>
        <time>2024-01-31T15:15:44Z</time>
      </trkpt>
      <trkpt lat="43.82375" lon="6.99453">
        <ele>1555</ele>
        <time>2024-01-31T15:16:00Z</time>
      </trkpt>
      <trkpt lat="43.82392" lon="6.99553">
        <ele>1556</ele>
        <time>2024-01-31T15:16:32Z</time>
      </trkpt>
      <trkpt lat="43.82385" lon="6.9962">
        <ele>1559</ele>
        <time>2024-01-31T15:16:54Z</time>
      </trkpt>
      <trkpt lat="43.82377" lon="6.99648">
        <ele>1561</ele>
        <time>2024-01-31T15:17:05Z</time>
      </trkpt>
      <trkpt lat="43.82366" lon="6.99672">
        <ele>1561</ele>
        <time>2024-01-31T15:17:14Z</time>
      </trkpt>
      <trkpt lat="43.8235" lon="6.99682">
        <ele>1563</ele>
        <time>2024-01-31T15:17:22Z</time>
      </trkpt>
      <trkpt lat="43.823" lon="6.99703">
        <ele>1565</ele>
        <time>2024-01-31T15:17:48Z</time>
      </trkpt>
      <trkpt lat="43.8229" lon="6.99717">
        <ele>1565</ele>
        <time>2024-01-31T15:17:55Z</time>
      </trkpt>
      <trkpt lat="43.82281" lon="6.99736">
        <ele>1566</ele>
        <time>2024-01-31T15:18:04Z</time>
      </trkpt>
      <trkpt lat="43.8226" lon="6.99813">
        <ele>1574</ele>
        <time>2024-01-31T15:18:34Z</time>
      </trkpt>
      <trkpt lat="43.82258" lon="6.99841">
        <ele>1577</ele>
        <time>2024-01-31T15:18:43Z</time>
      </trkpt>
      <trkpt lat="43.82247" lon="6.99859">
        <ele>1578</ele>
        <time>2024-01-31T15:18:50Z</time>
      </trkpt>
      <trkpt lat="43.82208" lon="6.99881">
        <ele>1585</ele>
        <time>2024-01-31T15:19:04Z</time>
      </trkpt>
      <trkpt lat="43.82189" lon="6.99896">
        <ele>1587</ele>
        <time>2024-01-31T15:19:10Z</time>
      </trkpt>
      <trkpt lat="43.8217" lon="6.99912">
        <ele>1586</ele>
        <time>2024-01-31T15:19:16Z</time>
      </trkpt>
      <trkpt lat="43.82153" lon="6.99921">
        <ele>1584</ele>
        <time>2024-01-31T15:19:20Z</time>
      </trkpt>
      <trkpt lat="43.82143" lon="6.99942">
        <ele>1583</ele>
        <time>2024-01-31T15:19:24Z</time>
      </trkpt>
      <trkpt lat="43.82134" lon="6.99975">
        <ele>1581</ele>
        <time>2024-01-31T15:19:29Z</time>
      </trkpt>
      <trkpt lat="43.82134" lon="7.00025">
        <ele>1576</ele>
        <time>2024-01-31T15:19:37Z</time>
      </trkpt>
      <trkpt lat="43.82119" lon="7.00105">
        <ele>1570</ele>
        <time>2024-01-31T15:19:48Z</time>
      </trkpt>
      <trkpt lat="43.82091" lon="7.00137">
        <ele>1568</ele>
        <time>2024-01-31T15:19:55Z</time>
      </trkpt>
      <trkpt lat="43.82079" lon="7.00158">
        <ele>1566</ele>
        <time>2024-01-31T15:19:59Z</time>
      </trkpt>
      <trkpt lat="43.82076" lon="7.00186">
        <ele>1564</ele>
        <time>2024-01-31T15:20:02Z</time>
      </trkpt>
      <trkpt lat="43.82078" lon="7.00211">
        <ele>1561</ele>
        <time>2024-01-31T15:20:06Z</time>
      </trkpt>
      <trkpt lat="43.82092" lon="7.00264">
        <ele>1554</ele>
        <time>2024-01-31T15:20:13Z</time>
      </trkpt>
      <trkpt lat="43.82097" lon="7.00309">
        <ele>1547</ele>
        <time>2024-01-31T15:20:19Z</time>
      </trkpt>
      <trkpt lat="43.82097" lon="7.00391">
        <ele>1535</ele>
        <time>2024-01-31T15:20:30Z</time>
      </trkpt>
      <trkpt lat="43.82099" lon="7.00412">
        <ele>1533</ele>
        <time>2024-01-31T15:20:33Z</time>
      </trkpt>
      <trkpt lat="43.82103" lon="7.00424">
        <ele>1530</ele>
        <time>2024-01-31T15:20:35Z</time>
      </trkpt>
      <trkpt lat="43.82122" lon="7.0048">
        <ele>1521</ele>
        <time>2024-01-31T15:20:44Z</time>
      </trkpt>
      <trkpt lat="43.82134" lon="7.00545">
        <ele>1510</ele>
        <time>2024-01-31T15:20:53Z</time>
      </trkpt>
      <trkpt lat="43.82134" lon="7.0058">
        <ele>1504</ele>
        <time>2024-01-31T15:20:57Z</time>
      </trkpt>
      <trkpt lat="43.82142" lon="7.0061">
        <ele>1501</ele>
        <time>2024-01-31T15:21:02Z</time>
      </trkpt>
      <trkpt lat="43.82143" lon="7.00636">
        <ele>1497</ele>
        <time>2024-01-31T15:21:06Z</time>
      </trkpt>
      <trkpt lat="43.82137" lon="7.00671">
        <ele>1490</ele>
        <time>2024-01-31T15:21:11Z</time>
      </trkpt>
      <trkpt lat="43.82132" lon="7.00678">
        <ele>1489</ele>
        <time>2024-01-31T15:21:12Z</time>
      </trkpt>
      <trkpt lat="43.82125" lon="7.00688">
        <ele>1488</ele>
        <time>2024-01-31T15:21:14Z</time>
      </trkpt>
      <trkpt lat="43.82112" lon="7.00693">
        <ele>1487</ele>
        <time>2024-01-31T15:21:17Z</time>
      </trkpt>
      <trkpt lat="43.82101" lon="7.0069">
        <ele>1484</ele>
        <time>2024-01-31T15:21:19Z</time>
      </trkpt>
      <trkpt lat="43.82061" lon="7.00665">
        <ele>1477</ele>
        <time>2024-01-31T15:21:28Z</time>
      </trkpt>
      <trkpt lat="43.82051" lon="7.00648">
        <ele>1475</ele>
        <time>2024-01-31T15:21:32Z</time>
      </trkpt>
      <trkpt lat="43.82044" lon="7.00641">
        <ele>1475</ele>
        <time>2024-01-31T15:21:33Z</time>
      </trkpt>
      <trkpt lat="43.82031" lon="7.00638">
        <ele>1473</ele>
        <time>2024-01-31T15:21:36Z</time>
      </trkpt>
      <trkpt lat="43.82019" lon="7.00626">
        <ele>1471</ele>
        <time>2024-01-31T15:21:39Z</time>
      </trkpt>
      <trkpt lat="43.8201" lon="7.00623">
        <ele>1470</ele>
        <time>2024-01-31T15:21:41Z</time>
      </trkpt>
      <trkpt lat="43.81998" lon="7.00626">
        <ele>1468</ele>
        <time>2024-01-31T15:21:44Z</time>
      </trkpt>
      <trkpt lat="43.81987" lon="7.00635">
        <ele>1466</ele>
        <time>2024-01-31T15:21:47Z</time>
      </trkpt>
      <trkpt lat="43.8198" lon="7.00649">
        <ele>1465</ele>
        <time>2024-01-31T15:21:49Z</time>
      </trkpt>
      <trkpt lat="43.81977" lon="7.00663">
        <ele>1463</ele>
        <time>2024-01-31T15:21:51Z</time>
      </trkpt>
      <trkpt lat="43.8198" lon="7.00693">
        <ele>1461</ele>
        <time>2024-01-31T15:21:56Z</time>
      </trkpt>
      <trkpt lat="43.82003" lon="7.00789">
        <ele>1457</ele>
        <time>2024-01-31T15:22:11Z</time>
      </trkpt>
      <trkpt lat="43.82004" lon="7.00827">
        <ele>1453</ele>
        <time>2024-01-31T15:22:17Z</time>
      </trkpt>
      <trkpt lat="43.82" lon="7.00864">
        <ele>1451</ele>
        <time>2024-01-31T15:22:23Z</time>
      </trkpt>
      <trkpt lat="43.81993" lon="7.00892">
        <ele>1446</ele>
        <time>2024-01-31T15:22:28Z</time>
      </trkpt>
      <trkpt lat="43.81993" lon="7.00919">
        <ele>1442</ele>
        <time>2024-01-31T15:22:32Z</time>
      </trkpt>
      <trkpt lat="43.82002" lon="7.00949">
        <ele>1440</ele>
        <time>2024-01-31T15:22:36Z</time>
      </trkpt>
      <trkpt lat="43.82017" lon="7.00977">
        <ele>1437</ele>
        <time>2024-01-31T15:22:42Z</time>
      </trkpt>
      <trkpt lat="43.82015" lon="7.00982">
        <ele>1436</ele>
        <time>2024-01-31T15:22:43Z</time>
      </trkpt>
      <trkpt lat="43.81998" lon="7.00958">
        <ele>1437</ele>
        <time>2024-01-31T15:22:48Z</time>
      </trkpt>
      <trkpt lat="43.81993" lon="7.00963">
        <ele>1435</ele>
        <time>2024-01-31T15:22:49Z</time>
      </trkpt>
      <trkpt lat="43.81993" lon="7.00975">
        <ele>1434</ele>
        <time>2024-01-31T15:22:51Z</time>
      </trkpt>
      <trkpt lat="43.82009" lon="7.00999">
        <ele>1432</ele>
        <time>2024-01-31T15:22:56Z</time>
      </trkpt>
      <trkpt lat="43.82021" lon="7.01031">
        <ele>1431</ele>
        <time>2024-01-31T15:23:02Z</time>
      </trkpt>
      <trkpt lat="43.8203" lon="7.01036">
        <ele>1431</ele>
        <time>2024-01-31T15:23:04Z</time>
      </trkpt>
      <trkpt lat="43.82029" lon="7.01043">
        <ele>1431</ele>
        <time>2024-01-31T15:23:05Z</time>
      </trkpt>
      <trkpt lat="43.82034" lon="7.01044">
        <ele>1431</ele>
        <time>2024-01-31T15:23:06Z</time>
      </trkpt>
      <trkpt lat="43.82042" lon="7.01064">
        <ele>1435</ele>
        <time>2024-01-31T15:23:10Z</time>
      </trkpt>
      <trkpt lat="43.82048" lon="7.01069">
        <ele>1438</ele>
        <time>2024-01-31T15:23:12Z</time>
      </trkpt>
      <trkpt lat="43.82043" lon="7.01082">
        <ele>1438</ele>
        <time>2024-01-31T15:23:14Z</time>
      </trkpt>
      <trkpt lat="43.82012" lon="7.01126">
        <ele>1431</ele>
        <time>2024-01-31T15:23:24Z</time>
      </trkpt>
      <trkpt lat="43.82005" lon="7.01144">
        <ele>1431</ele>
        <time>2024-01-31T15:23:27Z</time>
      </trkpt>
      <trkpt lat="43.81996" lon="7.01201">
        <ele>1429</ele>
        <time>2024-01-31T15:23:36Z</time>
      </trkpt>
      <trkpt lat="43.81996" lon="7.01221">
        <ele>1427</ele>
        <time>2024-01-31T15:23:40Z</time>
      </trkpt>
      <trkpt lat="43.82003" lon="7.01256">
        <ele>1424</ele>
        <time>2024-01-31T15:23:45Z</time>
      </trkpt>
      <trkpt lat="43.82001" lon="7.01307">
        <ele>1418</ele>
        <time>2024-01-31T15:23:53Z</time>
      </trkpt>
      <trkpt lat="43.82023" lon="7.01412">
        <ele>1418</ele>
        <time>2024-01-31T15:24:09Z</time>
      </trkpt>
      <trkpt lat="43.82019" lon="7.01444">
        <ele>1415</ele>
        <time>2024-01-31T15:24:14Z</time>
      </trkpt>
      <trkpt lat="43.82018" lon="7.01498">
        <ele>1412</ele>
        <time>2024-01-31T15:24:21Z</time>
      </trkpt>
      <trkpt lat="43.82023" lon="7.0155">
        <ele>1407</ele>
        <time>2024-01-31T15:24:29Z</time>
      </trkpt>
      <trkpt lat="43.82016" lon="7.01589">
        <ele>1400</ele>
        <time>2024-01-31T15:24:35Z</time>
      </trkpt>
      <trkpt lat="43.82017" lon="7.01621">
        <ele>1399</ele>
        <time>2024-01-31T15:24:40Z</time>
      </trkpt>
      <trkpt lat="43.82019" lon="7.01646">
        <ele>1398</ele>
        <time>2024-01-31T15:24:43Z</time>
      </trkpt>
      <trkpt lat="43.82023" lon="7.01669">
        <ele>1398</ele>
        <time>2024-01-31T15:24:47Z</time>
      </trkpt>
      <trkpt lat="43.82024" lon="7.01697">
        <ele>1397</ele>
        <time>2024-01-31T15:24:51Z</time>
      </trkpt>
      <trkpt lat="43.82014" lon="7.01718">
        <ele>1397</ele>
        <time>2024-01-31T15:24:54Z</time>
      </trkpt>
      <trkpt lat="43.82008" lon="7.01737">
        <ele>1397</ele>
        <time>2024-01-31T15:24:57Z</time>
      </trkpt>
      <trkpt lat="43.82014" lon="7.01761">
        <ele>1400</ele>
        <time>2024-01-31T15:25:01Z</time>
      </trkpt>
      <trkpt lat="43.82013" lon="7.01772">
        <ele>1399</ele>
        <time>2024-01-31T15:25:02Z</time>
      </trkpt>
      <trkpt lat="43.82006" lon="7.01785">
        <ele>1398</ele>
        <time>2024-01-31T15:25:05Z</time>
      </trkpt>
      <trkpt lat="43.82007" lon="7.01797">
        <ele>1397</ele>
        <time>2024-01-31T15:25:06Z</time>
      </trkpt>
      <trkpt lat="43.81992" lon="7.01838">
        <ele>1390</ele>
        <time>2024-01-31T15:25:13Z</time>
      </trkpt>
      <trkpt lat="43.8199" lon="7.01861">
        <ele>1386</ele>
        <time>2024-01-31T15:25:16Z</time>
      </trkpt>
      <trkpt lat="43.81981" lon="7.01884">
        <ele>1380</ele>
        <time>2024-01-31T15:25:20Z</time>
      </trkpt>
      <trkpt lat="43.81979" lon="7.01939">
        <ele>1371</ele>
        <time>2024-01-31T15:25:27Z</time>
      </trkpt>
      <trkpt lat="43.81982" lon="7.01968">
        <ele>1367</ele>
        <time>2024-01-31T15:25:31Z</time>
      </trkpt>
      <trkpt lat="43.82" lon="7.02018">
        <ele>1361</ele>
        <time>2024-01-31T15:25:39Z</time>
      </trkpt>
      <trkpt lat="43.82009" lon="7.02102">
        <ele>1355</ele>
        <time>2024-01-31T15:25:50Z</time>
      </trkpt>
      <trkpt lat="43.82007" lon="7.02134">
        <ele>1349</ele>
        <time>2024-01-31T15:25:55Z</time>
      </trkpt>
      <trkpt lat="43.81991" lon="7.02218">
        <ele>1339</ele>
        <time>2024-01-31T15:26:07Z</time>
      </trkpt>
      <trkpt lat="43.81993" lon="7.02252">
        <ele>1337</ele>
        <time>2024-01-31T15:26:12Z</time>
      </trkpt>
      <trkpt lat="43.82" lon="7.02294">
        <ele>1332</ele>
        <time>2024-01-31T15:26:17Z</time>
      </trkpt>
      <trkpt lat="43.82021" lon="7.02339">
        <ele>1329</ele>
        <time>2024-01-31T15:26:25Z</time>
      </trkpt>
      <trkpt lat="43.82034" lon="7.0243">
        <ele>1314</ele>
        <time>2024-01-31T15:26:38Z</time>
      </trkpt>
      <trkpt lat="43.82032" lon="7.02442">
        <ele>1312</ele>
        <time>2024-01-31T15:26:39Z</time>
      </trkpt>
      <trkpt lat="43.82038" lon="7.0249">
        <ele>1303</ele>
        <time>2024-01-31T15:26:46Z</time>
      </trkpt>
      <trkpt lat="43.82042" lon="7.02504">
        <ele>1301</ele>
        <time>2024-01-31T15:26:49Z</time>
      </trkpt>
      <trkpt lat="43.82058" lon="7.02524">
        <ele>1303</ele>
        <time>2024-01-31T15:26:54Z</time>
      </trkpt>
      <trkpt lat="43.82068" lon="7.02548">
        <ele>1300</ele>
        <time>2024-01-31T15:26:58Z</time>
      </trkpt>
      <trkpt lat="43.82068" lon="7.0256">
        <ele>1297</ele>
        <time>2024-01-31T15:27:00Z</time>
      </trkpt>
      <trkpt lat="43.82055" lon="7.02606">
        <ele>1284</ele>
        <time>2024-01-31T15:27:10Z</time>
      </trkpt>
      <trkpt lat="43.82056" lon="7.02617">
        <ele>1281</ele>
        <time>2024-01-31T15:27:12Z</time>
      </trkpt>
      <trkpt lat="43.8208" lon="7.02645">
        <ele>1278</ele>
        <time>2024-01-31T15:27:24Z</time>
      </trkpt>
      <trkpt lat="43.82083" lon="7.02662">
        <ele>1276</ele>
        <time>2024-01-31T15:27:30Z</time>
      </trkpt>
      <trkpt lat="43.82102" lon="7.02688">
        <ele>1278</ele>
        <time>2024-01-31T15:27:42Z</time>
      </trkpt>
      <trkpt lat="43.82134" lon="7.02711">
        <ele>1283</ele>
        <time>2024-01-31T15:28:04Z</time>
      </trkpt>
      <trkpt lat="43.82159" lon="7.02722">
        <ele>1286</ele>
        <time>2024-01-31T15:28:21Z</time>
      </trkpt>
      <trkpt lat="43.82221" lon="7.02789">
        <ele>1292</ele>
        <time>2024-01-31T15:29:18Z</time>
      </trkpt>
      <trkpt lat="43.82243" lon="7.02831">
        <ele>1296</ele>
        <time>2024-01-31T15:29:41Z</time>
      </trkpt>
      <trkpt lat="43.82249" lon="7.02851">
        <ele>1299</ele>
        <time>2024-01-31T15:29:51Z</time>
      </trkpt>
      <trkpt lat="43.82247" lon="7.02879">
        <ele>1302</ele>
        <time>2024-01-31T15:30:04Z</time>
      </trkpt>
      <trkpt lat="43.82235" lon="7.02909">
        <ele>1304</ele>
        <time>2024-01-31T15:30:20Z</time>
      </trkpt>
      <trkpt lat="43.82231" lon="7.02933">
        <ele>1307</ele>
        <time>2024-01-31T15:30:32Z</time>
      </trkpt>
      <trkpt lat="43.82208" lon="7.02979">
        <ele>1309</ele>
        <time>2024-01-31T15:30:59Z</time>
      </trkpt>
      <trkpt lat="43.822" lon="7.03002">
        <ele>1310</ele>
        <time>2024-01-31T15:31:11Z</time>
      </trkpt>
      <trkpt lat="43.82201" lon="7.03033">
        <ele>1311</ele>
        <time>2024-01-31T15:31:26Z</time>
      </trkpt>
      <trkpt lat="43.82198" lon="7.03077">
        <ele>1313</ele>
        <time>2024-01-31T15:31:45Z</time>
      </trkpt>
      <trkpt lat="43.82204" lon="7.03114">
        <ele>1316</ele>
        <time>2024-01-31T15:32:02Z</time>
      </trkpt>
      <trkpt lat="43.82238" lon="7.03164">
        <ele>1323</ele>
        <time>2024-01-31T15:32:29Z</time>
      </trkpt>
      <trkpt lat="43.82244" lon="7.0318">
        <ele>1324</ele>
        <time>2024-01-31T15:32:35Z</time>
      </trkpt>
      <trkpt lat="43.8224" lon="7.03205">
        <ele>1326</ele>
        <time>2024-01-31T15:32:43Z</time>
      </trkpt>
      <trkpt lat="43.82231" lon="7.03232">
        <ele>1328</ele>
        <time>2024-01-31T15:32:53Z</time>
      </trkpt>
      <trkpt lat="43.82226" lon="7.0328">
        <ele>1329</ele>
        <time>2024-01-31T15:33:05Z</time>
      </trkpt>
      <trkpt lat="43.82204" lon="7.0331">
        <ele>1328</ele>
        <time>2024-01-31T15:33:13Z</time>
      </trkpt>
      <trkpt lat="43.82149" lon="7.03418">
        <ele>1328</ele>
        <time>2024-01-31T15:33:35Z</time>
      </trkpt>
      <trkpt lat="43.82139" lon="7.03448">
        <ele>1327</ele>
        <time>2024-01-31T15:33:40Z</time>
      </trkpt>
      <trkpt lat="43.82138" lon="7.03473">
        <ele>1327</ele>
        <time>2024-01-31T15:33:43Z</time>
      </trkpt>
      <trkpt lat="43.82133" lon="7.03479">
        <ele>1326</ele>
        <time>2024-01-31T15:33:45Z</time>
      </trkpt>
      <trkpt lat="43.82113" lon="7.03476">
        <ele>1322</ele>
        <time>2024-01-31T15:33:49Z</time>
      </trkpt>
      <trkpt lat="43.82101" lon="7.03491">
        <ele>1319</ele>
        <time>2024-01-31T15:33:52Z</time>
      </trkpt>
      <trkpt lat="43.82076" lon="7.03537">
        <ele>1313</ele>
        <time>2024-01-31T15:34:00Z</time>
      </trkpt>
      <trkpt lat="43.82059" lon="7.03562">
        <ele>1309</ele>
        <time>2024-01-31T15:34:05Z</time>
      </trkpt>
      <trkpt lat="43.82036" lon="7.03557">
        <ele>1307</ele>
        <time>2024-01-31T15:34:10Z</time>
      </trkpt>
      <trkpt lat="43.81997" lon="7.03556">
        <ele>1303</ele>
        <time>2024-01-31T15:34:18Z</time>
      </trkpt>
      <trkpt lat="43.8198" lon="7.03572">
        <ele>1301</ele>
        <time>2024-01-31T15:34:22Z</time>
      </trkpt>
      <trkpt lat="43.81931" lon="7.03653">
        <ele>1295</ele>
        <time>2024-01-31T15:34:37Z</time>
      </trkpt>
      <trkpt lat="43.81824" lon="7.03727">
        <ele>1282</ele>
        <time>2024-01-31T15:35:00Z</time>
      </trkpt>
      <trkpt lat="43.81814" lon="7.03747">
        <ele>1281</ele>
        <time>2024-01-31T15:35:03Z</time>
      </trkpt>
      <trkpt lat="43.81791" lon="7.03764">
        <ele>1275</ele>
        <time>2024-01-31T15:35:08Z</time>
      </trkpt>
      <trkpt lat="43.81773" lon="7.03786">
        <ele>1267</ele>
        <time>2024-01-31T15:35:12Z</time>
      </trkpt>
      <trkpt lat="43.81765" lon="7.03788">
        <ele>1265</ele>
        <time>2024-01-31T15:35:14Z</time>
      </trkpt>
      <trkpt lat="43.81743" lon="7.03779">
        <ele>1260</ele>
        <time>2024-01-31T15:35:19Z</time>
      </trkpt>
      <trkpt lat="43.81732" lon="7.03781">
        <ele>1257</ele>
        <time>2024-01-31T15:35:21Z</time>
      </trkpt>
      <trkpt lat="43.81725" lon="7.03777">
        <ele>1255</ele>
        <time>2024-01-31T15:35:22Z</time>
      </trkpt>
      <trkpt lat="43.81718" lon="7.03779">
        <ele>1254</ele>
        <time>2024-01-31T15:35:24Z</time>
      </trkpt>
      <trkpt lat="43.81696" lon="7.03818">
        <ele>1247</ele>
        <time>2024-01-31T15:35:31Z</time>
      </trkpt>
      <trkpt lat="43.81696" lon="7.03841">
        <ele>1245</ele>
        <time>2024-01-31T15:35:34Z</time>
      </trkpt>
      <trkpt lat="43.81693" lon="7.03856">
        <ele>1241</ele>
        <time>2024-01-31T15:35:36Z</time>
      </trkpt>
      <trkpt lat="43.81699" lon="7.03903">
        <ele>1237</ele>
        <time>2024-01-31T15:35:43Z</time>
      </trkpt>
      <trkpt lat="43.81695" lon="7.03914">
        <ele>1238</ele>
        <time>2024-01-31T15:35:45Z</time>
      </trkpt>
      <trkpt lat="43.81683" lon="7.03923">
        <ele>1240</ele>
        <time>2024-01-31T15:35:48Z</time>
      </trkpt>
      <trkpt lat="43.81666" lon="7.03967">
        <ele>1240</ele>
        <time>2024-01-31T15:35:56Z</time>
      </trkpt>
      <trkpt lat="43.81665" lon="7.0398">
        <ele>1239</ele>
        <time>2024-01-31T15:35:58Z</time>
      </trkpt>
      <trkpt lat="43.81659" lon="7.04002">
        <ele>1237</ele>
        <time>2024-01-31T15:36:02Z</time>
      </trkpt>
      <trkpt lat="43.81658" lon="7.04041">
        <ele>1235</ele>
        <time>2024-01-31T15:36:08Z</time>
      </trkpt>
      <trkpt lat="43.81656" lon="7.04057">
        <ele>1234</ele>
        <time>2024-01-31T15:36:11Z</time>
      </trkpt>
      <trkpt lat="43.81652" lon="7.04067">
        <ele>1234</ele>
        <time>2024-01-31T15:36:13Z</time>
      </trkpt>
      <trkpt lat="43.81646" lon="7.04074">
        <ele>1234</ele>
        <time>2024-01-31T15:36:15Z</time>
      </trkpt>
      <trkpt lat="43.81625" lon="7.0409">
        <ele>1231</ele>
        <time>2024-01-31T15:36:20Z</time>
      </trkpt>
      <trkpt lat="43.81598" lon="7.04131">
        <ele>1229</ele>
        <time>2024-01-31T15:36:29Z</time>
      </trkpt>
      <trkpt lat="43.81585" lon="7.04167">
        <ele>1228</ele>
        <time>2024-01-31T15:36:36Z</time>
      </trkpt>
      <trkpt lat="43.8158" lon="7.04172">
        <ele>1228</ele>
        <time>2024-01-31T15:36:37Z</time>
      </trkpt>
      <trkpt lat="43.81579" lon="7.04183">
        <ele>1227</ele>
        <time>2024-01-31T15:36:38Z</time>
      </trkpt>
      <trkpt lat="43.81583" lon="7.04202">
        <ele>1227</ele>
        <time>2024-01-31T15:36:42Z</time>
      </trkpt>
      <trkpt lat="43.81568" lon="7.04229">
        <ele>1223</ele>
        <time>2024-01-31T15:36:47Z</time>
      </trkpt>
      <trkpt lat="43.81546" lon="7.04262">
        <ele>1218</ele>
        <time>2024-01-31T15:36:55Z</time>
      </trkpt>
      <trkpt lat="43.81547" lon="7.04273">
        <ele>1217</ele>
        <time>2024-01-31T15:36:56Z</time>
      </trkpt>
      <trkpt lat="43.81571" lon="7.04335">
        <ele>1211</ele>
        <time>2024-01-31T15:37:09Z</time>
      </trkpt>
      <trkpt lat="43.8158" lon="7.04341">
        <ele>1210</ele>
        <time>2024-01-31T15:37:11Z</time>
      </trkpt>
      <trkpt lat="43.81587" lon="7.04358">
        <ele>1211</ele>
        <time>2024-01-31T15:37:15Z</time>
      </trkpt>
      <trkpt lat="43.81593" lon="7.04381">
        <ele>1211</ele>
        <time>2024-01-31T15:37:20Z</time>
      </trkpt>
      <trkpt lat="43.816" lon="7.04492">
        <ele>1206</ele>
        <time>2024-01-31T15:37:49Z</time>
      </trkpt>
      <trkpt lat="43.81619" lon="7.04508">
        <ele>1208</ele>
        <time>2024-01-31T15:37:57Z</time>
      </trkpt>
      <trkpt lat="43.81632" lon="7.04511">
        <ele>1210</ele>
        <time>2024-01-31T15:38:02Z</time>
      </trkpt>
      <trkpt lat="43.81658" lon="7.04538">
        <ele>1216</ele>
        <time>2024-01-31T15:38:13Z</time>
      </trkpt>
      <trkpt lat="43.81664" lon="7.04552">
        <ele>1218</ele>
        <time>2024-01-31T15:38:17Z</time>
      </trkpt>
      <trkpt lat="43.81661" lon="7.04591">
        <ele>1222</ele>
        <time>2024-01-31T15:38:25Z</time>
      </trkpt>
      <trkpt lat="43.81653" lon="7.04622">
        <ele>1225</ele>
        <time>2024-01-31T15:38:31Z</time>
      </trkpt>
      <trkpt lat="43.8164" lon="7.04642">
        <ele>1227</ele>
        <time>2024-01-31T15:38:36Z</time>
      </trkpt>
      <trkpt lat="43.81625" lon="7.0464">
        <ele>1227</ele>
        <time>2024-01-31T15:38:39Z</time>
      </trkpt>
      <trkpt lat="43.81618" lon="7.04646">
        <ele>1227</ele>
        <time>2024-01-31T15:38:41Z</time>
      </trkpt>
      <trkpt lat="43.81616" lon="7.04654">
        <ele>1227</ele>
        <time>2024-01-31T15:38:43Z</time>
      </trkpt>
      <trkpt lat="43.8161" lon="7.0466">
        <ele>1227</ele>
        <time>2024-01-31T15:38:45Z</time>
      </trkpt>
      <trkpt lat="43.81597" lon="7.04658">
        <ele>1226</ele>
        <time>2024-01-31T15:38:48Z</time>
      </trkpt>
      <trkpt lat="43.8159" lon="7.04663">
        <ele>1226</ele>
        <time>2024-01-31T15:38:49Z</time>
      </trkpt>
      <trkpt lat="43.81588" lon="7.04677">
        <ele>1226</ele>
        <time>2024-01-31T15:38:52Z</time>
      </trkpt>
      <trkpt lat="43.81577" lon="7.04709">
        <ele>1224</ele>
        <time>2024-01-31T15:38:57Z</time>
      </trkpt>
      <trkpt lat="43.81582" lon="7.04737">
        <ele>1225</ele>
        <time>2024-01-31T15:39:01Z</time>
      </trkpt>
      <trkpt lat="43.81581" lon="7.04836">
        <ele>1222</ele>
        <time>2024-01-31T15:39:16Z</time>
      </trkpt>
      <trkpt lat="43.81591" lon="7.04883">
        <ele>1221</ele>
        <time>2024-01-31T15:39:23Z</time>
      </trkpt>
      <trkpt lat="43.81594" lon="7.0492">
        <ele>1218</ele>
        <time>2024-01-31T15:39:28Z</time>
      </trkpt>
      <trkpt lat="43.81598" lon="7.04936">
        <ele>1219</ele>
        <time>2024-01-31T15:39:31Z</time>
      </trkpt>
      <trkpt lat="43.81603" lon="7.04991">
        <ele>1212</ele>
        <time>2024-01-31T15:39:40Z</time>
      </trkpt>
      <trkpt lat="43.81605" lon="7.05038">
        <ele>1205</ele>
        <time>2024-01-31T15:39:47Z</time>
      </trkpt>
      <trkpt lat="43.81617" lon="7.05085">
        <ele>1204</ele>
        <time>2024-01-31T15:39:55Z</time>
      </trkpt>
      <trkpt lat="43.81643" lon="7.05159">
        <ele>1199</ele>
        <time>2024-01-31T15:40:09Z</time>
      </trkpt>
      <trkpt lat="43.81657" lon="7.05182">
        <ele>1200</ele>
        <time>2024-01-31T15:40:14Z</time>
      </trkpt>
      <trkpt lat="43.81672" lon="7.05221">
        <ele>1196</ele>
        <time>2024-01-31T15:40:21Z</time>
      </trkpt>
      <trkpt lat="43.81695" lon="7.0526">
        <ele>1193</ele>
        <time>2024-01-31T15:40:29Z</time>
      </trkpt>
      <trkpt lat="43.81684" lon="7.05316">
        <ele>1186</ele>
        <time>2024-01-31T15:40:40Z</time>
      </trkpt>
      <trkpt lat="43.81677" lon="7.05333">
        <ele>1183</ele>
        <time>2024-01-31T15:40:43Z</time>
      </trkpt>
      <trkpt lat="43.81676" lon="7.05347">
        <ele>1181</ele>
        <time>2024-01-31T15:40:46Z</time>
      </trkpt>
      <trkpt lat="43.81673" lon="7.05351">
        <ele>1181</ele>
        <time>2024-01-31T15:40:47Z</time>
      </trkpt>
      <trkpt lat="43.81664" lon="7.05352">
        <ele>1180</ele>
        <time>2024-01-31T15:40:49Z</time>
      </trkpt>
      <trkpt lat="43.81659" lon="7.05361">
        <ele>1178</ele>
        <time>2024-01-31T15:40:51Z</time>
      </trkpt>
      <trkpt lat="43.81666" lon="7.05425">
        <ele>1172</ele>
        <time>2024-01-31T15:41:03Z</time>
      </trkpt>
      <trkpt lat="43.81668" lon="7.05437">
        <ele>1172</ele>
        <time>2024-01-31T15:41:05Z</time>
      </trkpt>
      <trkpt lat="43.81676" lon="7.05449">
        <ele>1172</ele>
        <time>2024-01-31T15:41:08Z</time>
      </trkpt>
      <trkpt lat="43.81685" lon="7.05453">
        <ele>1172</ele>
        <time>2024-01-31T15:41:10Z</time>
      </trkpt>
      <trkpt lat="43.81701" lon="7.05448">
        <ele>1172</ele>
        <time>2024-01-31T15:41:14Z</time>
      </trkpt>
      <trkpt lat="43.81717" lon="7.05432">
        <ele>1171</ele>
        <time>2024-01-31T15:41:19Z</time>
      </trkpt>
      <trkpt lat="43.81742" lon="7.05431">
        <ele>1170</ele>
        <time>2024-01-31T15:41:25Z</time>
      </trkpt>
      <trkpt lat="43.81765" lon="7.05436">
        <ele>1168</ele>
        <time>2024-01-31T15:41:31Z</time>
      </trkpt>
      <trkpt lat="43.81793" lon="7.0545">
        <ele>1165</ele>
        <time>2024-01-31T15:41:38Z</time>
      </trkpt>
      <trkpt lat="43.81801" lon="7.05459">
        <ele>1164</ele>
        <time>2024-01-31T15:41:41Z</time>
      </trkpt>
      <trkpt lat="43.81813" lon="7.05462">
        <ele>1162</ele>
        <time>2024-01-31T15:41:44Z</time>
      </trkpt>
      <trkpt lat="43.81822" lon="7.05474">
        <ele>1161</ele>
        <time>2024-01-31T15:41:47Z</time>
      </trkpt>
      <trkpt lat="43.81823" lon="7.05484">
        <ele>1160</ele>
        <time>2024-01-31T15:41:49Z</time>
      </trkpt>
      <trkpt lat="43.81856" lon="7.05519">
        <ele>1155</ele>
        <time>2024-01-31T15:41:59Z</time>
      </trkpt>
      <trkpt lat="43.81885" lon="7.05566">
        <ele>1150</ele>
        <time>2024-01-31T15:42:09Z</time>
      </trkpt>
      <trkpt lat="43.8192" lon="7.05595">
        <ele>1146</ele>
        <time>2024-01-31T15:42:18Z</time>
      </trkpt>
      <trkpt lat="43.81938" lon="7.05626">
        <ele>1145</ele>
        <time>2024-01-31T15:42:24Z</time>
      </trkpt>
      <trkpt lat="43.81973" lon="7.05665">
        <ele>1141</ele>
        <time>2024-01-31T15:42:34Z</time>
      </trkpt>
      <trkpt lat="43.81999" lon="7.05709">
        <ele>1140</ele>
        <time>2024-01-31T15:42:42Z</time>
      </trkpt>
      <trkpt lat="43.82001" lon="7.05719">
        <ele>1140</ele>
        <time>2024-01-31T15:42:44Z</time>
      </trkpt>
      <trkpt lat="43.81999" lon="7.05744">
        <ele>1140</ele>
        <time>2024-01-31T15:42:48Z</time>
      </trkpt>
      <trkpt lat="43.81999" lon="7.05762">
        <ele>1141</ele>
        <time>2024-01-31T15:42:51Z</time>
      </trkpt>
      <trkpt lat="43.81994" lon="7.05788">
        <ele>1142</ele>
        <time>2024-01-31T15:42:55Z</time>
      </trkpt>
      <trkpt lat="43.81987" lon="7.05811">
        <ele>1143</ele>
        <time>2024-01-31T15:42:58Z</time>
      </trkpt>
      <trkpt lat="43.81971" lon="7.05848">
        <ele>1141</ele>
        <time>2024-01-31T15:43:05Z</time>
      </trkpt>
      <trkpt lat="43.81953" lon="7.05909">
        <ele>1138</ele>
        <time>2024-01-31T15:43:14Z</time>
      </trkpt>
      <trkpt lat="43.81949" lon="7.05952">
        <ele>1136</ele>
        <time>2024-01-31T15:43:20Z</time>
      </trkpt>
      <trkpt lat="43.81963" lon="7.0603">
        <ele>1133</ele>
        <time>2024-01-31T15:43:32Z</time>
      </trkpt>
      <trkpt lat="43.81957" lon="7.06136">
        <ele>1116</ele>
        <time>2024-01-31T15:43:47Z</time>
      </trkpt>
      <trkpt lat="43.81942" lon="7.06228">
        <ele>1107</ele>
        <time>2024-01-31T15:44:00Z</time>
      </trkpt>
      <trkpt lat="43.81946" lon="7.0635">
        <ele>1099</ele>
        <time>2024-01-31T15:44:17Z</time>
      </trkpt>
      <trkpt lat="43.81952" lon="7.06396">
        <ele>1092</ele>
        <time>2024-01-31T15:44:24Z</time>
      </trkpt>
      <trkpt lat="43.81959" lon="7.06425">
        <ele>1093</ele>
        <time>2024-01-31T15:44:28Z</time>
      </trkpt>
      <trkpt lat="43.81932" lon="7.06579">
        <ele>1071</ele>
        <time>2024-01-31T15:44:50Z</time>
      </trkpt>
      <trkpt lat="43.81884" lon="7.06803">
        <ele>1042</ele>
        <time>2024-01-31T15:45:22Z</time>
      </trkpt>
      <trkpt lat="43.81878" lon="7.06843">
        <ele>1039</ele>
        <time>2024-01-31T15:45:28Z</time>
      </trkpt>
      <trkpt lat="43.81793" lon="7.06959">
        <ele>1019</ele>
        <time>2024-01-31T15:45:51Z</time>
      </trkpt>
      <trkpt lat="43.81771" lon="7.06998">
        <ele>1013</ele>
        <time>2024-01-31T15:45:58Z</time>
      </trkpt>
      <trkpt lat="43.81658" lon="7.07252">
        <ele>988</ele>
        <time>2024-01-31T15:46:41Z</time>
      </trkpt>
      <trkpt lat="43.81632" lon="7.07309">
        <ele>981</ele>
        <time>2024-01-31T15:46:51Z</time>
      </trkpt>
      <trkpt lat="43.81627" lon="7.07341">
        <ele>979</ele>
        <time>2024-01-31T15:46:55Z</time>
      </trkpt>
      <trkpt lat="43.81633" lon="7.07382">
        <ele>977</ele>
        <time>2024-01-31T15:47:01Z</time>
      </trkpt>
      <trkpt lat="43.81632" lon="7.07398">
        <ele>976</ele>
        <time>2024-01-31T15:47:03Z</time>
      </trkpt>
      <trkpt lat="43.81626" lon="7.07437">
        <ele>974</ele>
        <time>2024-01-31T15:47:09Z</time>
      </trkpt>
      <trkpt lat="43.81623" lon="7.07518">
        <ele>971</ele>
        <time>2024-01-31T15:47:20Z</time>
      </trkpt>
      <trkpt lat="43.8162" lon="7.07552">
        <ele>969</ele>
        <time>2024-01-31T15:47:25Z</time>
      </trkpt>
      <trkpt lat="43.81615" lon="7.07578">
        <ele>969</ele>
        <time>2024-01-31T15:47:29Z</time>
      </trkpt>
      <trkpt lat="43.81617" lon="7.07615">
        <ele>966</ele>
        <time>2024-01-31T15:47:34Z</time>
      </trkpt>
      <trkpt lat="43.81614" lon="7.07639">
        <ele>963</ele>
        <time>2024-01-31T15:47:37Z</time>
      </trkpt>
      <trkpt lat="43.81615" lon="7.07656">
        <ele>961</ele>
        <time>2024-01-31T15:47:40Z</time>
      </trkpt>
      <trkpt lat="43.81624" lon="7.07688">
        <ele>960</ele>
        <time>2024-01-31T15:47:45Z</time>
      </trkpt>
      <trkpt lat="43.81622" lon="7.07716">
        <ele>957</ele>
        <time>2024-01-31T15:47:49Z</time>
      </trkpt>
      <trkpt lat="43.81617" lon="7.07752">
        <ele>957</ele>
        <time>2024-01-31T15:47:55Z</time>
      </trkpt>
      <trkpt lat="43.81602" lon="7.07797">
        <ele>955</ele>
        <time>2024-01-31T15:48:03Z</time>
      </trkpt>
      <trkpt lat="43.81578" lon="7.07889">
        <ele>945</ele>
        <time>2024-01-31T15:48:20Z</time>
      </trkpt>
      <trkpt lat="43.81554" lon="7.07936">
        <ele>942</ele>
        <time>2024-01-31T15:48:31Z</time>
      </trkpt>
      <trkpt lat="43.81541" lon="7.07972">
        <ele>938</ele>
        <time>2024-01-31T15:48:38Z</time>
      </trkpt>
      <trkpt lat="43.81545" lon="7.07983">
        <ele>938</ele>
        <time>2024-01-31T15:48:40Z</time>
      </trkpt>
      <trkpt lat="43.81571" lon="7.08027">
        <ele>937</ele>
        <time>2024-01-31T15:48:50Z</time>
      </trkpt>
      <trkpt lat="43.81567" lon="7.08094">
        <ele>937</ele>
        <time>2024-01-31T15:49:01Z</time>
      </trkpt>
      <trkpt lat="43.81554" lon="7.08129">
        <ele>931</ele>
        <time>2024-01-31T15:49:08Z</time>
      </trkpt>
      <trkpt lat="43.8155" lon="7.08145">
        <ele>931</ele>
        <time>2024-01-31T15:49:10Z</time>
      </trkpt>
      <trkpt lat="43.81553" lon="7.08181">
        <ele>931</ele>
        <time>2024-01-31T15:49:16Z</time>
      </trkpt>
      <trkpt lat="43.81542" lon="7.08268">
        <ele>927</ele>
        <time>2024-01-31T15:49:29Z</time>
      </trkpt>
      <trkpt lat="43.81555" lon="7.08305">
        <ele>926</ele>
        <time>2024-01-31T15:49:36Z</time>
      </trkpt>
      <trkpt lat="43.81557" lon="7.08327">
        <ele>925</ele>
        <time>2024-01-31T15:49:39Z</time>
      </trkpt>
      <trkpt lat="43.81551" lon="7.08372">
        <ele>921</ele>
        <time>2024-01-31T15:49:46Z</time>
      </trkpt>
      <trkpt lat="43.81551" lon="7.08402">
        <ele>920</ele>
        <time>2024-01-31T15:49:51Z</time>
      </trkpt>
      <trkpt lat="43.81548" lon="7.08427">
        <ele>916</ele>
        <time>2024-01-31T15:49:55Z</time>
      </trkpt>
      <trkpt lat="43.81548" lon="7.08442">
        <ele>914</ele>
        <time>2024-01-31T15:49:57Z</time>
      </trkpt>
      <trkpt lat="43.81554" lon="7.08462">
        <ele>916</ele>
        <time>2024-01-31T15:50:01Z</time>
      </trkpt>
      <trkpt lat="43.81555" lon="7.08475">
        <ele>916</ele>
        <time>2024-01-31T15:50:03Z</time>
      </trkpt>
      <trkpt lat="43.81551" lon="7.08484">
        <ele>915</ele>
        <time>2024-01-31T15:50:05Z</time>
      </trkpt>
      <trkpt lat="43.81522" lon="7.08508">
        <ele>910</ele>
        <time>2024-01-31T15:50:13Z</time>
      </trkpt>
      <trkpt lat="43.81519" lon="7.08515">
        <ele>909</ele>
        <time>2024-01-31T15:50:14Z</time>
      </trkpt>
      <trkpt lat="43.8152" lon="7.08568">
        <ele>911</ele>
        <time>2024-01-31T15:50:23Z</time>
      </trkpt>
      <trkpt lat="43.8151" lon="7.0866">
        <ele>908</ele>
        <time>2024-01-31T15:50:38Z</time>
      </trkpt>
      <trkpt lat="43.81515" lon="7.08701">
        <ele>909</ele>
        <time>2024-01-31T15:50:45Z</time>
      </trkpt>
      <trkpt lat="43.8151" lon="7.08717">
        <ele>909</ele>
        <time>2024-01-31T15:50:48Z</time>
      </trkpt>
      <trkpt lat="43.81501" lon="7.08732">
        <ele>907</ele>
        <time>2024-01-31T15:50:51Z</time>
      </trkpt>
      <trkpt lat="43.81492" lon="7.08739">
        <ele>905</ele>
        <time>2024-01-31T15:50:53Z</time>
      </trkpt>
      <trkpt lat="43.81477" lon="7.08814">
        <ele>905</ele>
        <time>2024-01-31T15:51:05Z</time>
      </trkpt>
      <trkpt lat="43.81467" lon="7.0885">
        <ele>900</ele>
        <time>2024-01-31T15:51:11Z</time>
      </trkpt>
      <trkpt lat="43.8147" lon="7.08859">
        <ele>899</ele>
        <time>2024-01-31T15:51:12Z</time>
      </trkpt>
      <trkpt lat="43.81481" lon="7.0887">
        <ele>901</ele>
        <time>2024-01-31T15:51:15Z</time>
      </trkpt>
      <trkpt lat="43.81496" lon="7.08937">
        <ele>893</ele>
        <time>2024-01-31T15:51:25Z</time>
      </trkpt>
      <trkpt lat="43.81491" lon="7.08945">
        <ele>893</ele>
        <time>2024-01-31T15:51:26Z</time>
      </trkpt>
      <trkpt lat="43.81458" lon="7.08955">
        <ele>885</ele>
        <time>2024-01-31T15:51:33Z</time>
      </trkpt>
      <trkpt lat="43.81422" lon="7.08986">
        <ele>881</ele>
        <time>2024-01-31T15:51:41Z</time>
      </trkpt>
      <trkpt lat="43.81416" lon="7.08996">
        <ele>878</ele>
        <time>2024-01-31T15:51:43Z</time>
      </trkpt>
      <trkpt lat="43.81419" lon="7.0901">
        <ele>879</ele>
        <time>2024-01-31T15:51:45Z</time>
      </trkpt>
      <trkpt lat="43.81418" lon="7.09028">
        <ele>876</ele>
        <time>2024-01-31T15:51:48Z</time>
      </trkpt>
      <trkpt lat="43.8143" lon="7.09144">
        <ele>872</ele>
        <time>2024-01-31T15:52:04Z</time>
      </trkpt>
      <trkpt lat="43.81426" lon="7.09177">
        <ele>868</ele>
        <time>2024-01-31T15:52:09Z</time>
      </trkpt>
      <trkpt lat="43.81409" lon="7.09238">
        <ele>858</ele>
        <time>2024-01-31T15:52:18Z</time>
      </trkpt>
      <trkpt lat="43.81406" lon="7.0923">
        <ele>855</ele>
        <time>2024-01-31T15:52:19Z</time>
      </trkpt>
      <trkpt lat="43.81401" lon="7.09191">
        <ele>852</ele>
        <time>2024-01-31T15:52:25Z</time>
      </trkpt>
      <trkpt lat="43.81397" lon="7.09188">
        <ele>850</ele>
        <time>2024-01-31T15:52:26Z</time>
      </trkpt>
      <trkpt lat="43.8138" lon="7.09249">
        <ele>840</ele>
        <time>2024-01-31T15:52:35Z</time>
      </trkpt>
      <trkpt lat="43.81375" lon="7.09307">
        <ele>837</ele>
        <time>2024-01-31T15:52:44Z</time>
      </trkpt>
      <trkpt lat="43.81371" lon="7.09315">
        <ele>835</ele>
        <time>2024-01-31T15:52:45Z</time>
      </trkpt>
      <trkpt lat="43.81358" lon="7.09323">
        <ele>830</ele>
        <time>2024-01-31T15:52:48Z</time>
      </trkpt>
      <trkpt lat="43.81333" lon="7.09346">
        <ele>823</ele>
        <time>2024-01-31T15:52:54Z</time>
      </trkpt>
      <trkpt lat="43.81294" lon="7.09424">
        <ele>815</ele>
        <time>2024-01-31T15:53:07Z</time>
      </trkpt>
      <trkpt lat="43.81284" lon="7.09476">
        <ele>813</ele>
        <time>2024-01-31T15:53:14Z</time>
      </trkpt>
      <trkpt lat="43.81273" lon="7.09515">
        <ele>808</ele>
        <time>2024-01-31T15:53:20Z</time>
      </trkpt>
      <trkpt lat="43.81272" lon="7.09564">
        <ele>810</ele>
        <time>2024-01-31T15:53:27Z</time>
      </trkpt>
      <trkpt lat="43.8127" lon="7.09567">
        <ele>808</ele>
        <time>2024-01-31T15:53:28Z</time>
      </trkpt>
      <trkpt lat="43.81266" lon="7.09561">
        <ele>806</ele>
        <time>2024-01-31T15:53:29Z</time>
      </trkpt>
      <trkpt lat="43.81261" lon="7.09533">
        <ele>803</ele>
        <time>2024-01-31T15:53:33Z</time>
      </trkpt>
      <trkpt lat="43.81251" lon="7.09515">
        <ele>798</ele>
        <time>2024-01-31T15:53:36Z</time>
      </trkpt>
      <trkpt lat="43.81248" lon="7.09492">
        <ele>794</ele>
        <time>2024-01-31T15:53:40Z</time>
      </trkpt>
      <trkpt lat="43.81232" lon="7.09446">
        <ele>790</ele>
        <time>2024-01-31T15:53:48Z</time>
      </trkpt>
      <trkpt lat="43.8122" lon="7.09395">
        <ele>779</ele>
        <time>2024-01-31T15:53:56Z</time>
      </trkpt>
      <trkpt lat="43.81215" lon="7.0936">
        <ele>770</ele>
        <time>2024-01-31T15:54:03Z</time>
      </trkpt>
      <trkpt lat="43.81211" lon="7.09301">
        <ele>760</ele>
        <time>2024-01-31T15:54:16Z</time>
      </trkpt>
      <trkpt lat="43.81208" lon="7.09298">
        <ele>756</ele>
        <time>2024-01-31T15:54:17Z</time>
      </trkpt>
      <trkpt lat="43.81207" lon="7.09292">
        <ele>755</ele>
        <time>2024-01-31T15:54:18Z</time>
      </trkpt>
      <trkpt lat="43.81205" lon="7.09288">
        <ele>752</ele>
        <time>2024-01-31T15:54:19Z</time>
      </trkpt>
      <trkpt lat="43.81185" lon="7.0928">
        <ele>755</ele>
        <time>2024-01-31T15:54:27Z</time>
      </trkpt>
      <trkpt lat="43.81177" lon="7.09284">
        <ele>756</ele>
        <time>2024-01-31T15:54:30Z</time>
      </trkpt>
      <trkpt lat="43.81171" lon="7.09296">
        <ele>758</ele>
        <time>2024-01-31T15:54:34Z</time>
      </trkpt>
      <trkpt lat="43.81162" lon="7.09323">
        <ele>757</ele>
        <time>2024-01-31T15:54:45Z</time>
      </trkpt>
      <trkpt lat="43.81151" lon="7.09337">
        <ele>757</ele>
        <time>2024-01-31T15:54:53Z</time>
      </trkpt>
      <trkpt lat="43.8112" lon="7.09359">
        <ele>759</ele>
        <time>2024-01-31T15:55:14Z</time>
      </trkpt>
      <trkpt lat="43.811" lon="7.0936">
        <ele>762</ele>
        <time>2024-01-31T15:55:28Z</time>
      </trkpt>
      <trkpt lat="43.81094" lon="7.09362">
        <ele>763</ele>
        <time>2024-01-31T15:55:32Z</time>
      </trkpt>
      <trkpt lat="43.8109" lon="7.09367">
        <ele>764</ele>
        <time>2024-01-31T15:55:36Z</time>
      </trkpt>
      <trkpt lat="43.81083" lon="7.09385">
        <ele>766</ele>
        <time>2024-01-31T15:55:47Z</time>
      </trkpt>
      <trkpt lat="43.81081" lon="7.09401">
        <ele>767</ele>
        <time>2024-01-31T15:55:56Z</time>
      </trkpt>
      <trkpt lat="43.81081" lon="7.09424">
        <ele>766</ele>
        <time>2024-01-31T15:56:07Z</time>
      </trkpt>
      <trkpt lat="43.81078" lon="7.09432">
        <ele>765</ele>
        <time>2024-01-31T15:56:11Z</time>
      </trkpt>
      <trkpt lat="43.81061" lon="7.09455">
        <ele>769</ele>
        <time>2024-01-31T15:56:26Z</time>
      </trkpt>
      <trkpt lat="43.81049" lon="7.09514">
        <ele>772</ele>
        <time>2024-01-31T15:56:52Z</time>
      </trkpt>
      <trkpt lat="43.81044" lon="7.09532">
        <ele>773</ele>
        <time>2024-01-31T15:56:58Z</time>
      </trkpt>
      <trkpt lat="43.81042" lon="7.09545">
        <ele>774</ele>
        <time>2024-01-31T15:57:01Z</time>
      </trkpt>
      <trkpt lat="43.81043" lon="7.09559">
        <ele>776</ele>
        <time>2024-01-31T15:57:04Z</time>
      </trkpt>
      <trkpt lat="43.81051" lon="7.09582">
        <ele>776</ele>
        <time>2024-01-31T15:57:09Z</time>
      </trkpt>
      <trkpt lat="43.81065" lon="7.09659">
        <ele>778</ele>
        <time>2024-01-31T15:57:18Z</time>
      </trkpt>
      <trkpt lat="43.8107" lon="7.09673">
        <ele>779</ele>
        <time>2024-01-31T15:57:20Z</time>
      </trkpt>
      <trkpt lat="43.81078" lon="7.09684">
        <ele>778</ele>
        <time>2024-01-31T15:57:21Z</time>
      </trkpt>
      <trkpt lat="43.81082" lon="7.09701">
        <ele>779</ele>
        <time>2024-01-31T15:57:23Z</time>
      </trkpt>
      <trkpt lat="43.8108" lon="7.09719">
        <ele>780</ele>
        <time>2024-01-31T15:57:25Z</time>
      </trkpt>
      <trkpt lat="43.81073" lon="7.09739">
        <ele>783</ele>
        <time>2024-01-31T15:57:27Z</time>
      </trkpt>
      <trkpt lat="43.81073" lon="7.09749">
        <ele>788</ele>
        <time>2024-01-31T15:57:28Z</time>
      </trkpt>
      <trkpt lat="43.8108" lon="7.09782">
        <ele>779</ele>
        <time>2024-01-31T15:57:31Z</time>
      </trkpt>
      <trkpt lat="43.81082" lon="7.09804">
        <ele>773</ele>
        <time>2024-01-31T15:57:33Z</time>
      </trkpt>
      <trkpt lat="43.81077" lon="7.09813">
        <ele>780</ele>
        <time>2024-01-31T15:57:34Z</time>
      </trkpt>
      <trkpt lat="43.81054" lon="7.0984">
        <ele>786</ele>
        <time>2024-01-31T15:57:38Z</time>
      </trkpt>
      <trkpt lat="43.81044" lon="7.09847">
        <ele>784</ele>
        <time>2024-01-31T15:57:40Z</time>
      </trkpt>
      <trkpt lat="43.80989" lon="7.09853">
        <ele>791</ele>
        <time>2024-01-31T15:57:47Z</time>
      </trkpt>
      <trkpt lat="43.80957" lon="7.09863">
        <ele>794</ele>
        <time>2024-01-31T15:57:52Z</time>
      </trkpt>
      <trkpt lat="43.80905" lon="7.09865">
        <ele>799</ele>
        <time>2024-01-31T15:58:04Z</time>
      </trkpt>
      <trkpt lat="43.80871" lon="7.09884">
        <ele>796</ele>
        <time>2024-01-31T15:58:16Z</time>
      </trkpt>
      <trkpt lat="43.8086" lon="7.09887">
        <ele>797</ele>
        <time>2024-01-31T15:58:19Z</time>
      </trkpt>
      <trkpt lat="43.80823" lon="7.0987">
        <ele>802</ele>
        <time>2024-01-31T15:58:32Z</time>
      </trkpt>
      <trkpt lat="43.80786" lon="7.0987">
        <ele>802</ele>
        <time>2024-01-31T15:58:45Z</time>
      </trkpt>
      <trkpt lat="43.80729" lon="7.09845">
        <ele>806</ele>
        <time>2024-01-31T15:59:15Z</time>
      </trkpt>
      <trkpt lat="43.80662" lon="7.09827">
        <ele>807</ele>
        <time>2024-01-31T16:00:10Z</time>
      </trkpt>
      <trkpt lat="43.80653" lon="7.09821">
        <ele>807</ele>
        <time>2024-01-31T16:00:19Z</time>
      </trkpt>
      <trkpt lat="43.8063" lon="7.09796">
        <ele>811</ele>
        <time>2024-01-31T16:00:42Z</time>
      </trkpt>
      <trkpt lat="43.80619" lon="7.09787">
        <ele>812</ele>
        <time>2024-01-31T16:00:52Z</time>
      </trkpt>
      <trkpt lat="43.80589" lon="7.09777">
        <ele>816</ele>
        <time>2024-01-31T16:01:13Z</time>
      </trkpt>
      <trkpt lat="43.80578" lon="7.09777">
        <ele>818</ele>
        <time>2024-01-31T16:01:20Z</time>
      </trkpt>
      <trkpt lat="43.80567" lon="7.09782">
        <ele>818</ele>
        <time>2024-01-31T16:01:28Z</time>
      </trkpt>
      <trkpt lat="43.80539" lon="7.09813">
        <ele>816</ele>
        <time>2024-01-31T16:01:49Z</time>
      </trkpt>
      <trkpt lat="43.80533" lon="7.09828">
        <ele>817</ele>
        <time>2024-01-31T16:01:56Z</time>
      </trkpt>
      <trkpt lat="43.80529" lon="7.09848">
        <ele>818</ele>
        <time>2024-01-31T16:02:04Z</time>
      </trkpt>
      <trkpt lat="43.80531" lon="7.09908">
        <ele>823</ele>
        <time>2024-01-31T16:02:23Z</time>
      </trkpt>
      <trkpt lat="43.80528" lon="7.09924">
        <ele>822</ele>
        <time>2024-01-31T16:02:27Z</time>
      </trkpt>
      <trkpt lat="43.80522" lon="7.09942">
        <ele>824</ele>
        <time>2024-01-31T16:02:31Z</time>
      </trkpt>
      <trkpt lat="43.80509" lon="7.09962">
        <ele>824</ele>
        <time>2024-01-31T16:02:35Z</time>
      </trkpt>
      <trkpt lat="43.80483" lon="7.09988">
        <ele>826</ele>
        <time>2024-01-31T16:02:39Z</time>
      </trkpt>
      <trkpt lat="43.80421" lon="7.10038">
        <ele>828</ele>
        <time>2024-01-31T16:02:49Z</time>
      </trkpt>
      <trkpt lat="43.80384" lon="7.10074">
        <ele>829</ele>
        <time>2024-01-31T16:02:56Z</time>
      </trkpt>
      <trkpt lat="43.80338" lon="7.10106">
        <ele>834</ele>
        <time>2024-01-31T16:03:07Z</time>
      </trkpt>
      <trkpt lat="43.80321" lon="7.10126">
        <ele>833</ele>
        <time>2024-01-31T16:03:14Z</time>
      </trkpt>
      <trkpt lat="43.80311" lon="7.10133">
        <ele>833</ele>
        <time>2024-01-31T16:03:17Z</time>
      </trkpt>
      <trkpt lat="43.80275" lon="7.1014">
        <ele>834</ele>
        <time>2024-01-31T16:03:30Z</time>
      </trkpt>
      <trkpt lat="43.8027" lon="7.1014">
        <ele>835</ele>
        <time>2024-01-31T16:03:33Z</time>
      </trkpt>
      <trkpt lat="43.80265" lon="7.1014">
        <ele>835</ele>
        <time>2024-01-31T16:03:35Z</time>
      </trkpt>
      <trkpt lat="43.80232" lon="7.10138">
        <ele>836</ele>
        <time>2024-01-31T16:03:51Z</time>
      </trkpt>
      <trkpt lat="43.8022" lon="7.10141">
        <ele>837</ele>
        <time>2024-01-31T16:03:57Z</time>
      </trkpt>
      <trkpt lat="43.80183" lon="7.10161">
        <ele>837</ele>
        <time>2024-01-31T16:04:18Z</time>
      </trkpt>
      <trkpt lat="43.8017" lon="7.10161">
        <ele>838</ele>
        <time>2024-01-31T16:04:25Z</time>
      </trkpt>
      <trkpt lat="43.801" lon="7.10131">
        <ele>843</ele>
        <time>2024-01-31T16:05:07Z</time>
      </trkpt>
      <trkpt lat="43.80093" lon="7.10123">
        <ele>844</ele>
        <time>2024-01-31T16:05:13Z</time>
      </trkpt>
      <trkpt lat="43.80088" lon="7.10109">
        <ele>846</ele>
        <time>2024-01-31T16:05:19Z</time>
      </trkpt>
      <trkpt lat="43.80041" lon="7.0992">
        <ele>853</ele>
        <time>2024-01-31T16:06:39Z</time>
      </trkpt>
      <trkpt lat="43.80038" lon="7.09871">
        <ele>854</ele>
        <time>2024-01-31T16:06:55Z</time>
      </trkpt>
      <trkpt lat="43.80026" lon="7.09835">
        <ele>857</ele>
        <time>2024-01-31T16:07:07Z</time>
      </trkpt>
      <trkpt lat="43.80019" lon="7.09786">
        <ele>860</ele>
        <time>2024-01-31T16:07:22Z</time>
      </trkpt>
      <trkpt lat="43.80014" lon="7.09766">
        <ele>860</ele>
        <time>2024-01-31T16:07:28Z</time>
      </trkpt>
      <trkpt lat="43.80014" lon="7.09747">
        <ele>862</ele>
        <time>2024-01-31T16:07:33Z</time>
      </trkpt>
      <trkpt lat="43.80028" lon="7.09672">
        <ele>865</ele>
        <time>2024-01-31T16:07:53Z</time>
      </trkpt>
      <trkpt lat="43.80036" lon="7.09612">
        <ele>865</ele>
        <time>2024-01-31T16:08:06Z</time>
      </trkpt>
      <trkpt lat="43.80044" lon="7.09588">
        <ele>868</ele>
        <time>2024-01-31T16:08:11Z</time>
      </trkpt>
      <trkpt lat="43.801" lon="7.09512">
        <ele>869</ele>
        <time>2024-01-31T16:08:33Z</time>
      </trkpt>
      <trkpt lat="43.80108" lon="7.09488">
        <ele>868</ele>
        <time>2024-01-31T16:08:39Z</time>
      </trkpt>
      <trkpt lat="43.80121" lon="7.0943">
        <ele>870</ele>
        <time>2024-01-31T16:08:53Z</time>
      </trkpt>
      <trkpt lat="43.80127" lon="7.09402">
        <ele>871</ele>
        <time>2024-01-31T16:08:59Z</time>
      </trkpt>
      <trkpt lat="43.80128" lon="7.09388">
        <ele>871</ele>
        <time>2024-01-31T16:09:03Z</time>
      </trkpt>
      <trkpt lat="43.80126" lon="7.09379">
        <ele>871</ele>
        <time>2024-01-31T16:09:06Z</time>
      </trkpt>
      <trkpt lat="43.80118" lon="7.09369">
        <ele>871</ele>
        <time>2024-01-31T16:09:09Z</time>
      </trkpt>
      <trkpt lat="43.80107" lon="7.09368">
        <ele>873</ele>
        <time>2024-01-31T16:09:13Z</time>
      </trkpt>
      <trkpt lat="43.80102" lon="7.09372">
        <ele>873</ele>
        <time>2024-01-31T16:09:16Z</time>
      </trkpt>
      <trkpt lat="43.80096" lon="7.09381">
        <ele>874</ele>
        <time>2024-01-31T16:09:20Z</time>
      </trkpt>
      <trkpt lat="43.80075" lon="7.09456">
        <ele>873</ele>
        <time>2024-01-31T16:09:47Z</time>
      </trkpt>
      <trkpt lat="43.8007" lon="7.09461">
        <ele>874</ele>
        <time>2024-01-31T16:09:51Z</time>
      </trkpt>
      <trkpt lat="43.80066" lon="7.0946">
        <ele>875</ele>
        <time>2024-01-31T16:09:53Z</time>
      </trkpt>
      <trkpt lat="43.80053" lon="7.09493">
        <ele>874</ele>
        <time>2024-01-31T16:10:07Z</time>
      </trkpt>
      <trkpt lat="43.80016" lon="7.09534">
        <ele>880</ele>
        <time>2024-01-31T16:10:31Z</time>
      </trkpt>
      <trkpt lat="43.79996" lon="7.09556">
        <ele>882</ele>
        <time>2024-01-31T16:10:41Z</time>
      </trkpt>
      <trkpt lat="43.79987" lon="7.0958">
        <ele>882</ele>
        <time>2024-01-31T16:10:49Z</time>
      </trkpt>
      <trkpt lat="43.79978" lon="7.0966">
        <ele>883</ele>
        <time>2024-01-31T16:11:14Z</time>
      </trkpt>
      <trkpt lat="43.7997" lon="7.09703">
        <ele>881</ele>
        <time>2024-01-31T16:11:28Z</time>
      </trkpt>
      <trkpt lat="43.79956" lon="7.09748">
        <ele>884</ele>
        <time>2024-01-31T16:11:42Z</time>
      </trkpt>
      <trkpt lat="43.79944" lon="7.09852">
        <ele>888</ele>
        <time>2024-01-31T16:12:04Z</time>
      </trkpt>
      <trkpt lat="43.79947" lon="7.09895">
        <ele>886</ele>
        <time>2024-01-31T16:12:12Z</time>
      </trkpt>
      <trkpt lat="43.79954" lon="7.09944">
        <ele>885</ele>
        <time>2024-01-31T16:12:20Z</time>
      </trkpt>
      <trkpt lat="43.79983" lon="7.10107">
        <ele>889</ele>
        <time>2024-01-31T16:12:37Z</time>
      </trkpt>
      <trkpt lat="43.80008" lon="7.10277">
        <ele>887</ele>
        <time>2024-01-31T16:12:54Z</time>
      </trkpt>
      <trkpt lat="43.80009" lon="7.10324">
        <ele>884</ele>
        <time>2024-01-31T16:13:01Z</time>
      </trkpt>
      <trkpt lat="43.80005" lon="7.10342">
        <ele>885</ele>
        <time>2024-01-31T16:13:04Z</time>
      </trkpt>
      <trkpt lat="43.79996" lon="7.10357">
        <ele>884</ele>
        <time>2024-01-31T16:13:07Z</time>
      </trkpt>
      <trkpt lat="43.79937" lon="7.10372">
        <ele>886</ele>
        <time>2024-01-31T16:13:23Z</time>
      </trkpt>
      <trkpt lat="43.79914" lon="7.10379">
        <ele>888</ele>
        <time>2024-01-31T16:13:30Z</time>
      </trkpt>
      <trkpt lat="43.79906" lon="7.10385">
        <ele>888</ele>
        <time>2024-01-31T16:13:33Z</time>
      </trkpt>
      <trkpt lat="43.79904" lon="7.10395">
        <ele>888</ele>
        <time>2024-01-31T16:13:35Z</time>
      </trkpt>
      <trkpt lat="43.79908" lon="7.10403">
        <ele>887</ele>
        <time>2024-01-31T16:13:37Z</time>
      </trkpt>
      <trkpt lat="43.79918" lon="7.10415">
        <ele>890</ele>
        <time>2024-01-31T16:13:42Z</time>
      </trkpt>
      <trkpt lat="43.79939" lon="7.10428">
        <ele>888</ele>
        <time>2024-01-31T16:13:51Z</time>
      </trkpt>
      <trkpt lat="43.79955" lon="7.10442">
        <ele>888</ele>
        <time>2024-01-31T16:14:00Z</time>
      </trkpt>
      <trkpt lat="43.7998" lon="7.10479">
        <ele>888</ele>
        <time>2024-01-31T16:14:14Z</time>
      </trkpt>
      <trkpt lat="43.79989" lon="7.10496">
        <ele>887</ele>
        <time>2024-01-31T16:14:19Z</time>
      </trkpt>
      <trkpt lat="43.79993" lon="7.10511">
        <ele>887</ele>
        <time>2024-01-31T16:14:23Z</time>
      </trkpt>
      <trkpt lat="43.79995" lon="7.10551">
        <ele>888</ele>
        <time>2024-01-31T16:14:29Z</time>
      </trkpt>
      <trkpt lat="43.7999" lon="7.10626">
        <ele>888</ele>
        <time>2024-01-31T16:14:39Z</time>
      </trkpt>
      <trkpt lat="43.7999" lon="7.10665">
        <ele>889</ele>
        <time>2024-01-31T16:14:45Z</time>
      </trkpt>
      <trkpt lat="43.8001" lon="7.10871">
        <ele>890</ele>
        <time>2024-01-31T16:15:22Z</time>
      </trkpt>
      <trkpt lat="43.8002" lon="7.11042">
        <ele>894</ele>
        <time>2024-01-31T16:15:44Z</time>
      </trkpt>
      <trkpt lat="43.80043" lon="7.11216">
        <ele>895</ele>
        <time>2024-01-31T16:16:01Z</time>
      </trkpt>
      <trkpt lat="43.80057" lon="7.11264">
        <ele>894</ele>
        <time>2024-01-31T16:16:05Z</time>
      </trkpt>
      <trkpt lat="43.80076" lon="7.11304">
        <ele>893</ele>
        <time>2024-01-31T16:16:09Z</time>
      </trkpt>
      <trkpt lat="43.80082" lon="7.11318">
        <ele>893</ele>
        <time>2024-01-31T16:16:10Z</time>
      </trkpt>
      <trkpt lat="43.80087" lon="7.11346">
        <ele>892</ele>
        <time>2024-01-31T16:16:13Z</time>
      </trkpt>
      <trkpt lat="43.80092" lon="7.1142">
        <ele>889</ele>
        <time>2024-01-31T16:16:19Z</time>
      </trkpt>
      <trkpt lat="43.80158" lon="7.11572">
        <ele>880</ele>
        <time>2024-01-31T16:16:34Z</time>
      </trkpt>
      <trkpt lat="43.80178" lon="7.11605">
        <ele>877</ele>
        <time>2024-01-31T16:16:38Z</time>
      </trkpt>
      <trkpt lat="43.802" lon="7.1163">
        <ele>876</ele>
        <time>2024-01-31T16:16:42Z</time>
      </trkpt>
      <trkpt lat="43.80214" lon="7.11652">
        <ele>874</ele>
        <time>2024-01-31T16:16:44Z</time>
      </trkpt>
      <trkpt lat="43.80233" lon="7.11729">
        <ele>869</ele>
        <time>2024-01-31T16:16:52Z</time>
      </trkpt>
      <trkpt lat="43.80265" lon="7.11821">
        <ele>863</ele>
        <time>2024-01-31T16:17:01Z</time>
      </trkpt>
      <trkpt lat="43.80264" lon="7.11858">
        <ele>863</ele>
        <time>2024-01-31T16:17:05Z</time>
      </trkpt>
      <trkpt lat="43.80261" lon="7.11886">
        <ele>862</ele>
        <time>2024-01-31T16:17:08Z</time>
      </trkpt>
      <trkpt lat="43.80254" lon="7.11903">
        <ele>862</ele>
        <time>2024-01-31T16:17:10Z</time>
      </trkpt>
      <trkpt lat="43.80235" lon="7.11931">
        <ele>860</ele>
        <time>2024-01-31T16:17:14Z</time>
      </trkpt>
      <trkpt lat="43.80226" lon="7.11941">
        <ele>860</ele>
        <time>2024-01-31T16:17:16Z</time>
      </trkpt>
      <trkpt lat="43.80224" lon="7.1195">
        <ele>859</ele>
        <time>2024-01-31T16:17:17Z</time>
      </trkpt>
      <trkpt lat="43.80222" lon="7.11963">
        <ele>858</ele>
        <time>2024-01-31T16:17:18Z</time>
      </trkpt>
      <trkpt lat="43.80232" lon="7.1202">
        <ele>854</ele>
        <time>2024-01-31T16:17:25Z</time>
      </trkpt>
      <trkpt lat="43.80236" lon="7.12025">
        <ele>853</ele>
        <time>2024-01-31T16:17:26Z</time>
      </trkpt>
      <trkpt lat="43.80266" lon="7.12036">
        <ele>853</ele>
        <time>2024-01-31T16:17:31Z</time>
      </trkpt>
      <trkpt lat="43.80273" lon="7.12047">
        <ele>853</ele>
        <time>2024-01-31T16:17:33Z</time>
      </trkpt>
      <trkpt lat="43.80276" lon="7.12096">
        <ele>853</ele>
        <time>2024-01-31T16:17:40Z</time>
      </trkpt>
      <trkpt lat="43.80281" lon="7.12117">
        <ele>853</ele>
        <time>2024-01-31T16:17:42Z</time>
      </trkpt>
      <trkpt lat="43.80283" lon="7.12168">
        <ele>848</ele>
        <time>2024-01-31T16:17:49Z</time>
      </trkpt>
      <trkpt lat="43.80294" lon="7.12199">
        <ele>848</ele>
        <time>2024-01-31T16:17:53Z</time>
      </trkpt>
      <trkpt lat="43.80307" lon="7.12219">
        <ele>847</ele>
        <time>2024-01-31T16:17:57Z</time>
      </trkpt>
      <trkpt lat="43.80321" lon="7.12237">
        <ele>846</ele>
        <time>2024-01-31T16:18:00Z</time>
      </trkpt>
      <trkpt lat="43.80396" lon="7.12304">
        <ele>838</ele>
        <time>2024-01-31T16:18:12Z</time>
      </trkpt>
      <trkpt lat="43.80433" lon="7.12348">
        <ele>831</ele>
        <time>2024-01-31T16:18:19Z</time>
      </trkpt>
      <trkpt lat="43.8049" lon="7.12381">
        <ele>823</ele>
        <time>2024-01-31T16:18:27Z</time>
      </trkpt>
      <trkpt lat="43.80492" lon="7.12387">
        <ele>824</ele>
        <time>2024-01-31T16:18:28Z</time>
      </trkpt>
      <trkpt lat="43.80499" lon="7.12391">
        <ele>824</ele>
        <time>2024-01-31T16:18:30Z</time>
      </trkpt>
      <trkpt lat="43.80527" lon="7.1242">
        <ele>823</ele>
        <time>2024-01-31T16:18:37Z</time>
      </trkpt>
      <trkpt lat="43.80557" lon="7.12444">
        <ele>822</ele>
        <time>2024-01-31T16:18:45Z</time>
      </trkpt>
      <trkpt lat="43.80575" lon="7.12465">
        <ele>818</ele>
        <time>2024-01-31T16:18:50Z</time>
      </trkpt>
      <trkpt lat="43.80626" lon="7.12536">
        <ele>807</ele>
        <time>2024-01-31T16:19:06Z</time>
      </trkpt>
      <trkpt lat="43.80641" lon="7.12563">
        <ele>805</ele>
        <time>2024-01-31T16:19:12Z</time>
      </trkpt>
      <trkpt lat="43.80667" lon="7.12646">
        <ele>804</ele>
        <time>2024-01-31T16:19:27Z</time>
      </trkpt>
      <trkpt lat="43.80677" lon="7.12669">
        <ele>803</ele>
        <time>2024-01-31T16:19:31Z</time>
      </trkpt>
      <trkpt lat="43.80689" lon="7.12695">
        <ele>799</ele>
        <time>2024-01-31T16:19:36Z</time>
      </trkpt>
      <trkpt lat="43.80701" lon="7.12738">
        <ele>797</ele>
        <time>2024-01-31T16:19:43Z</time>
      </trkpt>
      <trkpt lat="43.8072" lon="7.12774">
        <ele>793</ele>
        <time>2024-01-31T16:19:51Z</time>
      </trkpt>
      <trkpt lat="43.8073" lon="7.1281">
        <ele>791</ele>
        <time>2024-01-31T16:19:56Z</time>
      </trkpt>
      <trkpt lat="43.80746" lon="7.12845">
        <ele>789</ele>
        <time>2024-01-31T16:20:03Z</time>
      </trkpt>
      <trkpt lat="43.80772" lon="7.12911">
        <ele>786</ele>
        <time>2024-01-31T16:20:14Z</time>
      </trkpt>
      <trkpt lat="43.80804" lon="7.12965">
        <ele>778</ele>
        <time>2024-01-31T16:20:24Z</time>
      </trkpt>
      <trkpt lat="43.8084" lon="7.13001">
        <ele>768</ele>
        <time>2024-01-31T16:20:33Z</time>
      </trkpt>
      <trkpt lat="43.80849" lon="7.1302">
        <ele>765</ele>
        <time>2024-01-31T16:20:36Z</time>
      </trkpt>
      <trkpt lat="43.80856" lon="7.13054">
        <ele>764</ele>
        <time>2024-01-31T16:20:41Z</time>
      </trkpt>
      <trkpt lat="43.80876" lon="7.1309">
        <ele>760</ele>
        <time>2024-01-31T16:20:47Z</time>
      </trkpt>
      <trkpt lat="43.80933" lon="7.1316">
        <ele>748</ele>
        <time>2024-01-31T16:21:02Z</time>
      </trkpt>
      <trkpt lat="43.80962" lon="7.132">
        <ele>743</ele>
        <time>2024-01-31T16:21:09Z</time>
      </trkpt>
      <trkpt lat="43.80987" lon="7.13268">
        <ele>739</ele>
        <time>2024-01-31T16:21:20Z</time>
      </trkpt>
      <trkpt lat="43.81028" lon="7.13365">
        <ele>728</ele>
        <time>2024-01-31T16:21:35Z</time>
      </trkpt>
      <trkpt lat="43.81062" lon="7.13401">
        <ele>722</ele>
        <time>2024-01-31T16:21:44Z</time>
      </trkpt>
      <trkpt lat="43.81103" lon="7.13481">
        <ele>717</ele>
        <time>2024-01-31T16:21:58Z</time>
      </trkpt>
      <trkpt lat="43.81149" lon="7.13586">
        <ele>710</ele>
        <time>2024-01-31T16:22:17Z</time>
      </trkpt>
      <trkpt lat="43.81185" lon="7.13693">
        <ele>702</ele>
        <time>2024-01-31T16:22:36Z</time>
      </trkpt>
      <trkpt lat="43.81194" lon="7.13732">
        <ele>700</ele>
        <time>2024-01-31T16:22:44Z</time>
      </trkpt>
      <trkpt lat="43.81193" lon="7.13796">
        <ele>700</ele>
        <time>2024-01-31T16:22:55Z</time>
      </trkpt>
      <trkpt lat="43.81185" lon="7.1383">
        <ele>701</ele>
        <time>2024-01-31T16:23:01Z</time>
      </trkpt>
      <trkpt lat="43.81185" lon="7.13842">
        <ele>701</ele>
        <time>2024-01-31T16:23:04Z</time>
      </trkpt>
      <trkpt lat="43.81189" lon="7.13857">
        <ele>702</ele>
        <time>2024-01-31T16:23:07Z</time>
      </trkpt>
      <trkpt lat="43.81244" lon="7.13953">
        <ele>694</ele>
        <time>2024-01-31T16:23:30Z</time>
      </trkpt>
      <trkpt lat="43.81289" lon="7.14043">
        <ele>691</ele>
        <time>2024-01-31T16:23:50Z</time>
      </trkpt>
      <trkpt lat="43.81342" lon="7.1414">
        <ele>687</ele>
        <time>2024-01-31T16:24:12Z</time>
      </trkpt>
      <trkpt lat="43.81384" lon="7.14274">
        <ele>684</ele>
        <time>2024-01-31T16:24:40Z</time>
      </trkpt>
      <trkpt lat="43.81401" lon="7.14352">
        <ele>681</ele>
        <time>2024-01-31T16:24:55Z</time>
      </trkpt>
      <trkpt lat="43.81406" lon="7.1443">
        <ele>681</ele>
        <time>2024-01-31T16:25:09Z</time>
      </trkpt>
      <trkpt lat="43.81425" lon="7.14503">
        <ele>679</ele>
        <time>2024-01-31T16:25:21Z</time>
      </trkpt>
      <trkpt lat="43.81463" lon="7.14608">
        <ele>672</ele>
        <time>2024-01-31T16:25:41Z</time>
      </trkpt>
      <trkpt lat="43.8147" lon="7.147">
        <ele>671</ele>
        <time>2024-01-31T16:25:57Z</time>
      </trkpt>
      <trkpt lat="43.81463" lon="7.14731">
        <ele>674</ele>
        <time>2024-01-31T16:26:02Z</time>
      </trkpt>
      <trkpt lat="43.81463" lon="7.14754">
        <ele>674</ele>
        <time>2024-01-31T16:26:06Z</time>
      </trkpt>
      <trkpt lat="43.81476" lon="7.14813">
        <ele>670</ele>
        <time>2024-01-31T16:26:16Z</time>
      </trkpt>
      <trkpt lat="43.815" lon="7.14989">
        <ele>667</ele>
        <time>2024-01-31T16:26:46Z</time>
      </trkpt>
      <trkpt lat="43.81461" lon="7.15105">
        <ele>670</ele>
        <time>2024-01-31T16:27:07Z</time>
      </trkpt>
      <trkpt lat="43.8145" lon="7.1523">
        <ele>663</ele>
        <time>2024-01-31T16:27:27Z</time>
      </trkpt>
      <trkpt lat="43.81437" lon="7.15266">
        <ele>661</ele>
        <time>2024-01-31T16:27:33Z</time>
      </trkpt>
      <trkpt lat="43.81434" lon="7.15288">
        <ele>658</ele>
        <time>2024-01-31T16:27:36Z</time>
      </trkpt>
      <trkpt lat="43.81434" lon="7.15328">
        <ele>653</ele>
        <time>2024-01-31T16:27:42Z</time>
      </trkpt>
      <trkpt lat="43.81429" lon="7.15348">
        <ele>653</ele>
        <time>2024-01-31T16:27:45Z</time>
      </trkpt>
      <trkpt lat="43.81419" lon="7.15372">
        <ele>652</ele>
        <time>2024-01-31T16:27:50Z</time>
      </trkpt>
      <trkpt lat="43.81414" lon="7.15399">
        <ele>648</ele>
        <time>2024-01-31T16:27:54Z</time>
      </trkpt>
      <trkpt lat="43.81414" lon="7.15463">
        <ele>638</ele>
        <time>2024-01-31T16:28:03Z</time>
      </trkpt>
      <trkpt lat="43.81399" lon="7.15513">
        <ele>634</ele>
        <time>2024-01-31T16:28:11Z</time>
      </trkpt>
      <trkpt lat="43.81386" lon="7.15532">
        <ele>631</ele>
        <time>2024-01-31T16:28:15Z</time>
      </trkpt>
      <trkpt lat="43.81362" lon="7.1555">
        <ele>630</ele>
        <time>2024-01-31T16:28:21Z</time>
      </trkpt>
      <trkpt lat="43.8136" lon="7.15555">
        <ele>630</ele>
        <time>2024-01-31T16:28:22Z</time>
      </trkpt>
      <trkpt lat="43.81364" lon="7.15557">
        <ele>629</ele>
        <time>2024-01-31T16:28:23Z</time>
      </trkpt>
      <trkpt lat="43.81385" lon="7.15554">
        <ele>626</ele>
        <time>2024-01-31T16:28:27Z</time>
      </trkpt>
      <trkpt lat="43.81403" lon="7.15553">
        <ele>623</ele>
        <time>2024-01-31T16:28:32Z</time>
      </trkpt>
      <trkpt lat="43.81417" lon="7.15556">
        <ele>621</ele>
        <time>2024-01-31T16:28:35Z</time>
      </trkpt>
      <trkpt lat="43.81428" lon="7.15562">
        <ele>621</ele>
        <time>2024-01-31T16:28:37Z</time>
      </trkpt>
      <trkpt lat="43.81439" lon="7.15587">
        <ele>620</ele>
        <time>2024-01-31T16:28:42Z</time>
      </trkpt>
      <trkpt lat="43.81453" lon="7.15622">
        <ele>617</ele>
        <time>2024-01-31T16:28:48Z</time>
      </trkpt>
      <trkpt lat="43.81485" lon="7.15678">
        <ele>610</ele>
        <time>2024-01-31T16:28:59Z</time>
      </trkpt>
      <trkpt lat="43.81498" lon="7.15717">
        <ele>607</ele>
        <time>2024-01-31T16:29:05Z</time>
      </trkpt>
      <trkpt lat="43.81515" lon="7.15752">
        <ele>605</ele>
        <time>2024-01-31T16:29:12Z</time>
      </trkpt>
      <trkpt lat="43.81535" lon="7.15778">
        <ele>600</ele>
        <time>2024-01-31T16:29:17Z</time>
      </trkpt>
      <trkpt lat="43.81547" lon="7.15788">
        <ele>597</ele>
        <time>2024-01-31T16:29:20Z</time>
      </trkpt>
      <trkpt lat="43.8158" lon="7.15807">
        <ele>588</ele>
        <time>2024-01-31T16:29:27Z</time>
      </trkpt>
      <trkpt lat="43.81601" lon="7.15845">
        <ele>588</ele>
        <time>2024-01-31T16:29:34Z</time>
      </trkpt>
      <trkpt lat="43.81637" lon="7.15941">
        <ele>585</ele>
        <time>2024-01-31T16:29:49Z</time>
      </trkpt>
      <trkpt lat="43.81659" lon="7.15973">
        <ele>577</ele>
        <time>2024-01-31T16:29:55Z</time>
      </trkpt>
      <trkpt lat="43.81664" lon="7.15985">
        <ele>576</ele>
        <time>2024-01-31T16:29:57Z</time>
      </trkpt>
      <trkpt lat="43.81674" lon="7.16061">
        <ele>570</ele>
        <time>2024-01-31T16:30:07Z</time>
      </trkpt>
      <trkpt lat="43.81677" lon="7.16066">
        <ele>570</ele>
        <time>2024-01-31T16:30:08Z</time>
      </trkpt>
      <trkpt lat="43.8168" lon="7.16065">
        <ele>568</ele>
        <time>2024-01-31T16:30:09Z</time>
      </trkpt>
      <trkpt lat="43.81683" lon="7.1606">
        <ele>566</ele>
        <time>2024-01-31T16:30:10Z</time>
      </trkpt>
      <trkpt lat="43.81681" lon="7.16038">
        <ele>569</ele>
        <time>2024-01-31T16:30:13Z</time>
      </trkpt>
      <trkpt lat="43.81685" lon="7.16036">
        <ele>566</ele>
      </trkpt>
      <trkpt lat="43.81688" lon="7.16038">
        <ele>564</ele>
        <time>2024-01-31T16:30:14Z</time>
      </trkpt>
      <trkpt lat="43.8169" lon="7.16055">
        <ele>564</ele>
        <time>2024-01-31T16:30:16Z</time>
      </trkpt>
      <trkpt lat="43.81704" lon="7.16092">
        <ele>556</ele>
        <time>2024-01-31T16:30:22Z</time>
      </trkpt>
      <trkpt lat="43.81706" lon="7.16104">
        <ele>556</ele>
        <time>2024-01-31T16:30:24Z</time>
      </trkpt>
      <trkpt lat="43.8171" lon="7.16149">
        <ele>553</ele>
        <time>2024-01-31T16:30:30Z</time>
      </trkpt>
      <trkpt lat="43.81716" lon="7.16183">
        <ele>549</ele>
        <time>2024-01-31T16:30:34Z</time>
      </trkpt>
      <trkpt lat="43.81714" lon="7.16202">
        <ele>547</ele>
        <time>2024-01-31T16:30:37Z</time>
      </trkpt>
      <trkpt lat="43.81707" lon="7.16218">
        <ele>548</ele>
        <time>2024-01-31T16:30:39Z</time>
      </trkpt>
      <trkpt lat="43.81704" lon="7.1624">
        <ele>544</ele>
        <time>2024-01-31T16:30:42Z</time>
      </trkpt>
      <trkpt lat="43.81701" lon="7.16282">
        <ele>535</ele>
        <time>2024-01-31T16:30:48Z</time>
      </trkpt>
      <trkpt lat="43.81698" lon="7.16296">
        <ele>532</ele>
        <time>2024-01-31T16:30:50Z</time>
      </trkpt>
      <trkpt lat="43.81689" lon="7.16311">
        <ele>531</ele>
        <time>2024-01-31T16:30:53Z</time>
      </trkpt>
      <trkpt lat="43.81662" lon="7.16318">
        <ele>536</ele>
        <time>2024-01-31T16:30:58Z</time>
      </trkpt>
      <trkpt lat="43.81654" lon="7.16327">
        <ele>535</ele>
        <time>2024-01-31T16:31:00Z</time>
      </trkpt>
      <trkpt lat="43.81651" lon="7.16337">
        <ele>533</ele>
        <time>2024-01-31T16:31:01Z</time>
      </trkpt>
      <trkpt lat="43.81654" lon="7.16355">
        <ele>528</ele>
        <time>2024-01-31T16:31:04Z</time>
      </trkpt>
      <trkpt lat="43.81649" lon="7.16395">
        <ele>521</ele>
        <time>2024-01-31T16:31:09Z</time>
      </trkpt>
      <trkpt lat="43.8165" lon="7.16404">
        <ele>520</ele>
        <time>2024-01-31T16:31:10Z</time>
      </trkpt>
      <trkpt lat="43.81537" lon="7.16486">
        <ele>510</ele>
        <time>2024-01-31T16:31:25Z</time>
      </trkpt>
      <trkpt lat="43.81524" lon="7.16491">
        <ele>508</ele>
        <time>2024-01-31T16:31:27Z</time>
      </trkpt>
      <trkpt lat="43.81476" lon="7.16493">
        <ele>505</ele>
        <time>2024-01-31T16:31:37Z</time>
      </trkpt>
      <trkpt lat="43.81439" lon="7.16517">
        <ele>498</ele>
        <time>2024-01-31T16:31:41Z</time>
      </trkpt>
      <trkpt lat="43.81388" lon="7.16535">
        <ele>491</ele>
        <time>2024-01-31T16:31:47Z</time>
      </trkpt>
      <trkpt lat="43.81371" lon="7.16536">
        <ele>489</ele>
        <time>2024-01-31T16:31:49Z</time>
      </trkpt>
      <trkpt lat="43.81368" lon="7.1654">
        <ele>487</ele>
      </trkpt>
      <trkpt lat="43.81349" lon="7.16528">
        <ele>487</ele>
        <time>2024-01-31T16:31:52Z</time>
      </trkpt>
      <trkpt lat="43.81343" lon="7.16529">
        <ele>486</ele>
        <time>2024-01-31T16:31:53Z</time>
      </trkpt>
      <trkpt lat="43.81328" lon="7.16537">
        <ele>483</ele>
        <time>2024-01-31T16:31:54Z</time>
      </trkpt>
      <trkpt lat="43.8128" lon="7.16566">
        <ele>472</ele>
        <time>2024-01-31T16:32:01Z</time>
      </trkpt>
      <trkpt lat="43.81253" lon="7.16568">
        <ele>469</ele>
        <time>2024-01-31T16:32:04Z</time>
      </trkpt>
      <trkpt lat="43.81234" lon="7.1656">
        <ele>473</ele>
        <time>2024-01-31T16:32:08Z</time>
      </trkpt>
      <trkpt lat="43.8122" lon="7.16559">
        <ele>472</ele>
        <time>2024-01-31T16:32:10Z</time>
      </trkpt>
      <trkpt lat="43.81202" lon="7.16566">
        <ele>470</ele>
        <time>2024-01-31T16:32:14Z</time>
      </trkpt>
      <trkpt lat="43.81157" lon="7.16594">
        <ele>466</ele>
        <time>2024-01-31T16:32:23Z</time>
      </trkpt>
      <trkpt lat="43.81118" lon="7.16601">
        <ele>468</ele>
        <time>2024-01-31T16:32:31Z</time>
      </trkpt>
      <trkpt lat="43.81074" lon="7.16617">
        <ele>471</ele>
        <time>2024-01-31T16:32:38Z</time>
      </trkpt>
      <trkpt lat="43.81067" lon="7.16623">
        <ele>471</ele>
        <time>2024-01-31T16:32:40Z</time>
      </trkpt>
      <trkpt lat="43.81057" lon="7.1664">
        <ele>471</ele>
        <time>2024-01-31T16:32:42Z</time>
      </trkpt>
      <trkpt lat="43.81043" lon="7.16701">
        <ele>466</ele>
        <time>2024-01-31T16:32:49Z</time>
      </trkpt>
      <trkpt lat="43.81038" lon="7.16714">
        <ele>467</ele>
        <time>2024-01-31T16:32:50Z</time>
      </trkpt>
      <trkpt lat="43.81017" lon="7.16747">
        <ele>464</ele>
        <time>2024-01-31T16:32:54Z</time>
      </trkpt>
      <trkpt lat="43.80976" lon="7.16795">
        <ele>462</ele>
        <time>2024-01-31T16:33:00Z</time>
      </trkpt>
      <trkpt lat="43.8094" lon="7.16834">
        <ele>462</ele>
        <time>2024-01-31T16:33:05Z</time>
      </trkpt>
      <trkpt lat="43.80923" lon="7.16855">
        <ele>461</ele>
        <time>2024-01-31T16:33:08Z</time>
      </trkpt>
      <trkpt lat="43.80913" lon="7.16858">
        <ele>461</ele>
        <time>2024-01-31T16:33:09Z</time>
      </trkpt>
      <trkpt lat="43.80902" lon="7.16855">
        <ele>460</ele>
        <time>2024-01-31T16:33:10Z</time>
      </trkpt>
      <trkpt lat="43.80897" lon="7.16849">
        <ele>460</ele>
        <time>2024-01-31T16:33:11Z</time>
      </trkpt>
      <trkpt lat="43.80875" lon="7.16815">
        <ele>459</ele>
        <time>2024-01-31T16:33:15Z</time>
      </trkpt>
      <trkpt lat="43.80835" lon="7.16771">
        <ele>457</ele>
        <time>2024-01-31T16:33:21Z</time>
      </trkpt>
      <trkpt lat="43.80825" lon="7.16762">
        <ele>456</ele>
        <time>2024-01-31T16:33:23Z</time>
      </trkpt>
      <trkpt lat="43.808" lon="7.16748">
        <ele>452</ele>
        <time>2024-01-31T16:33:26Z</time>
      </trkpt>
      <trkpt lat="43.80753" lon="7.16712">
        <ele>449</ele>
        <time>2024-01-31T16:33:34Z</time>
      </trkpt>
      <trkpt lat="43.80733" lon="7.1669">
        <ele>447</ele>
        <time>2024-01-31T16:33:42Z</time>
      </trkpt>
      <trkpt lat="43.80732" lon="7.16689">
        <ele>447</ele>
      </trkpt>
      <trkpt lat="43.80703" lon="7.16652">
        <ele>447</ele>
        <time>2024-01-31T16:34:01Z</time>
      </trkpt>
      <trkpt lat="43.80691" lon="7.16646">
        <ele>447</ele>
        <time>2024-01-31T16:34:07Z</time>
      </trkpt>
      <trkpt lat="43.80675" lon="7.1665">
        <ele>447</ele>
        <time>2024-01-31T16:34:16Z</time>
      </trkpt>
      <trkpt lat="43.80642" lon="7.16674">
        <ele>443</ele>
        <time>2024-01-31T16:34:38Z</time>
      </trkpt>
      <trkpt lat="43.80624" lon="7.16674">
        <ele>444</ele>
        <time>2024-01-31T16:34:50Z</time>
      </trkpt>
      <trkpt lat="43.80591" lon="7.16661">
        <ele>446</ele>
        <time>2024-01-31T16:35:13Z</time>
      </trkpt>
      <trkpt lat="43.80578" lon="7.1666">
        <ele>447</ele>
        <time>2024-01-31T16:35:22Z</time>
      </trkpt>
      <trkpt lat="43.80571" lon="7.16667">
        <ele>445</ele>
        <time>2024-01-31T16:35:28Z</time>
      </trkpt>
      <trkpt lat="43.80562" lon="7.1669">
        <ele>446</ele>
        <time>2024-01-31T16:35:39Z</time>
      </trkpt>
      <trkpt lat="43.80558" lon="7.16709">
        <ele>443</ele>
        <time>2024-01-31T16:35:48Z</time>
      </trkpt>
      <trkpt lat="43.80553" lon="7.16714">
        <ele>447</ele>
        <time>2024-01-31T16:35:53Z</time>
      </trkpt>
      <trkpt lat="43.80529" lon="7.16825">
        <ele>446</ele>
        <time>2024-01-31T16:36:48Z</time>
      </trkpt>
      <trkpt lat="43.80503" lon="7.16872">
        <ele>450</ele>
        <time>2024-01-31T16:37:08Z</time>
      </trkpt>
      <trkpt lat="43.80496" lon="7.16892">
        <ele>449</ele>
        <time>2024-01-31T16:37:15Z</time>
      </trkpt>
      <trkpt lat="43.80484" lon="7.16965">
        <ele>449</ele>
        <time>2024-01-31T16:37:36Z</time>
      </trkpt>
      <trkpt lat="43.80479" lon="7.16979">
        <ele>449</ele>
        <time>2024-01-31T16:37:40Z</time>
      </trkpt>
      <trkpt lat="43.80472" lon="7.16993">
        <ele>449</ele>
        <time>2024-01-31T16:37:44Z</time>
      </trkpt>
      <trkpt lat="43.80424" lon="7.17059">
        <ele>457</ele>
        <time>2024-01-31T16:38:02Z</time>
      </trkpt>
      <trkpt lat="43.80417" lon="7.17072">
        <ele>457</ele>
        <time>2024-01-31T16:38:05Z</time>
      </trkpt>
      <trkpt lat="43.80412" lon="7.17087">
        <ele>456</ele>
        <time>2024-01-31T16:38:08Z</time>
      </trkpt>
      <trkpt lat="43.804" lon="7.17164">
        <ele>454</ele>
        <time>2024-01-31T16:38:24Z</time>
      </trkpt>
      <trkpt lat="43.80383" lon="7.17238">
        <ele>455</ele>
        <time>2024-01-31T16:38:43Z</time>
      </trkpt>
      <trkpt lat="43.8036" lon="7.17304">
        <ele>457</ele>
        <time>2024-01-31T16:38:58Z</time>
      </trkpt>
      <trkpt lat="43.8034" lon="7.17327">
        <ele>456</ele>
        <time>2024-01-31T16:39:05Z</time>
      </trkpt>
      <trkpt lat="43.8033" lon="7.17334">
        <ele>459</ele>
        <time>2024-01-31T16:39:09Z</time>
      </trkpt>
      <trkpt lat="43.80302" lon="7.17344">
        <ele>464</ele>
        <time>2024-01-31T16:39:18Z</time>
      </trkpt>
      <trkpt lat="43.80296" lon="7.17352">
        <ele>465</ele>
        <time>2024-01-31T16:39:21Z</time>
      </trkpt>
      <trkpt lat="43.80296" lon="7.17359">
        <ele>464</ele>
        <time>2024-01-31T16:39:22Z</time>
      </trkpt>
      <trkpt lat="43.80295" lon="7.17373">
        <ele>460</ele>
        <time>2024-01-31T16:39:25Z</time>
      </trkpt>
      <trkpt lat="43.80257" lon="7.17452">
        <ele>462</ele>
        <time>2024-01-31T16:39:52Z</time>
      </trkpt>
      <trkpt lat="43.80243" lon="7.17489">
        <ele>460</ele>
        <time>2024-01-31T16:40:05Z</time>
      </trkpt>
      <trkpt lat="43.80224" lon="7.17522">
        <ele>463</ele>
        <time>2024-01-31T16:40:18Z</time>
      </trkpt>
      <trkpt lat="43.802" lon="7.17594">
        <ele>464</ele>
        <time>2024-01-31T16:40:34Z</time>
      </trkpt>
      <trkpt lat="43.80193" lon="7.17611">
        <ele>465</ele>
        <time>2024-01-31T16:40:38Z</time>
      </trkpt>
      <trkpt lat="43.80145" lon="7.17683">
        <ele>468</ele>
        <time>2024-01-31T16:40:57Z</time>
      </trkpt>
      <trkpt lat="43.80137" lon="7.17703">
        <ele>469</ele>
        <time>2024-01-31T16:41:01Z</time>
      </trkpt>
      <trkpt lat="43.80128" lon="7.17752">
        <ele>467</ele>
        <time>2024-01-31T16:41:10Z</time>
      </trkpt>
      <trkpt lat="43.80126" lon="7.17842">
        <ele>464</ele>
        <time>2024-01-31T16:41:24Z</time>
      </trkpt>
      <trkpt lat="43.80126" lon="7.1788">
        <ele>464</ele>
        <time>2024-01-31T16:41:30Z</time>
      </trkpt>
      <trkpt lat="43.80131" lon="7.17913">
        <ele>462</ele>
        <time>2024-01-31T16:41:35Z</time>
      </trkpt>
      <trkpt lat="43.8013" lon="7.17923">
        <ele>462</ele>
        <time>2024-01-31T16:41:36Z</time>
      </trkpt>
      <trkpt lat="43.80126" lon="7.17932">
        <ele>463</ele>
        <time>2024-01-31T16:41:38Z</time>
      </trkpt>
      <trkpt lat="43.80107" lon="7.17951">
        <ele>464</ele>
        <time>2024-01-31T16:41:43Z</time>
      </trkpt>
      <trkpt lat="43.80103" lon="7.17957">
        <ele>464</ele>
      </trkpt>
      <trkpt lat="43.80003" lon="7.17991">
        <ele>455</ele>
        <time>2024-01-31T16:41:55Z</time>
      </trkpt>
      <trkpt lat="43.79983" lon="7.18007">
        <ele>454</ele>
        <time>2024-01-31T16:41:57Z</time>
      </trkpt>
      <trkpt lat="43.79969" lon="7.18031">
        <ele>450</ele>
        <time>2024-01-31T16:42:00Z</time>
      </trkpt>
      <trkpt lat="43.79953" lon="7.18067">
        <ele>448</ele>
        <time>2024-01-31T16:42:03Z</time>
      </trkpt>
      <trkpt lat="43.79932" lon="7.18144">
        <ele>440</ele>
        <time>2024-01-31T16:42:10Z</time>
      </trkpt>
      <trkpt lat="43.79924" lon="7.18163">
        <ele>437</ele>
        <time>2024-01-31T16:42:12Z</time>
      </trkpt>
      <trkpt lat="43.79919" lon="7.18168">
        <ele>436</ele>
        <time>2024-01-31T16:42:13Z</time>
      </trkpt>
      <trkpt lat="43.79912" lon="7.18169">
        <ele>436</ele>
        <time>2024-01-31T16:42:14Z</time>
      </trkpt>
      <trkpt lat="43.79897" lon="7.18154">
        <ele>437</ele>
        <time>2024-01-31T16:42:16Z</time>
      </trkpt>
      <trkpt lat="43.79864" lon="7.18098">
        <ele>435</ele>
        <time>2024-01-31T16:42:22Z</time>
      </trkpt>
      <trkpt lat="43.79852" lon="7.18084">
        <ele>435</ele>
        <time>2024-01-31T16:42:24Z</time>
      </trkpt>
      <trkpt lat="43.79844" lon="7.1808">
        <ele>434</ele>
        <time>2024-01-31T16:42:25Z</time>
      </trkpt>
      <trkpt lat="43.79807" lon="7.18076">
        <ele>427</ele>
        <time>2024-01-31T16:42:30Z</time>
      </trkpt>
      <trkpt lat="43.79784" lon="7.18066">
        <ele>428</ele>
        <time>2024-01-31T16:42:32Z</time>
      </trkpt>
      <trkpt lat="43.79778" lon="7.18066">
        <ele>429</ele>
        <time>2024-01-31T16:42:33Z</time>
      </trkpt>
      <trkpt lat="43.79775" lon="7.1807">
        <ele>429</ele>
        <time>2024-01-31T16:42:34Z</time>
      </trkpt>
      <trkpt lat="43.79772" lon="7.18138">
        <ele>422</ele>
        <time>2024-01-31T16:42:40Z</time>
      </trkpt>
      <trkpt lat="43.79761" lon="7.18159">
        <ele>421</ele>
        <time>2024-01-31T16:42:42Z</time>
      </trkpt>
      <trkpt lat="43.79754" lon="7.18166">
        <ele>421</ele>
        <time>2024-01-31T16:42:43Z</time>
      </trkpt>
      <trkpt lat="43.79744" lon="7.18171">
        <ele>420</ele>
        <time>2024-01-31T16:42:44Z</time>
      </trkpt>
      <trkpt lat="43.7972" lon="7.18171">
        <ele>417</ele>
        <time>2024-01-31T16:42:47Z</time>
      </trkpt>
      <trkpt lat="43.79685" lon="7.18159">
        <ele>414</ele>
        <time>2024-01-31T16:42:51Z</time>
      </trkpt>
      <trkpt lat="43.79642" lon="7.18148">
        <ele>412</ele>
        <time>2024-01-31T16:42:56Z</time>
      </trkpt>
      <trkpt lat="43.79619" lon="7.18144">
        <ele>411</ele>
        <time>2024-01-31T16:42:59Z</time>
      </trkpt>
      <trkpt lat="43.79591" lon="7.18147">
        <ele>409</ele>
        <time>2024-01-31T16:43:02Z</time>
      </trkpt>
      <trkpt lat="43.7947" lon="7.18237">
        <ele>399</ele>
        <time>2024-01-31T16:43:19Z</time>
      </trkpt>
      <trkpt lat="43.7942" lon="7.18288">
        <ele>393</ele>
        <time>2024-01-31T16:43:27Z</time>
      </trkpt>
      <trkpt lat="43.79399" lon="7.18313">
        <ele>391</ele>
        <time>2024-01-31T16:43:30Z</time>
      </trkpt>
      <trkpt lat="43.79384" lon="7.18335">
        <ele>387</ele>
        <time>2024-01-31T16:43:32Z</time>
      </trkpt>
      <trkpt lat="43.79373" lon="7.18343">
        <ele>388</ele>
        <time>2024-01-31T16:43:34Z</time>
      </trkpt>
      <trkpt lat="43.79339" lon="7.18362">
        <ele>385</ele>
        <time>2024-01-31T16:43:38Z</time>
      </trkpt>
      <trkpt lat="43.79305" lon="7.18378">
        <ele>383</ele>
        <time>2024-01-31T16:43:42Z</time>
      </trkpt>
      <trkpt lat="43.79291" lon="7.18384">
        <ele>384</ele>
        <time>2024-01-31T16:43:44Z</time>
      </trkpt>
      <trkpt lat="43.79279" lon="7.18393">
        <ele>382</ele>
        <time>2024-01-31T16:43:45Z</time>
      </trkpt>
      <trkpt lat="43.79252" lon="7.18413">
        <ele>379</ele>
        <time>2024-01-31T16:43:48Z</time>
      </trkpt>
      <trkpt lat="43.79236" lon="7.1842">
        <ele>379</ele>
        <time>2024-01-31T16:43:50Z</time>
      </trkpt>
      <trkpt lat="43.79165" lon="7.18437">
        <ele>371</ele>
        <time>2024-01-31T16:43:59Z</time>
      </trkpt>
      <trkpt lat="43.79138" lon="7.18438">
        <ele>367</ele>
        <time>2024-01-31T16:44:02Z</time>
      </trkpt>
      <trkpt lat="43.7918" lon="7.18462">
        <ele>366</ele>
        <time>2024-01-31T16:44:07Z</time>
      </trkpt>
      <trkpt lat="43.79208" lon="7.18493">
        <ele>364</ele>
        <time>2024-01-31T16:44:11Z</time>
      </trkpt>
      <trkpt lat="43.79208" lon="7.18501">
        <ele>363</ele>
        <time>2024-01-31T16:44:12Z</time>
      </trkpt>
      <trkpt lat="43.79203" lon="7.18505">
        <ele>362</ele>
        <time>2024-01-31T16:44:13Z</time>
      </trkpt>
      <trkpt lat="43.79198" lon="7.18492">
        <ele>363</ele>
        <time>2024-01-31T16:44:14Z</time>
      </trkpt>
      <trkpt lat="43.79194" lon="7.18487">
        <ele>363</ele>
        <time>2024-01-31T16:44:15Z</time>
      </trkpt>
      <trkpt lat="43.79177" lon="7.1848">
        <ele>363</ele>
        <time>2024-01-31T16:44:17Z</time>
      </trkpt>
      <trkpt lat="43.79157" lon="7.18484">
        <ele>359</ele>
        <time>2024-01-31T16:44:19Z</time>
      </trkpt>
      <trkpt lat="43.79135" lon="7.18485">
        <ele>356</ele>
        <time>2024-01-31T16:44:21Z</time>
      </trkpt>
      <trkpt lat="43.79137" lon="7.18494">
        <ele>355</ele>
        <time>2024-01-31T16:44:23Z</time>
      </trkpt>
      <trkpt lat="43.79146" lon="7.18498">
        <ele>355</ele>
        <time>2024-01-31T16:44:25Z</time>
      </trkpt>
      <trkpt lat="43.79137" lon="7.18524">
        <ele>350</ele>
        <time>2024-01-31T16:44:29Z</time>
      </trkpt>
      <trkpt lat="43.79136" lon="7.18523">
        <ele>350</ele>
      </trkpt>
      <trkpt lat="43.79125" lon="7.18521">
        <ele>349</ele>
        <time>2024-01-31T16:44:30Z</time>
      </trkpt>
      <trkpt lat="43.79141" lon="7.18536">
        <ele>349</ele>
        <time>2024-01-31T16:44:32Z</time>
      </trkpt>
      <trkpt lat="43.7913" lon="7.18554">
        <ele>346</ele>
        <time>2024-01-31T16:44:34Z</time>
      </trkpt>
      <trkpt lat="43.79107" lon="7.18577">
        <ele>339</ele>
        <time>2024-01-31T16:44:37Z</time>
      </trkpt>
      <trkpt lat="43.79078" lon="7.18705">
        <ele>319</ele>
        <time>2024-01-31T16:44:48Z</time>
      </trkpt>
      <trkpt lat="43.79048" lon="7.18765">
        <ele>307</ele>
        <time>2024-01-31T16:44:54Z</time>
      </trkpt>
      <trkpt lat="43.7904" lon="7.18785">
        <ele>304</ele>
        <time>2024-01-31T16:44:56Z</time>
      </trkpt>
      <trkpt lat="43.79011" lon="7.18823">
        <ele>294</ele>
        <time>2024-01-31T16:45:00Z</time>
      </trkpt>
      <trkpt lat="43.79014" lon="7.18837">
        <ele>295</ele>
        <time>2024-01-31T16:45:01Z</time>
      </trkpt>
      <trkpt lat="43.79014" lon="7.18853">
        <ele>294</ele>
        <time>2024-01-31T16:45:03Z</time>
      </trkpt>
      <trkpt lat="43.79012" lon="7.18859">
        <ele>292</ele>
      </trkpt>
      <trkpt lat="43.79" lon="7.18842">
        <ele>289</ele>
        <time>2024-01-31T16:45:05Z</time>
      </trkpt>
      <trkpt lat="43.78993" lon="7.18841">
        <ele>288</ele>
        <time>2024-01-31T16:45:06Z</time>
      </trkpt>
      <trkpt lat="43.78979" lon="7.18849">
        <ele>285</ele>
        <time>2024-01-31T16:45:08Z</time>
      </trkpt>
      <trkpt lat="43.78974" lon="7.18851">
        <ele>283</ele>
        <time>2024-01-31T16:45:09Z</time>
      </trkpt>
      <trkpt lat="43.78968" lon="7.18864">
        <ele>283</ele>
        <time>2024-01-31T16:45:10Z</time>
      </trkpt>
      <trkpt lat="43.78941" lon="7.18897">
        <ele>282</ele>
        <time>2024-01-31T16:45:14Z</time>
      </trkpt>
      <trkpt lat="43.78878" lon="7.18931">
        <ele>282</ele>
        <time>2024-01-31T16:45:23Z</time>
      </trkpt>
      <trkpt lat="43.78857" lon="7.18946">
        <ele>283</ele>
        <time>2024-01-31T16:45:25Z</time>
      </trkpt>
      <trkpt lat="43.78843" lon="7.18969">
        <ele>282</ele>
        <time>2024-01-31T16:45:28Z</time>
      </trkpt>
      <trkpt lat="43.78826" lon="7.18969">
        <ele>283</ele>
        <time>2024-01-31T16:45:30Z</time>
      </trkpt>
      <trkpt lat="43.78746" lon="7.1899">
        <ele>273</ele>
        <time>2024-01-31T16:45:41Z</time>
      </trkpt>
      <trkpt lat="43.78742" lon="7.19">
        <ele>272</ele>
        <time>2024-01-31T16:45:42Z</time>
      </trkpt>
      <trkpt lat="43.78726" lon="7.19054">
        <ele>269</ele>
        <time>2024-01-31T16:45:47Z</time>
      </trkpt>
      <trkpt lat="43.78703" lon="7.19072">
        <ele>263</ele>
        <time>2024-01-31T16:45:51Z</time>
      </trkpt>
      <trkpt lat="43.78573" lon="7.19107">
        <ele>256</ele>
        <time>2024-01-31T16:46:07Z</time>
      </trkpt>
      <trkpt lat="43.78539" lon="7.19118">
        <ele>257</ele>
        <time>2024-01-31T16:46:12Z</time>
      </trkpt>
      <trkpt lat="43.78419" lon="7.19184">
        <ele>249</ele>
        <time>2024-01-31T16:46:29Z</time>
      </trkpt>
      <trkpt lat="43.7839" lon="7.19186">
        <ele>247</ele>
        <time>2024-01-31T16:46:33Z</time>
      </trkpt>
      <trkpt lat="43.78373" lon="7.19176">
        <ele>243</ele>
        <time>2024-01-31T16:46:36Z</time>
      </trkpt>
      <trkpt lat="43.78364" lon="7.19171">
        <ele>242</ele>
        <time>2024-01-31T16:46:37Z</time>
      </trkpt>
      <trkpt lat="43.78353" lon="7.1917">
        <ele>240</ele>
        <time>2024-01-31T16:46:38Z</time>
      </trkpt>
      <trkpt lat="43.78316" lon="7.19184">
        <ele>238</ele>
        <time>2024-01-31T16:46:43Z</time>
      </trkpt>
      <trkpt lat="43.78289" lon="7.19189">
        <ele>236</ele>
        <time>2024-01-31T16:46:46Z</time>
      </trkpt>
      <trkpt lat="43.78196" lon="7.19201">
        <ele>224</ele>
        <time>2024-01-31T16:46:57Z</time>
      </trkpt>
      <trkpt lat="43.78144" lon="7.19225">
        <ele>216</ele>
        <time>2024-01-31T16:47:04Z</time>
      </trkpt>
      <trkpt lat="43.78137" lon="7.1923">
        <ele>215</ele>
      </trkpt>
      <trkpt lat="43.78132" lon="7.19236">
        <ele>214</ele>
        <time>2024-01-31T16:47:05Z</time>
      </trkpt>
      <trkpt lat="43.78124" lon="7.19259">
        <ele>212</ele>
        <time>2024-01-31T16:47:07Z</time>
      </trkpt>
      <trkpt lat="43.78103" lon="7.19302">
        <ele>209</ele>
        <time>2024-01-31T16:47:12Z</time>
      </trkpt>
      <trkpt lat="43.78082" lon="7.19403">
        <ele>201</ele>
        <time>2024-01-31T16:47:20Z</time>
      </trkpt>
      <trkpt lat="43.78065" lon="7.19454">
        <ele>196</ele>
        <time>2024-01-31T16:47:25Z</time>
      </trkpt>
      <trkpt lat="43.78048" lon="7.1948">
        <ele>193</ele>
        <time>2024-01-31T16:47:28Z</time>
      </trkpt>
      <trkpt lat="43.77998" lon="7.19537">
        <ele>186</ele>
        <time>2024-01-31T16:47:35Z</time>
      </trkpt>
      <trkpt lat="43.77991" lon="7.19541">
        <ele>185</ele>
        <time>2024-01-31T16:47:36Z</time>
      </trkpt>
      <trkpt lat="43.77981" lon="7.19536">
        <ele>184</ele>
        <time>2024-01-31T16:47:37Z</time>
      </trkpt>
      <trkpt lat="43.77965" lon="7.19504">
        <ele>181</ele>
        <time>2024-01-31T16:47:40Z</time>
      </trkpt>
      <trkpt lat="43.77953" lon="7.19493">
        <ele>179</ele>
        <time>2024-01-31T16:47:42Z</time>
      </trkpt>
      <trkpt lat="43.77918" lon="7.19494">
        <ele>175</ele>
        <time>2024-01-31T16:47:45Z</time>
      </trkpt>
      <trkpt lat="43.77886" lon="7.19497">
        <ele>170</ele>
        <time>2024-01-31T16:47:49Z</time>
      </trkpt>
      <trkpt lat="43.77827" lon="7.19548">
        <ele>158</ele>
        <time>2024-01-31T16:47:57Z</time>
      </trkpt>
      <trkpt lat="43.77826" lon="7.19557">
        <ele>157</ele>
        <time>2024-01-31T16:47:58Z</time>
      </trkpt>
      <trkpt lat="43.77831" lon="7.19561">
        <ele>156</ele>
        <time>2024-01-31T16:47:59Z</time>
      </trkpt>
      <trkpt lat="43.77869" lon="7.19566">
        <ele>150</ele>
        <time>2024-01-31T16:48:03Z</time>
      </trkpt>
      <trkpt lat="43.77877" lon="7.19569">
        <ele>150</ele>
        <time>2024-01-31T16:48:04Z</time>
      </trkpt>
      <trkpt lat="43.7788" lon="7.19574">
        <ele>149</ele>
        <time>2024-01-31T16:48:05Z</time>
      </trkpt>
      <trkpt lat="43.77879" lon="7.19579">
        <ele>148</ele>
      </trkpt>
      <trkpt lat="43.77874" lon="7.19587">
        <ele>147</ele>
        <time>2024-01-31T16:48:06Z</time>
      </trkpt>
      <trkpt lat="43.77853" lon="7.19612">
        <ele>143</ele>
        <time>2024-01-31T16:48:09Z</time>
      </trkpt>
      <trkpt lat="43.77835" lon="7.19627">
        <ele>140</ele>
        <time>2024-01-31T16:48:12Z</time>
      </trkpt>
      <trkpt lat="43.77829" lon="7.19636">
        <ele>140</ele>
        <time>2024-01-31T16:48:13Z</time>
      </trkpt>
      <trkpt lat="43.77815" lon="7.19631">
        <ele>139</ele>
        <time>2024-01-31T16:48:15Z</time>
      </trkpt>
      <trkpt lat="43.77774" lon="7.19629">
        <ele>136</ele>
        <time>2024-01-31T16:48:20Z</time>
      </trkpt>
      <trkpt lat="43.77754" lon="7.19621">
        <ele>135</ele>
        <time>2024-01-31T16:48:23Z</time>
      </trkpt>
      <trkpt lat="43.77717" lon="7.19598">
        <ele>133</ele>
        <time>2024-01-31T16:48:27Z</time>
      </trkpt>
      <trkpt lat="43.77702" lon="7.1959">
        <ele>132</ele>
        <time>2024-01-31T16:48:29Z</time>
      </trkpt>
      <trkpt lat="43.77685" lon="7.19591">
        <ele>131</ele>
        <time>2024-01-31T16:48:32Z</time>
      </trkpt>
      <trkpt lat="43.77675" lon="7.19602">
        <ele>130</ele>
        <time>2024-01-31T16:48:33Z</time>
      </trkpt>
      <trkpt lat="43.77669" lon="7.19613">
        <ele>130</ele>
        <time>2024-01-31T16:48:35Z</time>
      </trkpt>
      <trkpt lat="43.77611" lon="7.19754">
        <ele>124</ele>
        <time>2024-01-31T16:48:50Z</time>
      </trkpt>
      <trkpt lat="43.77589" lon="7.19785">
        <ele>122</ele>
        <time>2024-01-31T16:48:54Z</time>
      </trkpt>
      <trkpt lat="43.77579" lon="7.19793">
        <ele>121</ele>
        <time>2024-01-31T16:48:55Z</time>
      </trkpt>
      <trkpt lat="43.77545" lon="7.1981">
        <ele>120</ele>
        <time>2024-01-31T16:49:00Z</time>
      </trkpt>
      <trkpt lat="43.7753" lon="7.19821">
        <ele>119</ele>
        <time>2024-01-31T16:49:02Z</time>
      </trkpt>
      <trkpt lat="43.77525" lon="7.19817">
        <ele>119</ele>
        <time>2024-01-31T16:49:03Z</time>
      </trkpt>
      <trkpt lat="43.77522" lon="7.19819">
        <ele>119</ele>
      </trkpt>
      <trkpt lat="43.77521" lon="7.19828">
        <ele>118</ele>
        <time>2024-01-31T16:49:04Z</time>
      </trkpt>
      <trkpt lat="43.77512" lon="7.19841">
        <ele>118</ele>
        <time>2024-01-31T16:49:05Z</time>
      </trkpt>
      <trkpt lat="43.77503" lon="7.19863">
        <ele>117</ele>
        <time>2024-01-31T16:49:08Z</time>
      </trkpt>
      <trkpt lat="43.77484" lon="7.1993">
        <ele>115</ele>
        <time>2024-01-31T16:49:14Z</time>
      </trkpt>
      <trkpt lat="43.77478" lon="7.19928">
        <ele>115</ele>
        <time>2024-01-31T16:49:15Z</time>
      </trkpt>
      <trkpt lat="43.77472" lon="7.19931">
        <ele>115</ele>
        <time>2024-01-31T16:49:16Z</time>
      </trkpt>
      <trkpt lat="43.77469" lon="7.19945">
        <ele>114</ele>
        <time>2024-01-31T16:49:17Z</time>
      </trkpt>
      <trkpt lat="43.77435" lon="7.19951">
        <ele>112</ele>
        <time>2024-01-31T16:49:21Z</time>
      </trkpt>
      <trkpt lat="43.77431" lon="7.19958">
        <ele>112</ele>
        <time>2024-01-31T16:49:22Z</time>
      </trkpt>
      <trkpt lat="43.77386" lon="7.19964">
        <ele>106</ele>
        <time>2024-01-31T16:49:27Z</time>
      </trkpt>
      <trkpt lat="43.77362" lon="7.19974">
        <ele>103</ele>
        <time>2024-01-31T16:49:30Z</time>
      </trkpt>
      <trkpt lat="43.77295" lon="7.19989">
        <ele>100</ele>
        <time>2024-01-31T16:49:38Z</time>
      </trkpt>
      <trkpt lat="43.77274" lon="7.19998">
        <ele>99</ele>
        <time>2024-01-31T16:49:41Z</time>
      </trkpt>
      <trkpt lat="43.7723" lon="7.20023">
        <ele>98</ele>
        <time>2024-01-31T16:49:47Z</time>
      </trkpt>
      <trkpt lat="43.7717" lon="7.20066">
        <ele>94</ele>
        <time>2024-01-31T16:49:54Z</time>
      </trkpt>
      <trkpt lat="43.77138" lon="7.20083">
        <ele>92</ele>
        <time>2024-01-31T16:49:58Z</time>
      </trkpt>
      <trkpt lat="43.77107" lon="7.20107">
        <ele>87</ele>
        <time>2024-01-31T16:50:02Z</time>
      </trkpt>
      <trkpt lat="43.77106" lon="7.20107">
        <ele>86</ele>
      </trkpt>
      <trkpt lat="43.77073" lon="7.20131">
        <ele>82</ele>
        <time>2024-01-31T16:50:07Z</time>
      </trkpt>
      <trkpt lat="43.77053" lon="7.20155">
        <ele>77</ele>
        <time>2024-01-31T16:50:10Z</time>
      </trkpt>
      <trkpt lat="43.77045" lon="7.20178">
        <ele>74</ele>
        <time>2024-01-31T16:50:12Z</time>
      </trkpt>
      <trkpt lat="43.77042" lon="7.20194">
        <ele>72</ele>
        <time>2024-01-31T16:50:13Z</time>
      </trkpt>
      <trkpt lat="43.77042" lon="7.20211">
        <ele>68</ele>
        <time>2024-01-31T16:50:15Z</time>
      </trkpt>
      <trkpt lat="43.77034" lon="7.20252">
        <ele>65</ele>
        <time>2024-01-31T16:50:18Z</time>
      </trkpt>
      <trkpt lat="43.77022" lon="7.20279">
        <ele>65</ele>
        <time>2024-01-31T16:50:21Z</time>
      </trkpt>
      <trkpt lat="43.77015" lon="7.20285">
        <ele>65</ele>
        <time>2024-01-31T16:50:22Z</time>
      </trkpt>
      <trkpt lat="43.77009" lon="7.20266">
        <ele>65</ele>
        <time>2024-01-31T16:50:24Z</time>
      </trkpt>
      <trkpt lat="43.76971" lon="7.20228">
        <ele>64</ele>
        <time>2024-01-31T16:50:31Z</time>
      </trkpt>
      <trkpt lat="43.76947" lon="7.20196">
        <ele>63</ele>
        <time>2024-01-31T16:50:36Z</time>
      </trkpt>
      <trkpt lat="43.76903" lon="7.20117">
        <ele>62</ele>
        <time>2024-01-31T16:50:49Z</time>
      </trkpt>
      <trkpt lat="43.76854" lon="7.20068">
        <ele>62</ele>
        <time>2024-01-31T16:51:01Z</time>
      </trkpt>
      <trkpt lat="43.76786" lon="7.20011">
        <ele>64</ele>
        <time>2024-01-31T16:51:18Z</time>
      </trkpt>
      <trkpt lat="43.76782" lon="7.20004">
        <ele>65</ele>
        <time>2024-01-31T16:51:19Z</time>
      </trkpt>
      <trkpt lat="43.76776" lon="7.1998">
        <ele>65</ele>
        <time>2024-01-31T16:51:23Z</time>
      </trkpt>
      <trkpt lat="43.76763" lon="7.1998">
        <ele>66</ele>
        <time>2024-01-31T16:51:32Z</time>
      </trkpt>
      <trkpt lat="43.76757" lon="7.19989">
        <ele>66</ele>
        <time>2024-01-31T16:51:35Z</time>
      </trkpt>
      <trkpt lat="43.7674" lon="7.20033">
        <ele>65</ele>
        <time>2024-01-31T16:51:47Z</time>
      </trkpt>
      <trkpt lat="43.76718" lon="7.20076">
        <ele>65</ele>
        <time>2024-01-31T16:51:59Z</time>
      </trkpt>
      <trkpt lat="43.76706" lon="7.20064">
        <ele>65</ele>
        <time>2024-01-31T16:52:03Z</time>
      </trkpt>
      <trkpt lat="43.76689" lon="7.20097">
        <ele>65</ele>
        <time>2024-01-31T16:52:23Z</time>
      </trkpt>
      <trkpt lat="43.76683" lon="7.20091">
        <ele>66</ele>
        <time>2024-01-31T16:52:29Z</time>
      </trkpt>
      <trkpt lat="43.76659" lon="7.2016">
        <ele>65</ele>
        <time>2024-01-31T16:52:38Z</time>
      </trkpt>
      <trkpt lat="43.76648" lon="7.20165">
        <ele>65</ele>
        <time>2024-01-31T16:52:40Z</time>
      </trkpt>
      <trkpt lat="43.76642" lon="7.20165">
        <ele>65</ele>
        <time>2024-01-31T16:52:41Z</time>
      </trkpt>
      <trkpt lat="43.76639" lon="7.20165">
        <ele>65</ele>
        <time>2024-01-31T16:52:42Z</time>
      </trkpt>
      <trkpt lat="43.76631" lon="7.20165">
        <ele>66</ele>
        <time>2024-01-31T16:52:44Z</time>
      </trkpt>
      <trkpt lat="43.76615" lon="7.20171">
        <ele>65</ele>
        <time>2024-01-31T16:52:49Z</time>
      </trkpt>
      <trkpt lat="43.76601" lon="7.20165">
        <ele>65</ele>
        <time>2024-01-31T16:52:53Z</time>
      </trkpt>
      <trkpt lat="43.76592" lon="7.2016">
        <ele>65</ele>
        <time>2024-01-31T16:52:56Z</time>
      </trkpt>
      <trkpt lat="43.76588" lon="7.20161">
        <ele>65</ele>
        <time>2024-01-31T16:52:57Z</time>
      </trkpt>
      <trkpt lat="43.76585" lon="7.2017">
        <ele>65</ele>
        <time>2024-01-31T16:52:59Z</time>
      </trkpt>
      <trkpt lat="43.76581" lon="7.20177">
        <ele>65</ele>
        <time>2024-01-31T16:53:01Z</time>
      </trkpt>
      <trkpt lat="43.76569" lon="7.20204">
        <ele>63</ele>
        <time>2024-01-31T16:53:06Z</time>
      </trkpt>
      <trkpt lat="43.76415" lon="7.20486">
        <ele>64</ele>
        <time>2024-01-31T16:54:08Z</time>
      </trkpt>
      <trkpt lat="43.76412" lon="7.2049">
        <ele>65</ele>
        <time>2024-01-31T16:54:09Z</time>
      </trkpt>
      <trkpt lat="43.76384" lon="7.20448">
        <ele>61</ele>
        <time>2024-01-31T16:54:22Z</time>
      </trkpt>
      <trkpt lat="43.76389" lon="7.20441">
        <ele>61</ele>
        <time>2024-01-31T16:54:24Z</time>
      </trkpt>
      <trkpt lat="43.76393" lon="7.20439">
        <ele>61</ele>
        <time>2024-01-31T16:54:25Z</time>
      </trkpt>
      <trkpt lat="43.76399" lon="7.20443">
        <ele>61</ele>
        <time>2024-01-31T16:54:27Z</time>
      </trkpt>
      <trkpt lat="43.7658" lon="7.20671">
        <ele>62</ele>
        <time>2024-01-31T16:55:45Z</time>
      </trkpt>
      <trkpt lat="43.76715" lon="7.20818">
        <ele>62</ele>
        <time>2024-01-31T16:56:46Z</time>
      </trkpt>
      <trkpt lat="43.76811" lon="7.20914">
        <ele>62</ele>
        <time>2024-01-31T16:57:26Z</time>
      </trkpt>
      <trkpt lat="43.76837" lon="7.20943">
        <ele>63</ele>
        <time>2024-01-31T16:57:37Z</time>
      </trkpt>
      <trkpt lat="43.76958" lon="7.2108">
        <ele>63</ele>
        <time>2024-01-31T16:58:22Z</time>
      </trkpt>
      <trkpt lat="43.77011" lon="7.21152">
        <ele>66</ele>
        <time>2024-01-31T16:58:43Z</time>
      </trkpt>
      <trkpt lat="43.77124" lon="7.2127">
        <ele>68</ele>
        <time>2024-01-31T16:59:25Z</time>
      </trkpt>
      <trkpt lat="43.77185" lon="7.21322">
        <ele>65</ele>
        <time>2024-01-31T16:59:47Z</time>
      </trkpt>
      <trkpt lat="43.77183" lon="7.21326">
        <ele>66</ele>
        <time>2024-01-31T16:59:50Z</time>
      </trkpt>
      <trkpt lat="43.7718" lon="7.21334">
        <ele>70</ele>
        <time>2024-01-31T16:59:54Z</time>
      </trkpt>
      <trkpt lat="43.77156" lon="7.21389">
        <ele>67</ele>
        <time>2024-01-31T17:00:27Z</time>
      </trkpt>
      <trkpt lat="43.77144" lon="7.2142">
        <ele>68</ele>
        <time>2024-01-31T17:00:44Z</time>
      </trkpt>
      <trkpt lat="43.77129" lon="7.21481">
        <ele>72</ele>
        <time>2024-01-31T17:01:16Z</time>
      </trkpt>
      <trkpt lat="43.77132" lon="7.21482">
        <ele>72</ele>
        <time>2024-01-31T17:01:18Z</time>
      </trkpt>
      <trkpt lat="43.77142" lon="7.21437">
        <ele>71</ele>
        <time>2024-01-31T17:01:42Z</time>
      </trkpt>
      <trkpt lat="43.77157" lon="7.21393">
        <ele>69</ele>
        <time>2024-01-31T17:02:06Z</time>
      </trkpt>
      <trkpt lat="43.77161" lon="7.21396">
        <ele>70</ele>
        <time>2024-01-31T17:02:09Z</time>
      </trkpt>
      <trkpt lat="43.77148" lon="7.21439">
        <ele>71</ele>
        <time>2024-01-31T17:02:16Z</time>
      </trkpt>
      <trkpt lat="43.77174" lon="7.21454">
        <ele>69</ele>
        <time>2024-01-31T17:02:23Z</time>
      </trkpt>
      <trkpt lat="43.77182" lon="7.21471">
        <ele>69</ele>
        <time>2024-01-31T17:02:27Z</time>
      </trkpt>
      <trkpt lat="43.77189" lon="7.21476">
        <ele>69</ele>
        <time>2024-01-31T17:02:29Z</time>
      </trkpt>
      <trkpt lat="43.77209" lon="7.21493">
        <ele>69</ele>
        <time>2024-01-31T17:02:34Z</time>
      </trkpt>
      <trkpt lat="43.77227" lon="7.21507">
        <ele>69</ele>
        <time>2024-01-31T17:02:39Z</time>
      </trkpt>
      <trkpt lat="43.77224" lon="7.21524">
        <ele>69</ele>
        <time>2024-01-31T17:02:42Z</time>
      </trkpt>
      <trkpt lat="43.77232" lon="7.2153">
        <ele>69</ele>
        <time>2024-01-31T17:02:44Z</time>
      </trkpt>
      <trkpt lat="43.77245" lon="7.215">
        <ele>69</ele>
        <time>2024-01-31T17:02:50Z</time>
      </trkpt>
      <trkpt lat="43.77287" lon="7.21533">
        <ele>69</ele>
        <time>2024-01-31T17:03:02Z</time>
      </trkpt>
      <trkpt lat="43.77324" lon="7.21561">
        <ele>68</ele>
        <time>2024-01-31T17:03:11Z</time>
      </trkpt>
      <trkpt lat="43.77344" lon="7.215">
        <ele>71</ele>
        <time>2024-01-31T17:03:22Z</time>
      </trkpt>
      <trkpt lat="43.77435" lon="7.21565">
        <ele>72</ele>
        <time>2024-01-31T17:03:40Z</time>
      </trkpt>
      <trkpt lat="43.77453" lon="7.21576">
        <ele>72</ele>
        <time>2024-01-31T17:03:44Z</time>
      </trkpt>
      <trkpt lat="43.77466" lon="7.21584">
        <ele>70</ele>
        <time>2024-01-31T17:03:47Z</time>
      </trkpt>
      <trkpt lat="43.77568" lon="7.21643">
        <ele>73</ele>
        <time>2024-01-31T17:04:13Z</time>
      </trkpt>
      <trkpt lat="43.77658" lon="7.21686">
        <ele>73</ele>
        <time>2024-01-31T17:04:38Z</time>
      </trkpt>
      <trkpt lat="43.77706" lon="7.21706">
        <ele>73</ele>
        <time>2024-01-31T17:04:52Z</time>
      </trkpt>
      <trkpt lat="43.7783" lon="7.21748">
        <ele>74</ele>
        <time>2024-01-31T17:05:29Z</time>
      </trkpt>
      <trkpt lat="43.7787" lon="7.2176">
        <ele>74</ele>
        <time>2024-01-31T17:05:43Z</time>
      </trkpt>
      <trkpt lat="43.77959" lon="7.21778">
        <ele>75</ele>
        <time>2024-01-31T17:06:22Z</time>
      </trkpt>
      <trkpt lat="43.77956" lon="7.21797">
        <ele>75</ele>
        <time>2024-01-31T17:06:29Z</time>
      </trkpt>
      <trkpt lat="43.77945" lon="7.21806">
        <ele>77</ele>
        <time>2024-01-31T17:06:36Z</time>
      </trkpt>
      <trkpt lat="43.77932" lon="7.2181">
        <ele>77</ele>
        <time>2024-01-31T17:06:43Z</time>
      </trkpt>
      <trkpt lat="43.7792" lon="7.21824">
        <ele>79</ele>
        <time>2024-01-31T17:06:52Z</time>
      </trkpt>
      <trkpt lat="43.77904" lon="7.2185">
        <ele>80</ele>
        <time>2024-01-31T17:07:07Z</time>
      </trkpt>
      <trkpt lat="43.77877" lon="7.21912">
        <ele>84</ele>
        <time>2024-01-31T17:07:42Z</time>
      </trkpt>
      <trkpt lat="43.77869" lon="7.21964">
        <ele>88</ele>
        <time>2024-01-31T17:08:13Z</time>
      </trkpt>
      <trkpt lat="43.7787" lon="7.21983">
        <ele>88</ele>
        <time>2024-01-31T17:08:25Z</time>
      </trkpt>
      <trkpt lat="43.77879" lon="7.22011">
        <ele>91</ele>
        <time>2024-01-31T17:08:42Z</time>
      </trkpt>
      <trkpt lat="43.77882" lon="7.22032">
        <ele>92</ele>
        <time>2024-01-31T17:08:55Z</time>
      </trkpt>
      <trkpt lat="43.77882" lon="7.22045">
        <ele>93</ele>
        <time>2024-01-31T17:09:03Z</time>
      </trkpt>
      <trkpt lat="43.77879" lon="7.22051">
        <ele>94</ele>
        <time>2024-01-31T17:09:07Z</time>
      </trkpt>
      <trkpt lat="43.77873" lon="7.2205">
        <ele>94</ele>
        <time>2024-01-31T17:09:11Z</time>
      </trkpt>
      <trkpt lat="43.77854" lon="7.22034">
        <ele>98</ele>
        <time>2024-01-31T17:09:27Z</time>
      </trkpt>
      <trkpt lat="43.77847" lon="7.22036">
        <ele>97</ele>
        <time>2024-01-31T17:09:33Z</time>
      </trkpt>
      <trkpt lat="43.77816" lon="7.22077">
        <ele>100</ele>
        <time>2024-01-31T17:09:59Z</time>
      </trkpt>
      <trkpt lat="43.77789" lon="7.22096">
        <ele>102</ele>
        <time>2024-01-31T17:10:13Z</time>
      </trkpt>
      <trkpt lat="43.77774" lon="7.22118">
        <ele>107</ele>
        <time>2024-01-31T17:10:22Z</time>
      </trkpt>
      <trkpt lat="43.77768" lon="7.2212">
        <ele>108</ele>
        <time>2024-01-31T17:10:24Z</time>
      </trkpt>
      <trkpt lat="43.77761" lon="7.22118">
        <ele>108</ele>
        <time>2024-01-31T17:10:27Z</time>
      </trkpt>
      <trkpt lat="43.77754" lon="7.22103">
        <ele>109</ele>
        <time>2024-01-31T17:10:31Z</time>
      </trkpt>
      <trkpt lat="43.77752" lon="7.22076">
        <ele>109</ele>
        <time>2024-01-31T17:10:37Z</time>
      </trkpt>
      <trkpt lat="43.77755" lon="7.2206">
        <ele>110</ele>
        <time>2024-01-31T17:10:41Z</time>
      </trkpt>
      <trkpt lat="43.77772" lon="7.22025">
        <ele>107</ele>
        <time>2024-01-31T17:10:50Z</time>
      </trkpt>
      <trkpt lat="43.77783" lon="7.21974">
        <ele>112</ele>
        <time>2024-01-31T17:11:01Z</time>
      </trkpt>
      <trkpt lat="43.77785" lon="7.21942">
        <ele>117</ele>
        <time>2024-01-31T17:11:08Z</time>
      </trkpt>
      <trkpt lat="43.77782" lon="7.21929">
        <ele>117</ele>
        <time>2024-01-31T17:11:11Z</time>
      </trkpt>
      <trkpt lat="43.77778" lon="7.21924">
        <ele>118</ele>
        <time>2024-01-31T17:11:13Z</time>
      </trkpt>
      <trkpt lat="43.77764" lon="7.21927">
        <ele>120</ele>
        <time>2024-01-31T17:11:17Z</time>
      </trkpt>
      <trkpt lat="43.77755" lon="7.21933">
        <ele>121</ele>
        <time>2024-01-31T17:11:20Z</time>
      </trkpt>
      <trkpt lat="43.77748" lon="7.21942">
        <ele>122</ele>
        <time>2024-01-31T17:11:23Z</time>
      </trkpt>
      <trkpt lat="43.77735" lon="7.22005">
        <ele>126</ele>
        <time>2024-01-31T17:11:44Z</time>
      </trkpt>
      <trkpt lat="43.77728" lon="7.22022">
        <ele>127</ele>
        <time>2024-01-31T17:11:52Z</time>
      </trkpt>
      <trkpt lat="43.7772" lon="7.22058">
        <ele>130</ele>
        <time>2024-01-31T17:12:14Z</time>
      </trkpt>
      <trkpt lat="43.77717" lon="7.22089">
        <ele>133</ele>
        <time>2024-01-31T17:12:35Z</time>
      </trkpt>
      <trkpt lat="43.77706" lon="7.22124">
        <ele>143</ele>
        <time>2024-01-31T17:13:03Z</time>
      </trkpt>
      <trkpt lat="43.77692" lon="7.22138">
        <ele>153</ele>
        <time>2024-01-31T17:13:23Z</time>
      </trkpt>
      <trkpt lat="43.77678" lon="7.22134">
        <ele>154</ele>
        <time>2024-01-31T17:13:41Z</time>
      </trkpt>
      <trkpt lat="43.77673" lon="7.22136">
        <ele>153</ele>
        <time>2024-01-31T17:13:47Z</time>
      </trkpt>
      <trkpt lat="43.77687" lon="7.22187">
        <ele>162</ele>
        <time>2024-01-31T17:14:35Z</time>
      </trkpt>
      <trkpt lat="43.77705" lon="7.22275">
        <ele>175</ele>
        <time>2024-01-31T17:15:43Z</time>
      </trkpt>
      <trkpt lat="43.77707" lon="7.22302">
        <ele>181</ele>
        <time>2024-01-31T17:16:00Z</time>
      </trkpt>
      <trkpt lat="43.77709" lon="7.22312">
        <ele>182</ele>
        <time>2024-01-31T17:16:06Z</time>
      </trkpt>
      <trkpt lat="43.77708" lon="7.22329">
        <ele>187</ele>
        <time>2024-01-31T17:16:14Z</time>
      </trkpt>
      <trkpt lat="43.77698" lon="7.22366">
        <ele>199</ele>
        <time>2024-01-31T17:16:30Z</time>
      </trkpt>
      <trkpt lat="43.77689" lon="7.22383">
        <ele>206</ele>
        <time>2024-01-31T17:16:37Z</time>
      </trkpt>
      <trkpt lat="43.77675" lon="7.22393">
        <ele>208</ele>
        <time>2024-01-31T17:16:45Z</time>
      </trkpt>
      <trkpt lat="43.77621" lon="7.22401">
        <ele>209</ele>
        <time>2024-01-31T17:17:09Z</time>
      </trkpt>
      <trkpt lat="43.7761" lon="7.22398">
        <ele>209</ele>
        <time>2024-01-31T17:17:14Z</time>
      </trkpt>
      <trkpt lat="43.77582" lon="7.22376">
        <ele>209</ele>
        <time>2024-01-31T17:17:25Z</time>
      </trkpt>
      <trkpt lat="43.77576" lon="7.22367">
        <ele>209</ele>
        <time>2024-01-31T17:17:27Z</time>
      </trkpt>
      <trkpt lat="43.77569" lon="7.22366">
        <ele>209</ele>
        <time>2024-01-31T17:17:29Z</time>
      </trkpt>
      <trkpt lat="43.77587" lon="7.2242">
        <ele>212</ele>
        <time>2024-01-31T17:17:44Z</time>
      </trkpt>
      <trkpt lat="43.77595" lon="7.22434">
        <ele>213</ele>
        <time>2024-01-31T17:17:50Z</time>
      </trkpt>
      <trkpt lat="43.77618" lon="7.22442">
        <ele>215</ele>
        <time>2024-01-31T17:18:00Z</time>
      </trkpt>
      <trkpt lat="43.77637" lon="7.2244">
        <ele>218</ele>
        <time>2024-01-31T17:18:09Z</time>
      </trkpt>
      <trkpt lat="43.7764" lon="7.22447">
        <ele>218</ele>
        <time>2024-01-31T17:18:11Z</time>
      </trkpt>
      <trkpt lat="43.7766" lon="7.22445">
        <ele>221</ele>
        <time>2024-01-31T17:18:19Z</time>
      </trkpt>
      <trkpt lat="43.7768" lon="7.22451">
        <ele>225</ele>
        <time>2024-01-31T17:18:29Z</time>
      </trkpt>
      <trkpt lat="43.77696" lon="7.22455">
        <ele>229</ele>
        <time>2024-01-31T17:18:41Z</time>
      </trkpt>
      <trkpt lat="43.77713" lon="7.22467">
        <ele>234</ele>
        <time>2024-01-31T17:18:53Z</time>
      </trkpt>
      <trkpt lat="43.77723" lon="7.22492">
        <ele>236</ele>
        <time>2024-01-31T17:19:08Z</time>
      </trkpt>
      <trkpt lat="43.77729" lon="7.22519">
        <ele>234</ele>
        <time>2024-01-31T17:19:21Z</time>
      </trkpt>
      <trkpt lat="43.77729" lon="7.2255">
        <ele>231</ele>
        <time>2024-01-31T17:19:36Z</time>
      </trkpt>
      <trkpt lat="43.77736" lon="7.22566">
        <ele>232</ele>
        <time>2024-01-31T17:19:43Z</time>
      </trkpt>
      <trkpt lat="43.77752" lon="7.22574">
        <ele>235</ele>
        <time>2024-01-31T17:19:52Z</time>
      </trkpt>
      <trkpt lat="43.77787" lon="7.22568">
        <ele>244</ele>
        <time>2024-01-31T17:20:10Z</time>
      </trkpt>
      <trkpt lat="43.77808" lon="7.22577">
        <ele>245</ele>
        <time>2024-01-31T17:20:19Z</time>
      </trkpt>
      <trkpt lat="43.77875" lon="7.22635">
        <ele>244</ele>
        <time>2024-01-31T17:20:51Z</time>
      </trkpt>
      <trkpt lat="43.77901" lon="7.22638">
        <ele>248</ele>
        <time>2024-01-31T17:21:02Z</time>
      </trkpt>
      <trkpt lat="43.77953" lon="7.22654">
        <ele>250</ele>
        <time>2024-01-31T17:21:20Z</time>
      </trkpt>
      <trkpt lat="43.78003" lon="7.22672">
        <ele>249</ele>
        <time>2024-01-31T17:21:38Z</time>
      </trkpt>
      <trkpt lat="43.78046" lon="7.22693">
        <ele>254</ele>
        <time>2024-01-31T17:21:55Z</time>
      </trkpt>
      <trkpt lat="43.78078" lon="7.22715">
        <ele>260</ele>
        <time>2024-01-31T17:22:09Z</time>
      </trkpt>
      <trkpt lat="43.78095" lon="7.22733">
        <ele>264</ele>
        <time>2024-01-31T17:22:19Z</time>
      </trkpt>
      <trkpt lat="43.78116" lon="7.22779">
        <ele>267</ele>
        <time>2024-01-31T17:22:37Z</time>
      </trkpt>
      <trkpt lat="43.78126" lon="7.22793">
        <ele>268</ele>
        <time>2024-01-31T17:22:44Z</time>
      </trkpt>
      <trkpt lat="43.78136" lon="7.22803">
        <ele>268</ele>
        <time>2024-01-31T17:22:51Z</time>
      </trkpt>
      <trkpt lat="43.78163" lon="7.22816">
        <ele>273</ele>
        <time>2024-01-31T17:23:05Z</time>
      </trkpt>
      <trkpt lat="43.78191" lon="7.22835">
        <ele>280</ele>
        <time>2024-01-31T17:23:21Z</time>
      </trkpt>
      <trkpt lat="43.78237" lon="7.22873">
        <ele>286</ele>
        <time>2024-01-31T17:23:48Z</time>
      </trkpt>
      <trkpt lat="43.78256" lon="7.22883">
        <ele>288</ele>
        <time>2024-01-31T17:23:59Z</time>
      </trkpt>
      <trkpt lat="43.7829" lon="7.22887">
        <ele>294</ele>
        <time>2024-01-31T17:24:19Z</time>
      </trkpt>
      <trkpt lat="43.7834" lon="7.2293">
        <ele>295</ele>
        <time>2024-01-31T17:24:55Z</time>
      </trkpt>
      <trkpt lat="43.78362" lon="7.22949">
        <ele>296</ele>
        <time>2024-01-31T17:25:11Z</time>
      </trkpt>
      <trkpt lat="43.78383" lon="7.22953">
        <ele>300</ele>
        <time>2024-01-31T17:25:25Z</time>
      </trkpt>
      <trkpt lat="43.78424" lon="7.22967">
        <ele>303</ele>
        <time>2024-01-31T17:25:54Z</time>
      </trkpt>
      <trkpt lat="43.7843" lon="7.22977">
        <ele>304</ele>
        <time>2024-01-31T17:26:00Z</time>
      </trkpt>
      <trkpt lat="43.78433" lon="7.22991">
        <ele>307</ele>
        <time>2024-01-31T17:26:08Z</time>
      </trkpt>
      <trkpt lat="43.78443" lon="7.23016">
        <ele>306</ele>
        <time>2024-01-31T17:26:22Z</time>
      </trkpt>
      <trkpt lat="43.78468" lon="7.23049">
        <ele>307</ele>
        <time>2024-01-31T17:26:44Z</time>
      </trkpt>
      <trkpt lat="43.7849" lon="7.23071">
        <ele>309</ele>
        <time>2024-01-31T17:27:04Z</time>
      </trkpt>
      <trkpt lat="43.78506" lon="7.23079">
        <ele>311</ele>
        <time>2024-01-31T17:27:16Z</time>
      </trkpt>
      <trkpt lat="43.78525" lon="7.23092">
        <ele>316</ele>
        <time>2024-01-31T17:27:31Z</time>
      </trkpt>
      <trkpt lat="43.78547" lon="7.23113">
        <ele>323</ele>
        <time>2024-01-31T17:27:49Z</time>
      </trkpt>
      <trkpt lat="43.78549" lon="7.23115">
        <ele>323</ele>
        <time>2024-01-31T17:27:51Z</time>
      </trkpt>
      <trkpt lat="43.78569" lon="7.23165">
        <ele>327</ele>
        <time>2024-01-31T17:28:18Z</time>
      </trkpt>
      <trkpt lat="43.78584" lon="7.23179">
        <ele>331</ele>
        <time>2024-01-31T17:28:31Z</time>
      </trkpt>
      <trkpt lat="43.78618" lon="7.23202">
        <ele>338</ele>
        <time>2024-01-31T17:29:00Z</time>
      </trkpt>
      <trkpt lat="43.7863" lon="7.23217">
        <ele>338</ele>
        <time>2024-01-31T17:29:12Z</time>
      </trkpt>
      <trkpt lat="43.78632" lon="7.23219">
        <ele>338</ele>
        <time>2024-01-31T17:29:14Z</time>
      </trkpt>
      <trkpt lat="43.78653" lon="7.23248">
        <ele>339</ele>
        <time>2024-01-31T17:29:36Z</time>
      </trkpt>
      <trkpt lat="43.78667" lon="7.23265">
        <ele>340</ele>
        <time>2024-01-31T17:29:49Z</time>
      </trkpt>
      <trkpt lat="43.78699" lon="7.23294">
        <ele>346</ele>
        <time>2024-01-31T17:30:17Z</time>
      </trkpt>
      <trkpt lat="43.78737" lon="7.23318">
        <ele>347</ele>
        <time>2024-01-31T17:30:46Z</time>
      </trkpt>
      <trkpt lat="43.78753" lon="7.23333">
        <ele>345</ele>
        <time>2024-01-31T17:30:58Z</time>
      </trkpt>
      <trkpt lat="43.78783" lon="7.23368">
        <ele>349</ele>
        <time>2024-01-31T17:31:19Z</time>
      </trkpt>
      <trkpt lat="43.78813" lon="7.23387">
        <ele>351</ele>
        <time>2024-01-31T17:31:36Z</time>
      </trkpt>
      <trkpt lat="43.78835" lon="7.23391">
        <ele>349</ele>
        <time>2024-01-31T17:31:47Z</time>
      </trkpt>
      <trkpt lat="43.78842" lon="7.23396">
        <ele>349</ele>
        <time>2024-01-31T17:31:51Z</time>
      </trkpt>
      <trkpt lat="43.78857" lon="7.23441">
        <ele>359</ele>
        <time>2024-01-31T17:32:08Z</time>
      </trkpt>
      <trkpt lat="43.78908" lon="7.23496">
        <ele>360</ele>
        <time>2024-01-31T17:32:38Z</time>
      </trkpt>
      <trkpt lat="43.78926" lon="7.23505">
        <ele>361</ele>
        <time>2024-01-31T17:32:47Z</time>
      </trkpt>
      <trkpt lat="43.78947" lon="7.23504">
        <ele>362</ele>
        <time>2024-01-31T17:32:57Z</time>
      </trkpt>
      <trkpt lat="43.78953" lon="7.23509">
        <ele>363</ele>
        <time>2024-01-31T17:33:01Z</time>
      </trkpt>
      <trkpt lat="43.78964" lon="7.23529">
        <ele>364</ele>
        <time>2024-01-31T17:33:11Z</time>
      </trkpt>
      <trkpt lat="43.78971" lon="7.23526">
        <ele>366</ele>
        <time>2024-01-31T17:33:16Z</time>
      </trkpt>
      <trkpt lat="43.78973" lon="7.23519">
        <ele>366</ele>
        <time>2024-01-31T17:33:19Z</time>
      </trkpt>
      <trkpt lat="43.78976" lon="7.23467">
        <ele>360</ele>
        <time>2024-01-31T17:33:43Z</time>
      </trkpt>
      <trkpt lat="43.78985" lon="7.23456">
        <ele>359</ele>
        <time>2024-01-31T17:33:50Z</time>
      </trkpt>
      <trkpt lat="43.79018" lon="7.23445">
        <ele>361</ele>
        <time>2024-01-31T17:34:12Z</time>
      </trkpt>
      <trkpt lat="43.79025" lon="7.23449">
        <ele>363</ele>
        <time>2024-01-31T17:34:17Z</time>
      </trkpt>
      <trkpt lat="43.7904" lon="7.23469">
        <ele>369</ele>
        <time>2024-01-31T17:34:32Z</time>
      </trkpt>
      <trkpt lat="43.79046" lon="7.23468">
        <ele>369</ele>
        <time>2024-01-31T17:34:37Z</time>
      </trkpt>
      <trkpt lat="43.79062" lon="7.23451">
        <ele>362</ele>
        <time>2024-01-31T17:34:51Z</time>
      </trkpt>
      <trkpt lat="43.79068" lon="7.2345">
        <ele>362</ele>
        <time>2024-01-31T17:34:54Z</time>
      </trkpt>
      <trkpt lat="43.79077" lon="7.23453">
        <ele>362</ele>
        <time>2024-01-31T17:35:02Z</time>
      </trkpt>
      <trkpt lat="43.79092" lon="7.23468">
        <ele>368</ele>
        <time>2024-01-31T17:35:14Z</time>
      </trkpt>
      <trkpt lat="43.79099" lon="7.23467">
        <ele>368</ele>
        <time>2024-01-31T17:35:18Z</time>
      </trkpt>
      <trkpt lat="43.79104" lon="7.23464">
        <ele>368</ele>
        <time>2024-01-31T17:35:23Z</time>
      </trkpt>
      <trkpt lat="43.79109" lon="7.23454">
        <ele>366</ele>
        <time>2024-01-31T17:35:30Z</time>
      </trkpt>
      <trkpt lat="43.79115" lon="7.23437">
        <ele>363</ele>
        <time>2024-01-31T17:35:38Z</time>
      </trkpt>
      <trkpt lat="43.79117" lon="7.23426">
        <ele>363</ele>
        <time>2024-01-31T17:35:41Z</time>
      </trkpt>
      <trkpt lat="43.79133" lon="7.2346">
        <ele>372</ele>
        <time>2024-01-31T17:36:18Z</time>
      </trkpt>
      <trkpt lat="43.79137" lon="7.23456">
        <ele>373</ele>
        <time>2024-01-31T17:36:24Z</time>
      </trkpt>
      <trkpt lat="43.79135" lon="7.23465">
        <ele>375</ele>
        <time>2024-01-31T17:36:33Z</time>
      </trkpt>
      <trkpt lat="43.79142" lon="7.23463">
        <ele>376</ele>
        <time>2024-01-31T17:36:41Z</time>
      </trkpt>
      <trkpt lat="43.79142" lon="7.23475">
        <ele>378</ele>
        <time>2024-01-31T17:36:51Z</time>
      </trkpt>
      <trkpt lat="43.79129" lon="7.2351">
        <ele>385</ele>
        <time>2024-01-31T17:37:26Z</time>
      </trkpt>
      <trkpt lat="43.79122" lon="7.23538">
        <ele>393</ele>
        <time>2024-01-31T17:37:53Z</time>
      </trkpt>
      <trkpt lat="43.79109" lon="7.23561">
        <ele>396</ele>
        <time>2024-01-31T17:38:19Z</time>
      </trkpt>
      <trkpt lat="43.79099" lon="7.23566">
        <ele>397</ele>
        <time>2024-01-31T17:38:32Z</time>
      </trkpt>
      <trkpt lat="43.79093" lon="7.23566">
        <ele>396</ele>
        <time>2024-01-31T17:38:39Z</time>
      </trkpt>
      <trkpt lat="43.79098" lon="7.23573">
        <ele>397</ele>
        <time>2024-01-31T17:38:48Z</time>
      </trkpt>
      <trkpt lat="43.79137" lon="7.23561">
        <ele>401</ele>
        <time>2024-01-31T17:39:11Z</time>
      </trkpt>
      <trkpt lat="43.79148" lon="7.23554">
        <ele>402</ele>
        <time>2024-01-31T17:39:17Z</time>
      </trkpt>
      <trkpt lat="43.79177" lon="7.23526">
        <ele>402</ele>
        <time>2024-01-31T17:39:32Z</time>
      </trkpt>
      <trkpt lat="43.79205" lon="7.23505">
        <ele>404</ele>
        <time>2024-01-31T17:39:45Z</time>
      </trkpt>
      <trkpt lat="43.79229" lon="7.23473">
        <ele>404</ele>
        <time>2024-01-31T17:39:57Z</time>
      </trkpt>
      <trkpt lat="43.79249" lon="7.23463">
        <ele>408</ele>
        <time>2024-01-31T17:40:07Z</time>
      </trkpt>
      <trkpt lat="43.79256" lon="7.23459">
        <ele>410</ele>
        <time>2024-01-31T17:40:11Z</time>
      </trkpt>
      <trkpt lat="43.7927" lon="7.23441">
        <ele>410</ele>
        <time>2024-01-31T17:40:18Z</time>
      </trkpt>
      <trkpt lat="43.79298" lon="7.23387">
        <ele>411</ele>
        <time>2024-01-31T17:40:40Z</time>
      </trkpt>
      <trkpt lat="43.79312" lon="7.23375">
        <ele>413</ele>
        <time>2024-01-31T17:40:45Z</time>
      </trkpt>
      <trkpt lat="43.79344" lon="7.23357">
        <ele>415</ele>
        <time>2024-01-31T17:40:59Z</time>
      </trkpt>
      <trkpt lat="43.79365" lon="7.23338">
        <ele>415</ele>
        <time>2024-01-31T17:41:09Z</time>
      </trkpt>
      <trkpt lat="43.7937" lon="7.23331">
        <ele>415</ele>
        <time>2024-01-31T17:41:11Z</time>
      </trkpt>
      <trkpt lat="43.79371" lon="7.23324">
        <ele>414</ele>
        <time>2024-01-31T17:41:13Z</time>
      </trkpt>
      <trkpt lat="43.79396" lon="7.23355">
        <ele>421</ele>
        <time>2024-01-31T17:41:28Z</time>
      </trkpt>
      <trkpt lat="43.79362" lon="7.23389">
        <ele>423</ele>
        <time>2024-01-31T17:41:51Z</time>
      </trkpt>
      <trkpt lat="43.79343" lon="7.23397">
        <ele>423</ele>
        <time>2024-01-31T17:42:02Z</time>
      </trkpt>
      <trkpt lat="43.79325" lon="7.23411">
        <ele>423</ele>
        <time>2024-01-31T17:42:13Z</time>
      </trkpt>
      <trkpt lat="43.79314" lon="7.23429">
        <ele>425</ele>
        <time>2024-01-31T17:42:22Z</time>
      </trkpt>
      <trkpt lat="43.79301" lon="7.23459">
        <ele>427</ele>
        <time>2024-01-31T17:42:34Z</time>
      </trkpt>
      <trkpt lat="43.7929" lon="7.23497">
        <ele>431</ele>
        <time>2024-01-31T17:42:46Z</time>
      </trkpt>
      <trkpt lat="43.79273" lon="7.23518">
        <ele>430</ele>
        <time>2024-01-31T17:42:55Z</time>
      </trkpt>
      <trkpt lat="43.79249" lon="7.23554">
        <ele>434</ele>
        <time>2024-01-31T17:43:07Z</time>
      </trkpt>
      <trkpt lat="43.79236" lon="7.2356">
        <ele>431</ele>
        <time>2024-01-31T17:43:12Z</time>
      </trkpt>
      <trkpt lat="43.79228" lon="7.23573">
        <ele>433</ele>
        <time>2024-01-31T17:43:16Z</time>
      </trkpt>
      <trkpt lat="43.79224" lon="7.23592">
        <ele>437</ele>
        <time>2024-01-31T17:43:20Z</time>
      </trkpt>
      <trkpt lat="43.79211" lon="7.23618">
        <ele>437</ele>
        <time>2024-01-31T17:43:27Z</time>
      </trkpt>
      <trkpt lat="43.79203" lon="7.23623">
        <ele>434</ele>
        <time>2024-01-31T17:43:29Z</time>
      </trkpt>
      <trkpt lat="43.79198" lon="7.23624">
        <ele>433</ele>
        <time>2024-01-31T17:43:30Z</time>
      </trkpt>
      <trkpt lat="43.79189" lon="7.23641">
        <ele>432</ele>
        <time>2024-01-31T17:43:33Z</time>
      </trkpt>
      <trkpt lat="43.79187" lon="7.23651">
        <ele>432</ele>
        <time>2024-01-31T17:43:35Z</time>
      </trkpt>
      <trkpt lat="43.79189" lon="7.23689">
        <ele>435</ele>
        <time>2024-01-31T17:43:41Z</time>
      </trkpt>
      <trkpt lat="43.79178" lon="7.23718">
        <ele>437</ele>
        <time>2024-01-31T17:43:47Z</time>
      </trkpt>
      <trkpt lat="43.79155" lon="7.23745">
        <ele>434</ele>
        <time>2024-01-31T17:43:57Z</time>
      </trkpt>
      <trkpt lat="43.79151" lon="7.23756">
        <ele>435</ele>
        <time>2024-01-31T17:44:00Z</time>
      </trkpt>
      <trkpt lat="43.79146" lon="7.23776">
        <ele>435</ele>
        <time>2024-01-31T17:44:06Z</time>
      </trkpt>
      <trkpt lat="43.79143" lon="7.23831">
        <ele>436</ele>
        <time>2024-01-31T17:44:22Z</time>
      </trkpt>
      <trkpt lat="43.79147" lon="7.23843">
        <ele>436</ele>
        <time>2024-01-31T17:44:27Z</time>
      </trkpt>
      <trkpt lat="43.79166" lon="7.2388">
        <ele>438</ele>
        <time>2024-01-31T17:44:41Z</time>
      </trkpt>
      <trkpt lat="43.79174" lon="7.23903">
        <ele>441</ele>
        <time>2024-01-31T17:44:50Z</time>
      </trkpt>
      <trkpt lat="43.79178" lon="7.23907">
        <ele>442</ele>
        <time>2024-01-31T17:44:52Z</time>
      </trkpt>
      <trkpt lat="43.79195" lon="7.239">
        <ele>450</ele>
        <time>2024-01-31T17:45:03Z</time>
      </trkpt>
      <trkpt lat="43.79197" lon="7.23892">
        <ele>449</ele>
        <time>2024-01-31T17:45:06Z</time>
      </trkpt>
      <trkpt lat="43.79196" lon="7.23875">
        <ele>446</ele>
        <time>2024-01-31T17:45:13Z</time>
      </trkpt>
      <trkpt lat="43.792" lon="7.23873">
        <ele>449</ele>
        <time>2024-01-31T17:45:16Z</time>
      </trkpt>
      <trkpt lat="43.79206" lon="7.2389">
        <ele>454</ele>
        <time>2024-01-31T17:45:25Z</time>
      </trkpt>
      <trkpt lat="43.79206" lon="7.23902">
        <ele>458</ele>
        <time>2024-01-31T17:45:29Z</time>
      </trkpt>
      <trkpt lat="43.79181" lon="7.23949">
        <ele>455</ele>
        <time>2024-01-31T17:45:50Z</time>
      </trkpt>
      <trkpt lat="43.79178" lon="7.23958">
        <ele>453</ele>
        <time>2024-01-31T17:45:54Z</time>
      </trkpt>
      <trkpt lat="43.79178" lon="7.23975">
        <ele>455</ele>
        <time>2024-01-31T17:46:01Z</time>
      </trkpt>
      <trkpt lat="43.79187" lon="7.24034">
        <ele>460</ele>
        <time>2024-01-31T17:46:23Z</time>
      </trkpt>
      <trkpt lat="43.79187" lon="7.24047">
        <ele>461</ele>
        <time>2024-01-31T17:46:27Z</time>
      </trkpt>
      <trkpt lat="43.79183" lon="7.24066">
        <ele>461</ele>
        <time>2024-01-31T17:46:35Z</time>
      </trkpt>
      <trkpt lat="43.79177" lon="7.24075">
        <ele>462</ele>
        <time>2024-01-31T17:46:39Z</time>
      </trkpt>
      <trkpt lat="43.79145" lon="7.24102">
        <ele>461</ele>
        <time>2024-01-31T17:46:59Z</time>
      </trkpt>
      <trkpt lat="43.7913" lon="7.24124">
        <ele>462</ele>
        <time>2024-01-31T17:47:13Z</time>
      </trkpt>
      <trkpt lat="43.79122" lon="7.24143">
        <ele>461</ele>
        <time>2024-01-31T17:47:23Z</time>
      </trkpt>
      <trkpt lat="43.79106" lon="7.24225">
        <ele>465</ele>
        <time>2024-01-31T17:48:12Z</time>
      </trkpt>
      <trkpt lat="43.79096" lon="7.24258">
        <ele>468</ele>
        <time>2024-01-31T17:48:32Z</time>
      </trkpt>
      <trkpt lat="43.79077" lon="7.24302">
        <ele>469</ele>
        <time>2024-01-31T17:49:02Z</time>
      </trkpt>
      <trkpt lat="43.79067" lon="7.24313">
        <ele>471</ele>
        <time>2024-01-31T17:49:13Z</time>
      </trkpt>
      <trkpt lat="43.79038" lon="7.24322">
        <ele>469</ele>
        <time>2024-01-31T17:49:36Z</time>
      </trkpt>
      <trkpt lat="43.7903" lon="7.24328">
        <ele>469</ele>
        <time>2024-01-31T17:49:43Z</time>
      </trkpt>
      <trkpt lat="43.79008" lon="7.24358">
        <ele>474</ele>
        <time>2024-01-31T17:50:04Z</time>
      </trkpt>
      <trkpt lat="43.78994" lon="7.24366">
        <ele>476</ele>
        <time>2024-01-31T17:50:13Z</time>
      </trkpt>
      <trkpt lat="43.78979" lon="7.24366">
        <ele>476</ele>
        <time>2024-01-31T17:50:22Z</time>
      </trkpt>
      <trkpt lat="43.78933" lon="7.24343">
        <ele>476</ele>
        <time>2024-01-31T17:50:48Z</time>
      </trkpt>
      <trkpt lat="43.78897" lon="7.24317">
        <ele>476</ele>
        <time>2024-01-31T17:51:04Z</time>
      </trkpt>
      <trkpt lat="43.78882" lon="7.24311">
        <ele>475</ele>
        <time>2024-01-31T17:51:08Z</time>
      </trkpt>
      <trkpt lat="43.78837" lon="7.243">
        <ele>479</ele>
        <time>2024-01-31T17:51:16Z</time>
      </trkpt>
      <trkpt lat="43.78798" lon="7.24292">
        <ele>481</ele>
        <time>2024-01-31T17:51:23Z</time>
      </trkpt>
      <trkpt lat="43.78725" lon="7.24282">
        <ele>482</ele>
        <time>2024-01-31T17:51:37Z</time>
      </trkpt>
      <trkpt lat="43.7869" lon="7.24286">
        <ele>484</ele>
        <time>2024-01-31T17:51:45Z</time>
      </trkpt>
      <trkpt lat="43.78659" lon="7.24297">
        <ele>488</ele>
        <time>2024-01-31T17:51:52Z</time>
      </trkpt>
      <trkpt lat="43.786" lon="7.2433">
        <ele>494</ele>
        <time>2024-01-31T17:52:05Z</time>
      </trkpt>
      <trkpt lat="43.78587" lon="7.24335">
        <ele>495</ele>
        <time>2024-01-31T17:52:08Z</time>
      </trkpt>
      <trkpt lat="43.78574" lon="7.2433">
        <ele>495</ele>
        <time>2024-01-31T17:52:12Z</time>
      </trkpt>
      <trkpt lat="43.7855" lon="7.243">
        <ele>491</ele>
        <time>2024-01-31T17:52:22Z</time>
      </trkpt>
      <trkpt lat="43.78543" lon="7.24296">
        <ele>491</ele>
        <time>2024-01-31T17:52:25Z</time>
      </trkpt>
      <trkpt lat="43.78535" lon="7.24295">
        <ele>491</ele>
        <time>2024-01-31T17:52:26Z</time>
      </trkpt>
      <trkpt lat="43.78523" lon="7.24296">
        <ele>491</ele>
        <time>2024-01-31T17:52:29Z</time>
      </trkpt>
      <trkpt lat="43.78447" lon="7.24332">
        <ele>493</ele>
        <time>2024-01-31T17:52:43Z</time>
      </trkpt>
      <trkpt lat="43.78444" lon="7.24333">
        <ele>493</ele>
      </trkpt>
      <trkpt lat="43.78428" lon="7.24343">
        <ele>497</ele>
        <time>2024-01-31T17:52:46Z</time>
      </trkpt>
      <trkpt lat="43.78426" lon="7.24355">
        <ele>498</ele>
        <time>2024-01-31T17:52:47Z</time>
      </trkpt>
      <trkpt lat="43.78429" lon="7.24362">
        <ele>498</ele>
        <time>2024-01-31T17:52:48Z</time>
      </trkpt>
      <trkpt lat="43.78436" lon="7.24366">
        <ele>498</ele>
        <time>2024-01-31T17:52:49Z</time>
      </trkpt>
      <trkpt lat="43.78458" lon="7.24381">
        <ele>496</ele>
        <time>2024-01-31T17:52:53Z</time>
      </trkpt>
      <trkpt lat="43.78468" lon="7.24397">
        <ele>496</ele>
        <time>2024-01-31T17:52:55Z</time>
      </trkpt>
      <trkpt lat="43.78472" lon="7.24408">
        <ele>495</ele>
        <time>2024-01-31T17:52:57Z</time>
      </trkpt>
      <trkpt lat="43.78478" lon="7.24436">
        <ele>494</ele>
        <time>2024-01-31T17:53:00Z</time>
      </trkpt>
      <trkpt lat="43.78481" lon="7.24467">
        <ele>494</ele>
        <time>2024-01-31T17:53:04Z</time>
      </trkpt>
      <trkpt lat="43.78487" lon="7.24471">
        <ele>494</ele>
        <time>2024-01-31T17:53:05Z</time>
      </trkpt>
      <trkpt lat="43.78489" lon="7.24476">
        <ele>495</ele>
        <time>2024-01-31T17:53:06Z</time>
      </trkpt>
      <trkpt lat="43.78489" lon="7.24482">
        <ele>495</ele>
        <time>2024-01-31T17:53:07Z</time>
      </trkpt>
      <trkpt lat="43.78468" lon="7.24514">
        <ele>494</ele>
        <time>2024-01-31T17:53:12Z</time>
      </trkpt>
      <trkpt lat="43.78462" lon="7.24531">
        <ele>494</ele>
        <time>2024-01-31T17:53:13Z</time>
      </trkpt>
      <trkpt lat="43.78449" lon="7.24568">
        <ele>494</ele>
        <time>2024-01-31T17:53:18Z</time>
      </trkpt>
      <trkpt lat="43.78446" lon="7.24612">
        <ele>499</ele>
        <time>2024-01-31T17:53:25Z</time>
      </trkpt>
      <trkpt lat="43.78439" lon="7.24627">
        <ele>501</ele>
        <time>2024-01-31T17:53:28Z</time>
      </trkpt>
      <trkpt lat="43.78412" lon="7.24663">
        <ele>499</ele>
        <time>2024-01-31T17:53:39Z</time>
      </trkpt>
      <trkpt lat="43.78402" lon="7.24688">
        <ele>502</ele>
        <time>2024-01-31T17:53:47Z</time>
      </trkpt>
      <trkpt lat="43.7839" lon="7.24731">
        <ele>506</ele>
        <time>2024-01-31T17:54:01Z</time>
      </trkpt>
      <trkpt lat="43.78367" lon="7.24842">
        <ele>511</ele>
        <time>2024-01-31T17:54:42Z</time>
      </trkpt>
      <trkpt lat="43.78354" lon="7.24961">
        <ele>516</ele>
        <time>2024-01-31T17:55:27Z</time>
      </trkpt>
      <trkpt lat="43.78333" lon="7.25039">
        <ele>521</ele>
        <time>2024-01-31T17:55:55Z</time>
      </trkpt>
      <trkpt lat="43.78324" lon="7.25061">
        <ele>522</ele>
        <time>2024-01-31T17:56:03Z</time>
      </trkpt>
      <trkpt lat="43.78206" lon="7.25259">
        <ele>533</ele>
        <time>2024-01-31T17:56:35Z</time>
      </trkpt>
      <trkpt lat="43.78201" lon="7.25273">
        <ele>532</ele>
        <time>2024-01-31T17:56:36Z</time>
      </trkpt>
      <trkpt lat="43.78199" lon="7.25287">
        <ele>532</ele>
        <time>2024-01-31T17:56:37Z</time>
      </trkpt>
      <trkpt lat="43.782" lon="7.25309">
        <ele>532</ele>
        <time>2024-01-31T17:56:39Z</time>
      </trkpt>
      <trkpt lat="43.78205" lon="7.25338">
        <ele>532</ele>
        <time>2024-01-31T17:56:42Z</time>
      </trkpt>
      <trkpt lat="43.78203" lon="7.2534">
        <ele>531</ele>
        <time>2024-01-31T17:56:43Z</time>
      </trkpt>
      <trkpt lat="43.78209" lon="7.25376">
        <ele>526</ele>
        <time>2024-01-31T17:56:58Z</time>
      </trkpt>
      <trkpt lat="43.78217" lon="7.25397">
        <ele>523</ele>
        <time>2024-01-31T17:57:07Z</time>
      </trkpt>
      <trkpt lat="43.7822" lon="7.25417">
        <ele>517</ele>
        <time>2024-01-31T17:57:16Z</time>
      </trkpt>
      <trkpt lat="43.78229" lon="7.25441">
        <ele>509</ele>
        <time>2024-01-31T17:57:26Z</time>
      </trkpt>
      <trkpt lat="43.78229" lon="7.25444">
        <ele>507</ele>
        <time>2024-01-31T17:57:27Z</time>
      </trkpt>
      <trkpt lat="43.78214" lon="7.25451">
        <ele>505</ele>
        <time>2024-01-31T17:57:36Z</time>
      </trkpt>
      <trkpt lat="43.7821" lon="7.25456">
        <ele>503</ele>
        <time>2024-01-31T17:57:39Z</time>
      </trkpt>
      <trkpt lat="43.78213" lon="7.25458">
        <ele>503</ele>
        <time>2024-01-31T17:57:41Z</time>
      </trkpt>
      <trkpt lat="43.78214" lon="7.25463">
        <ele>500</ele>
        <time>2024-01-31T17:57:43Z</time>
      </trkpt>
      <trkpt lat="43.78195" lon="7.25479">
        <ele>498</ele>
        <time>2024-01-31T17:57:48Z</time>
      </trkpt>
      <trkpt lat="43.78186" lon="7.25491">
        <ele>497</ele>
        <time>2024-01-31T17:57:51Z</time>
      </trkpt>
      <trkpt lat="43.78172" lon="7.2552">
        <ele>497</ele>
        <time>2024-01-31T17:57:57Z</time>
      </trkpt>
      <trkpt lat="43.78163" lon="7.25544">
        <ele>495</ele>
        <time>2024-01-31T17:58:02Z</time>
      </trkpt>
      <trkpt lat="43.78159" lon="7.25564">
        <ele>493</ele>
        <time>2024-01-31T17:58:06Z</time>
      </trkpt>
      <trkpt lat="43.78157" lon="7.25579">
        <ele>491</ele>
        <time>2024-01-31T17:58:09Z</time>
      </trkpt>
      <trkpt lat="43.78174" lon="7.25637">
        <ele>485</ele>
        <time>2024-01-31T17:58:21Z</time>
      </trkpt>
      <trkpt lat="43.78178" lon="7.25663">
        <ele>484</ele>
        <time>2024-01-31T17:58:26Z</time>
      </trkpt>
      <trkpt lat="43.78179" lon="7.25694">
        <ele>486</ele>
        <time>2024-01-31T17:58:31Z</time>
      </trkpt>
      <trkpt lat="43.78183" lon="7.2571">
        <ele>485</ele>
        <time>2024-01-31T17:58:34Z</time>
      </trkpt>
      <trkpt lat="43.78192" lon="7.25723">
        <ele>484</ele>
        <time>2024-01-31T17:58:37Z</time>
      </trkpt>
      <trkpt lat="43.78217" lon="7.25784">
        <ele>483</ele>
        <time>2024-01-31T17:58:49Z</time>
      </trkpt>
      <trkpt lat="43.78251" lon="7.25853">
        <ele>480</ele>
        <time>2024-01-31T17:59:02Z</time>
      </trkpt>
      <trkpt lat="43.78253" lon="7.25871">
        <ele>480</ele>
        <time>2024-01-31T17:59:04Z</time>
      </trkpt>
      <trkpt lat="43.78251" lon="7.2589">
        <ele>479</ele>
        <time>2024-01-31T17:59:07Z</time>
      </trkpt>
      <trkpt lat="43.78244" lon="7.25914">
        <ele>479</ele>
        <time>2024-01-31T17:59:11Z</time>
      </trkpt>
      <trkpt lat="43.7823" lon="7.2594">
        <ele>479</ele>
        <time>2024-01-31T17:59:15Z</time>
      </trkpt>
      <trkpt lat="43.78225" lon="7.25959">
        <ele>478</ele>
        <time>2024-01-31T17:59:18Z</time>
      </trkpt>
      <trkpt lat="43.78227" lon="7.25978">
        <ele>476</ele>
        <time>2024-01-31T17:59:21Z</time>
      </trkpt>
      <trkpt lat="43.78271" lon="7.26061">
        <ele>459</ele>
        <time>2024-01-31T17:59:36Z</time>
      </trkpt>
      <trkpt lat="43.78282" lon="7.26089">
        <ele>458</ele>
        <time>2024-01-31T17:59:40Z</time>
      </trkpt>
      <trkpt lat="43.78287" lon="7.26117">
        <ele>457</ele>
        <time>2024-01-31T17:59:45Z</time>
      </trkpt>
      <trkpt lat="43.78287" lon="7.26144">
        <ele>456</ele>
        <time>2024-01-31T17:59:49Z</time>
      </trkpt>
      <trkpt lat="43.78271" lon="7.26216">
        <ele>450</ele>
        <time>2024-01-31T18:00:00Z</time>
      </trkpt>
      <trkpt lat="43.78261" lon="7.2629">
        <ele>444</ele>
        <time>2024-01-31T18:00:12Z</time>
      </trkpt>
      <trkpt lat="43.78217" lon="7.26505">
        <ele>445</ele>
        <time>2024-01-31T18:00:49Z</time>
      </trkpt>
      <trkpt lat="43.78213" lon="7.26538">
        <ele>444</ele>
        <time>2024-01-31T18:00:54Z</time>
      </trkpt>
      <trkpt lat="43.78214" lon="7.26693">
        <ele>438</ele>
        <time>2024-01-31T18:01:18Z</time>
      </trkpt>
      <trkpt lat="43.78216" lon="7.26749">
        <ele>431</ele>
        <time>2024-01-31T18:01:26Z</time>
      </trkpt>
      <trkpt lat="43.78214" lon="7.2678">
        <ele>429</ele>
        <time>2024-01-31T18:01:30Z</time>
      </trkpt>
      <trkpt lat="43.78203" lon="7.26809">
        <ele>426</ele>
        <time>2024-01-31T18:01:35Z</time>
      </trkpt>
      <trkpt lat="43.78192" lon="7.2683">
        <ele>424</ele>
        <time>2024-01-31T18:01:39Z</time>
      </trkpt>
      <trkpt lat="43.7816" lon="7.26848">
        <ele>424</ele>
        <time>2024-01-31T18:01:47Z</time>
      </trkpt>
      <trkpt lat="43.78132" lon="7.26871">
        <ele>420</ele>
        <time>2024-01-31T18:01:55Z</time>
      </trkpt>
      <trkpt lat="43.78105" lon="7.26888">
        <ele>419</ele>
        <time>2024-01-31T18:02:02Z</time>
      </trkpt>
      <trkpt lat="43.78078" lon="7.26895">
        <ele>420</ele>
        <time>2024-01-31T18:02:08Z</time>
      </trkpt>
      <trkpt lat="43.78044" lon="7.269">
        <ele>422</ele>
        <time>2024-01-31T18:02:17Z</time>
      </trkpt>
      <trkpt lat="43.7802" lon="7.2691">
        <ele>423</ele>
        <time>2024-01-31T18:02:23Z</time>
      </trkpt>
      <trkpt lat="43.78003" lon="7.26925">
        <ele>425</ele>
        <time>2024-01-31T18:02:28Z</time>
      </trkpt>
      <trkpt lat="43.77988" lon="7.26945">
        <ele>425</ele>
        <time>2024-01-31T18:02:33Z</time>
      </trkpt>
      <trkpt lat="43.77982" lon="7.26966">
        <ele>426</ele>
        <time>2024-01-31T18:02:37Z</time>
      </trkpt>
      <trkpt lat="43.77975" lon="7.2702">
        <ele>425</ele>
        <time>2024-01-31T18:02:47Z</time>
      </trkpt>
      <trkpt lat="43.77976" lon="7.27042">
        <ele>425</ele>
        <time>2024-01-31T18:02:50Z</time>
      </trkpt>
      <trkpt lat="43.7799" lon="7.2709">
        <ele>422</ele>
        <time>2024-01-31T18:02:58Z</time>
      </trkpt>
      <trkpt lat="43.78002" lon="7.2711">
        <ele>421</ele>
        <time>2024-01-31T18:03:02Z</time>
      </trkpt>
      <trkpt lat="43.78028" lon="7.27125">
        <ele>417</ele>
        <time>2024-01-31T18:03:07Z</time>
      </trkpt>
      <trkpt lat="43.78068" lon="7.27133">
        <ele>412</ele>
        <time>2024-01-31T18:03:15Z</time>
      </trkpt>
      <trkpt lat="43.78077" lon="7.27144">
        <ele>410</ele>
        <time>2024-01-31T18:03:18Z</time>
      </trkpt>
      <trkpt lat="43.78081" lon="7.27166">
        <ele>409</ele>
        <time>2024-01-31T18:03:21Z</time>
      </trkpt>
      <trkpt lat="43.78079" lon="7.27184">
        <ele>406</ele>
        <time>2024-01-31T18:03:23Z</time>
      </trkpt>
      <trkpt lat="43.78057" lon="7.27211">
        <ele>405</ele>
        <time>2024-01-31T18:03:29Z</time>
      </trkpt>
      <trkpt lat="43.78014" lon="7.27256">
        <ele>402</ele>
        <time>2024-01-31T18:03:40Z</time>
      </trkpt>
      <trkpt lat="43.77986" lon="7.27267">
        <ele>396</ele>
        <time>2024-01-31T18:03:45Z</time>
      </trkpt>
      <trkpt lat="43.7796" lon="7.2726">
        <ele>394</ele>
        <time>2024-01-31T18:03:51Z</time>
      </trkpt>
      <trkpt lat="43.77956" lon="7.27259">
        <ele>393</ele>
        <time>2024-01-31T18:03:52Z</time>
      </trkpt>
      <trkpt lat="43.77928" lon="7.27229">
        <ele>391</ele>
        <time>2024-01-31T18:03:59Z</time>
      </trkpt>
      <trkpt lat="43.77912" lon="7.27219">
        <ele>387</ele>
        <time>2024-01-31T18:04:03Z</time>
      </trkpt>
      <trkpt lat="43.77893" lon="7.27207">
        <ele>385</ele>
        <time>2024-01-31T18:04:08Z</time>
      </trkpt>
      <trkpt lat="43.77865" lon="7.27203">
        <ele>382</ele>
        <time>2024-01-31T18:04:15Z</time>
      </trkpt>
      <trkpt lat="43.77822" lon="7.27214">
        <ele>381</ele>
        <time>2024-01-31T18:04:31Z</time>
      </trkpt>
      <trkpt lat="43.77763" lon="7.27237">
        <ele>384</ele>
        <time>2024-01-31T18:04:57Z</time>
      </trkpt>
      <trkpt lat="43.77744" lon="7.27251">
        <ele>383</ele>
        <time>2024-01-31T18:05:06Z</time>
      </trkpt>
      <trkpt lat="43.77735" lon="7.27263">
        <ele>380</ele>
        <time>2024-01-31T18:05:11Z</time>
      </trkpt>
      <trkpt lat="43.77685" lon="7.27286">
        <ele>378</ele>
        <time>2024-01-31T18:05:33Z</time>
      </trkpt>
      <trkpt lat="43.77656" lon="7.2728">
        <ele>381</ele>
        <time>2024-01-31T18:05:45Z</time>
      </trkpt>
      <trkpt lat="43.77601" lon="7.27279">
        <ele>385</ele>
        <time>2024-01-31T18:06:11Z</time>
      </trkpt>
      <trkpt lat="43.77555" lon="7.27271">
        <ele>391</ele>
        <time>2024-01-31T18:06:40Z</time>
      </trkpt>
      <trkpt lat="43.77516" lon="7.27276">
        <ele>395</ele>
        <time>2024-01-31T18:07:09Z</time>
      </trkpt>
      <trkpt lat="43.77447" lon="7.27262">
        <ele>403</ele>
        <time>2024-01-31T18:08:01Z</time>
      </trkpt>
      <trkpt lat="43.77413" lon="7.27252">
        <ele>409</ele>
        <time>2024-01-31T18:08:22Z</time>
      </trkpt>
      <trkpt lat="43.774" lon="7.27257">
        <ele>400</ele>
        <time>2024-01-31T18:08:29Z</time>
      </trkpt>
      <trkpt lat="43.77366" lon="7.27253">
        <ele>401</ele>
        <time>2024-01-31T18:08:44Z</time>
      </trkpt>
      <trkpt lat="43.77352" lon="7.27258">
        <ele>401</ele>
        <time>2024-01-31T18:08:49Z</time>
      </trkpt>
      <trkpt lat="43.77333" lon="7.27275">
        <ele>401</ele>
        <time>2024-01-31T18:08:55Z</time>
      </trkpt>
      <trkpt lat="43.77325" lon="7.27291">
        <ele>400</ele>
        <time>2024-01-31T18:08:59Z</time>
      </trkpt>
      <trkpt lat="43.77322" lon="7.27309">
        <ele>399</ele>
        <time>2024-01-31T18:09:02Z</time>
      </trkpt>
      <trkpt lat="43.77327" lon="7.27354">
        <ele>390</ele>
        <time>2024-01-31T18:09:09Z</time>
      </trkpt>
      <trkpt lat="43.77327" lon="7.27395">
        <ele>388</ele>
        <time>2024-01-31T18:09:15Z</time>
      </trkpt>
      <trkpt lat="43.77329" lon="7.27416">
        <ele>388</ele>
        <time>2024-01-31T18:09:18Z</time>
      </trkpt>
      <trkpt lat="43.77337" lon="7.2744">
        <ele>384</ele>
        <time>2024-01-31T18:09:22Z</time>
      </trkpt>
      <trkpt lat="43.77341" lon="7.27453">
        <ele>382</ele>
        <time>2024-01-31T18:09:24Z</time>
      </trkpt>
      <trkpt lat="43.77341" lon="7.27467">
        <ele>381</ele>
        <time>2024-01-31T18:09:26Z</time>
      </trkpt>
      <trkpt lat="43.77334" lon="7.27488">
        <ele>382</ele>
        <time>2024-01-31T18:09:29Z</time>
      </trkpt>
      <trkpt lat="43.77282" lon="7.27579">
        <ele>373</ele>
        <time>2024-01-31T18:09:45Z</time>
      </trkpt>
      <trkpt lat="43.77235" lon="7.27619">
        <ele>366</ele>
        <time>2024-01-31T18:09:55Z</time>
      </trkpt>
      <trkpt lat="43.77203" lon="7.27629">
        <ele>363</ele>
        <time>2024-01-31T18:10:01Z</time>
      </trkpt>
      <trkpt lat="43.77156" lon="7.27639">
        <ele>355</ele>
        <time>2024-01-31T18:10:10Z</time>
      </trkpt>
      <trkpt lat="43.771" lon="7.2764">
        <ele>351</ele>
        <time>2024-01-31T18:10:21Z</time>
      </trkpt>
      <trkpt lat="43.77054" lon="7.27644">
        <ele>344</ele>
        <time>2024-01-31T18:10:31Z</time>
      </trkpt>
      <trkpt lat="43.77047" lon="7.27651">
        <ele>342</ele>
        <time>2024-01-31T18:10:33Z</time>
      </trkpt>
      <trkpt lat="43.77044" lon="7.27662">
        <ele>340</ele>
        <time>2024-01-31T18:10:35Z</time>
      </trkpt>
      <trkpt lat="43.77035" lon="7.27682">
        <ele>336</ele>
        <time>2024-01-31T18:10:38Z</time>
      </trkpt>
      <trkpt lat="43.77025" lon="7.27688">
        <ele>335</ele>
        <time>2024-01-31T18:10:41Z</time>
      </trkpt>
      <trkpt lat="43.77008" lon="7.27686">
        <ele>334</ele>
        <time>2024-01-31T18:10:44Z</time>
      </trkpt>
      <trkpt lat="43.76993" lon="7.27676">
        <ele>334</ele>
        <time>2024-01-31T18:10:48Z</time>
      </trkpt>
      <trkpt lat="43.76976" lon="7.27648">
        <ele>335</ele>
        <time>2024-01-31T18:10:53Z</time>
      </trkpt>
      <trkpt lat="43.76961" lon="7.27638">
        <ele>334</ele>
        <time>2024-01-31T18:10:57Z</time>
      </trkpt>
      <trkpt lat="43.76943" lon="7.27639">
        <ele>331</ele>
        <time>2024-01-31T18:11:01Z</time>
      </trkpt>
      <trkpt lat="43.76931" lon="7.27644">
        <ele>328</ele>
        <time>2024-01-31T18:11:03Z</time>
      </trkpt>
      <trkpt lat="43.76898" lon="7.27643">
        <ele>327</ele>
        <time>2024-01-31T18:11:10Z</time>
      </trkpt>
      <trkpt lat="43.76868" lon="7.27668">
        <ele>320</ele>
        <time>2024-01-31T18:11:18Z</time>
      </trkpt>
      <trkpt lat="43.76843" lon="7.27681">
        <ele>318</ele>
        <time>2024-01-31T18:11:24Z</time>
      </trkpt>
      <trkpt lat="43.76767" lon="7.27685">
        <ele>309</ele>
        <time>2024-01-31T18:11:42Z</time>
      </trkpt>
      <trkpt lat="43.76754" lon="7.27689">
        <ele>308</ele>
        <time>2024-01-31T18:11:45Z</time>
      </trkpt>
      <trkpt lat="43.7674" lon="7.27703">
        <ele>305</ele>
        <time>2024-01-31T18:11:49Z</time>
      </trkpt>
      <trkpt lat="43.7666" lon="7.27736">
        <ele>296</ele>
        <time>2024-01-31T18:12:08Z</time>
      </trkpt>
      <trkpt lat="43.76605" lon="7.27743">
        <ele>296</ele>
        <time>2024-01-31T18:12:20Z</time>
      </trkpt>
      <trkpt lat="43.76585" lon="7.27756">
        <ele>292</ele>
        <time>2024-01-31T18:12:24Z</time>
      </trkpt>
      <trkpt lat="43.76576" lon="7.27774">
        <ele>285</ele>
        <time>2024-01-31T18:12:28Z</time>
      </trkpt>
      <trkpt lat="43.76561" lon="7.27813">
        <ele>275</ele>
        <time>2024-01-31T18:12:34Z</time>
      </trkpt>
      <trkpt lat="43.76536" lon="7.27833">
        <ele>275</ele>
        <time>2024-01-31T18:12:40Z</time>
      </trkpt>
      <trkpt lat="43.76495" lon="7.27892">
        <ele>260</ele>
        <time>2024-01-31T18:12:51Z</time>
      </trkpt>
      <trkpt lat="43.76479" lon="7.27904">
        <ele>263</ele>
        <time>2024-01-31T18:12:54Z</time>
      </trkpt>
      <trkpt lat="43.76477" lon="7.27909">
        <ele>261</ele>
        <time>2024-01-31T18:12:55Z</time>
      </trkpt>
      <trkpt lat="43.76479" lon="7.27913">
        <ele>258</ele>
        <time>2024-01-31T18:12:56Z</time>
      </trkpt>
      <trkpt lat="43.76483" lon="7.27914">
        <ele>256</ele>
        <time>2024-01-31T18:12:57Z</time>
      </trkpt>
      <trkpt lat="43.76533" lon="7.27897">
        <ele>250</ele>
        <time>2024-01-31T18:13:06Z</time>
      </trkpt>
      <trkpt lat="43.76538" lon="7.27902">
        <ele>248</ele>
        <time>2024-01-31T18:13:07Z</time>
      </trkpt>
      <trkpt lat="43.76536" lon="7.2791">
        <ele>246</ele>
        <time>2024-01-31T18:13:09Z</time>
      </trkpt>
      <trkpt lat="43.76508" lon="7.2794">
        <ele>242</ele>
        <time>2024-01-31T18:13:15Z</time>
      </trkpt>
      <trkpt lat="43.76444" lon="7.27987">
        <ele>239</ele>
        <time>2024-01-31T18:13:29Z</time>
      </trkpt>
      <trkpt lat="43.76428" lon="7.28017">
        <ele>234</ele>
        <time>2024-01-31T18:13:34Z</time>
      </trkpt>
      <trkpt lat="43.76398" lon="7.28032">
        <ele>234</ele>
        <time>2024-01-31T18:13:40Z</time>
      </trkpt>
      <trkpt lat="43.76389" lon="7.28046">
        <ele>233</ele>
        <time>2024-01-31T18:13:43Z</time>
      </trkpt>
      <trkpt lat="43.76382" lon="7.28075">
        <ele>230</ele>
        <time>2024-01-31T18:13:48Z</time>
      </trkpt>
      <trkpt lat="43.76373" lon="7.28088">
        <ele>229</ele>
        <time>2024-01-31T18:13:50Z</time>
      </trkpt>
      <trkpt lat="43.7636" lon="7.28091">
        <ele>226</ele>
        <time>2024-01-31T18:13:53Z</time>
      </trkpt>
      <trkpt lat="43.76322" lon="7.28083">
        <ele>221</ele>
        <time>2024-01-31T18:14:02Z</time>
      </trkpt>
      <trkpt lat="43.76312" lon="7.28076">
        <ele>220</ele>
        <time>2024-01-31T18:14:05Z</time>
      </trkpt>
      <trkpt lat="43.76288" lon="7.28049">
        <ele>220</ele>
        <time>2024-01-31T18:14:13Z</time>
      </trkpt>
      <trkpt lat="43.76245" lon="7.28033">
        <ele>202</ele>
        <time>2024-01-31T18:14:26Z</time>
      </trkpt>
      <trkpt lat="43.76208" lon="7.28001">
        <ele>201</ele>
        <time>2024-01-31T18:14:39Z</time>
      </trkpt>
      <trkpt lat="43.76197" lon="7.27996">
        <ele>201</ele>
        <time>2024-01-31T18:14:43Z</time>
      </trkpt>
      <trkpt lat="43.76171" lon="7.27939">
        <ele>200</ele>
        <time>2024-01-31T18:14:50Z</time>
      </trkpt>
      <trkpt lat="43.76051" lon="7.27766">
        <ele>189</ele>
        <time>2024-01-31T18:15:10Z</time>
      </trkpt>
      <trkpt lat="43.76044" lon="7.2775">
        <ele>193</ele>
        <time>2024-01-31T18:15:12Z</time>
      </trkpt>
      <trkpt lat="43.76036" lon="7.27718">
        <ele>195</ele>
        <time>2024-01-31T18:15:15Z</time>
      </trkpt>
      <trkpt lat="43.7603" lon="7.27711">
        <ele>195</ele>
        <time>2024-01-31T18:15:16Z</time>
      </trkpt>
      <trkpt lat="43.76013" lon="7.27703">
        <ele>196</ele>
        <time>2024-01-31T18:15:18Z</time>
      </trkpt>
      <trkpt lat="43.75996" lon="7.27706">
        <ele>192</ele>
        <time>2024-01-31T18:15:19Z</time>
      </trkpt>
      <trkpt lat="43.75987" lon="7.27712">
        <ele>188</ele>
        <time>2024-01-31T18:15:21Z</time>
      </trkpt>
      <trkpt lat="43.75938" lon="7.2776">
        <ele>178</ele>
        <time>2024-01-31T18:15:28Z</time>
      </trkpt>
      <trkpt lat="43.75907" lon="7.27783">
        <ele>177</ele>
        <time>2024-01-31T18:15:32Z</time>
      </trkpt>
      <trkpt lat="43.75834" lon="7.27818">
        <ele>183</ele>
        <time>2024-01-31T18:15:46Z</time>
      </trkpt>
      <trkpt lat="43.75803" lon="7.27855">
        <ele>176</ele>
        <time>2024-01-31T18:15:56Z</time>
      </trkpt>
      <trkpt lat="43.75792" lon="7.27853">
        <ele>175</ele>
        <time>2024-01-31T18:15:59Z</time>
      </trkpt>
      <trkpt lat="43.75787" lon="7.27848">
        <ele>174</ele>
        <time>2024-01-31T18:16:01Z</time>
      </trkpt>
      <trkpt lat="43.75773" lon="7.27815">
        <ele>171</ele>
        <time>2024-01-31T18:16:07Z</time>
      </trkpt>
      <trkpt lat="43.75761" lon="7.27799">
        <ele>171</ele>
        <time>2024-01-31T18:16:10Z</time>
      </trkpt>
      <trkpt lat="43.75748" lon="7.27794">
        <ele>170</ele>
        <time>2024-01-31T18:16:12Z</time>
      </trkpt>
      <trkpt lat="43.75731" lon="7.27799">
        <ele>169</ele>
        <time>2024-01-31T18:16:15Z</time>
      </trkpt>
      <trkpt lat="43.75711" lon="7.27815">
        <ele>168</ele>
        <time>2024-01-31T18:16:18Z</time>
      </trkpt>
      <trkpt lat="43.75678" lon="7.2785">
        <ele>166</ele>
        <time>2024-01-31T18:16:24Z</time>
      </trkpt>
      <trkpt lat="43.75604" lon="7.27967">
        <ele>157</ele>
        <time>2024-01-31T18:16:38Z</time>
      </trkpt>
      <trkpt lat="43.75596" lon="7.27973">
        <ele>156</ele>
        <time>2024-01-31T18:16:39Z</time>
      </trkpt>
      <trkpt lat="43.75577" lon="7.27972">
        <ele>158</ele>
        <time>2024-01-31T18:16:41Z</time>
      </trkpt>
      <trkpt lat="43.75559" lon="7.27976">
        <ele>155</ele>
        <time>2024-01-31T18:16:43Z</time>
      </trkpt>
      <trkpt lat="43.75494" lon="7.28013">
        <ele>149</ele>
        <time>2024-01-31T18:16:51Z</time>
      </trkpt>
      <trkpt lat="43.75486" lon="7.28013">
        <ele>149</ele>
        <time>2024-01-31T18:16:52Z</time>
      </trkpt>
      <trkpt lat="43.75476" lon="7.28">
        <ele>148</ele>
        <time>2024-01-31T18:16:53Z</time>
      </trkpt>
      <trkpt lat="43.75464" lon="7.27953">
        <ele>146</ele>
        <time>2024-01-31T18:16:57Z</time>
      </trkpt>
      <trkpt lat="43.75456" lon="7.27878">
        <ele>142</ele>
        <time>2024-01-31T18:17:04Z</time>
      </trkpt>
      <trkpt lat="43.7545" lon="7.27854">
        <ele>141</ele>
        <time>2024-01-31T18:17:06Z</time>
      </trkpt>
      <trkpt lat="43.75433" lon="7.27824">
        <ele>140</ele>
        <time>2024-01-31T18:17:09Z</time>
      </trkpt>
      <trkpt lat="43.75386" lon="7.27766">
        <ele>138</ele>
        <time>2024-01-31T18:17:17Z</time>
      </trkpt>
      <trkpt lat="43.75363" lon="7.27745">
        <ele>131</ele>
        <time>2024-01-31T18:17:21Z</time>
      </trkpt>
      <trkpt lat="43.75325" lon="7.27712">
        <ele>132</ele>
        <time>2024-01-31T18:17:30Z</time>
      </trkpt>
      <trkpt lat="43.75319" lon="7.27708">
        <ele>133</ele>
        <time>2024-01-31T18:17:32Z</time>
      </trkpt>
      <trkpt lat="43.753" lon="7.27695">
        <ele>132</ele>
        <time>2024-01-31T18:17:38Z</time>
      </trkpt>
      <trkpt lat="43.75289" lon="7.27694">
        <ele>131</ele>
        <time>2024-01-31T18:17:42Z</time>
      </trkpt>
      <trkpt lat="43.75274" lon="7.27696">
        <ele>130</ele>
        <time>2024-01-31T18:17:47Z</time>
      </trkpt>
      <trkpt lat="43.75261" lon="7.27703">
        <ele>129</ele>
        <time>2024-01-31T18:17:52Z</time>
      </trkpt>
      <trkpt lat="43.75197" lon="7.27772">
        <ele>125</ele>
        <time>2024-01-31T18:18:28Z</time>
      </trkpt>
      <trkpt lat="43.75186" lon="7.27792">
        <ele>124</ele>
        <time>2024-01-31T18:18:39Z</time>
      </trkpt>
      <trkpt lat="43.75186" lon="7.27823">
        <ele>123</ele>
        <time>2024-01-31T18:18:54Z</time>
      </trkpt>
      <trkpt lat="43.75201" lon="7.27856">
        <ele>121</ele>
        <time>2024-01-31T18:19:13Z</time>
      </trkpt>
      <trkpt lat="43.75206" lon="7.27874">
        <ele>120</ele>
        <time>2024-01-31T18:19:22Z</time>
      </trkpt>
      <trkpt lat="43.75204" lon="7.27896">
        <ele>120</ele>
        <time>2024-01-31T18:19:27Z</time>
      </trkpt>
      <trkpt lat="43.75173" lon="7.28005">
        <ele>117</ele>
        <time>2024-01-31T18:19:37Z</time>
      </trkpt>
      <trkpt lat="43.75169" lon="7.28013">
        <ele>116</ele>
        <time>2024-01-31T18:19:38Z</time>
      </trkpt>
      <trkpt lat="43.75145" lon="7.28036">
        <ele>114</ele>
        <time>2024-01-31T18:19:41Z</time>
      </trkpt>
      <trkpt lat="43.75141" lon="7.28047">
        <ele>113</ele>
        <time>2024-01-31T18:19:42Z</time>
      </trkpt>
      <trkpt lat="43.75135" lon="7.28131">
        <ele>112</ele>
        <time>2024-01-31T18:19:49Z</time>
      </trkpt>
      <trkpt lat="43.75124" lon="7.28183">
        <ele>110</ele>
        <time>2024-01-31T18:19:53Z</time>
      </trkpt>
      <trkpt lat="43.75129" lon="7.28249">
        <ele>107</ele>
        <time>2024-01-31T18:19:58Z</time>
      </trkpt>
      <trkpt lat="43.75116" lon="7.28306">
        <ele>106</ele>
        <time>2024-01-31T18:20:02Z</time>
      </trkpt>
      <trkpt lat="43.75109" lon="7.28323">
        <ele>106</ele>
        <time>2024-01-31T18:20:03Z</time>
      </trkpt>
      <trkpt lat="43.75092" lon="7.28349">
        <ele>100</ele>
        <time>2024-01-31T18:20:06Z</time>
      </trkpt>
      <trkpt lat="43.75067" lon="7.28364">
        <ele>105</ele>
        <time>2024-01-31T18:20:09Z</time>
      </trkpt>
      <trkpt lat="43.75038" lon="7.28377">
        <ele>104</ele>
        <time>2024-01-31T18:20:13Z</time>
      </trkpt>
      <trkpt lat="43.74996" lon="7.28393">
        <ele>102</ele>
        <time>2024-01-31T18:20:19Z</time>
      </trkpt>
      <trkpt lat="43.74981" lon="7.284">
        <ele>101</ele>
        <time>2024-01-31T18:20:21Z</time>
      </trkpt>
      <trkpt lat="43.74954" lon="7.28419">
        <ele>99</ele>
        <time>2024-01-31T18:20:25Z</time>
      </trkpt>
      <trkpt lat="43.74908" lon="7.28479">
        <ele>95</ele>
        <time>2024-01-31T18:20:33Z</time>
      </trkpt>
      <trkpt lat="43.74872" lon="7.28557">
        <ele>91</ele>
        <time>2024-01-31T18:20:41Z</time>
      </trkpt>
      <trkpt lat="43.74859" lon="7.28573">
        <ele>90</ele>
        <time>2024-01-31T18:20:43Z</time>
      </trkpt>
      <trkpt lat="43.74784" lon="7.28631">
        <ele>85</ele>
        <time>2024-01-31T18:20:54Z</time>
      </trkpt>
      <trkpt lat="43.74684" lon="7.28696">
        <ele>79</ele>
        <time>2024-01-31T18:21:08Z</time>
      </trkpt>
      <trkpt lat="43.74681" lon="7.28689">
        <ele>80</ele>
        <time>2024-01-31T18:21:09Z</time>
      </trkpt>
      <trkpt lat="43.74675" lon="7.28684">
        <ele>80</ele>
        <time>2024-01-31T18:21:10Z</time>
      </trkpt>
      <trkpt lat="43.74667" lon="7.28683">
        <ele>80</ele>
        <time>2024-01-31T18:21:11Z</time>
      </trkpt>
      <trkpt lat="43.74659" lon="7.28694">
        <ele>79</ele>
        <time>2024-01-31T18:21:12Z</time>
      </trkpt>
      <trkpt lat="43.74658" lon="7.28706">
        <ele>79</ele>
        <time>2024-01-31T18:21:14Z</time>
      </trkpt>
      <trkpt lat="43.74663" lon="7.28715">
        <ele>78</ele>
        <time>2024-01-31T18:21:15Z</time>
      </trkpt>
      <trkpt lat="43.74652" lon="7.28735">
        <ele>77</ele>
        <time>2024-01-31T18:21:17Z</time>
      </trkpt>
      <trkpt lat="43.74646" lon="7.28742">
        <ele>76</ele>
        <time>2024-01-31T18:21:18Z</time>
      </trkpt>
      <trkpt lat="43.74633" lon="7.28751">
        <ele>75</ele>
        <time>2024-01-31T18:21:20Z</time>
      </trkpt>
      <trkpt lat="43.74611" lon="7.28754">
        <ele>74</ele>
        <time>2024-01-31T18:21:22Z</time>
      </trkpt>
      <trkpt lat="43.74594" lon="7.28746">
        <ele>73</ele>
        <time>2024-01-31T18:21:25Z</time>
      </trkpt>
      <trkpt lat="43.74577" lon="7.28734">
        <ele>72</ele>
        <time>2024-01-31T18:21:27Z</time>
      </trkpt>
      <trkpt lat="43.74558" lon="7.28731">
        <ele>71</ele>
        <time>2024-01-31T18:21:29Z</time>
      </trkpt>
      <trkpt lat="43.745" lon="7.28766">
        <ele>67</ele>
        <time>2024-01-31T18:21:37Z</time>
      </trkpt>
      <trkpt lat="43.7448" lon="7.28781">
        <ele>66</ele>
        <time>2024-01-31T18:21:40Z</time>
      </trkpt>
      <trkpt lat="43.74459" lon="7.28796">
        <ele>64</ele>
        <time>2024-01-31T18:21:43Z</time>
      </trkpt>
      <trkpt lat="43.74411" lon="7.28812">
        <ele>63</ele>
        <time>2024-01-31T18:21:49Z</time>
      </trkpt>
      <trkpt lat="43.74353" lon="7.28808">
        <ele>62</ele>
        <time>2024-01-31T18:21:57Z</time>
      </trkpt>
      <trkpt lat="43.74339" lon="7.28807">
        <ele>62</ele>
        <time>2024-01-31T18:21:59Z</time>
      </trkpt>
      <trkpt lat="43.74317" lon="7.28805">
        <ele>61</ele>
        <time>2024-01-31T18:22:03Z</time>
      </trkpt>
      <trkpt lat="43.74285" lon="7.28802">
        <ele>61</ele>
        <time>2024-01-31T18:22:08Z</time>
      </trkpt>
      <trkpt lat="43.74266" lon="7.28803">
        <ele>61</ele>
        <time>2024-01-31T18:22:11Z</time>
      </trkpt>
      <trkpt lat="43.74256" lon="7.28801">
        <ele>61</ele>
        <time>2024-01-31T18:22:12Z</time>
      </trkpt>
      <trkpt lat="43.74144" lon="7.2879">
        <ele>59</ele>
        <time>2024-01-31T18:22:29Z</time>
      </trkpt>
      <trkpt lat="43.74086" lon="7.28786">
        <ele>59</ele>
        <time>2024-01-31T18:22:37Z</time>
      </trkpt>
      <trkpt lat="43.74" lon="7.28774">
        <ele>57</ele>
        <time>2024-01-31T18:22:49Z</time>
      </trkpt>
      <trkpt lat="43.73976" lon="7.28766">
        <ele>57</ele>
        <time>2024-01-31T18:22:53Z</time>
      </trkpt>
      <trkpt lat="43.73957" lon="7.28748">
        <ele>57</ele>
        <time>2024-01-31T18:22:56Z</time>
      </trkpt>
      <trkpt lat="43.73953" lon="7.28741">
        <ele>56</ele>
        <time>2024-01-31T18:22:57Z</time>
      </trkpt>
      <trkpt lat="43.73946" lon="7.28739">
        <ele>56</ele>
        <time>2024-01-31T18:22:58Z</time>
      </trkpt>
      <trkpt lat="43.73942" lon="7.28742">
        <ele>56</ele>
        <time>2024-01-31T18:22:59Z</time>
      </trkpt>
      <trkpt lat="43.73933" lon="7.28736">
        <ele>56</ele>
        <time>2024-01-31T18:23:00Z</time>
      </trkpt>
      <trkpt lat="43.73867" lon="7.2871">
        <ele>54</ele>
        <time>2024-01-31T18:23:10Z</time>
      </trkpt>
      <trkpt lat="43.73847" lon="7.287">
        <ele>54</ele>
        <time>2024-01-31T18:23:13Z</time>
      </trkpt>
      <trkpt lat="43.73821" lon="7.28696">
        <ele>54</ele>
        <time>2024-01-31T18:23:17Z</time>
      </trkpt>
      <trkpt lat="43.73757" lon="7.28707">
        <ele>53</ele>
        <time>2024-01-31T18:23:26Z</time>
      </trkpt>
      <trkpt lat="43.73748" lon="7.28704">
        <ele>53</ele>
        <time>2024-01-31T18:23:28Z</time>
      </trkpt>
      <trkpt lat="43.73744" lon="7.28708">
        <ele>53</ele>
        <time>2024-01-31T18:23:29Z</time>
      </trkpt>
      <trkpt lat="43.73723" lon="7.28711">
        <ele>53</ele>
        <time>2024-01-31T18:23:32Z</time>
      </trkpt>
      <trkpt lat="43.7371" lon="7.28711">
        <ele>53</ele>
        <time>2024-01-31T18:23:34Z</time>
      </trkpt>
      <trkpt lat="43.73666" lon="7.28725">
        <ele>52</ele>
        <time>2024-01-31T18:23:41Z</time>
      </trkpt>
      <trkpt lat="43.73646" lon="7.2873">
        <ele>52</ele>
        <time>2024-01-31T18:23:44Z</time>
      </trkpt>
      <trkpt lat="43.73642" lon="7.28727">
        <ele>51</ele>
        <time>2024-01-31T18:23:45Z</time>
      </trkpt>
      <trkpt lat="43.73637" lon="7.28728">
        <ele>51</ele>
        <time>2024-01-31T18:23:46Z</time>
      </trkpt>
      <trkpt lat="43.73634" lon="7.28736">
        <ele>52</ele>
        <time>2024-01-31T18:23:47Z</time>
      </trkpt>
      <trkpt lat="43.73621" lon="7.28749">
        <ele>51</ele>
        <time>2024-01-31T18:23:50Z</time>
      </trkpt>
      <trkpt lat="43.73565" lon="7.28772">
        <ele>51</ele>
        <time>2024-01-31T18:24:02Z</time>
      </trkpt>
      <trkpt lat="43.73539" lon="7.28777">
        <ele>50</ele>
        <time>2024-01-31T18:24:08Z</time>
      </trkpt>
      <trkpt lat="43.73516" lon="7.28776">
        <ele>50</ele>
        <time>2024-01-31T18:24:12Z</time>
      </trkpt>
      <trkpt lat="43.73498" lon="7.28771">
        <ele>50</ele>
        <time>2024-01-31T18:24:15Z</time>
      </trkpt>
      <trkpt lat="43.73482" lon="7.28763">
        <ele>49</ele>
        <time>2024-01-31T18:24:18Z</time>
      </trkpt>
      <trkpt lat="43.73462" lon="7.28742">
        <ele>49</ele>
        <time>2024-01-31T18:24:23Z</time>
      </trkpt>
      <trkpt lat="43.73449" lon="7.2872">
        <ele>48</ele>
        <time>2024-01-31T18:24:27Z</time>
      </trkpt>
      <trkpt lat="43.73437" lon="7.28664">
        <ele>48</ele>
        <time>2024-01-31T18:24:34Z</time>
      </trkpt>
      <trkpt lat="43.73417" lon="7.28582">
        <ele>47</ele>
        <time>2024-01-31T18:24:44Z</time>
      </trkpt>
      <trkpt lat="43.73415" lon="7.28576">
        <ele>47</ele>
        <time>2024-01-31T18:24:45Z</time>
      </trkpt>
      <trkpt lat="43.73405" lon="7.28543">
        <ele>47</ele>
        <time>2024-01-31T18:24:48Z</time>
      </trkpt>
      <trkpt lat="43.73397" lon="7.28529">
        <ele>47</ele>
        <time>2024-01-31T18:24:50Z</time>
      </trkpt>
      <trkpt lat="43.7337" lon="7.28494">
        <ele>47</ele>
        <time>2024-01-31T18:24:55Z</time>
      </trkpt>
      <trkpt lat="43.7335" lon="7.28482">
        <ele>46</ele>
        <time>2024-01-31T18:24:58Z</time>
      </trkpt>
      <trkpt lat="43.73338" lon="7.2848">
        <ele>46</ele>
        <time>2024-01-31T18:24:59Z</time>
      </trkpt>
      <trkpt lat="43.73284" lon="7.28474">
        <ele>46</ele>
        <time>2024-01-31T18:25:07Z</time>
      </trkpt>
      <trkpt lat="43.73225" lon="7.28471">
        <ele>45</ele>
        <time>2024-01-31T18:25:15Z</time>
      </trkpt>
      <trkpt lat="43.73216" lon="7.28467">
        <ele>45</ele>
        <time>2024-01-31T18:25:16Z</time>
      </trkpt>
      <trkpt lat="43.73191" lon="7.28455">
        <ele>45</ele>
        <time>2024-01-31T18:25:19Z</time>
      </trkpt>
      <trkpt lat="43.73167" lon="7.28441">
        <ele>44</ele>
        <time>2024-01-31T18:25:23Z</time>
      </trkpt>
      <trkpt lat="43.73134" lon="7.28408">
        <ele>44</ele>
        <time>2024-01-31T18:25:29Z</time>
      </trkpt>
      <trkpt lat="43.73038" lon="7.28264">
        <ele>42</ele>
        <time>2024-01-31T18:25:51Z</time>
      </trkpt>
      <trkpt lat="43.73022" lon="7.28243">
        <ele>42</ele>
        <time>2024-01-31T18:25:54Z</time>
      </trkpt>
      <trkpt lat="43.73008" lon="7.2823">
        <ele>42</ele>
        <time>2024-01-31T18:25:57Z</time>
      </trkpt>
      <trkpt lat="43.72979" lon="7.28213">
        <ele>42</ele>
        <time>2024-01-31T18:26:03Z</time>
      </trkpt>
      <trkpt lat="43.72949" lon="7.28202">
        <ele>41</ele>
        <time>2024-01-31T18:26:08Z</time>
      </trkpt>
      <trkpt lat="43.72936" lon="7.28201">
        <ele>41</ele>
        <time>2024-01-31T18:26:11Z</time>
      </trkpt>
      <trkpt lat="43.72822" lon="7.28215">
        <ele>40</ele>
        <time>2024-01-31T18:26:36Z</time>
      </trkpt>
      <trkpt lat="43.7279" lon="7.28224">
        <ele>40</ele>
        <time>2024-01-31T18:26:44Z</time>
      </trkpt>
      <trkpt lat="43.72765" lon="7.28235">
        <ele>40</ele>
        <time>2024-01-31T18:26:51Z</time>
      </trkpt>
      <trkpt lat="43.72743" lon="7.2825">
        <ele>39</ele>
        <time>2024-01-31T18:26:56Z</time>
      </trkpt>
      <trkpt lat="43.72723" lon="7.28267">
        <ele>39</ele>
        <time>2024-01-31T18:27:01Z</time>
      </trkpt>
      <trkpt lat="43.72694" lon="7.28298">
        <ele>39</ele>
        <time>2024-01-31T18:27:07Z</time>
      </trkpt>
      <trkpt lat="43.72663" lon="7.28335">
        <ele>38</ele>
        <time>2024-01-31T18:27:14Z</time>
      </trkpt>
      <trkpt lat="43.72634" lon="7.28371">
        <ele>38</ele>
        <time>2024-01-31T18:27:21Z</time>
      </trkpt>
      <trkpt lat="43.72604" lon="7.28416">
        <ele>38</ele>
        <time>2024-01-31T18:27:27Z</time>
      </trkpt>
      <trkpt lat="43.72581" lon="7.28455">
        <ele>37</ele>
        <time>2024-01-31T18:27:33Z</time>
      </trkpt>
      <trkpt lat="43.72546" lon="7.2852">
        <ele>36</ele>
        <time>2024-01-31T18:27:42Z</time>
      </trkpt>
      <trkpt lat="43.72523" lon="7.28564">
        <ele>36</ele>
        <time>2024-01-31T18:27:49Z</time>
      </trkpt>
      <trkpt lat="43.72523" lon="7.28569">
        <ele>36</ele>
      </trkpt>
      <trkpt lat="43.7251" lon="7.28591">
        <ele>35</ele>
      </trkpt>
      <trkpt lat="43.725" lon="7.28607">
        <ele>35</ele>
      </trkpt>
      <trkpt lat="43.72489" lon="7.28621">
        <ele>35</ele>
      </trkpt>
      <trkpt lat="43.72487" lon="7.28623">
        <ele>35</ele>
      </trkpt>
      <trkpt lat="43.72485" lon="7.28625">
        <ele>35</ele>
      </trkpt>
      <trkpt lat="43.72482" lon="7.2862">
        <ele>35</ele>
      </trkpt>
      <trkpt lat="43.7248" lon="7.28617">
        <ele>35</ele>
      </trkpt>
      <trkpt lat="43.72477" lon="7.28615">
        <ele>35</ele>
      </trkpt>
      <trkpt lat="43.72442" lon="7.28604">
        <ele>34</ele>
      </trkpt>
      <trkpt lat="43.72416" lon="7.28596">
        <ele>33</ele>
      </trkpt>
      <trkpt lat="43.7239" lon="7.28589">
        <ele>33</ele>
      </trkpt>
      <trkpt lat="43.72381" lon="7.28643">
        <ele>34</ele>
      </trkpt>
      <trkpt lat="43.72376" lon="7.28677">
        <ele>32</ele>
      </trkpt>
      <trkpt lat="43.72371" lon="7.28712">
        <ele>34</ele>
      </trkpt>
      <trkpt lat="43.72359" lon="7.28716">
        <ele>33</ele>
      </trkpt>
      <trkpt lat="43.72348" lon="7.2872">
        <ele>33</ele>
      </trkpt>
      <trkpt lat="43.72343" lon="7.28721">
        <ele>33</ele>
      </trkpt>
      <trkpt lat="43.7233" lon="7.28723">
        <ele>34</ele>
      </trkpt>
      <trkpt lat="43.72318" lon="7.28726">
        <ele>34</ele>
      </trkpt>
      <trkpt lat="43.72316" lon="7.28748">
        <ele>33</ele>
      </trkpt>
      <trkpt lat="43.72314" lon="7.28769">
        <ele>32</ele>
      </trkpt>
      <trkpt lat="43.72314" lon="7.2877">
        <ele>32</ele>
      </trkpt>
      <trkpt lat="43.72308" lon="7.28829">
        <ele>29</ele>
      </trkpt>
      <trkpt lat="43.72307" lon="7.28834">
        <ele>29</ele>
      </trkpt>
      <trkpt lat="43.72307" lon="7.28838">
        <ele>30</ele>
      </trkpt>
      <trkpt lat="43.72306" lon="7.28848">
        <ele>31</ele>
      </trkpt>
      <trkpt lat="43.72304" lon="7.28861">
        <ele>33</ele>
      </trkpt>
      <trkpt lat="43.72304" lon="7.28867">
        <ele>33</ele>
      </trkpt>
      <trkpt lat="43.72301" lon="7.28894">
        <ele>34</ele>
      </trkpt>
      <trkpt lat="43.723" lon="7.28908">
        <ele>34</ele>
      </trkpt>
      <trkpt lat="43.72298" lon="7.28936">
        <ele>33</ele>
      </trkpt>
      <trkpt lat="43.72297" lon="7.28942">
        <ele>33</ele>
      </trkpt>
      <trkpt lat="43.72296" lon="7.28953">
        <ele>33</ele>
      </trkpt>
      <trkpt lat="43.72295" lon="7.28964">
        <ele>33</ele>
      </trkpt>
      <trkpt lat="43.72293" lon="7.28999">
        <ele>34</ele>
      </trkpt>
      <trkpt lat="43.72292" lon="7.29014">
        <ele>34</ele>
      </trkpt>
      <trkpt lat="43.7227" lon="7.29006">
        <ele>34</ele>
      </trkpt>
      <trkpt lat="43.72251" lon="7.29">
        <ele>34</ele>
      </trkpt>
      <trkpt lat="43.72249" lon="7.29">
        <ele>33</ele>
      </trkpt>
      <trkpt lat="43.72231" lon="7.2899">
        <ele>32</ele>
      </trkpt>
      <trkpt lat="43.7221" lon="7.28972">
        <ele>32</ele>
      </trkpt>
      <trkpt lat="43.72208" lon="7.2897">
        <ele>32</ele>
      </trkpt>
      <trkpt lat="43.72178" lon="7.28942">
        <ele>31</ele>
      </trkpt>
      <trkpt lat="43.72147" lon="7.28913">
        <ele>31</ele>
      </trkpt>
      <trkpt lat="43.7214" lon="7.28903">
        <ele>31</ele>
      </trkpt>
      <trkpt lat="43.72125" lon="7.2888">
        <ele>30</ele>
      </trkpt>
      <trkpt lat="43.72096" lon="7.28837">
        <ele>30</ele>
      </trkpt>
      <trkpt lat="43.72067" lon="7.28794">
        <ele>30</ele>
      </trkpt>
      <trkpt lat="43.72058" lon="7.28781">
        <ele>30</ele>
      </trkpt>
      <trkpt lat="43.72038" lon="7.28751">
        <ele>30</ele>
      </trkpt>
      <trkpt lat="43.72015" lon="7.28717">
        <ele>29</ele>
      </trkpt>
      <trkpt lat="43.72" lon="7.28692">
        <ele>29</ele>
      </trkpt>
      <trkpt lat="43.71994" lon="7.28683">
        <ele>29</ele>
      </trkpt>
      <trkpt lat="43.71974" lon="7.28648">
        <ele>29</ele>
      </trkpt>
      <trkpt lat="43.71968" lon="7.28636">
        <ele>29</ele>
      </trkpt>
      <trkpt lat="43.71956" lon="7.28615">
        <ele>29</ele>
      </trkpt>
      <trkpt lat="43.71937" lon="7.28588">
        <ele>28</ele>
      </trkpt>
      <trkpt lat="43.71919" lon="7.2856">
        <ele>28</ele>
      </trkpt>
      <trkpt lat="43.71903" lon="7.28536">
        <ele>28</ele>
      </trkpt>
      <trkpt lat="43.71888" lon="7.28512">
        <ele>28</ele>
      </trkpt>
      <trkpt lat="43.71877" lon="7.28494">
        <ele>27</ele>
      </trkpt>
      <trkpt lat="43.71873" lon="7.28485">
        <ele>27</ele>
      </trkpt>
      <trkpt lat="43.71872" lon="7.28484">
        <ele>27</ele>
      </trkpt>
      <trkpt lat="43.7187" lon="7.28479">
        <ele>27</ele>
      </trkpt>
      <trkpt lat="43.7187" lon="7.28479">
        <ele>27</ele>
      </trkpt>
      <trkpt lat="43.71868" lon="7.28475">
        <ele>27</ele>
      </trkpt>
      <trkpt lat="43.71863" lon="7.28467">
        <ele>27</ele>
      </trkpt>
      <trkpt lat="43.71835" lon="7.28418">
        <ele>27</ele>
      </trkpt>
      <trkpt lat="43.71812" lon="7.28381">
        <ele>27</ele>
      </trkpt>
      <trkpt lat="43.71785" lon="7.28341">
        <ele>26</ele>
      </trkpt>
      <trkpt lat="43.71768" lon="7.28323">
        <ele>26</ele>
      </trkpt>
      <trkpt lat="43.71754" lon="7.28311">
        <ele>26</ele>
      </trkpt>
      <trkpt lat="43.71732" lon="7.28295">
        <ele>26</ele>
      </trkpt>
      <trkpt lat="43.71726" lon="7.28291">
        <ele>26</ele>
      </trkpt>
      <trkpt lat="43.71714" lon="7.28285">
        <ele>25</ele>
      </trkpt>
      <trkpt lat="43.71706" lon="7.2828">
        <ele>24</ele>
      </trkpt>
      <trkpt lat="43.71683" lon="7.28273">
        <ele>24</ele>
      </trkpt>
      <trkpt lat="43.71679" lon="7.28272">
        <ele>24</ele>
      </trkpt>
      <trkpt lat="43.71662" lon="7.28266">
        <ele>25</ele>
      </trkpt>
      <trkpt lat="43.71642" lon="7.28262">
        <ele>25</ele>
      </trkpt>
      <trkpt lat="43.71634" lon="7.2826">
        <ele>25</ele>
      </trkpt>
      <trkpt lat="43.71624" lon="7.28259">
        <ele>25</ele>
      </trkpt>
      <trkpt lat="43.71621" lon="7.28258">
        <ele>25</ele>
      </trkpt>
      <trkpt lat="43.71619" lon="7.28258">
        <ele>25</ele>
      </trkpt>
      <trkpt lat="43.71591" lon="7.28257">
        <ele>24</ele>
      </trkpt>
      <trkpt lat="43.7159" lon="7.28257">
        <ele>24</ele>
      </trkpt>
      <trkpt lat="43.71553" lon="7.28264">
        <ele>24</ele>
      </trkpt>
      <trkpt lat="43.71547" lon="7.28265">
        <ele>24</ele>
      </trkpt>
      <trkpt lat="43.71509" lon="7.28281">
        <ele>23</ele>
      </trkpt>
      <trkpt lat="43.71508" lon="7.28281">
        <ele>23</ele>
      </trkpt>
      <trkpt lat="43.71486" lon="7.28294">
        <ele>23</ele>
      </trkpt>
      <trkpt lat="43.71475" lon="7.28303">
        <ele>23</ele>
      </trkpt>
      <trkpt lat="43.71452" lon="7.2832">
        <ele>23</ele>
      </trkpt>
      <trkpt lat="43.71444" lon="7.28326">
        <ele>23</ele>
      </trkpt>
      <trkpt lat="43.71435" lon="7.28332">
        <ele>23</ele>
      </trkpt>
      <trkpt lat="43.71431" lon="7.28337">
        <ele>23</ele>
      </trkpt>
      <trkpt lat="43.71417" lon="7.28347">
        <ele>23</ele>
      </trkpt>
      <trkpt lat="43.71408" lon="7.28355">
        <ele>22</ele>
      </trkpt>
      <trkpt lat="43.71399" lon="7.28361">
        <ele>22</ele>
      </trkpt>
      <trkpt lat="43.71388" lon="7.28368">
        <ele>22</ele>
      </trkpt>
      <trkpt lat="43.71376" lon="7.28377">
        <ele>22</ele>
      </trkpt>
      <trkpt lat="43.71346" lon="7.28387">
        <ele>22</ele>
      </trkpt>
      <trkpt lat="43.71342" lon="7.28389">
        <ele>22</ele>
      </trkpt>
      <trkpt lat="43.71311" lon="7.28396">
        <ele>22</ele>
      </trkpt>
      <trkpt lat="43.71298" lon="7.28399">
        <ele>21</ele>
      </trkpt>
      <trkpt lat="43.71288" lon="7.28401">
        <ele>21</ele>
      </trkpt>
      <trkpt lat="43.71284" lon="7.28402">
        <ele>21</ele>
      </trkpt>
      <trkpt lat="43.71282" lon="7.284">
        <ele>21</ele>
      </trkpt>
      <trkpt lat="43.71279" lon="7.28397">
        <ele>21</ele>
      </trkpt>
      <trkpt lat="43.71276" lon="7.28395">
        <ele>21</ele>
      </trkpt>
      <trkpt lat="43.71268" lon="7.28396">
        <ele>21</ele>
      </trkpt>
      <trkpt lat="43.71229" lon="7.28405">
        <ele>20</ele>
      </trkpt>
      <trkpt lat="43.71191" lon="7.28413">
        <ele>20</ele>
      </trkpt>
      <trkpt lat="43.71187" lon="7.28418">
        <ele>20</ele>
      </trkpt>
      <trkpt lat="43.71186" lon="7.28424">
        <ele>20</ele>
      </trkpt>
      <trkpt lat="43.71171" lon="7.28426">
        <ele>20</ele>
      </trkpt>
      <trkpt lat="43.71168" lon="7.28426">
        <ele>20</ele>
      </trkpt>
      <trkpt lat="43.71164" lon="7.28426">
        <ele>20</ele>
      </trkpt>
      <trkpt lat="43.71142" lon="7.28427">
        <ele>20</ele>
      </trkpt>
      <trkpt lat="43.71129" lon="7.28426">
        <ele>20</ele>
      </trkpt>
      <trkpt lat="43.71105" lon="7.28425">
        <ele>20</ele>
      </trkpt>
      <trkpt lat="43.71091" lon="7.28424">
        <ele>20</ele>
      </trkpt>
      <trkpt lat="43.71051" lon="7.28423">
        <ele>19</ele>
      </trkpt>
      <trkpt lat="43.71043" lon="7.28421">
        <ele>19</ele>
      </trkpt>
      <trkpt lat="43.71012" lon="7.28413">
        <ele>19</ele>
      </trkpt>
      <trkpt lat="43.7098" lon="7.28402">
        <ele>19</ele>
      </trkpt>
      <trkpt lat="43.70952" lon="7.28391">
        <ele>18</ele>
      </trkpt>
      <trkpt lat="43.70921" lon="7.28382">
        <ele>18</ele>
      </trkpt>
      <trkpt lat="43.70913" lon="7.28379">
        <ele>18</ele>
      </trkpt>
      <trkpt lat="43.70888" lon="7.2837">
        <ele>17</ele>
      </trkpt>
      <trkpt lat="43.70863" lon="7.28362">
        <ele>17</ele>
      </trkpt>
      <trkpt lat="43.7086" lon="7.28361">
        <ele>17</ele>
      </trkpt>
      <trkpt lat="43.7086" lon="7.28354">
        <ele>17</ele>
      </trkpt>
      <trkpt lat="43.70858" lon="7.2835">
        <ele>17</ele>
      </trkpt>
      <trkpt lat="43.70856" lon="7.28348">
        <ele>17</ele>
      </trkpt>
      <trkpt lat="43.70815" lon="7.28333">
        <ele>17</ele>
      </trkpt>
      <trkpt lat="43.70811" lon="7.28334">
        <ele>17</ele>
      </trkpt>
      <trkpt lat="43.70806" lon="7.28341">
        <ele>17</ele>
      </trkpt>
      <trkpt lat="43.70802" lon="7.28339">
        <ele>17</ele>
      </trkpt>
      <trkpt lat="43.708" lon="7.28341">
        <ele>17</ele>
      </trkpt>
      <trkpt lat="43.70797" lon="7.28342">
        <ele>17</ele>
      </trkpt>
      <trkpt lat="43.70793" lon="7.28342">
        <ele>17</ele>
      </trkpt>
      <trkpt lat="43.70784" lon="7.28339">
        <ele>17</ele>
      </trkpt>
      <trkpt lat="43.70744" lon="7.28321">
        <ele>16</ele>
      </trkpt>
      <trkpt lat="43.70721" lon="7.28308">
        <ele>16</ele>
      </trkpt>
      <trkpt lat="43.70698" lon="7.2829">
        <ele>16</ele>
      </trkpt>
      <trkpt lat="43.70664" lon="7.28276">
        <ele>16</ele>
      </trkpt>
      <trkpt lat="43.70649" lon="7.28267">
        <ele>16</ele>
      </trkpt>
      <trkpt lat="43.70625" lon="7.28254">
        <ele>15</ele>
      </trkpt>
      <trkpt lat="43.7061" lon="7.2824">
        <ele>15</ele>
      </trkpt>
      <trkpt lat="43.70595" lon="7.28231">
        <ele>15</ele>
      </trkpt>
      <trkpt lat="43.70582" lon="7.28223">
        <ele>15</ele>
      </trkpt>
      <trkpt lat="43.70573" lon="7.28217">
        <ele>15</ele>
      </trkpt>
      <trkpt lat="43.70551" lon="7.28203">
        <ele>15</ele>
      </trkpt>
      <trkpt lat="43.70523" lon="7.28185">
        <ele>15</ele>
      </trkpt>
      <trkpt lat="43.70495" lon="7.28167">
        <ele>14</ele>
      </trkpt>
      <trkpt lat="43.7047" lon="7.28149">
        <ele>14</ele>
      </trkpt>
      <trkpt lat="43.70444" lon="7.28132">
        <ele>14</ele>
      </trkpt>
      <trkpt lat="43.70422" lon="7.28117">
        <ele>15</ele>
      </trkpt>
      <trkpt lat="43.70392" lon="7.28095">
        <ele>14</ele>
      </trkpt>
      <trkpt lat="43.70361" lon="7.28073">
        <ele>14</ele>
      </trkpt>
      <trkpt lat="43.70337" lon="7.28056">
        <ele>13</ele>
      </trkpt>
      <trkpt lat="43.70322" lon="7.28045">
        <ele>13</ele>
      </trkpt>
      <trkpt lat="43.70313" lon="7.28038">
        <ele>13</ele>
      </trkpt>
      <trkpt lat="43.70296" lon="7.28022">
        <ele>13</ele>
      </trkpt>
      <trkpt lat="43.70274" lon="7.28007">
        <ele>13</ele>
      </trkpt>
      <trkpt lat="43.70274" lon="7.27995">
        <ele>13</ele>
      </trkpt>
      <trkpt lat="43.70274" lon="7.27992">
        <ele>13</ele>
      </trkpt>
      <trkpt lat="43.70277" lon="7.27982">
        <ele>13</ele>
      </trkpt>
      <trkpt lat="43.70277" lon="7.27981">
        <ele>13</ele>
      </trkpt>
      <trkpt lat="43.7029" lon="7.2794">
        <ele>14</ele>
      </trkpt>
      <trkpt lat="43.70302" lon="7.27898">
        <ele>13</ele>
      </trkpt>
      <trkpt lat="43.70287" lon="7.27886">
        <ele>13</ele>
      </trkpt>
      <trkpt lat="43.70252" lon="7.27861">
        <ele>12</ele>
      </trkpt>
      <trkpt lat="43.70252" lon="7.27861">
        <ele>12</ele>
      </trkpt>
      <trkpt lat="43.70216" lon="7.27836">
        <ele>11</ele>
      </trkpt>
      <trkpt lat="43.70209" lon="7.27832">
        <ele>11</ele>
      </trkpt>
      <trkpt lat="43.70186" lon="7.27817">
        <ele>12</ele>
      </trkpt>
      <trkpt lat="43.70163" lon="7.27802">
        <ele>12</ele>
      </trkpt>
      <trkpt lat="43.70153" lon="7.27804">
        <ele>12</ele>
      </trkpt>
      <trkpt lat="43.70125" lon="7.27785">
        <ele>11</ele>
      </trkpt>
      <trkpt lat="43.70098" lon="7.27765">
        <ele>11</ele>
      </trkpt>
      <trkpt lat="43.70072" lon="7.27748">
        <ele>11</ele>
      </trkpt>
      <trkpt lat="43.70046" lon="7.27731">
        <ele>10</ele>
      </trkpt>
      <trkpt lat="43.70043" lon="7.27727">
        <ele>10</ele>
      </trkpt>
      <trkpt lat="43.70035" lon="7.2772">
        <ele>11</ele>
      </trkpt>
      <trkpt lat="43.70031" lon="7.27718">
        <ele>11</ele>
      </trkpt>
      <trkpt lat="43.70027" lon="7.27715">
        <ele>11</ele>
      </trkpt>
      <trkpt lat="43.70022" lon="7.27712">
        <ele>11</ele>
      </trkpt>
      <trkpt lat="43.70018" lon="7.27709">
        <ele>11</ele>
      </trkpt>
      <trkpt lat="43.70013" lon="7.27706">
        <ele>10</ele>
      </trkpt>
      <trkpt lat="43.70008" lon="7.27702">
        <ele>10</ele>
      </trkpt>
      <trkpt lat="43.70002" lon="7.27699">
        <ele>10</ele>
      </trkpt>
      <trkpt lat="43.69997" lon="7.27696">
        <ele>10</ele>
      </trkpt>
      <trkpt lat="43.69991" lon="7.27692">
        <ele>10</ele>
      </trkpt>
      <trkpt lat="43.69979" lon="7.27684">
        <ele>10</ele>
      </trkpt>
      <trkpt lat="43.69971" lon="7.27679">
        <ele>10</ele>
      </trkpt>
      <trkpt lat="43.69966" lon="7.27676">
        <ele>10</ele>
      </trkpt>
      <trkpt lat="43.69954" lon="7.27667">
        <ele>10</ele>
      </trkpt>
      <trkpt lat="43.69941" lon="7.27659">
        <ele>10</ele>
      </trkpt>
      <trkpt lat="43.69935" lon="7.27654">
        <ele>10</ele>
      </trkpt>
      <trkpt lat="43.69924" lon="7.27645">
        <ele>10</ele>
      </trkpt>
      <trkpt lat="43.69917" lon="7.27637">
        <ele>10</ele>
      </trkpt>
      <trkpt lat="43.69916" lon="7.27636">
        <ele>10</ele>
      </trkpt>
      <trkpt lat="43.6991" lon="7.2763">
        <ele>11</ele>
      </trkpt>
      <trkpt lat="43.69909" lon="7.27629">
        <ele>11</ele>
      </trkpt>
      <trkpt lat="43.69905" lon="7.27624">
        <ele>11</ele>
      </trkpt>
      <trkpt lat="43.69897" lon="7.27614">
        <ele>10</ele>
      </trkpt>
      <trkpt lat="43.69891" lon="7.27603">
        <ele>10</ele>
      </trkpt>
      <trkpt lat="43.69888" lon="7.276">
        <ele>10</ele>
      </trkpt>
      <trkpt lat="43.69884" lon="7.27591">
        <ele>10</ele>
      </trkpt>
      <trkpt lat="43.69876" lon="7.27571">
        <ele>10</ele>
      </trkpt>
      <trkpt lat="43.69872" lon="7.27561">
        <ele>10</ele>
      </trkpt>
      <trkpt lat="43.69867" lon="7.27542">
        <ele>10</ele>
      </trkpt>
      <trkpt lat="43.69863" lon="7.27525">
        <ele>10</ele>
      </trkpt>
      <trkpt lat="43.69861" lon="7.27516">
        <ele>9</ele>
      </trkpt>
      <trkpt lat="43.6986" lon="7.27512">
        <ele>9</ele>
      </trkpt>
      <trkpt lat="43.69859" lon="7.27507">
        <ele>9</ele>
      </trkpt>
      <trkpt lat="43.69857" lon="7.27498">
        <ele>9</ele>
      </trkpt>
      <trkpt lat="43.69856" lon="7.27493">
        <ele>9</ele>
      </trkpt>
      <trkpt lat="43.69855" lon="7.27491">
        <ele>9</ele>
      </trkpt>
      <trkpt lat="43.69855" lon="7.2749">
        <ele>9</ele>
      </trkpt>
      <trkpt lat="43.69854" lon="7.27487">
        <ele>9</ele>
      </trkpt>
      <trkpt lat="43.69853" lon="7.27483">
        <ele>9</ele>
      </trkpt>
      <trkpt lat="43.69851" lon="7.27477">
        <ele>9</ele>
      </trkpt>
      <trkpt lat="43.6985" lon="7.27471">
        <ele>9</ele>
      </trkpt>
      <trkpt lat="43.69847" lon="7.27459">
        <ele>9</ele>
      </trkpt>
      <trkpt lat="43.69846" lon="7.27454">
        <ele>9</ele>
      </trkpt>
      <trkpt lat="43.69844" lon="7.27444">
        <ele>9</ele>
      </trkpt>
      <trkpt lat="43.69841" lon="7.27434">
        <ele>9</ele>
      </trkpt>
      <trkpt lat="43.6984" lon="7.27429">
        <ele>9</ele>
      </trkpt>
      <trkpt lat="43.69839" lon="7.27419">
        <ele>8</ele>
      </trkpt>
      <trkpt lat="43.69836" lon="7.27414">
        <ele>8</ele>
      </trkpt>
      <trkpt lat="43.69832" lon="7.27398">
        <ele>8</ele>
      </trkpt>
      <trkpt lat="43.69827" lon="7.27379">
        <ele>8</ele>
      </trkpt>
      <trkpt lat="43.69818" lon="7.27342">
        <ele>8</ele>
      </trkpt>
      <trkpt lat="43.69809" lon="7.27306">
        <ele>8</ele>
      </trkpt>
      <trkpt lat="43.69807" lon="7.27296">
        <ele>8</ele>
      </trkpt>
      <trkpt lat="43.69805" lon="7.27287">
        <ele>7</ele>
      </trkpt>
      <trkpt lat="43.69802" lon="7.27279">
        <ele>7</ele>
      </trkpt>
      <trkpt lat="43.69802" lon="7.27278">
        <ele>7</ele>
      </trkpt>
      <trkpt lat="43.698" lon="7.27267">
        <ele>7</ele>
      </trkpt>
      <trkpt lat="43.69797" lon="7.27257">
        <ele>7</ele>
      </trkpt>
      <trkpt lat="43.69794" lon="7.27245">
        <ele>7</ele>
      </trkpt>
      <trkpt lat="43.69787" lon="7.27215">
        <ele>7</ele>
      </trkpt>
      <trkpt lat="43.69783" lon="7.27197">
        <ele>7</ele>
      </trkpt>
      <trkpt lat="43.69783" lon="7.27195">
        <ele>7</ele>
      </trkpt>
      <trkpt lat="43.69781" lon="7.27189">
        <ele>7</ele>
      </trkpt>
      <trkpt lat="43.69776" lon="7.27173">
        <ele>7</ele>
      </trkpt>
      <trkpt lat="43.69764" lon="7.27127">
        <ele>7</ele>
      </trkpt>
      <trkpt lat="43.69753" lon="7.2708">
        <ele>8</ele>
      </trkpt>
      <trkpt lat="43.69741" lon="7.27046">
        <ele>8</ele>
      </trkpt>
      <trkpt lat="43.69731" lon="7.27014">
        <ele>9</ele>
      </trkpt>
      <trkpt lat="43.6972" lon="7.26982">
        <ele>9</ele>
      </trkpt>
      <trkpt lat="43.6971" lon="7.26952">
        <ele>8</ele>
      </trkpt>
      <trkpt lat="43.69692" lon="7.26912">
        <ele>7</ele>
      </trkpt>
      <trkpt lat="43.6968" lon="7.26884">
        <ele>7</ele>
      </trkpt>
      <trkpt lat="43.69668" lon="7.26855">
        <ele>6</ele>
      </trkpt>
      <trkpt lat="43.69667" lon="7.26852">
        <ele>6</ele>
      </trkpt>
      <trkpt lat="43.69664" lon="7.26844">
        <ele>6</ele>
      </trkpt>
      <trkpt lat="43.69659" lon="7.26833">
        <ele>6</ele>
      </trkpt>
      <trkpt lat="43.69653" lon="7.2682">
        <ele>6</ele>
      </trkpt>
      <trkpt lat="43.69648" lon="7.26807">
        <ele>5</ele>
      </trkpt>
      <trkpt lat="43.69643" lon="7.26794">
        <ele>5</ele>
      </trkpt>
      <trkpt lat="43.6964" lon="7.26788">
        <ele>5</ele>
      </trkpt>
      <trkpt lat="43.6963" lon="7.26766">
        <ele>4</ele>
      </trkpt>
      <trkpt lat="43.69625" lon="7.26752">
        <ele>5</ele>
      </trkpt>
      <trkpt lat="43.69618" lon="7.26737">
        <ele>5</ele>
      </trkpt>
      <trkpt lat="43.69611" lon="7.26721">
        <ele>5</ele>
      </trkpt>
      <trkpt lat="43.69609" lon="7.26716">
        <ele>4</ele>
      </trkpt>
      <trkpt lat="43.69611" lon="7.26721">
        <ele>5</ele>
      </trkpt>
      <trkpt lat="43.69618" lon="7.26737">
        <ele>5</ele>
      </trkpt>
      <trkpt lat="43.69625" lon="7.26752">
        <ele>5</ele>
      </trkpt>
      <trkpt lat="43.6963" lon="7.26766">
        <ele>4</ele>
      </trkpt>
      <trkpt lat="43.6964" lon="7.26788">
        <ele>5</ele>
      </trkpt>
      <trkpt lat="43.69643" lon="7.26794">
        <ele>5</ele>
      </trkpt>
      <trkpt lat="43.69648" lon="7.26807">
        <ele>5</ele>
      </trkpt>
      <trkpt lat="43.69653" lon="7.2682">
        <ele>6</ele>
      </trkpt>
      <trkpt lat="43.69659" lon="7.26833">
        <ele>6</ele>
      </trkpt>
      <trkpt lat="43.69664" lon="7.26844">
        <ele>6</ele>
      </trkpt>
      <trkpt lat="43.69667" lon="7.26852">
        <ele>6</ele>
      </trkpt>
      <trkpt lat="43.69668" lon="7.26855">
        <ele>6</ele>
      </trkpt>
      <trkpt lat="43.6968" lon="7.26884">
        <ele>7</ele>
      </trkpt>
      <trkpt lat="43.69692" lon="7.26912">
        <ele>7</ele>
      </trkpt>
      <trkpt lat="43.6971" lon="7.26952">
        <ele>8</ele>
      </trkpt>
      <trkpt lat="43.6972" lon="7.26982">
        <ele>9</ele>
      </trkpt>
      <trkpt lat="43.69731" lon="7.27014">
        <ele>9</ele>
      </trkpt>
      <trkpt lat="43.69741" lon="7.27046">
        <ele>8</ele>
      </trkpt>
      <trkpt lat="43.69753" lon="7.2708">
        <ele>8</ele>
      </trkpt>
      <trkpt lat="43.69764" lon="7.27127">
        <ele>7</ele>
      </trkpt>
      <trkpt lat="43.69776" lon="7.27173">
        <ele>7</ele>
      </trkpt>
      <trkpt lat="43.69781" lon="7.27189">
        <ele>7</ele>
      </trkpt>
      <trkpt lat="43.69783" lon="7.27195">
        <ele>7</ele>
      </trkpt>
      <trkpt lat="43.69787" lon="7.27194">
        <ele>7</ele>
      </trkpt>
      <trkpt lat="43.6978" lon="7.27166">
        <ele>7</ele>
      </trkpt>
      <trkpt lat="43.69767" lon="7.27117">
        <ele>7</ele>
      </trkpt>
      <trkpt lat="43.69755" lon="7.27069">
        <ele>8</ele>
      </trkpt>
      <trkpt lat="43.69743" lon="7.27035">
        <ele>8</ele>
      </trkpt>
      <trkpt lat="43.6974" lon="7.27025">
        <ele>8</ele>
      </trkpt>
      <trkpt lat="43.69731" lon="7.26998">
        <ele>9</ele>
      </trkpt>
      <trkpt lat="43.69726" lon="7.26979">
        <ele>8</ele>
      </trkpt>
      <trkpt lat="43.69722" lon="7.26967">
        <ele>8</ele>
      </trkpt>
      <trkpt lat="43.69716" lon="7.26952">
        <ele>7</ele>
      </trkpt>
      <trkpt lat="43.69701" lon="7.26918">
        <ele>7</ele>
      </trkpt>
      <trkpt lat="43.69683" lon="7.26879">
        <ele>6</ele>
      </trkpt>
      <trkpt lat="43.69667" lon="7.26841">
        <ele>6</ele>
      </trkpt>
      <trkpt lat="43.69652" lon="7.26803">
        <ele>5</ele>
      </trkpt>
      <trkpt lat="43.69636" lon="7.26765">
        <ele>4</ele>
      </trkpt>
      <trkpt lat="43.69633" lon="7.26757">
        <ele>4</ele>
      </trkpt>
      <trkpt lat="43.6962" lon="7.26725">
        <ele>5</ele>
      </trkpt>
      <trkpt lat="43.69616" lon="7.26717">
        <ele>4</ele>
      </trkpt>
      <trkpt lat="43.69612" lon="7.2671">
        <ele>4</ele>
      </trkpt>
      <trkpt lat="43.69598" lon="7.2669">
        <ele>4</ele>
      </trkpt>
      <trkpt lat="43.6959" lon="7.26681">
        <ele>4</ele>
      </trkpt>
      <trkpt lat="43.69578" lon="7.26672">
        <ele>4</ele>
      </trkpt>
      <trkpt lat="43.69553" lon="7.26653">
        <ele>4</ele>
      </trkpt>
      <trkpt lat="43.69534" lon="7.26641">
        <ele>4</ele>
      </trkpt>
      <trkpt lat="43.69521" lon="7.26638">
        <ele>5</ele>
      </trkpt>
      <trkpt lat="43.69511" lon="7.26638">
        <ele>5</ele>
      </trkpt>
      <trkpt lat="43.69504" lon="7.2664">
        <ele>5</ele>
      </trkpt>
      <trkpt lat="43.69497" lon="7.26646">
        <ele>5</ele>
      </trkpt>
      <trkpt lat="43.69495" lon="7.26653">
        <ele>5</ele>
      </trkpt>
      <trkpt lat="43.69494" lon="7.26657">
        <ele>5</ele>
      </trkpt>
      <trkpt lat="43.69484" lon="7.26654">
        <ele>4</ele>
      </trkpt>
      <trkpt lat="43.69484" lon="7.26649">
        <ele>4</ele>
      </trkpt>
      <trkpt lat="43.69484" lon="7.26644">
        <ele>4</ele>
      </trkpt>
    </trkseg>
  </trk>
</gpx>